<?xml version="1.0" encoding="UTF-8" standalone="no" ?>
<gpx xmlns="http://www.topografix.com/GPX/1/1" xmlns:xsi="http://www.w3.org/2001/XMLSchema-instance" xsi:schemaLocation="http://www.topografix.com/GPX/1/1 http://www.topografix.com/GPX/1/1/gpx.xsd" version="1.1" creator="VisuGPX - https://www.visugpx.com">
  <metadata>
    <name>2025 St Pierre -Bregnier Cordon étape 1</name>
    <desc><![CDATA[Au départ de la maison.
Étape sans difficulté.
Arrivée gîte des sables.]]></desc>
  </metadata>
  <trk>
    <name><![CDATA[SityTrail - 2025 Verignin J1]]></name>
    <trkseg>
      <trkpt lat="45.62641" lon="5.7265">
        <ele>662</ele>
        <time>2025-05-01T08:05:53.229+00:00</time>
      </trkpt>
      <trkpt lat="45.62636" lon="5.72641">
        <ele>662</ele>
        <time>2025-05-01T08:10:53.252+00:00</time>
      </trkpt>
      <trkpt lat="45.62635" lon="5.72641">
        <ele>662</ele>
        <time>2025-05-01T08:10:58.247+00:00</time>
      </trkpt>
      <trkpt lat="45.62635" lon="5.72641">
        <ele>662</ele>
        <time>2025-05-01T08:11:03.229+00:00</time>
      </trkpt>
      <trkpt lat="45.62634" lon="5.72639">
        <ele>662</ele>
        <time>2025-05-01T08:11:07.249+00:00</time>
      </trkpt>
      <trkpt lat="45.62634" lon="5.72637">
        <ele>662</ele>
        <time>2025-05-01T08:11:11.255+00:00</time>
      </trkpt>
      <trkpt lat="45.62632" lon="5.72638">
        <ele>662</ele>
        <time>2025-05-01T08:12:02.250+00:00</time>
      </trkpt>
      <trkpt lat="45.62632" lon="5.72639">
        <ele>662</ele>
        <time>2025-05-01T08:12:08.245+00:00</time>
      </trkpt>
      <trkpt lat="45.62631" lon="5.72643">
        <ele>662</ele>
        <time>2025-05-01T08:12:13.248+00:00</time>
      </trkpt>
      <trkpt lat="45.62631" lon="5.72646">
        <ele>662</ele>
        <time>2025-05-01T08:12:17.253+00:00</time>
      </trkpt>
      <trkpt lat="45.62631" lon="5.72647">
        <ele>662</ele>
        <time>2025-05-01T08:12:22.248+00:00</time>
      </trkpt>
      <trkpt lat="45.62632" lon="5.72646">
        <ele>662</ele>
        <time>2025-05-01T08:14:27.251+00:00</time>
      </trkpt>
      <trkpt lat="45.62633" lon="5.72644">
        <ele>662</ele>
        <time>2025-05-01T08:14:31.263+00:00</time>
      </trkpt>
      <trkpt lat="45.62634" lon="5.72643">
        <ele>662</ele>
        <time>2025-05-01T08:14:36.267+00:00</time>
      </trkpt>
      <trkpt lat="45.62635" lon="5.72643">
        <ele>662</ele>
        <time>2025-05-01T08:14:41.263+00:00</time>
      </trkpt>
      <trkpt lat="45.62636" lon="5.72643">
        <ele>662</ele>
        <time>2025-05-01T08:14:47.255+00:00</time>
      </trkpt>
      <trkpt lat="45.62636" lon="5.72645">
        <ele>662</ele>
        <time>2025-05-01T08:20:54.203+00:00</time>
      </trkpt>
      <trkpt lat="45.62637" lon="5.72643">
        <ele>662</ele>
        <time>2025-05-01T08:20:58.207+00:00</time>
      </trkpt>
      <trkpt lat="45.62638" lon="5.7264">
        <ele>662</ele>
        <time>2025-05-01T08:21:02.215+00:00</time>
      </trkpt>
      <trkpt lat="45.62644" lon="5.72635">
        <ele>662</ele>
        <time>2025-05-01T08:21:06.258+00:00</time>
      </trkpt>
      <trkpt lat="45.6265" lon="5.72628">
        <ele>662</ele>
        <time>2025-05-01T08:21:11.252+00:00</time>
      </trkpt>
      <trkpt lat="45.62652" lon="5.72622">
        <ele>668</ele>
        <time>2025-05-01T08:22:07.254+00:00</time>
      </trkpt>
      <trkpt lat="45.62651" lon="5.72619">
        <ele>668</ele>
        <time>2025-05-01T08:22:12.252+00:00</time>
      </trkpt>
      <trkpt lat="45.6265" lon="5.72619">
        <ele>668</ele>
        <time>2025-05-01T08:22:16.261+00:00</time>
      </trkpt>
      <trkpt lat="45.62645" lon="5.72619">
        <ele>668</ele>
        <time>2025-05-01T08:22:20.261+00:00</time>
      </trkpt>
      <trkpt lat="45.62638" lon="5.7262">
        <ele>668</ele>
        <time>2025-05-01T08:22:25.257+00:00</time>
      </trkpt>
      <trkpt lat="45.6263" lon="5.72622">
        <ele>668</ele>
        <time>2025-05-01T08:22:30.256+00:00</time>
      </trkpt>
      <trkpt lat="45.62623" lon="5.72623">
        <ele>670</ele>
        <time>2025-05-01T08:22:35.260+00:00</time>
      </trkpt>
      <trkpt lat="45.62616" lon="5.72625">
        <ele>664</ele>
        <time>2025-05-01T08:22:40.265+00:00</time>
      </trkpt>
      <trkpt lat="45.62609" lon="5.72626">
        <ele>664</ele>
        <time>2025-05-01T08:22:45.257+00:00</time>
      </trkpt>
      <trkpt lat="45.62603" lon="5.72626">
        <ele>664</ele>
        <time>2025-05-01T08:22:50.258+00:00</time>
      </trkpt>
      <trkpt lat="45.62596" lon="5.72628">
        <ele>665</ele>
        <time>2025-05-01T08:22:55.257+00:00</time>
      </trkpt>
      <trkpt lat="45.62591" lon="5.7263">
        <ele>665</ele>
        <time>2025-05-01T08:22:59.523+00:00</time>
      </trkpt>
      <trkpt lat="45.62585" lon="5.7263">
        <ele>665</ele>
        <time>2025-05-01T08:23:04.241+00:00</time>
      </trkpt>
      <trkpt lat="45.62579" lon="5.72632">
        <ele>665</ele>
        <time>2025-05-01T08:23:08.622+00:00</time>
      </trkpt>
      <trkpt lat="45.62575" lon="5.72631">
        <ele>665</ele>
        <time>2025-05-01T08:23:12.922+00:00</time>
      </trkpt>
      <trkpt lat="45.6257" lon="5.72631">
        <ele>665</ele>
        <time>2025-05-01T08:23:17.102+00:00</time>
      </trkpt>
      <trkpt lat="45.62565" lon="5.72632">
        <ele>667</ele>
        <time>2025-05-01T08:23:21.258+00:00</time>
      </trkpt>
      <trkpt lat="45.62559" lon="5.72634">
        <ele>667</ele>
        <time>2025-05-01T08:23:25.461+00:00</time>
      </trkpt>
      <trkpt lat="45.62554" lon="5.72634">
        <ele>667</ele>
        <time>2025-05-01T08:23:29.858+00:00</time>
      </trkpt>
      <trkpt lat="45.62548" lon="5.72634">
        <ele>667</ele>
        <time>2025-05-01T08:23:34.160+00:00</time>
      </trkpt>
      <trkpt lat="45.62543" lon="5.72631">
        <ele>667</ele>
        <time>2025-05-01T08:23:38.255+00:00</time>
      </trkpt>
      <trkpt lat="45.62538" lon="5.7263">
        <ele>670</ele>
        <time>2025-05-01T08:23:56.275+00:00</time>
      </trkpt>
      <trkpt lat="45.62545" lon="5.72626">
        <ele>667</ele>
        <time>2025-05-01T08:24:01.017+00:00</time>
      </trkpt>
      <trkpt lat="45.6255" lon="5.72623">
        <ele>675</ele>
        <time>2025-05-01T08:24:05.260+00:00</time>
      </trkpt>
      <trkpt lat="45.62556" lon="5.72622">
        <ele>675</ele>
        <time>2025-05-01T08:24:09.796+00:00</time>
      </trkpt>
      <trkpt lat="45.6256" lon="5.7262">
        <ele>675</ele>
        <time>2025-05-01T08:24:13.956+00:00</time>
      </trkpt>
      <trkpt lat="45.6257" lon="5.72615">
        <ele>672</ele>
        <time>2025-05-01T08:24:58.996+00:00</time>
      </trkpt>
      <trkpt lat="45.62571" lon="5.72614">
        <ele>672</ele>
        <time>2025-05-01T08:25:03.267+00:00</time>
      </trkpt>
      <trkpt lat="45.62572" lon="5.72614">
        <ele>672</ele>
        <time>2025-05-01T08:25:08.026+00:00</time>
      </trkpt>
      <trkpt lat="45.62572" lon="5.72613">
        <ele>672</ele>
        <time>2025-05-01T08:25:12.823+00:00</time>
      </trkpt>
      <trkpt lat="45.62573" lon="5.72612">
        <ele>672</ele>
        <time>2025-05-01T08:25:17.324+00:00</time>
      </trkpt>
      <trkpt lat="45.62574" lon="5.72609">
        <ele>672</ele>
        <time>2025-05-01T08:26:00.621+00:00</time>
      </trkpt>
      <trkpt lat="45.62575" lon="5.7261">
        <ele>672</ele>
        <time>2025-05-01T08:26:05.204+00:00</time>
      </trkpt>
      <trkpt lat="45.62575" lon="5.7261">
        <ele>672</ele>
        <time>2025-05-01T08:26:09.839+00:00</time>
      </trkpt>
      <trkpt lat="45.62576" lon="5.72609">
        <ele>672</ele>
        <time>2025-05-01T08:26:14.359+00:00</time>
      </trkpt>
      <trkpt lat="45.62586" lon="5.72598">
        <ele>672</ele>
        <time>2025-05-01T08:26:19.253+00:00</time>
      </trkpt>
      <trkpt lat="45.62591" lon="5.72594">
        <ele>680</ele>
        <time>2025-05-01T08:26:24.241+00:00</time>
      </trkpt>
      <trkpt lat="45.62595" lon="5.72592">
        <ele>680</ele>
        <time>2025-05-01T08:26:28.250+00:00</time>
      </trkpt>
      <trkpt lat="45.626" lon="5.72587">
        <ele>677</ele>
        <time>2025-05-01T08:26:33.249+00:00</time>
      </trkpt>
      <trkpt lat="45.62605" lon="5.72583">
        <ele>677</ele>
        <time>2025-05-01T08:26:37.257+00:00</time>
      </trkpt>
      <trkpt lat="45.62612" lon="5.72578">
        <ele>677</ele>
        <time>2025-05-01T08:26:42.252+00:00</time>
      </trkpt>
      <trkpt lat="45.62618" lon="5.72574">
        <ele>677</ele>
        <time>2025-05-01T08:26:47.240+00:00</time>
      </trkpt>
      <trkpt lat="45.62624" lon="5.72572">
        <ele>677</ele>
        <time>2025-05-01T08:26:52.237+00:00</time>
      </trkpt>
      <trkpt lat="45.62631" lon="5.72569">
        <ele>680</ele>
        <time>2025-05-01T08:26:56.700+00:00</time>
      </trkpt>
      <trkpt lat="45.62638" lon="5.72565">
        <ele>680</ele>
        <time>2025-05-01T08:27:01.217+00:00</time>
      </trkpt>
      <trkpt lat="45.62644" lon="5.72556">
        <ele>680</ele>
        <time>2025-05-01T08:27:05.597+00:00</time>
      </trkpt>
      <trkpt lat="45.62647" lon="5.72549">
        <ele>680</ele>
        <time>2025-05-01T08:27:09.716+00:00</time>
      </trkpt>
      <trkpt lat="45.62651" lon="5.72543">
        <ele>680</ele>
        <time>2025-05-01T08:27:13.736+00:00</time>
      </trkpt>
      <trkpt lat="45.62655" lon="5.72537">
        <ele>685</ele>
        <time>2025-05-01T08:27:17.777+00:00</time>
      </trkpt>
      <trkpt lat="45.62658" lon="5.72533">
        <ele>685</ele>
        <time>2025-05-01T08:27:22.039+00:00</time>
      </trkpt>
      <trkpt lat="45.62662" lon="5.7253">
        <ele>685</ele>
        <time>2025-05-01T08:27:26.245+00:00</time>
      </trkpt>
      <trkpt lat="45.62667" lon="5.72526">
        <ele>685</ele>
        <time>2025-05-01T08:27:31.248+00:00</time>
      </trkpt>
      <trkpt lat="45.62673" lon="5.72522">
        <ele>685</ele>
        <time>2025-05-01T08:27:35.258+00:00</time>
      </trkpt>
      <trkpt lat="45.62679" lon="5.72517">
        <ele>685</ele>
        <time>2025-05-01T08:27:39.756+00:00</time>
      </trkpt>
      <trkpt lat="45.62684" lon="5.72513">
        <ele>688</ele>
        <time>2025-05-01T08:27:43.776+00:00</time>
      </trkpt>
      <trkpt lat="45.62688" lon="5.72505">
        <ele>688</ele>
        <time>2025-05-01T08:27:48.244+00:00</time>
      </trkpt>
      <trkpt lat="45.62695" lon="5.725">
        <ele>688</ele>
        <time>2025-05-01T08:27:53.249+00:00</time>
      </trkpt>
      <trkpt lat="45.627" lon="5.72496">
        <ele>688</ele>
        <time>2025-05-01T08:27:57.616+00:00</time>
      </trkpt>
      <trkpt lat="45.62704" lon="5.72491">
        <ele>688</ele>
        <time>2025-05-01T08:28:02.023+00:00</time>
      </trkpt>
      <trkpt lat="45.62709" lon="5.72486">
        <ele>689</ele>
        <time>2025-05-01T08:28:06.238+00:00</time>
      </trkpt>
      <trkpt lat="45.62714" lon="5.72482">
        <ele>689</ele>
        <time>2025-05-01T08:28:10.805+00:00</time>
      </trkpt>
      <trkpt lat="45.62721" lon="5.72479">
        <ele>689</ele>
        <time>2025-05-01T08:28:15.251+00:00</time>
      </trkpt>
      <trkpt lat="45.62727" lon="5.72476">
        <ele>689</ele>
        <time>2025-05-01T08:28:19.902+00:00</time>
      </trkpt>
      <trkpt lat="45.62734" lon="5.72473">
        <ele>689</ele>
        <time>2025-05-01T08:28:24.443+00:00</time>
      </trkpt>
      <trkpt lat="45.6274" lon="5.72471">
        <ele>685</ele>
        <time>2025-05-01T08:28:28.883+00:00</time>
      </trkpt>
      <trkpt lat="45.62747" lon="5.72469">
        <ele>685</ele>
        <time>2025-05-01T08:28:33.241+00:00</time>
      </trkpt>
      <trkpt lat="45.62754" lon="5.72465">
        <ele>685</ele>
        <time>2025-05-01T08:28:37.782+00:00</time>
      </trkpt>
      <trkpt lat="45.62761" lon="5.72464">
        <ele>685</ele>
        <time>2025-05-01T08:28:42.240+00:00</time>
      </trkpt>
      <trkpt lat="45.62767" lon="5.7246">
        <ele>684</ele>
        <time>2025-05-01T08:28:56.942+00:00</time>
      </trkpt>
      <trkpt lat="45.62771" lon="5.72458">
        <ele>684</ele>
        <time>2025-05-01T08:29:01.042+00:00</time>
      </trkpt>
      <trkpt lat="45.62779" lon="5.72456">
        <ele>689</ele>
        <time>2025-05-01T08:29:05.061+00:00</time>
      </trkpt>
      <trkpt lat="45.62787" lon="5.72453">
        <ele>689</ele>
        <time>2025-05-01T08:29:09.245+00:00</time>
      </trkpt>
      <trkpt lat="45.62791" lon="5.72451">
        <ele>689</ele>
        <time>2025-05-01T08:29:14.119+00:00</time>
      </trkpt>
      <trkpt lat="45.62799" lon="5.72445">
        <ele>689</ele>
        <time>2025-05-01T08:29:18.538+00:00</time>
      </trkpt>
      <trkpt lat="45.62809" lon="5.72437">
        <ele>689</ele>
        <time>2025-05-01T08:29:23.222+00:00</time>
      </trkpt>
      <trkpt lat="45.62816" lon="5.72431">
        <ele>689</ele>
        <time>2025-05-01T08:29:27.260+00:00</time>
      </trkpt>
      <trkpt lat="45.62823" lon="5.72425">
        <ele>692</ele>
        <time>2025-05-01T08:29:31.857+00:00</time>
      </trkpt>
      <trkpt lat="45.6283" lon="5.72419">
        <ele>692</ele>
        <time>2025-05-01T08:29:36.241+00:00</time>
      </trkpt>
      <trkpt lat="45.62835" lon="5.72412">
        <ele>692</ele>
        <time>2025-05-01T08:29:40.776+00:00</time>
      </trkpt>
      <trkpt lat="45.6284" lon="5.72406">
        <ele>692</ele>
        <time>2025-05-01T08:29:45.244+00:00</time>
      </trkpt>
      <trkpt lat="45.62844" lon="5.72402">
        <ele>695</ele>
        <time>2025-05-01T08:29:49.245+00:00</time>
      </trkpt>
      <trkpt lat="45.62845" lon="5.72397">
        <ele>695</ele>
        <time>2025-05-01T08:29:53.716+00:00</time>
      </trkpt>
      <trkpt lat="45.62853" lon="5.72392">
        <ele>693</ele>
        <time>2025-05-01T08:29:57.996+00:00</time>
      </trkpt>
      <trkpt lat="45.6286" lon="5.72382">
        <ele>693</ele>
        <time>2025-05-01T08:30:02.916+00:00</time>
      </trkpt>
      <trkpt lat="45.62864" lon="5.72374">
        <ele>696</ele>
        <time>2025-05-01T08:30:07.245+00:00</time>
      </trkpt>
      <trkpt lat="45.62868" lon="5.72367">
        <ele>696</ele>
        <time>2025-05-01T08:30:11.250+00:00</time>
      </trkpt>
      <trkpt lat="45.62874" lon="5.72361">
        <ele>696</ele>
        <time>2025-05-01T08:30:15.755+00:00</time>
      </trkpt>
      <trkpt lat="45.62881" lon="5.72355">
        <ele>695</ele>
        <time>2025-05-01T08:30:20.237+00:00</time>
      </trkpt>
      <trkpt lat="45.62887" lon="5.72348">
        <ele>695</ele>
        <time>2025-05-01T08:30:24.396+00:00</time>
      </trkpt>
      <trkpt lat="45.62893" lon="5.72343">
        <ele>697</ele>
        <time>2025-05-01T08:30:28.546+00:00</time>
      </trkpt>
      <trkpt lat="45.62898" lon="5.72339">
        <ele>697</ele>
        <time>2025-05-01T08:30:32.723+00:00</time>
      </trkpt>
      <trkpt lat="45.62904" lon="5.72336">
        <ele>694</ele>
        <time>2025-05-01T08:30:37.242+00:00</time>
      </trkpt>
      <trkpt lat="45.62909" lon="5.72334">
        <ele>694</ele>
        <time>2025-05-01T08:30:41.249+00:00</time>
      </trkpt>
      <trkpt lat="45.62915" lon="5.72329">
        <ele>694</ele>
        <time>2025-05-01T08:30:46.243+00:00</time>
      </trkpt>
      <trkpt lat="45.62922" lon="5.72328">
        <ele>694</ele>
        <time>2025-05-01T08:30:50.246+00:00</time>
      </trkpt>
      <trkpt lat="45.6293" lon="5.72327">
        <ele>694</ele>
        <time>2025-05-01T08:30:55.248+00:00</time>
      </trkpt>
      <trkpt lat="45.62937" lon="5.72329">
        <ele>690</ele>
        <time>2025-05-01T08:30:59.248+00:00</time>
      </trkpt>
      <trkpt lat="45.62944" lon="5.7233">
        <ele>690</ele>
        <time>2025-05-01T08:31:04.244+00:00</time>
      </trkpt>
      <trkpt lat="45.62953" lon="5.72331">
        <ele>690</ele>
        <time>2025-05-01T08:31:09.249+00:00</time>
      </trkpt>
      <trkpt lat="45.62961" lon="5.72335">
        <ele>687</ele>
        <time>2025-05-01T08:31:14.241+00:00</time>
      </trkpt>
      <trkpt lat="45.62969" lon="5.72338">
        <ele>687</ele>
        <time>2025-05-01T08:31:19.251+00:00</time>
      </trkpt>
      <trkpt lat="45.62975" lon="5.72339">
        <ele>687</ele>
        <time>2025-05-01T08:31:23.253+00:00</time>
      </trkpt>
      <trkpt lat="45.62984" lon="5.72338">
        <ele>687</ele>
        <time>2025-05-01T08:31:28.246+00:00</time>
      </trkpt>
      <trkpt lat="45.62992" lon="5.72338">
        <ele>682</ele>
        <time>2025-05-01T08:31:33.251+00:00</time>
      </trkpt>
      <trkpt lat="45.62997" lon="5.72334">
        <ele>682</ele>
        <time>2025-05-01T08:31:37.722+00:00</time>
      </trkpt>
      <trkpt lat="45.63003" lon="5.72328">
        <ele>682</ele>
        <time>2025-05-01T08:31:42.061+00:00</time>
      </trkpt>
      <trkpt lat="45.63008" lon="5.72323">
        <ele>682</ele>
        <time>2025-05-01T08:31:46.254+00:00</time>
      </trkpt>
      <trkpt lat="45.63014" lon="5.72319">
        <ele>684</ele>
        <time>2025-05-01T08:31:50.359+00:00</time>
      </trkpt>
      <trkpt lat="45.63017" lon="5.72316">
        <ele>681</ele>
        <time>2025-05-01T08:31:54.781+00:00</time>
      </trkpt>
      <trkpt lat="45.63022" lon="5.72311">
        <ele>681</ele>
        <time>2025-05-01T08:32:08.246+00:00</time>
      </trkpt>
      <trkpt lat="45.63022" lon="5.72311">
        <ele>681</ele>
        <time>2025-05-01T08:32:12.858+00:00</time>
      </trkpt>
      <trkpt lat="45.63025" lon="5.72309">
        <ele>681</ele>
        <time>2025-05-01T08:32:17.198+00:00</time>
      </trkpt>
      <trkpt lat="45.63028" lon="5.72308">
        <ele>681</ele>
        <time>2025-05-01T08:32:21.500+00:00</time>
      </trkpt>
      <trkpt lat="45.63038" lon="5.72309">
        <ele>681</ele>
        <time>2025-05-01T08:32:26.219+00:00</time>
      </trkpt>
      <trkpt lat="45.63044" lon="5.72305">
        <ele>678</ele>
        <time>2025-05-01T08:32:30.718+00:00</time>
      </trkpt>
      <trkpt lat="45.63047" lon="5.72303">
        <ele>678</ele>
        <time>2025-05-01T08:32:35.237+00:00</time>
      </trkpt>
      <trkpt lat="45.63052" lon="5.723">
        <ele>678</ele>
        <time>2025-05-01T08:32:39.739+00:00</time>
      </trkpt>
      <trkpt lat="45.63057" lon="5.723">
        <ele>678</ele>
        <time>2025-05-01T08:32:44.100+00:00</time>
      </trkpt>
      <trkpt lat="45.63068" lon="5.72302">
        <ele>678</ele>
        <time>2025-05-01T08:32:48.641+00:00</time>
      </trkpt>
      <trkpt lat="45.63078" lon="5.72302">
        <ele>675</ele>
        <time>2025-05-01T08:32:53.242+00:00</time>
      </trkpt>
      <trkpt lat="45.63087" lon="5.723">
        <ele>675</ele>
        <time>2025-05-01T08:32:58.217+00:00</time>
      </trkpt>
      <trkpt lat="45.63094" lon="5.72297">
        <ele>675</ele>
        <time>2025-05-01T08:33:02.577+00:00</time>
      </trkpt>
      <trkpt lat="45.63101" lon="5.72292">
        <ele>675</ele>
        <time>2025-05-01T08:33:07.099+00:00</time>
      </trkpt>
      <trkpt lat="45.63107" lon="5.72287">
        <ele>679</ele>
        <time>2025-05-01T08:33:11.197+00:00</time>
      </trkpt>
      <trkpt lat="45.63113" lon="5.72283">
        <ele>679</ele>
        <time>2025-05-01T08:33:15.239+00:00</time>
      </trkpt>
      <trkpt lat="45.63119" lon="5.7228">
        <ele>679</ele>
        <time>2025-05-01T08:33:19.718+00:00</time>
      </trkpt>
      <trkpt lat="45.63125" lon="5.72278">
        <ele>677</ele>
        <time>2025-05-01T08:33:23.858+00:00</time>
      </trkpt>
      <trkpt lat="45.6313" lon="5.72281">
        <ele>677</ele>
        <time>2025-05-01T08:33:28.237+00:00</time>
      </trkpt>
      <trkpt lat="45.63136" lon="5.72282">
        <ele>677</ele>
        <time>2025-05-01T08:33:32.239+00:00</time>
      </trkpt>
      <trkpt lat="45.6314" lon="5.72282">
        <ele>677</ele>
        <time>2025-05-01T08:33:36.757+00:00</time>
      </trkpt>
      <trkpt lat="45.63143" lon="5.72283">
        <ele>677</ele>
        <time>2025-05-01T08:33:40.958+00:00</time>
      </trkpt>
      <trkpt lat="45.63145" lon="5.72284">
        <ele>677</ele>
        <time>2025-05-01T08:33:45.126+00:00</time>
      </trkpt>
      <trkpt lat="45.63147" lon="5.72285">
        <ele>677</ele>
        <time>2025-05-01T08:33:49.248+00:00</time>
      </trkpt>
      <trkpt lat="45.63149" lon="5.72285">
        <ele>677</ele>
        <time>2025-05-01T08:33:54.204+00:00</time>
      </trkpt>
      <trkpt lat="45.63154" lon="5.72287">
        <ele>677</ele>
        <time>2025-05-01T08:33:58.605+00:00</time>
      </trkpt>
      <trkpt lat="45.63159" lon="5.7229">
        <ele>677</ele>
        <time>2025-05-01T08:34:02.664+00:00</time>
      </trkpt>
      <trkpt lat="45.63167" lon="5.72292">
        <ele>672</ele>
        <time>2025-05-01T08:34:07.085+00:00</time>
      </trkpt>
      <trkpt lat="45.63177" lon="5.72292">
        <ele>677</ele>
        <time>2025-05-01T08:34:11.248+00:00</time>
      </trkpt>
      <trkpt lat="45.63186" lon="5.72291">
        <ele>678</ele>
        <time>2025-05-01T08:34:15.260+00:00</time>
      </trkpt>
      <trkpt lat="45.63197" lon="5.72286">
        <ele>678</ele>
        <time>2025-05-01T08:34:19.783+00:00</time>
      </trkpt>
      <trkpt lat="45.63209" lon="5.72286">
        <ele>677</ele>
        <time>2025-05-01T08:34:24.203+00:00</time>
      </trkpt>
      <trkpt lat="45.6322" lon="5.7229">
        <ele>677</ele>
        <time>2025-05-01T08:34:29.165+00:00</time>
      </trkpt>
      <trkpt lat="45.63229" lon="5.7229">
        <ele>677</ele>
        <time>2025-05-01T08:34:33.542+00:00</time>
      </trkpt>
      <trkpt lat="45.63237" lon="5.72293">
        <ele>672</ele>
        <time>2025-05-01T08:34:37.923+00:00</time>
      </trkpt>
      <trkpt lat="45.63244" lon="5.72293">
        <ele>672</ele>
        <time>2025-05-01T08:34:41.983+00:00</time>
      </trkpt>
      <trkpt lat="45.63251" lon="5.72292">
        <ele>672</ele>
        <time>2025-05-01T08:34:46.182+00:00</time>
      </trkpt>
      <trkpt lat="45.63259" lon="5.72289">
        <ele>676</ele>
        <time>2025-05-01T08:34:51.022+00:00</time>
      </trkpt>
      <trkpt lat="45.63267" lon="5.72288">
        <ele>675</ele>
        <time>2025-05-01T08:34:55.542+00:00</time>
      </trkpt>
      <trkpt lat="45.63274" lon="5.72286">
        <ele>675</ele>
        <time>2025-05-01T08:34:59.842+00:00</time>
      </trkpt>
      <trkpt lat="45.63281" lon="5.72285">
        <ele>675</ele>
        <time>2025-05-01T08:35:04.162+00:00</time>
      </trkpt>
      <trkpt lat="45.63289" lon="5.72284">
        <ele>675</ele>
        <time>2025-05-01T08:35:08.541+00:00</time>
      </trkpt>
      <trkpt lat="45.63296" lon="5.72285">
        <ele>675</ele>
        <time>2025-05-01T08:35:13.124+00:00</time>
      </trkpt>
      <trkpt lat="45.63303" lon="5.72285">
        <ele>675</ele>
        <time>2025-05-01T08:35:17.501+00:00</time>
      </trkpt>
      <trkpt lat="45.6331" lon="5.72285">
        <ele>675</ele>
        <time>2025-05-01T08:35:22.082+00:00</time>
      </trkpt>
      <trkpt lat="45.63317" lon="5.72285">
        <ele>675</ele>
        <time>2025-05-01T08:35:26.182+00:00</time>
      </trkpt>
      <trkpt lat="45.63323" lon="5.72285">
        <ele>671</ele>
        <time>2025-05-01T08:35:30.501+00:00</time>
      </trkpt>
      <trkpt lat="45.6333" lon="5.7228">
        <ele>671</ele>
        <time>2025-05-01T08:35:35.002+00:00</time>
      </trkpt>
      <trkpt lat="45.63335" lon="5.72273">
        <ele>671</ele>
        <time>2025-05-01T08:35:39.359+00:00</time>
      </trkpt>
      <trkpt lat="45.6334" lon="5.72265">
        <ele>671</ele>
        <time>2025-05-01T08:35:44.200+00:00</time>
      </trkpt>
      <trkpt lat="45.63345" lon="5.72259">
        <ele>676</ele>
        <time>2025-05-01T08:35:48.462+00:00</time>
      </trkpt>
      <trkpt lat="45.6335" lon="5.72252">
        <ele>672</ele>
        <time>2025-05-01T08:35:52.881+00:00</time>
      </trkpt>
      <trkpt lat="45.63357" lon="5.72249">
        <ele>672</ele>
        <time>2025-05-01T08:35:57.199+00:00</time>
      </trkpt>
      <trkpt lat="45.63363" lon="5.72246">
        <ele>672</ele>
        <time>2025-05-01T08:36:02.240+00:00</time>
      </trkpt>
      <trkpt lat="45.63369" lon="5.72243">
        <ele>672</ele>
        <time>2025-05-01T08:36:06.241+00:00</time>
      </trkpt>
      <trkpt lat="45.63376" lon="5.72238">
        <ele>670</ele>
        <time>2025-05-01T08:36:11.039+00:00</time>
      </trkpt>
      <trkpt lat="45.63383" lon="5.72234">
        <ele>672</ele>
        <time>2025-05-01T08:36:15.120+00:00</time>
      </trkpt>
      <trkpt lat="45.6339" lon="5.72232">
        <ele>672</ele>
        <time>2025-05-01T08:36:19.140+00:00</time>
      </trkpt>
      <trkpt lat="45.63396" lon="5.72228">
        <ele>672</ele>
        <time>2025-05-01T08:36:23.379+00:00</time>
      </trkpt>
      <trkpt lat="45.634" lon="5.72222">
        <ele>672</ele>
        <time>2025-05-01T08:36:27.779+00:00</time>
      </trkpt>
      <trkpt lat="45.63405" lon="5.72217">
        <ele>671</ele>
        <time>2025-05-01T08:36:32.246+00:00</time>
      </trkpt>
      <trkpt lat="45.6341" lon="5.72214">
        <ele>671</ele>
        <time>2025-05-01T08:36:37.240+00:00</time>
      </trkpt>
      <trkpt lat="45.63415" lon="5.72211">
        <ele>671</ele>
        <time>2025-05-01T08:36:42.059+00:00</time>
      </trkpt>
      <trkpt lat="45.63419" lon="5.72211">
        <ele>671</ele>
        <time>2025-05-01T08:36:46.252+00:00</time>
      </trkpt>
      <trkpt lat="45.63422" lon="5.72216">
        <ele>671</ele>
        <time>2025-05-01T08:36:50.517+00:00</time>
      </trkpt>
      <trkpt lat="45.63424" lon="5.72218">
        <ele>671</ele>
        <time>2025-05-01T08:36:55.216+00:00</time>
      </trkpt>
      <trkpt lat="45.63424" lon="5.72221">
        <ele>671</ele>
        <time>2025-05-01T08:37:04.248+00:00</time>
      </trkpt>
      <trkpt lat="45.63424" lon="5.72222">
        <ele>671</ele>
        <time>2025-05-01T08:37:09.248+00:00</time>
      </trkpt>
      <trkpt lat="45.63426" lon="5.72224">
        <ele>671</ele>
        <time>2025-05-01T08:37:14.237+00:00</time>
      </trkpt>
      <trkpt lat="45.63427" lon="5.72227">
        <ele>671</ele>
        <time>2025-05-01T08:37:18.242+00:00</time>
      </trkpt>
      <trkpt lat="45.63428" lon="5.72232">
        <ele>671</ele>
        <time>2025-05-01T08:37:23.028+00:00</time>
      </trkpt>
      <trkpt lat="45.63432" lon="5.72239">
        <ele>668</ele>
        <time>2025-05-01T08:37:27.525+00:00</time>
      </trkpt>
      <trkpt lat="45.63434" lon="5.72246">
        <ele>668</ele>
        <time>2025-05-01T08:37:32.045+00:00</time>
      </trkpt>
      <trkpt lat="45.63435" lon="5.72252">
        <ele>668</ele>
        <time>2025-05-01T08:37:36.244+00:00</time>
      </trkpt>
      <trkpt lat="45.63436" lon="5.72254">
        <ele>668</ele>
        <time>2025-05-01T08:37:40.249+00:00</time>
      </trkpt>
      <trkpt lat="45.63438" lon="5.72255">
        <ele>668</ele>
        <time>2025-05-01T08:37:44.255+00:00</time>
      </trkpt>
      <trkpt lat="45.63439" lon="5.72256">
        <ele>668</ele>
        <time>2025-05-01T08:37:48.944+00:00</time>
      </trkpt>
      <trkpt lat="45.6344" lon="5.72257">
        <ele>668</ele>
        <time>2025-05-01T08:37:53.256+00:00</time>
      </trkpt>
      <trkpt lat="45.63445" lon="5.72259">
        <ele>668</ele>
        <time>2025-05-01T08:37:57.701+00:00</time>
      </trkpt>
      <trkpt lat="45.63449" lon="5.72262">
        <ele>668</ele>
        <time>2025-05-01T08:38:02.255+00:00</time>
      </trkpt>
      <trkpt lat="45.63454" lon="5.72263">
        <ele>668</ele>
        <time>2025-05-01T08:38:06.743+00:00</time>
      </trkpt>
      <trkpt lat="45.63458" lon="5.72264">
        <ele>661</ele>
        <time>2025-05-01T08:38:11.250+00:00</time>
      </trkpt>
      <trkpt lat="45.63463" lon="5.72262">
        <ele>669</ele>
        <time>2025-05-01T08:38:15.563+00:00</time>
      </trkpt>
      <trkpt lat="45.6347" lon="5.7226">
        <ele>669</ele>
        <time>2025-05-01T08:38:19.702+00:00</time>
      </trkpt>
      <trkpt lat="45.63476" lon="5.72261">
        <ele>669</ele>
        <time>2025-05-01T08:38:23.983+00:00</time>
      </trkpt>
      <trkpt lat="45.63483" lon="5.72261">
        <ele>669</ele>
        <time>2025-05-01T08:38:28.582+00:00</time>
      </trkpt>
      <trkpt lat="45.63489" lon="5.72264">
        <ele>664</ele>
        <time>2025-05-01T08:38:33.043+00:00</time>
      </trkpt>
      <trkpt lat="45.63494" lon="5.7227">
        <ele>664</ele>
        <time>2025-05-01T08:38:37.261+00:00</time>
      </trkpt>
      <trkpt lat="45.63499" lon="5.72275">
        <ele>664</ele>
        <time>2025-05-01T08:38:51.860+00:00</time>
      </trkpt>
      <trkpt lat="45.63499" lon="5.72276">
        <ele>664</ele>
        <time>2025-05-01T08:38:55.918+00:00</time>
      </trkpt>
      <trkpt lat="45.635" lon="5.72276">
        <ele>664</ele>
        <time>2025-05-01T08:38:59.937+00:00</time>
      </trkpt>
      <trkpt lat="45.63501" lon="5.72281">
        <ele>664</ele>
        <time>2025-05-01T08:39:04.243+00:00</time>
      </trkpt>
      <trkpt lat="45.63505" lon="5.72291">
        <ele>664</ele>
        <time>2025-05-01T08:39:09.038+00:00</time>
      </trkpt>
      <trkpt lat="45.63508" lon="5.72301">
        <ele>656</ele>
        <time>2025-05-01T08:39:13.079+00:00</time>
      </trkpt>
      <trkpt lat="45.63513" lon="5.7231">
        <ele>656</ele>
        <time>2025-05-01T08:39:17.457+00:00</time>
      </trkpt>
      <trkpt lat="45.63518" lon="5.72318">
        <ele>658</ele>
        <time>2025-05-01T08:39:21.837+00:00</time>
      </trkpt>
      <trkpt lat="45.63523" lon="5.72328">
        <ele>650</ele>
        <time>2025-05-01T08:39:26.246+00:00</time>
      </trkpt>
      <trkpt lat="45.63531" lon="5.72334">
        <ele>650</ele>
        <time>2025-05-01T08:39:45.251+00:00</time>
      </trkpt>
      <trkpt lat="45.63531" lon="5.72334">
        <ele>650</ele>
        <time>2025-05-01T08:39:51.251+00:00</time>
      </trkpt>
      <trkpt lat="45.63531" lon="5.72334">
        <ele>650</ele>
        <time>2025-05-01T08:39:56.066+00:00</time>
      </trkpt>
      <trkpt lat="45.63534" lon="5.72338">
        <ele>650</ele>
        <time>2025-05-01T08:40:00.544+00:00</time>
      </trkpt>
      <trkpt lat="45.63541" lon="5.72345">
        <ele>650</ele>
        <time>2025-05-01T08:40:05.164+00:00</time>
      </trkpt>
      <trkpt lat="45.63545" lon="5.72349">
        <ele>643</ele>
        <time>2025-05-01T08:40:09.664+00:00</time>
      </trkpt>
      <trkpt lat="45.63549" lon="5.72352">
        <ele>643</ele>
        <time>2025-05-01T08:40:13.782+00:00</time>
      </trkpt>
      <trkpt lat="45.63554" lon="5.72354">
        <ele>643</ele>
        <time>2025-05-01T08:40:18.254+00:00</time>
      </trkpt>
      <trkpt lat="45.63562" lon="5.72356">
        <ele>643</ele>
        <time>2025-05-01T08:40:22.822+00:00</time>
      </trkpt>
      <trkpt lat="45.63571" lon="5.72354">
        <ele>647</ele>
        <time>2025-05-01T08:40:26.842+00:00</time>
      </trkpt>
      <trkpt lat="45.63577" lon="5.72354">
        <ele>647</ele>
        <time>2025-05-01T08:40:31.255+00:00</time>
      </trkpt>
      <trkpt lat="45.63584" lon="5.72353">
        <ele>647</ele>
        <time>2025-05-01T08:40:36.238+00:00</time>
      </trkpt>
      <trkpt lat="45.63591" lon="5.7235">
        <ele>647</ele>
        <time>2025-05-01T08:40:40.827+00:00</time>
      </trkpt>
      <trkpt lat="45.63596" lon="5.72348">
        <ele>647</ele>
        <time>2025-05-01T08:40:45.042+00:00</time>
      </trkpt>
      <trkpt lat="45.63601" lon="5.72346">
        <ele>657</ele>
        <time>2025-05-01T08:40:49.163+00:00</time>
      </trkpt>
      <trkpt lat="45.63607" lon="5.72345">
        <ele>657</ele>
        <time>2025-05-01T08:40:53.253+00:00</time>
      </trkpt>
      <trkpt lat="45.63613" lon="5.72346">
        <ele>657</ele>
        <time>2025-05-01T08:40:57.902+00:00</time>
      </trkpt>
      <trkpt lat="45.63621" lon="5.72347">
        <ele>657</ele>
        <time>2025-05-01T08:41:02.420+00:00</time>
      </trkpt>
      <trkpt lat="45.63628" lon="5.72347">
        <ele>651</ele>
        <time>2025-05-01T08:41:07.161+00:00</time>
      </trkpt>
      <trkpt lat="45.63637" lon="5.72345">
        <ele>659</ele>
        <time>2025-05-01T08:41:12.020+00:00</time>
      </trkpt>
      <trkpt lat="45.63647" lon="5.72342">
        <ele>659</ele>
        <time>2025-05-01T08:41:16.699+00:00</time>
      </trkpt>
      <trkpt lat="45.63655" lon="5.7234">
        <ele>659</ele>
        <time>2025-05-01T08:41:20.979+00:00</time>
      </trkpt>
      <trkpt lat="45.63663" lon="5.72338">
        <ele>659</ele>
        <time>2025-05-01T08:41:25.159+00:00</time>
      </trkpt>
      <trkpt lat="45.63669" lon="5.72333">
        <ele>659</ele>
        <time>2025-05-01T08:41:30.100+00:00</time>
      </trkpt>
      <trkpt lat="45.63674" lon="5.72329">
        <ele>659</ele>
        <time>2025-05-01T08:41:34.241+00:00</time>
      </trkpt>
      <trkpt lat="45.63679" lon="5.72326">
        <ele>659</ele>
        <time>2025-05-01T08:41:38.480+00:00</time>
      </trkpt>
      <trkpt lat="45.63688" lon="5.72325">
        <ele>657</ele>
        <time>2025-05-01T08:41:42.837+00:00</time>
      </trkpt>
      <trkpt lat="45.63698" lon="5.72323">
        <ele>657</ele>
        <time>2025-05-01T08:41:47.253+00:00</time>
      </trkpt>
      <trkpt lat="45.63706" lon="5.7232">
        <ele>657</ele>
        <time>2025-05-01T08:41:52.178+00:00</time>
      </trkpt>
      <trkpt lat="45.63713" lon="5.72319">
        <ele>666</ele>
        <time>2025-05-01T08:41:56.500+00:00</time>
      </trkpt>
      <trkpt lat="45.63723" lon="5.72324">
        <ele>657</ele>
        <time>2025-05-01T08:42:00.798+00:00</time>
      </trkpt>
      <trkpt lat="45.63732" lon="5.72328">
        <ele>657</ele>
        <time>2025-05-01T08:42:05.198+00:00</time>
      </trkpt>
      <trkpt lat="45.63741" lon="5.72328">
        <ele>659</ele>
        <time>2025-05-01T08:42:09.659+00:00</time>
      </trkpt>
      <trkpt lat="45.63771" lon="5.72328">
        <ele>659</ele>
        <time>2025-05-01T08:42:14.038+00:00</time>
      </trkpt>
      <trkpt lat="45.63789" lon="5.72326">
        <ele>659</ele>
        <time>2025-05-01T08:42:18.138+00:00</time>
      </trkpt>
      <trkpt lat="45.63796" lon="5.72324">
        <ele>659</ele>
        <time>2025-05-01T08:42:22.242+00:00</time>
      </trkpt>
      <trkpt lat="45.63804" lon="5.7232">
        <ele>659</ele>
        <time>2025-05-01T08:42:27.138+00:00</time>
      </trkpt>
      <trkpt lat="45.63811" lon="5.7232">
        <ele>659</ele>
        <time>2025-05-01T08:42:31.575+00:00</time>
      </trkpt>
      <trkpt lat="45.63818" lon="5.72318">
        <ele>665</ele>
        <time>2025-05-01T08:42:35.877+00:00</time>
      </trkpt>
      <trkpt lat="45.63824" lon="5.72316">
        <ele>668</ele>
        <time>2025-05-01T08:42:40.254+00:00</time>
      </trkpt>
      <trkpt lat="45.63831" lon="5.72315">
        <ele>668</ele>
        <time>2025-05-01T08:42:44.708+00:00</time>
      </trkpt>
      <trkpt lat="45.63838" lon="5.72315">
        <ele>668</ele>
        <time>2025-05-01T08:42:49.044+00:00</time>
      </trkpt>
      <trkpt lat="45.63846" lon="5.72316">
        <ele>668</ele>
        <time>2025-05-01T08:42:53.405+00:00</time>
      </trkpt>
      <trkpt lat="45.63854" lon="5.72318">
        <ele>668</ele>
        <time>2025-05-01T08:42:57.803+00:00</time>
      </trkpt>
      <trkpt lat="45.6386" lon="5.7232">
        <ele>662</ele>
        <time>2025-05-01T08:43:02.123+00:00</time>
      </trkpt>
      <trkpt lat="45.63866" lon="5.72319">
        <ele>668</ele>
        <time>2025-05-01T08:43:06.183+00:00</time>
      </trkpt>
      <trkpt lat="45.63872" lon="5.72318">
        <ele>668</ele>
        <time>2025-05-01T08:43:10.483+00:00</time>
      </trkpt>
      <trkpt lat="45.63879" lon="5.72317">
        <ele>666</ele>
        <time>2025-05-01T08:43:14.782+00:00</time>
      </trkpt>
      <trkpt lat="45.63884" lon="5.72318">
        <ele>666</ele>
        <time>2025-05-01T08:43:19.252+00:00</time>
      </trkpt>
      <trkpt lat="45.63891" lon="5.72317">
        <ele>666</ele>
        <time>2025-05-01T08:43:23.256+00:00</time>
      </trkpt>
      <trkpt lat="45.63898" lon="5.72318">
        <ele>666</ele>
        <time>2025-05-01T08:43:28.249+00:00</time>
      </trkpt>
      <trkpt lat="45.63906" lon="5.72319">
        <ele>665</ele>
        <time>2025-05-01T08:43:33.246+00:00</time>
      </trkpt>
      <trkpt lat="45.63912" lon="5.72321">
        <ele>658</ele>
        <time>2025-05-01T08:43:37.246+00:00</time>
      </trkpt>
      <trkpt lat="45.63919" lon="5.72321">
        <ele>658</ele>
        <time>2025-05-01T08:43:41.257+00:00</time>
      </trkpt>
      <trkpt lat="45.63925" lon="5.72319">
        <ele>665</ele>
        <time>2025-05-01T08:43:45.382+00:00</time>
      </trkpt>
      <trkpt lat="45.63934" lon="5.72318">
        <ele>665</ele>
        <time>2025-05-01T08:43:49.819+00:00</time>
      </trkpt>
      <trkpt lat="45.63942" lon="5.72314">
        <ele>665</ele>
        <time>2025-05-01T08:43:54.481+00:00</time>
      </trkpt>
      <trkpt lat="45.63957" lon="5.72313">
        <ele>665</ele>
        <time>2025-05-01T08:44:13.254+00:00</time>
      </trkpt>
      <trkpt lat="45.63958" lon="5.72314">
        <ele>665</ele>
        <time>2025-05-01T08:44:17.461+00:00</time>
      </trkpt>
      <trkpt lat="45.63964" lon="5.72312">
        <ele>664</ele>
        <time>2025-05-01T08:44:21.839+00:00</time>
      </trkpt>
      <trkpt lat="45.63968" lon="5.72313">
        <ele>664</ele>
        <time>2025-05-01T08:44:26.258+00:00</time>
      </trkpt>
      <trkpt lat="45.63972" lon="5.72314">
        <ele>664</ele>
        <time>2025-05-01T08:44:30.259+00:00</time>
      </trkpt>
      <trkpt lat="45.63976" lon="5.72312">
        <ele>664</ele>
        <time>2025-05-01T08:44:34.596+00:00</time>
      </trkpt>
      <trkpt lat="45.63981" lon="5.72314">
        <ele>664</ele>
        <time>2025-05-01T08:44:38.796+00:00</time>
      </trkpt>
      <trkpt lat="45.63987" lon="5.72314">
        <ele>663</ele>
        <time>2025-05-01T08:44:43.243+00:00</time>
      </trkpt>
      <trkpt lat="45.63988" lon="5.72315">
        <ele>663</ele>
        <time>2025-05-01T08:44:47.823+00:00</time>
      </trkpt>
      <trkpt lat="45.63992" lon="5.72315">
        <ele>663</ele>
        <time>2025-05-01T08:44:52.004+00:00</time>
      </trkpt>
      <trkpt lat="45.63998" lon="5.72314">
        <ele>663</ele>
        <time>2025-05-01T08:44:56.249+00:00</time>
      </trkpt>
      <trkpt lat="45.64005" lon="5.72317">
        <ele>663</ele>
        <time>2025-05-01T08:45:01.065+00:00</time>
      </trkpt>
      <trkpt lat="45.64012" lon="5.72319">
        <ele>663</ele>
        <time>2025-05-01T08:45:05.241+00:00</time>
      </trkpt>
      <trkpt lat="45.64017" lon="5.72319">
        <ele>662</ele>
        <time>2025-05-01T08:45:10.255+00:00</time>
      </trkpt>
      <trkpt lat="45.64019" lon="5.72318">
        <ele>662</ele>
        <time>2025-05-01T08:45:15.247+00:00</time>
      </trkpt>
      <trkpt lat="45.6402" lon="5.72319">
        <ele>662</ele>
        <time>2025-05-01T08:45:19.482+00:00</time>
      </trkpt>
      <trkpt lat="45.64024" lon="5.7232">
        <ele>657</ele>
        <time>2025-05-01T08:45:23.643+00:00</time>
      </trkpt>
      <trkpt lat="45.64028" lon="5.72324">
        <ele>657</ele>
        <time>2025-05-01T08:45:28.022+00:00</time>
      </trkpt>
      <trkpt lat="45.64031" lon="5.7233">
        <ele>657</ele>
        <time>2025-05-01T08:45:32.141+00:00</time>
      </trkpt>
      <trkpt lat="45.64035" lon="5.7234">
        <ele>657</ele>
        <time>2025-05-01T08:45:36.254+00:00</time>
      </trkpt>
      <trkpt lat="45.64045" lon="5.7235">
        <ele>655</ele>
        <time>2025-05-01T08:45:41.251+00:00</time>
      </trkpt>
      <trkpt lat="45.64052" lon="5.72358">
        <ele>655</ele>
        <time>2025-05-01T08:45:45.248+00:00</time>
      </trkpt>
      <trkpt lat="45.64072" lon="5.72364">
        <ele>657</ele>
        <time>2025-05-01T08:45:50.249+00:00</time>
      </trkpt>
      <trkpt lat="45.64084" lon="5.7237">
        <ele>657</ele>
        <time>2025-05-01T08:45:54.246+00:00</time>
      </trkpt>
      <trkpt lat="45.64096" lon="5.72374">
        <ele>657</ele>
        <time>2025-05-01T08:45:58.250+00:00</time>
      </trkpt>
      <trkpt lat="45.64103" lon="5.72376">
        <ele>657</ele>
        <time>2025-05-01T08:46:02.253+00:00</time>
      </trkpt>
      <trkpt lat="45.64112" lon="5.72384">
        <ele>657</ele>
        <time>2025-05-01T08:46:25.535+00:00</time>
      </trkpt>
      <trkpt lat="45.64142" lon="5.72396">
        <ele>660</ele>
        <time>2025-05-01T08:46:29.688+00:00</time>
      </trkpt>
      <trkpt lat="45.6415" lon="5.72398">
        <ele>660</ele>
        <time>2025-05-01T08:46:34.256+00:00</time>
      </trkpt>
      <trkpt lat="45.64158" lon="5.724">
        <ele>663</ele>
        <time>2025-05-01T08:46:38.446+00:00</time>
      </trkpt>
      <trkpt lat="45.64165" lon="5.72403">
        <ele>663</ele>
        <time>2025-05-01T08:46:43.240+00:00</time>
      </trkpt>
      <trkpt lat="45.64173" lon="5.72401">
        <ele>663</ele>
        <time>2025-05-01T08:46:47.466+00:00</time>
      </trkpt>
      <trkpt lat="45.64181" lon="5.724">
        <ele>663</ele>
        <time>2025-05-01T08:46:52.252+00:00</time>
      </trkpt>
      <trkpt lat="45.64188" lon="5.72398">
        <ele>663</ele>
        <time>2025-05-01T08:46:56.743+00:00</time>
      </trkpt>
      <trkpt lat="45.64195" lon="5.72396">
        <ele>663</ele>
        <time>2025-05-01T08:47:01.085+00:00</time>
      </trkpt>
      <trkpt lat="45.64201" lon="5.72395">
        <ele>663</ele>
        <time>2025-05-01T08:47:05.145+00:00</time>
      </trkpt>
      <trkpt lat="45.64209" lon="5.72394">
        <ele>661</ele>
        <time>2025-05-01T08:47:09.604+00:00</time>
      </trkpt>
      <trkpt lat="45.64216" lon="5.72395">
        <ele>661</ele>
        <time>2025-05-01T08:47:13.764+00:00</time>
      </trkpt>
      <trkpt lat="45.64223" lon="5.72396">
        <ele>661</ele>
        <time>2025-05-01T08:47:18.204+00:00</time>
      </trkpt>
      <trkpt lat="45.6423" lon="5.72396">
        <ele>661</ele>
        <time>2025-05-01T08:47:22.564+00:00</time>
      </trkpt>
      <trkpt lat="45.64238" lon="5.72397">
        <ele>660</ele>
        <time>2025-05-01T08:47:26.803+00:00</time>
      </trkpt>
      <trkpt lat="45.64245" lon="5.72398">
        <ele>660</ele>
        <time>2025-05-01T08:47:31.065+00:00</time>
      </trkpt>
      <trkpt lat="45.64252" lon="5.72398">
        <ele>660</ele>
        <time>2025-05-01T08:47:35.250+00:00</time>
      </trkpt>
      <trkpt lat="45.6426" lon="5.72399">
        <ele>660</ele>
        <time>2025-05-01T08:47:40.164+00:00</time>
      </trkpt>
      <trkpt lat="45.64267" lon="5.72402">
        <ele>663</ele>
        <time>2025-05-01T08:47:44.252+00:00</time>
      </trkpt>
      <trkpt lat="45.64275" lon="5.72404">
        <ele>660</ele>
        <time>2025-05-01T08:47:48.682+00:00</time>
      </trkpt>
      <trkpt lat="45.64281" lon="5.72406">
        <ele>660</ele>
        <time>2025-05-01T08:47:53.079+00:00</time>
      </trkpt>
      <trkpt lat="45.64288" lon="5.7241">
        <ele>660</ele>
        <time>2025-05-01T08:47:57.541+00:00</time>
      </trkpt>
      <trkpt lat="45.64294" lon="5.72413">
        <ele>664</ele>
        <time>2025-05-01T08:48:01.720+00:00</time>
      </trkpt>
      <trkpt lat="45.64299" lon="5.72416">
        <ele>664</ele>
        <time>2025-05-01T08:48:05.919+00:00</time>
      </trkpt>
      <trkpt lat="45.64305" lon="5.72418">
        <ele>664</ele>
        <time>2025-05-01T08:48:10.059+00:00</time>
      </trkpt>
      <trkpt lat="45.64311" lon="5.7242">
        <ele>664</ele>
        <time>2025-05-01T08:48:14.702+00:00</time>
      </trkpt>
      <trkpt lat="45.64318" lon="5.72421">
        <ele>664</ele>
        <time>2025-05-01T08:48:18.881+00:00</time>
      </trkpt>
      <trkpt lat="45.64325" lon="5.72418">
        <ele>666</ele>
        <time>2025-05-01T08:48:22.979+00:00</time>
      </trkpt>
      <trkpt lat="45.64333" lon="5.7242">
        <ele>666</ele>
        <time>2025-05-01T08:48:27.243+00:00</time>
      </trkpt>
      <trkpt lat="45.6434" lon="5.7242">
        <ele>666</ele>
        <time>2025-05-01T08:48:31.254+00:00</time>
      </trkpt>
      <trkpt lat="45.64347" lon="5.72421">
        <ele>666</ele>
        <time>2025-05-01T08:48:35.758+00:00</time>
      </trkpt>
      <trkpt lat="45.64352" lon="5.72423">
        <ele>668</ele>
        <time>2025-05-01T08:48:40.001+00:00</time>
      </trkpt>
      <trkpt lat="45.64358" lon="5.72426">
        <ele>668</ele>
        <time>2025-05-01T08:48:44.119+00:00</time>
      </trkpt>
      <trkpt lat="45.64363" lon="5.72429">
        <ele>668</ele>
        <time>2025-05-01T08:48:48.254+00:00</time>
      </trkpt>
      <trkpt lat="45.64368" lon="5.72433">
        <ele>665</ele>
        <time>2025-05-01T08:48:52.317+00:00</time>
      </trkpt>
      <trkpt lat="45.64375" lon="5.72437">
        <ele>665</ele>
        <time>2025-05-01T08:48:56.978+00:00</time>
      </trkpt>
      <trkpt lat="45.64383" lon="5.7244">
        <ele>666</ele>
        <time>2025-05-01T08:49:02.057+00:00</time>
      </trkpt>
      <trkpt lat="45.6439" lon="5.72443">
        <ele>666</ele>
        <time>2025-05-01T08:49:06.737+00:00</time>
      </trkpt>
      <trkpt lat="45.64397" lon="5.72447">
        <ele>666</ele>
        <time>2025-05-01T08:49:11.235+00:00</time>
      </trkpt>
      <trkpt lat="45.64404" lon="5.72449">
        <ele>666</ele>
        <time>2025-05-01T08:49:15.250+00:00</time>
      </trkpt>
      <trkpt lat="45.6441" lon="5.72452">
        <ele>666</ele>
        <time>2025-05-01T08:49:19.296+00:00</time>
      </trkpt>
      <trkpt lat="45.64417" lon="5.72457">
        <ele>666</ele>
        <time>2025-05-01T08:49:24.254+00:00</time>
      </trkpt>
      <trkpt lat="45.64418" lon="5.72462">
        <ele>659</ele>
        <time>2025-05-01T08:49:28.417+00:00</time>
      </trkpt>
      <trkpt lat="45.64424" lon="5.72463">
        <ele>659</ele>
        <time>2025-05-01T08:49:33.255+00:00</time>
      </trkpt>
      <trkpt lat="45.64431" lon="5.72465">
        <ele>658</ele>
        <time>2025-05-01T08:49:38.254+00:00</time>
      </trkpt>
      <trkpt lat="45.64437" lon="5.72466">
        <ele>658</ele>
        <time>2025-05-01T08:49:42.257+00:00</time>
      </trkpt>
      <trkpt lat="45.64444" lon="5.72469">
        <ele>658</ele>
        <time>2025-05-01T08:49:47.252+00:00</time>
      </trkpt>
      <trkpt lat="45.6445" lon="5.72472">
        <ele>658</ele>
        <time>2025-05-01T08:49:51.255+00:00</time>
      </trkpt>
      <trkpt lat="45.64457" lon="5.72475">
        <ele>658</ele>
        <time>2025-05-01T08:49:56.236+00:00</time>
      </trkpt>
      <trkpt lat="45.64463" lon="5.72478">
        <ele>656</ele>
        <time>2025-05-01T08:50:00.252+00:00</time>
      </trkpt>
      <trkpt lat="45.64471" lon="5.72481">
        <ele>656</ele>
        <time>2025-05-01T08:50:05.249+00:00</time>
      </trkpt>
      <trkpt lat="45.64477" lon="5.72483">
        <ele>656</ele>
        <time>2025-05-01T08:50:09.261+00:00</time>
      </trkpt>
      <trkpt lat="45.64485" lon="5.72486">
        <ele>656</ele>
        <time>2025-05-01T08:50:14.249+00:00</time>
      </trkpt>
      <trkpt lat="45.64494" lon="5.72488">
        <ele>649</ele>
        <time>2025-05-01T08:50:19.252+00:00</time>
      </trkpt>
      <trkpt lat="45.64501" lon="5.72488">
        <ele>649</ele>
        <time>2025-05-01T08:50:23.259+00:00</time>
      </trkpt>
      <trkpt lat="45.64507" lon="5.72489">
        <ele>649</ele>
        <time>2025-05-01T08:50:27.640+00:00</time>
      </trkpt>
      <trkpt lat="45.64515" lon="5.72489">
        <ele>647</ele>
        <time>2025-05-01T08:50:32.247+00:00</time>
      </trkpt>
      <trkpt lat="45.64522" lon="5.72489">
        <ele>647</ele>
        <time>2025-05-01T08:50:36.458+00:00</time>
      </trkpt>
      <trkpt lat="45.6453" lon="5.72489">
        <ele>647</ele>
        <time>2025-05-01T08:50:41.219+00:00</time>
      </trkpt>
      <trkpt lat="45.64537" lon="5.72489">
        <ele>647</ele>
        <time>2025-05-01T08:50:45.245+00:00</time>
      </trkpt>
      <trkpt lat="45.64545" lon="5.72489">
        <ele>647</ele>
        <time>2025-05-01T08:50:50.197+00:00</time>
      </trkpt>
      <trkpt lat="45.64552" lon="5.7249">
        <ele>647</ele>
        <time>2025-05-01T08:50:54.777+00:00</time>
      </trkpt>
      <trkpt lat="45.64559" lon="5.7249">
        <ele>647</ele>
        <time>2025-05-01T08:50:59.236+00:00</time>
      </trkpt>
      <trkpt lat="45.64565" lon="5.72489">
        <ele>647</ele>
        <time>2025-05-01T08:51:03.417+00:00</time>
      </trkpt>
      <trkpt lat="45.64572" lon="5.72488">
        <ele>644</ele>
        <time>2025-05-01T08:51:07.455+00:00</time>
      </trkpt>
      <trkpt lat="45.64588" lon="5.72484">
        <ele>648</ele>
        <time>2025-05-01T08:51:26.252+00:00</time>
      </trkpt>
      <trkpt lat="45.64592" lon="5.72482">
        <ele>648</ele>
        <time>2025-05-01T08:51:30.256+00:00</time>
      </trkpt>
      <trkpt lat="45.64594" lon="5.72479">
        <ele>648</ele>
        <time>2025-05-01T08:51:35.257+00:00</time>
      </trkpt>
      <trkpt lat="45.64595" lon="5.72477">
        <ele>648</ele>
        <time>2025-05-01T08:51:40.242+00:00</time>
      </trkpt>
      <trkpt lat="45.64596" lon="5.72476">
        <ele>648</ele>
        <time>2025-05-01T08:51:44.253+00:00</time>
      </trkpt>
      <trkpt lat="45.64597" lon="5.72477">
        <ele>648</ele>
        <time>2025-05-01T08:51:50.254+00:00</time>
      </trkpt>
      <trkpt lat="45.64597" lon="5.72474">
        <ele>648</ele>
        <time>2025-05-01T08:51:54.251+00:00</time>
      </trkpt>
      <trkpt lat="45.64595" lon="5.72468">
        <ele>648</ele>
        <time>2025-05-01T08:51:58.263+00:00</time>
      </trkpt>
      <trkpt lat="45.64594" lon="5.72463">
        <ele>648</ele>
        <time>2025-05-01T08:52:03.246+00:00</time>
      </trkpt>
      <trkpt lat="45.64593" lon="5.72456">
        <ele>651</ele>
        <time>2025-05-01T08:52:07.252+00:00</time>
      </trkpt>
      <trkpt lat="45.64593" lon="5.72448">
        <ele>651</ele>
        <time>2025-05-01T08:52:11.251+00:00</time>
      </trkpt>
      <trkpt lat="45.64593" lon="5.72435">
        <ele>651</ele>
        <time>2025-05-01T08:52:16.246+00:00</time>
      </trkpt>
      <trkpt lat="45.64593" lon="5.72426">
        <ele>652</ele>
        <time>2025-05-01T08:52:20.801+00:00</time>
      </trkpt>
      <trkpt lat="45.64593" lon="5.72413">
        <ele>652</ele>
        <time>2025-05-01T08:52:25.230+00:00</time>
      </trkpt>
      <trkpt lat="45.64593" lon="5.72409">
        <ele>652</ele>
        <time>2025-05-01T08:52:29.249+00:00</time>
      </trkpt>
      <trkpt lat="45.64592" lon="5.72408">
        <ele>652</ele>
        <time>2025-05-01T08:52:33.250+00:00</time>
      </trkpt>
      <trkpt lat="45.64592" lon="5.72406">
        <ele>652</ele>
        <time>2025-05-01T08:52:38.098+00:00</time>
      </trkpt>
      <trkpt lat="45.64594" lon="5.72392">
        <ele>655</ele>
        <time>2025-05-01T08:52:43.261+00:00</time>
      </trkpt>
      <trkpt lat="45.64595" lon="5.72383">
        <ele>655</ele>
        <time>2025-05-01T08:52:47.716+00:00</time>
      </trkpt>
      <trkpt lat="45.64599" lon="5.72374">
        <ele>659</ele>
        <time>2025-05-01T08:52:52.024+00:00</time>
      </trkpt>
      <trkpt lat="45.64606" lon="5.72367">
        <ele>659</ele>
        <time>2025-05-01T08:52:56.837+00:00</time>
      </trkpt>
      <trkpt lat="45.64614" lon="5.72362">
        <ele>659</ele>
        <time>2025-05-01T08:53:01.257+00:00</time>
      </trkpt>
      <trkpt lat="45.6462" lon="5.72359">
        <ele>659</ele>
        <time>2025-05-01T08:53:05.764+00:00</time>
      </trkpt>
      <trkpt lat="45.64625" lon="5.72357">
        <ele>660</ele>
        <time>2025-05-01T08:53:09.767+00:00</time>
      </trkpt>
      <trkpt lat="45.64632" lon="5.72351">
        <ele>660</ele>
        <time>2025-05-01T08:53:14.250+00:00</time>
      </trkpt>
      <trkpt lat="45.64639" lon="5.72343">
        <ele>664</ele>
        <time>2025-05-01T08:53:18.962+00:00</time>
      </trkpt>
      <trkpt lat="45.64643" lon="5.72336">
        <ele>664</ele>
        <time>2025-05-01T08:53:23.880+00:00</time>
      </trkpt>
      <trkpt lat="45.64646" lon="5.72329">
        <ele>664</ele>
        <time>2025-05-01T08:53:28.255+00:00</time>
      </trkpt>
      <trkpt lat="45.6465" lon="5.7232">
        <ele>664</ele>
        <time>2025-05-01T08:53:32.799+00:00</time>
      </trkpt>
      <trkpt lat="45.64656" lon="5.72314">
        <ele>667</ele>
        <time>2025-05-01T08:53:36.879+00:00</time>
      </trkpt>
      <trkpt lat="45.64663" lon="5.72307">
        <ele>667</ele>
        <time>2025-05-01T08:53:41.919+00:00</time>
      </trkpt>
      <trkpt lat="45.64669" lon="5.72302">
        <ele>667</ele>
        <time>2025-05-01T08:53:46.252+00:00</time>
      </trkpt>
      <trkpt lat="45.64676" lon="5.72299">
        <ele>667</ele>
        <time>2025-05-01T08:53:50.881+00:00</time>
      </trkpt>
      <trkpt lat="45.64682" lon="5.72296">
        <ele>666</ele>
        <time>2025-05-01T08:53:55.179+00:00</time>
      </trkpt>
      <trkpt lat="45.64687" lon="5.72293">
        <ele>666</ele>
        <time>2025-05-01T08:53:59.251+00:00</time>
      </trkpt>
      <trkpt lat="45.64692" lon="5.72291">
        <ele>672</ele>
        <time>2025-05-01T08:54:03.740+00:00</time>
      </trkpt>
      <trkpt lat="45.64695" lon="5.72289">
        <ele>672</ele>
        <time>2025-05-01T08:54:08.253+00:00</time>
      </trkpt>
      <trkpt lat="45.64697" lon="5.72287">
        <ele>672</ele>
        <time>2025-05-01T08:54:13.249+00:00</time>
      </trkpt>
      <trkpt lat="45.64703" lon="5.72281">
        <ele>672</ele>
        <time>2025-05-01T08:55:05.249+00:00</time>
      </trkpt>
      <trkpt lat="45.64703" lon="5.72281">
        <ele>672</ele>
        <time>2025-05-01T08:55:10.244+00:00</time>
      </trkpt>
      <trkpt lat="45.64705" lon="5.72278">
        <ele>672</ele>
        <time>2025-05-01T08:55:15.256+00:00</time>
      </trkpt>
      <trkpt lat="45.64705" lon="5.72275">
        <ele>672</ele>
        <time>2025-05-01T08:55:20.250+00:00</time>
      </trkpt>
      <trkpt lat="45.64705" lon="5.72274">
        <ele>672</ele>
        <time>2025-05-01T08:55:24.256+00:00</time>
      </trkpt>
      <trkpt lat="45.64706" lon="5.72273">
        <ele>672</ele>
        <time>2025-05-01T08:55:29.253+00:00</time>
      </trkpt>
      <trkpt lat="45.64711" lon="5.72267">
        <ele>673</ele>
        <time>2025-05-01T08:55:33.256+00:00</time>
      </trkpt>
      <trkpt lat="45.64717" lon="5.72262">
        <ele>679</ele>
        <time>2025-05-01T08:55:38.255+00:00</time>
      </trkpt>
      <trkpt lat="45.64723" lon="5.72262">
        <ele>679</ele>
        <time>2025-05-01T08:55:43.235+00:00</time>
      </trkpt>
      <trkpt lat="45.64728" lon="5.72261">
        <ele>679</ele>
        <time>2025-05-01T08:55:47.422+00:00</time>
      </trkpt>
      <trkpt lat="45.64733" lon="5.7226">
        <ele>679</ele>
        <time>2025-05-01T08:55:51.482+00:00</time>
      </trkpt>
      <trkpt lat="45.64736" lon="5.72262">
        <ele>677</ele>
        <time>2025-05-01T08:55:56.060+00:00</time>
      </trkpt>
      <trkpt lat="45.64738" lon="5.72262">
        <ele>677</ele>
        <time>2025-05-01T08:56:00.783+00:00</time>
      </trkpt>
      <trkpt lat="45.64743" lon="5.72263">
        <ele>677</ele>
        <time>2025-05-01T08:56:05.200+00:00</time>
      </trkpt>
      <trkpt lat="45.6475" lon="5.72265">
        <ele>671</ele>
        <time>2025-05-01T08:56:09.783+00:00</time>
      </trkpt>
      <trkpt lat="45.64757" lon="5.72264">
        <ele>671</ele>
        <time>2025-05-01T08:56:14.250+00:00</time>
      </trkpt>
      <trkpt lat="45.64765" lon="5.72263">
        <ele>677</ele>
        <time>2025-05-01T08:56:18.742+00:00</time>
      </trkpt>
      <trkpt lat="45.64773" lon="5.72262">
        <ele>677</ele>
        <time>2025-05-01T08:56:23.198+00:00</time>
      </trkpt>
      <trkpt lat="45.6478" lon="5.72262">
        <ele>677</ele>
        <time>2025-05-01T08:56:27.719+00:00</time>
      </trkpt>
      <trkpt lat="45.64787" lon="5.72261">
        <ele>677</ele>
        <time>2025-05-01T08:56:32.217+00:00</time>
      </trkpt>
      <trkpt lat="45.64793" lon="5.72256">
        <ele>678</ele>
        <time>2025-05-01T08:56:36.249+00:00</time>
      </trkpt>
      <trkpt lat="45.64798" lon="5.72253">
        <ele>678</ele>
        <time>2025-05-01T08:56:40.836+00:00</time>
      </trkpt>
      <trkpt lat="45.64803" lon="5.7225">
        <ele>678</ele>
        <time>2025-05-01T08:56:45.256+00:00</time>
      </trkpt>
      <trkpt lat="45.64809" lon="5.72246">
        <ele>678</ele>
        <time>2025-05-01T08:56:49.765+00:00</time>
      </trkpt>
      <trkpt lat="45.64814" lon="5.72243">
        <ele>678</ele>
        <time>2025-05-01T08:56:53.803+00:00</time>
      </trkpt>
      <trkpt lat="45.64819" lon="5.72239">
        <ele>678</ele>
        <time>2025-05-01T08:56:58.223+00:00</time>
      </trkpt>
      <trkpt lat="45.64824" lon="5.72235">
        <ele>685</ele>
        <time>2025-05-01T08:57:02.344+00:00</time>
      </trkpt>
      <trkpt lat="45.64829" lon="5.72231">
        <ele>685</ele>
        <time>2025-05-01T08:57:06.565+00:00</time>
      </trkpt>
      <trkpt lat="45.64835" lon="5.72229">
        <ele>685</ele>
        <time>2025-05-01T08:57:11.238+00:00</time>
      </trkpt>
      <trkpt lat="45.64839" lon="5.72225">
        <ele>685</ele>
        <time>2025-05-01T08:57:15.443+00:00</time>
      </trkpt>
      <trkpt lat="45.64844" lon="5.72219">
        <ele>685</ele>
        <time>2025-05-01T08:57:19.567+00:00</time>
      </trkpt>
      <trkpt lat="45.64851" lon="5.72213">
        <ele>683</ele>
        <time>2025-05-01T08:57:24.246+00:00</time>
      </trkpt>
      <trkpt lat="45.64856" lon="5.72209">
        <ele>683</ele>
        <time>2025-05-01T08:57:28.422+00:00</time>
      </trkpt>
      <trkpt lat="45.64862" lon="5.72206">
        <ele>687</ele>
        <time>2025-05-01T08:57:32.601+00:00</time>
      </trkpt>
      <trkpt lat="45.64869" lon="5.72206">
        <ele>687</ele>
        <time>2025-05-01T08:57:37.001+00:00</time>
      </trkpt>
      <trkpt lat="45.64874" lon="5.72205">
        <ele>687</ele>
        <time>2025-05-01T08:57:41.140+00:00</time>
      </trkpt>
      <trkpt lat="45.64879" lon="5.72202">
        <ele>686</ele>
        <time>2025-05-01T08:57:45.197+00:00</time>
      </trkpt>
      <trkpt lat="45.64886" lon="5.72202">
        <ele>686</ele>
        <time>2025-05-01T08:57:49.679+00:00</time>
      </trkpt>
      <trkpt lat="45.64893" lon="5.722">
        <ele>686</ele>
        <time>2025-05-01T08:57:54.058+00:00</time>
      </trkpt>
      <trkpt lat="45.649" lon="5.722">
        <ele>686</ele>
        <time>2025-05-01T08:57:58.699+00:00</time>
      </trkpt>
      <trkpt lat="45.64907" lon="5.72202">
        <ele>686</ele>
        <time>2025-05-01T08:58:03.240+00:00</time>
      </trkpt>
      <trkpt lat="45.64911" lon="5.72204">
        <ele>686</ele>
        <time>2025-05-01T08:58:07.251+00:00</time>
      </trkpt>
      <trkpt lat="45.64917" lon="5.72208">
        <ele>686</ele>
        <time>2025-05-01T08:58:12.251+00:00</time>
      </trkpt>
      <trkpt lat="45.64919" lon="5.72211">
        <ele>683</ele>
        <time>2025-05-01T08:58:16.258+00:00</time>
      </trkpt>
      <trkpt lat="45.64925" lon="5.72214">
        <ele>683</ele>
        <time>2025-05-01T08:58:21.256+00:00</time>
      </trkpt>
      <trkpt lat="45.6493" lon="5.72215">
        <ele>683</ele>
        <time>2025-05-01T08:58:26.244+00:00</time>
      </trkpt>
      <trkpt lat="45.64935" lon="5.72217">
        <ele>683</ele>
        <time>2025-05-01T08:58:30.259+00:00</time>
      </trkpt>
      <trkpt lat="45.64944" lon="5.7222">
        <ele>683</ele>
        <time>2025-05-01T08:58:35.255+00:00</time>
      </trkpt>
      <trkpt lat="45.64949" lon="5.72221">
        <ele>683</ele>
        <time>2025-05-01T08:58:39.565+00:00</time>
      </trkpt>
      <trkpt lat="45.64957" lon="5.7222">
        <ele>683</ele>
        <time>2025-05-01T08:58:43.984+00:00</time>
      </trkpt>
      <trkpt lat="45.64962" lon="5.72219">
        <ele>685</ele>
        <time>2025-05-01T08:58:48.444+00:00</time>
      </trkpt>
      <trkpt lat="45.64969" lon="5.7222">
        <ele>685</ele>
        <time>2025-05-01T08:58:52.843+00:00</time>
      </trkpt>
      <trkpt lat="45.64975" lon="5.7222">
        <ele>685</ele>
        <time>2025-05-01T08:58:57.143+00:00</time>
      </trkpt>
      <trkpt lat="45.64984" lon="5.72218">
        <ele>685</ele>
        <time>2025-05-01T08:59:01.254+00:00</time>
      </trkpt>
      <trkpt lat="45.64993" lon="5.72216">
        <ele>685</ele>
        <time>2025-05-01T08:59:05.823+00:00</time>
      </trkpt>
      <trkpt lat="45.65" lon="5.72214">
        <ele>685</ele>
        <time>2025-05-01T08:59:10.249+00:00</time>
      </trkpt>
      <trkpt lat="45.65006" lon="5.72211">
        <ele>685</ele>
        <time>2025-05-01T08:59:14.243+00:00</time>
      </trkpt>
      <trkpt lat="45.65014" lon="5.72208">
        <ele>689</ele>
        <time>2025-05-01T08:59:18.251+00:00</time>
      </trkpt>
      <trkpt lat="45.65024" lon="5.72204">
        <ele>689</ele>
        <time>2025-05-01T08:59:22.782+00:00</time>
      </trkpt>
      <trkpt lat="45.65031" lon="5.72201">
        <ele>689</ele>
        <time>2025-05-01T08:59:26.983+00:00</time>
      </trkpt>
      <trkpt lat="45.65038" lon="5.72198">
        <ele>689</ele>
        <time>2025-05-01T08:59:31.004+00:00</time>
      </trkpt>
      <trkpt lat="45.65046" lon="5.72197">
        <ele>687</ele>
        <time>2025-05-01T08:59:35.362+00:00</time>
      </trkpt>
      <trkpt lat="45.65054" lon="5.72196">
        <ele>687</ele>
        <time>2025-05-01T08:59:39.703+00:00</time>
      </trkpt>
      <trkpt lat="45.65062" lon="5.72193">
        <ele>687</ele>
        <time>2025-05-01T08:59:44.221+00:00</time>
      </trkpt>
      <trkpt lat="45.65069" lon="5.72189">
        <ele>687</ele>
        <time>2025-05-01T08:59:48.248+00:00</time>
      </trkpt>
      <trkpt lat="45.65077" lon="5.72184">
        <ele>683</ele>
        <time>2025-05-01T08:59:53.182+00:00</time>
      </trkpt>
      <trkpt lat="45.65082" lon="5.72186">
        <ele>683</ele>
        <time>2025-05-01T08:59:57.461+00:00</time>
      </trkpt>
      <trkpt lat="45.65088" lon="5.72188">
        <ele>683</ele>
        <time>2025-05-01T09:00:01.540+00:00</time>
      </trkpt>
      <trkpt lat="45.65094" lon="5.72189">
        <ele>683</ele>
        <time>2025-05-01T09:00:05.939+00:00</time>
      </trkpt>
      <trkpt lat="45.65101" lon="5.72188">
        <ele>678</ele>
        <time>2025-05-01T09:00:10.018+00:00</time>
      </trkpt>
      <trkpt lat="45.65107" lon="5.72185">
        <ele>678</ele>
        <time>2025-05-01T09:00:14.022+00:00</time>
      </trkpt>
      <trkpt lat="45.65113" lon="5.72182">
        <ele>678</ele>
        <time>2025-05-01T09:00:18.479+00:00</time>
      </trkpt>
      <trkpt lat="45.65119" lon="5.72181">
        <ele>678</ele>
        <time>2025-05-01T09:00:22.957+00:00</time>
      </trkpt>
      <trkpt lat="45.65126" lon="5.7218">
        <ele>681</ele>
        <time>2025-05-01T09:00:27.059+00:00</time>
      </trkpt>
      <trkpt lat="45.65131" lon="5.72178">
        <ele>681</ele>
        <time>2025-05-01T09:00:31.138+00:00</time>
      </trkpt>
      <trkpt lat="45.65137" lon="5.72176">
        <ele>681</ele>
        <time>2025-05-01T09:00:35.158+00:00</time>
      </trkpt>
      <trkpt lat="45.65144" lon="5.72172">
        <ele>681</ele>
        <time>2025-05-01T09:00:39.250+00:00</time>
      </trkpt>
      <trkpt lat="45.65151" lon="5.7217">
        <ele>681</ele>
        <time>2025-05-01T09:00:43.464+00:00</time>
      </trkpt>
      <trkpt lat="45.65157" lon="5.72168">
        <ele>680</ele>
        <time>2025-05-01T09:00:48.242+00:00</time>
      </trkpt>
      <trkpt lat="45.65165" lon="5.72165">
        <ele>680</ele>
        <time>2025-05-01T09:00:52.342+00:00</time>
      </trkpt>
      <trkpt lat="45.65171" lon="5.7216">
        <ele>680</ele>
        <time>2025-05-01T09:00:57.043+00:00</time>
      </trkpt>
      <trkpt lat="45.65176" lon="5.72159">
        <ele>680</ele>
        <time>2025-05-01T09:01:01.122+00:00</time>
      </trkpt>
      <trkpt lat="45.65183" lon="5.72159">
        <ele>677</ele>
        <time>2025-05-01T09:01:05.662+00:00</time>
      </trkpt>
      <trkpt lat="45.65191" lon="5.72161">
        <ele>677</ele>
        <time>2025-05-01T09:01:10.121+00:00</time>
      </trkpt>
      <trkpt lat="45.65199" lon="5.72162">
        <ele>677</ele>
        <time>2025-05-01T09:01:14.561+00:00</time>
      </trkpt>
      <trkpt lat="45.65206" lon="5.72164">
        <ele>677</ele>
        <time>2025-05-01T09:01:18.761+00:00</time>
      </trkpt>
      <trkpt lat="45.65213" lon="5.72167">
        <ele>672</ele>
        <time>2025-05-01T09:01:23.181+00:00</time>
      </trkpt>
      <trkpt lat="45.65218" lon="5.72167">
        <ele>672</ele>
        <time>2025-05-01T09:01:27.252+00:00</time>
      </trkpt>
      <trkpt lat="45.65224" lon="5.72169">
        <ele>672</ele>
        <time>2025-05-01T09:01:31.760+00:00</time>
      </trkpt>
      <trkpt lat="45.6523" lon="5.72168">
        <ele>672</ele>
        <time>2025-05-01T09:01:35.881+00:00</time>
      </trkpt>
      <trkpt lat="45.65237" lon="5.72167">
        <ele>668</ele>
        <time>2025-05-01T09:01:40.120+00:00</time>
      </trkpt>
      <trkpt lat="45.65244" lon="5.72162">
        <ele>668</ele>
        <time>2025-05-01T09:01:44.321+00:00</time>
      </trkpt>
      <trkpt lat="45.6525" lon="5.72155">
        <ele>668</ele>
        <time>2025-05-01T09:01:48.741+00:00</time>
      </trkpt>
      <trkpt lat="45.65255" lon="5.72149">
        <ele>671</ele>
        <time>2025-05-01T09:01:53.079+00:00</time>
      </trkpt>
      <trkpt lat="45.65258" lon="5.7214">
        <ele>671</ele>
        <time>2025-05-01T09:01:57.239+00:00</time>
      </trkpt>
      <trkpt lat="45.65266" lon="5.72123">
        <ele>674</ele>
        <time>2025-05-01T09:02:01.720+00:00</time>
      </trkpt>
      <trkpt lat="45.65274" lon="5.72103">
        <ele>674</ele>
        <time>2025-05-01T09:02:06.249+00:00</time>
      </trkpt>
      <trkpt lat="45.65282" lon="5.72083">
        <ele>678</ele>
        <time>2025-05-01T09:02:10.251+00:00</time>
      </trkpt>
      <trkpt lat="45.65292" lon="5.72071">
        <ele>679</ele>
        <time>2025-05-01T09:02:14.959+00:00</time>
      </trkpt>
      <trkpt lat="45.65296" lon="5.72066">
        <ele>684</ele>
        <time>2025-05-01T09:02:19.159+00:00</time>
      </trkpt>
      <trkpt lat="45.65301" lon="5.72059">
        <ele>684</ele>
        <time>2025-05-01T09:02:23.320+00:00</time>
      </trkpt>
      <trkpt lat="45.65307" lon="5.72054">
        <ele>684</ele>
        <time>2025-05-01T09:02:28.244+00:00</time>
      </trkpt>
      <trkpt lat="45.65313" lon="5.72057">
        <ele>684</ele>
        <time>2025-05-01T09:02:33.251+00:00</time>
      </trkpt>
      <trkpt lat="45.6532" lon="5.7206">
        <ele>684</ele>
        <time>2025-05-01T09:02:37.659+00:00</time>
      </trkpt>
      <trkpt lat="45.65326" lon="5.72059">
        <ele>684</ele>
        <time>2025-05-01T09:02:41.760+00:00</time>
      </trkpt>
      <trkpt lat="45.65332" lon="5.72058">
        <ele>684</ele>
        <time>2025-05-01T09:02:46.242+00:00</time>
      </trkpt>
      <trkpt lat="45.65338" lon="5.72058">
        <ele>684</ele>
        <time>2025-05-01T09:02:50.920+00:00</time>
      </trkpt>
      <trkpt lat="45.65343" lon="5.72058">
        <ele>684</ele>
        <time>2025-05-01T09:02:55.238+00:00</time>
      </trkpt>
      <trkpt lat="45.65349" lon="5.72058">
        <ele>682</ele>
        <time>2025-05-01T09:02:59.776+00:00</time>
      </trkpt>
      <trkpt lat="45.65355" lon="5.72058">
        <ele>682</ele>
        <time>2025-05-01T09:03:04.237+00:00</time>
      </trkpt>
      <trkpt lat="45.65361" lon="5.72054">
        <ele>682</ele>
        <time>2025-05-01T09:03:08.485+00:00</time>
      </trkpt>
      <trkpt lat="45.65367" lon="5.7205">
        <ele>682</ele>
        <time>2025-05-01T09:03:12.685+00:00</time>
      </trkpt>
      <trkpt lat="45.65372" lon="5.72049">
        <ele>682</ele>
        <time>2025-05-01T09:03:16.825+00:00</time>
      </trkpt>
      <trkpt lat="45.65376" lon="5.72048">
        <ele>678</ele>
        <time>2025-05-01T09:03:21.103+00:00</time>
      </trkpt>
      <trkpt lat="45.65378" lon="5.72048">
        <ele>678</ele>
        <time>2025-05-01T09:03:25.237+00:00</time>
      </trkpt>
      <trkpt lat="45.65381" lon="5.72049">
        <ele>678</ele>
        <time>2025-05-01T09:03:29.246+00:00</time>
      </trkpt>
      <trkpt lat="45.65384" lon="5.72049">
        <ele>678</ele>
        <time>2025-05-01T09:03:33.862+00:00</time>
      </trkpt>
      <trkpt lat="45.65387" lon="5.72048">
        <ele>678</ele>
        <time>2025-05-01T09:03:38.239+00:00</time>
      </trkpt>
      <trkpt lat="45.65393" lon="5.72049">
        <ele>678</ele>
        <time>2025-05-01T09:03:42.237+00:00</time>
      </trkpt>
      <trkpt lat="45.654" lon="5.72049">
        <ele>678</ele>
        <time>2025-05-01T09:03:46.403+00:00</time>
      </trkpt>
      <trkpt lat="45.65409" lon="5.72046">
        <ele>676</ele>
        <time>2025-05-01T09:03:50.962+00:00</time>
      </trkpt>
      <trkpt lat="45.65419" lon="5.72041">
        <ele>680</ele>
        <time>2025-05-01T09:03:55.603+00:00</time>
      </trkpt>
      <trkpt lat="45.65429" lon="5.72041">
        <ele>680</ele>
        <time>2025-05-01T09:04:00.061+00:00</time>
      </trkpt>
      <trkpt lat="45.65436" lon="5.72043">
        <ele>677</ele>
        <time>2025-05-01T09:04:04.200+00:00</time>
      </trkpt>
      <trkpt lat="45.65445" lon="5.72042">
        <ele>677</ele>
        <time>2025-05-01T09:04:08.680+00:00</time>
      </trkpt>
      <trkpt lat="45.65453" lon="5.72045">
        <ele>677</ele>
        <time>2025-05-01T09:04:12.759+00:00</time>
      </trkpt>
      <trkpt lat="45.6546" lon="5.72051">
        <ele>680</ele>
        <time>2025-05-01T09:04:16.801+00:00</time>
      </trkpt>
      <trkpt lat="45.65468" lon="5.72054">
        <ele>680</ele>
        <time>2025-05-01T09:04:21.243+00:00</time>
      </trkpt>
      <trkpt lat="45.65472" lon="5.72054">
        <ele>680</ele>
        <time>2025-05-01T09:04:25.798+00:00</time>
      </trkpt>
      <trkpt lat="45.65476" lon="5.72055">
        <ele>680</ele>
        <time>2025-05-01T09:04:30.119+00:00</time>
      </trkpt>
      <trkpt lat="45.65481" lon="5.72055">
        <ele>680</ele>
        <time>2025-05-01T09:04:34.478+00:00</time>
      </trkpt>
      <trkpt lat="45.65487" lon="5.72052">
        <ele>680</ele>
        <time>2025-05-01T09:04:38.819+00:00</time>
      </trkpt>
      <trkpt lat="45.65495" lon="5.72047">
        <ele>680</ele>
        <time>2025-05-01T09:04:43.241+00:00</time>
      </trkpt>
      <trkpt lat="45.65505" lon="5.72044">
        <ele>680</ele>
        <time>2025-05-01T09:04:48.117+00:00</time>
      </trkpt>
      <trkpt lat="45.65511" lon="5.72038">
        <ele>684</ele>
        <time>2025-05-01T09:04:52.716+00:00</time>
      </trkpt>
      <trkpt lat="45.65516" lon="5.72035">
        <ele>683</ele>
        <time>2025-05-01T09:04:57.136+00:00</time>
      </trkpt>
      <trkpt lat="45.65523" lon="5.72026">
        <ele>683</ele>
        <time>2025-05-01T09:05:01.246+00:00</time>
      </trkpt>
      <trkpt lat="45.65532" lon="5.72019">
        <ele>683</ele>
        <time>2025-05-01T09:05:06.232+00:00</time>
      </trkpt>
      <trkpt lat="45.65538" lon="5.72016">
        <ele>683</ele>
        <time>2025-05-01T09:05:10.576+00:00</time>
      </trkpt>
      <trkpt lat="45.65544" lon="5.72013">
        <ele>686</ele>
        <time>2025-05-01T09:05:15.243+00:00</time>
      </trkpt>
      <trkpt lat="45.6555" lon="5.72015">
        <ele>682</ele>
        <time>2025-05-01T09:05:19.804+00:00</time>
      </trkpt>
      <trkpt lat="45.65556" lon="5.72011">
        <ele>686</ele>
        <time>2025-05-01T09:05:24.242+00:00</time>
      </trkpt>
      <trkpt lat="45.65562" lon="5.72008">
        <ele>686</ele>
        <time>2025-05-01T09:05:28.662+00:00</time>
      </trkpt>
      <trkpt lat="45.65568" lon="5.72005">
        <ele>686</ele>
        <time>2025-05-01T09:05:33.238+00:00</time>
      </trkpt>
      <trkpt lat="45.65574" lon="5.72003">
        <ele>687</ele>
        <time>2025-05-01T09:05:37.544+00:00</time>
      </trkpt>
      <trkpt lat="45.65581" lon="5.72001">
        <ele>687</ele>
        <time>2025-05-01T09:05:41.784+00:00</time>
      </trkpt>
      <trkpt lat="45.65587" lon="5.71998">
        <ele>687</ele>
        <time>2025-05-01T09:05:46.246+00:00</time>
      </trkpt>
      <trkpt lat="45.65594" lon="5.71995">
        <ele>687</ele>
        <time>2025-05-01T09:05:50.863+00:00</time>
      </trkpt>
      <trkpt lat="45.65599" lon="5.71995">
        <ele>689</ele>
        <time>2025-05-01T09:05:54.924+00:00</time>
      </trkpt>
      <trkpt lat="45.65606" lon="5.71994">
        <ele>689</ele>
        <time>2025-05-01T09:05:59.323+00:00</time>
      </trkpt>
      <trkpt lat="45.65613" lon="5.71995">
        <ele>689</ele>
        <time>2025-05-01T09:06:03.903+00:00</time>
      </trkpt>
      <trkpt lat="45.65616" lon="5.71995">
        <ele>689</ele>
        <time>2025-05-01T09:06:08.243+00:00</time>
      </trkpt>
      <trkpt lat="45.65616" lon="5.71996">
        <ele>689</ele>
        <time>2025-05-01T09:06:12.561+00:00</time>
      </trkpt>
      <trkpt lat="45.65621" lon="5.71995">
        <ele>689</ele>
        <time>2025-05-01T09:06:17.102+00:00</time>
      </trkpt>
      <trkpt lat="45.65628" lon="5.71997">
        <ele>689</ele>
        <time>2025-05-01T09:06:21.481+00:00</time>
      </trkpt>
      <trkpt lat="45.65632" lon="5.71997">
        <ele>689</ele>
        <time>2025-05-01T09:06:25.881+00:00</time>
      </trkpt>
      <trkpt lat="45.65636" lon="5.72003">
        <ele>689</ele>
        <time>2025-05-01T09:06:30.228+00:00</time>
      </trkpt>
      <trkpt lat="45.65643" lon="5.72009">
        <ele>689</ele>
        <time>2025-05-01T09:06:34.240+00:00</time>
      </trkpt>
      <trkpt lat="45.65648" lon="5.72012">
        <ele>689</ele>
        <time>2025-05-01T09:06:39.236+00:00</time>
      </trkpt>
      <trkpt lat="45.65654" lon="5.72016">
        <ele>685</ele>
        <time>2025-05-01T09:06:44.233+00:00</time>
      </trkpt>
      <trkpt lat="45.65661" lon="5.72019">
        <ele>685</ele>
        <time>2025-05-01T09:06:48.247+00:00</time>
      </trkpt>
      <trkpt lat="45.65667" lon="5.72022">
        <ele>685</ele>
        <time>2025-05-01T09:06:53.244+00:00</time>
      </trkpt>
      <trkpt lat="45.65671" lon="5.72024">
        <ele>685</ele>
        <time>2025-05-01T09:06:57.251+00:00</time>
      </trkpt>
      <trkpt lat="45.65674" lon="5.72025">
        <ele>685</ele>
        <time>2025-05-01T09:07:02.246+00:00</time>
      </trkpt>
      <trkpt lat="45.6568" lon="5.72026">
        <ele>685</ele>
        <time>2025-05-01T09:07:07.244+00:00</time>
      </trkpt>
      <trkpt lat="45.65686" lon="5.72024">
        <ele>683</ele>
        <time>2025-05-01T09:07:12.226+00:00</time>
      </trkpt>
      <trkpt lat="45.65689" lon="5.72024">
        <ele>683</ele>
        <time>2025-05-01T09:07:16.237+00:00</time>
      </trkpt>
      <trkpt lat="45.65689" lon="5.72023">
        <ele>683</ele>
        <time>2025-05-01T09:07:21.244+00:00</time>
      </trkpt>
      <trkpt lat="45.6569" lon="5.72023">
        <ele>683</ele>
        <time>2025-05-01T09:07:25.244+00:00</time>
      </trkpt>
      <trkpt lat="45.65698" lon="5.72028">
        <ele>683</ele>
        <time>2025-05-01T09:07:30.223+00:00</time>
      </trkpt>
      <trkpt lat="45.65703" lon="5.72033">
        <ele>683</ele>
        <time>2025-05-01T09:07:34.240+00:00</time>
      </trkpt>
      <trkpt lat="45.65708" lon="5.72039">
        <ele>680</ele>
        <time>2025-05-01T09:07:39.243+00:00</time>
      </trkpt>
      <trkpt lat="45.65714" lon="5.72039">
        <ele>680</ele>
        <time>2025-05-01T09:07:44.233+00:00</time>
      </trkpt>
      <trkpt lat="45.65717" lon="5.72037">
        <ele>680</ele>
        <time>2025-05-01T09:07:48.241+00:00</time>
      </trkpt>
      <trkpt lat="45.65724" lon="5.72033">
        <ele>680</ele>
        <time>2025-05-01T09:07:53.235+00:00</time>
      </trkpt>
      <trkpt lat="45.6573" lon="5.72027">
        <ele>680</ele>
        <time>2025-05-01T09:07:57.235+00:00</time>
      </trkpt>
      <trkpt lat="45.65735" lon="5.72021">
        <ele>680</ele>
        <time>2025-05-01T09:08:01.506+00:00</time>
      </trkpt>
      <trkpt lat="45.65741" lon="5.72011">
        <ele>680</ele>
        <time>2025-05-01T09:08:05.945+00:00</time>
      </trkpt>
      <trkpt lat="45.65747" lon="5.72002">
        <ele>680</ele>
        <time>2025-05-01T09:08:10.235+00:00</time>
      </trkpt>
      <trkpt lat="45.6575" lon="5.71992">
        <ele>680</ele>
        <time>2025-05-01T09:08:14.865+00:00</time>
      </trkpt>
      <trkpt lat="45.65753" lon="5.71985">
        <ele>686</ele>
        <time>2025-05-01T09:08:19.022+00:00</time>
      </trkpt>
      <trkpt lat="45.65759" lon="5.71973">
        <ele>686</ele>
        <time>2025-05-01T09:08:24.103+00:00</time>
      </trkpt>
      <trkpt lat="45.65764" lon="5.71964">
        <ele>684</ele>
        <time>2025-05-01T09:08:28.238+00:00</time>
      </trkpt>
      <trkpt lat="45.65768" lon="5.71956">
        <ele>686</ele>
        <time>2025-05-01T09:08:32.246+00:00</time>
      </trkpt>
      <trkpt lat="45.65774" lon="5.71948">
        <ele>686</ele>
        <time>2025-05-01T09:08:37.242+00:00</time>
      </trkpt>
      <trkpt lat="45.65779" lon="5.71939">
        <ele>686</ele>
        <time>2025-05-01T09:08:41.685+00:00</time>
      </trkpt>
      <trkpt lat="45.65784" lon="5.71934">
        <ele>686</ele>
        <time>2025-05-01T09:08:45.841+00:00</time>
      </trkpt>
      <trkpt lat="45.65788" lon="5.7193">
        <ele>689</ele>
        <time>2025-05-01T09:08:50.101+00:00</time>
      </trkpt>
      <trkpt lat="45.65788" lon="5.71924">
        <ele>689</ele>
        <time>2025-05-01T09:08:54.226+00:00</time>
      </trkpt>
      <trkpt lat="45.65788" lon="5.71918">
        <ele>689</ele>
        <time>2025-05-01T09:08:58.702+00:00</time>
      </trkpt>
      <trkpt lat="45.65789" lon="5.71911">
        <ele>689</ele>
        <time>2025-05-01T09:09:03.123+00:00</time>
      </trkpt>
      <trkpt lat="45.65791" lon="5.71906">
        <ele>689</ele>
        <time>2025-05-01T09:09:07.781+00:00</time>
      </trkpt>
      <trkpt lat="45.65795" lon="5.71901">
        <ele>688</ele>
        <time>2025-05-01T09:09:12.229+00:00</time>
      </trkpt>
      <trkpt lat="45.658" lon="5.71899">
        <ele>688</ele>
        <time>2025-05-01T09:09:16.841+00:00</time>
      </trkpt>
      <trkpt lat="45.65806" lon="5.71896">
        <ele>688</ele>
        <time>2025-05-01T09:09:21.182+00:00</time>
      </trkpt>
      <trkpt lat="45.65811" lon="5.71893">
        <ele>688</ele>
        <time>2025-05-01T09:09:25.460+00:00</time>
      </trkpt>
      <trkpt lat="45.65816" lon="5.7189">
        <ele>688</ele>
        <time>2025-05-01T09:09:29.901+00:00</time>
      </trkpt>
      <trkpt lat="45.65822" lon="5.71884">
        <ele>688</ele>
        <time>2025-05-01T09:09:34.226+00:00</time>
      </trkpt>
      <trkpt lat="45.65827" lon="5.71877">
        <ele>688</ele>
        <time>2025-05-01T09:09:38.248+00:00</time>
      </trkpt>
      <trkpt lat="45.6583" lon="5.7187">
        <ele>692</ele>
        <time>2025-05-01T09:09:42.581+00:00</time>
      </trkpt>
      <trkpt lat="45.65835" lon="5.71865">
        <ele>692</ele>
        <time>2025-05-01T09:09:47.249+00:00</time>
      </trkpt>
      <trkpt lat="45.6584" lon="5.71861">
        <ele>692</ele>
        <time>2025-05-01T09:09:52.236+00:00</time>
      </trkpt>
      <trkpt lat="45.65844" lon="5.71854">
        <ele>692</ele>
        <time>2025-05-01T09:09:56.779+00:00</time>
      </trkpt>
      <trkpt lat="45.65848" lon="5.71844">
        <ele>697</ele>
        <time>2025-05-01T09:10:01.237+00:00</time>
      </trkpt>
      <trkpt lat="45.65852" lon="5.71838">
        <ele>697</ele>
        <time>2025-05-01T09:10:05.245+00:00</time>
      </trkpt>
      <trkpt lat="45.65855" lon="5.71829">
        <ele>697</ele>
        <time>2025-05-01T09:10:10.235+00:00</time>
      </trkpt>
      <trkpt lat="45.65859" lon="5.71822">
        <ele>697</ele>
        <time>2025-05-01T09:10:15.242+00:00</time>
      </trkpt>
      <trkpt lat="45.65863" lon="5.71816">
        <ele>700</ele>
        <time>2025-05-01T09:10:19.244+00:00</time>
      </trkpt>
      <trkpt lat="45.65867" lon="5.71812">
        <ele>700</ele>
        <time>2025-05-01T09:10:24.231+00:00</time>
      </trkpt>
      <trkpt lat="45.65872" lon="5.71809">
        <ele>700</ele>
        <time>2025-05-01T09:10:29.227+00:00</time>
      </trkpt>
      <trkpt lat="45.6588" lon="5.71803">
        <ele>701</ele>
        <time>2025-05-01T09:10:34.233+00:00</time>
      </trkpt>
      <trkpt lat="45.65889" lon="5.71798">
        <ele>701</ele>
        <time>2025-05-01T09:10:39.225+00:00</time>
      </trkpt>
      <trkpt lat="45.65896" lon="5.71795">
        <ele>701</ele>
        <time>2025-05-01T09:10:43.239+00:00</time>
      </trkpt>
      <trkpt lat="45.65899" lon="5.71796">
        <ele>701</ele>
        <time>2025-05-01T09:10:47.639+00:00</time>
      </trkpt>
      <trkpt lat="45.65904" lon="5.71794">
        <ele>700</ele>
        <time>2025-05-01T09:10:51.857+00:00</time>
      </trkpt>
      <trkpt lat="45.6591" lon="5.71795">
        <ele>700</ele>
        <time>2025-05-01T09:10:56.239+00:00</time>
      </trkpt>
      <trkpt lat="45.65919" lon="5.71799">
        <ele>700</ele>
        <time>2025-05-01T09:11:00.236+00:00</time>
      </trkpt>
      <trkpt lat="45.65925" lon="5.718">
        <ele>700</ele>
        <time>2025-05-01T09:11:04.657+00:00</time>
      </trkpt>
      <trkpt lat="45.65929" lon="5.718">
        <ele>700</ele>
        <time>2025-05-01T09:11:08.698+00:00</time>
      </trkpt>
      <trkpt lat="45.65941" lon="5.71786">
        <ele>697</ele>
        <time>2025-05-01T09:11:26.244+00:00</time>
      </trkpt>
      <trkpt lat="45.65941" lon="5.71784">
        <ele>697</ele>
        <time>2025-05-01T09:11:30.684+00:00</time>
      </trkpt>
      <trkpt lat="45.65941" lon="5.7178">
        <ele>697</ele>
        <time>2025-05-01T09:11:35.224+00:00</time>
      </trkpt>
      <trkpt lat="45.6594" lon="5.71775">
        <ele>697</ele>
        <time>2025-05-01T09:11:39.442+00:00</time>
      </trkpt>
      <trkpt lat="45.65939" lon="5.71766">
        <ele>697</ele>
        <time>2025-05-01T09:11:44.243+00:00</time>
      </trkpt>
      <trkpt lat="45.65938" lon="5.71759">
        <ele>696</ele>
        <time>2025-05-01T09:11:48.720+00:00</time>
      </trkpt>
      <trkpt lat="45.65938" lon="5.71753">
        <ele>696</ele>
        <time>2025-05-01T09:11:53.259+00:00</time>
      </trkpt>
      <trkpt lat="45.65939" lon="5.71747">
        <ele>696</ele>
        <time>2025-05-01T09:11:58.229+00:00</time>
      </trkpt>
      <trkpt lat="45.65941" lon="5.71741">
        <ele>696</ele>
        <time>2025-05-01T09:12:03.239+00:00</time>
      </trkpt>
      <trkpt lat="45.65944" lon="5.71735">
        <ele>693</ele>
        <time>2025-05-01T09:12:08.227+00:00</time>
      </trkpt>
      <trkpt lat="45.65947" lon="5.71725">
        <ele>693</ele>
        <time>2025-05-01T09:12:13.236+00:00</time>
      </trkpt>
      <trkpt lat="45.65948" lon="5.71714">
        <ele>693</ele>
        <time>2025-05-01T09:12:17.240+00:00</time>
      </trkpt>
      <trkpt lat="45.65949" lon="5.71702">
        <ele>689</ele>
        <time>2025-05-01T09:12:22.233+00:00</time>
      </trkpt>
      <trkpt lat="45.65948" lon="5.71696">
        <ele>689</ele>
        <time>2025-05-01T09:12:27.237+00:00</time>
      </trkpt>
      <trkpt lat="45.65947" lon="5.71686">
        <ele>689</ele>
        <time>2025-05-01T09:12:32.232+00:00</time>
      </trkpt>
      <trkpt lat="45.65948" lon="5.71675">
        <ele>685</ele>
        <time>2025-05-01T09:12:37.246+00:00</time>
      </trkpt>
      <trkpt lat="45.65948" lon="5.71673">
        <ele>685</ele>
        <time>2025-05-01T09:12:41.247+00:00</time>
      </trkpt>
      <trkpt lat="45.6595" lon="5.71664">
        <ele>685</ele>
        <time>2025-05-01T09:12:46.240+00:00</time>
      </trkpt>
      <trkpt lat="45.65947" lon="5.71656">
        <ele>685</ele>
        <time>2025-05-01T09:12:51.244+00:00</time>
      </trkpt>
      <trkpt lat="45.65942" lon="5.7165">
        <ele>681</ele>
        <time>2025-05-01T09:12:56.228+00:00</time>
      </trkpt>
      <trkpt lat="45.65938" lon="5.71646">
        <ele>681</ele>
        <time>2025-05-01T09:13:00.536+00:00</time>
      </trkpt>
      <trkpt lat="45.65933" lon="5.71643">
        <ele>681</ele>
        <time>2025-05-01T09:13:05.175+00:00</time>
      </trkpt>
      <trkpt lat="45.6593" lon="5.7164">
        <ele>693</ele>
        <time>2025-05-01T09:13:09.716+00:00</time>
      </trkpt>
      <trkpt lat="45.65927" lon="5.71633">
        <ele>693</ele>
        <time>2025-05-01T09:13:14.035+00:00</time>
      </trkpt>
      <trkpt lat="45.65925" lon="5.71625">
        <ele>693</ele>
        <time>2025-05-01T09:13:18.225+00:00</time>
      </trkpt>
      <trkpt lat="45.65924" lon="5.71618">
        <ele>688</ele>
        <time>2025-05-01T09:13:22.657+00:00</time>
      </trkpt>
      <trkpt lat="45.65923" lon="5.7161">
        <ele>688</ele>
        <time>2025-05-01T09:13:27.124+00:00</time>
      </trkpt>
      <trkpt lat="45.65922" lon="5.71601">
        <ele>688</ele>
        <time>2025-05-01T09:13:31.687+00:00</time>
      </trkpt>
      <trkpt lat="45.65921" lon="5.71593">
        <ele>684</ele>
        <time>2025-05-01T09:13:36.024+00:00</time>
      </trkpt>
      <trkpt lat="45.65921" lon="5.71582">
        <ele>684</ele>
        <time>2025-05-01T09:13:40.403+00:00</time>
      </trkpt>
      <trkpt lat="45.65919" lon="5.71573">
        <ele>684</ele>
        <time>2025-05-01T09:13:44.524+00:00</time>
      </trkpt>
      <trkpt lat="45.65918" lon="5.71565">
        <ele>680</ele>
        <time>2025-05-01T09:13:48.666+00:00</time>
      </trkpt>
      <trkpt lat="45.65916" lon="5.71557">
        <ele>680</ele>
        <time>2025-05-01T09:13:53.247+00:00</time>
      </trkpt>
      <trkpt lat="45.65913" lon="5.71549">
        <ele>680</ele>
        <time>2025-05-01T09:13:57.625+00:00</time>
      </trkpt>
      <trkpt lat="45.65911" lon="5.71542">
        <ele>680</ele>
        <time>2025-05-01T09:14:01.966+00:00</time>
      </trkpt>
      <trkpt lat="45.65909" lon="5.71537">
        <ele>676</ele>
        <time>2025-05-01T09:14:06.226+00:00</time>
      </trkpt>
      <trkpt lat="45.65905" lon="5.71533">
        <ele>676</ele>
        <time>2025-05-01T09:14:10.503+00:00</time>
      </trkpt>
      <trkpt lat="45.65901" lon="5.71528">
        <ele>683</ele>
        <time>2025-05-01T09:14:14.964+00:00</time>
      </trkpt>
      <trkpt lat="45.65896" lon="5.71523">
        <ele>683</ele>
        <time>2025-05-01T09:14:19.441+00:00</time>
      </trkpt>
      <trkpt lat="45.65892" lon="5.71518">
        <ele>683</ele>
        <time>2025-05-01T09:14:23.623+00:00</time>
      </trkpt>
      <trkpt lat="45.6589" lon="5.71511">
        <ele>679</ele>
        <time>2025-05-01T09:14:28.040+00:00</time>
      </trkpt>
      <trkpt lat="45.65889" lon="5.71503">
        <ele>679</ele>
        <time>2025-05-01T09:14:32.201+00:00</time>
      </trkpt>
      <trkpt lat="45.65889" lon="5.71496">
        <ele>679</ele>
        <time>2025-05-01T09:14:36.244+00:00</time>
      </trkpt>
      <trkpt lat="45.65889" lon="5.7149">
        <ele>679</ele>
        <time>2025-05-01T09:14:40.902+00:00</time>
      </trkpt>
      <trkpt lat="45.65886" lon="5.7148">
        <ele>676</ele>
        <time>2025-05-01T09:14:45.246+00:00</time>
      </trkpt>
      <trkpt lat="45.65885" lon="5.71471">
        <ele>676</ele>
        <time>2025-05-01T09:14:49.921+00:00</time>
      </trkpt>
      <trkpt lat="45.65884" lon="5.71461">
        <ele>676</ele>
        <time>2025-05-01T09:14:54.099+00:00</time>
      </trkpt>
      <trkpt lat="45.65886" lon="5.71453">
        <ele>674</ele>
        <time>2025-05-01T09:14:58.161+00:00</time>
      </trkpt>
      <trkpt lat="45.65891" lon="5.71449">
        <ele>674</ele>
        <time>2025-05-01T09:15:02.439+00:00</time>
      </trkpt>
      <trkpt lat="45.65897" lon="5.71449">
        <ele>674</ele>
        <time>2025-05-01T09:15:07.001+00:00</time>
      </trkpt>
      <trkpt lat="45.65903" lon="5.71454">
        <ele>670</ele>
        <time>2025-05-01T09:15:11.479+00:00</time>
      </trkpt>
      <trkpt lat="45.65908" lon="5.71458">
        <ele>671</ele>
        <time>2025-05-01T09:15:16.017+00:00</time>
      </trkpt>
      <trkpt lat="45.65911" lon="5.71466">
        <ele>671</ele>
        <time>2025-05-01T09:15:20.246+00:00</time>
      </trkpt>
      <trkpt lat="45.65916" lon="5.71473">
        <ele>671</ele>
        <time>2025-05-01T09:15:25.239+00:00</time>
      </trkpt>
      <trkpt lat="45.6592" lon="5.71479">
        <ele>671</ele>
        <time>2025-05-01T09:15:29.504+00:00</time>
      </trkpt>
      <trkpt lat="45.65923" lon="5.71487">
        <ele>673</ele>
        <time>2025-05-01T09:15:33.741+00:00</time>
      </trkpt>
      <trkpt lat="45.65928" lon="5.71494">
        <ele>673</ele>
        <time>2025-05-01T09:15:38.060+00:00</time>
      </trkpt>
      <trkpt lat="45.65933" lon="5.71496">
        <ele>668</ele>
        <time>2025-05-01T09:15:42.180+00:00</time>
      </trkpt>
      <trkpt lat="45.65937" lon="5.71501">
        <ele>668</ele>
        <time>2025-05-01T09:15:46.480+00:00</time>
      </trkpt>
      <trkpt lat="45.65942" lon="5.71505">
        <ele>668</ele>
        <time>2025-05-01T09:15:50.580+00:00</time>
      </trkpt>
      <trkpt lat="45.65947" lon="5.71508">
        <ele>668</ele>
        <time>2025-05-01T09:15:55.247+00:00</time>
      </trkpt>
      <trkpt lat="45.65953" lon="5.71514">
        <ele>671</ele>
        <time>2025-05-01T09:15:59.979+00:00</time>
      </trkpt>
      <trkpt lat="45.65957" lon="5.71523">
        <ele>671</ele>
        <time>2025-05-01T09:16:04.238+00:00</time>
      </trkpt>
      <trkpt lat="45.65961" lon="5.7153">
        <ele>666</ele>
        <time>2025-05-01T09:16:08.246+00:00</time>
      </trkpt>
      <trkpt lat="45.65964" lon="5.71535">
        <ele>666</ele>
        <time>2025-05-01T09:16:12.438+00:00</time>
      </trkpt>
      <trkpt lat="45.65969" lon="5.71542">
        <ele>666</ele>
        <time>2025-05-01T09:16:16.899+00:00</time>
      </trkpt>
      <trkpt lat="45.65977" lon="5.71545">
        <ele>668</ele>
        <time>2025-05-01T09:16:21.248+00:00</time>
      </trkpt>
      <trkpt lat="45.65983" lon="5.7155">
        <ele>668</ele>
        <time>2025-05-01T09:16:25.816+00:00</time>
      </trkpt>
      <trkpt lat="45.65989" lon="5.71553">
        <ele>661</ele>
        <time>2025-05-01T09:16:30.230+00:00</time>
      </trkpt>
      <trkpt lat="45.65992" lon="5.71556">
        <ele>661</ele>
        <time>2025-05-01T09:16:34.716+00:00</time>
      </trkpt>
      <trkpt lat="45.65997" lon="5.71562">
        <ele>661</ele>
        <time>2025-05-01T09:16:39.086+00:00</time>
      </trkpt>
      <trkpt lat="45.66" lon="5.71565">
        <ele>661</ele>
        <time>2025-05-01T09:16:43.485+00:00</time>
      </trkpt>
      <trkpt lat="45.66003" lon="5.71569">
        <ele>661</ele>
        <time>2025-05-01T09:16:47.625+00:00</time>
      </trkpt>
      <trkpt lat="45.66007" lon="5.71573">
        <ele>663</ele>
        <time>2025-05-01T09:16:52.240+00:00</time>
      </trkpt>
      <trkpt lat="45.66012" lon="5.71576">
        <ele>663</ele>
        <time>2025-05-01T09:16:57.246+00:00</time>
      </trkpt>
      <trkpt lat="45.66013" lon="5.71577">
        <ele>663</ele>
        <time>2025-05-01T09:17:01.249+00:00</time>
      </trkpt>
      <trkpt lat="45.66014" lon="5.71578">
        <ele>663</ele>
        <time>2025-05-01T09:17:06.251+00:00</time>
      </trkpt>
      <trkpt lat="45.6602" lon="5.71586">
        <ele>654</ele>
        <time>2025-05-01T09:17:11.237+00:00</time>
      </trkpt>
      <trkpt lat="45.66023" lon="5.71589">
        <ele>654</ele>
        <time>2025-05-01T09:17:15.241+00:00</time>
      </trkpt>
      <trkpt lat="45.66026" lon="5.71597">
        <ele>654</ele>
        <time>2025-05-01T09:17:20.240+00:00</time>
      </trkpt>
      <trkpt lat="45.66029" lon="5.716">
        <ele>655</ele>
        <time>2025-05-01T09:17:25.242+00:00</time>
      </trkpt>
      <trkpt lat="45.66032" lon="5.71603">
        <ele>655</ele>
        <time>2025-05-01T09:17:30.237+00:00</time>
      </trkpt>
      <trkpt lat="45.66037" lon="5.71603">
        <ele>655</ele>
        <time>2025-05-01T09:17:35.242+00:00</time>
      </trkpt>
      <trkpt lat="45.66045" lon="5.71602">
        <ele>648</ele>
        <time>2025-05-01T09:17:40.228+00:00</time>
      </trkpt>
      <trkpt lat="45.66053" lon="5.71603">
        <ele>648</ele>
        <time>2025-05-01T09:17:44.247+00:00</time>
      </trkpt>
      <trkpt lat="45.66061" lon="5.71611">
        <ele>648</ele>
        <time>2025-05-01T09:17:49.236+00:00</time>
      </trkpt>
      <trkpt lat="45.66065" lon="5.71619">
        <ele>648</ele>
        <time>2025-05-01T09:17:53.241+00:00</time>
      </trkpt>
      <trkpt lat="45.6607" lon="5.71626">
        <ele>644</ele>
        <time>2025-05-01T09:17:57.244+00:00</time>
      </trkpt>
      <trkpt lat="45.66076" lon="5.71633">
        <ele>644</ele>
        <time>2025-05-01T09:18:02.241+00:00</time>
      </trkpt>
      <trkpt lat="45.66081" lon="5.71638">
        <ele>644</ele>
        <time>2025-05-01T09:18:07.249+00:00</time>
      </trkpt>
      <trkpt lat="45.66083" lon="5.7164">
        <ele>644</ele>
        <time>2025-05-01T09:18:12.244+00:00</time>
      </trkpt>
      <trkpt lat="45.66087" lon="5.71643">
        <ele>644</ele>
        <time>2025-05-01T09:18:17.241+00:00</time>
      </trkpt>
      <trkpt lat="45.6609" lon="5.71648">
        <ele>644</ele>
        <time>2025-05-01T09:18:22.238+00:00</time>
      </trkpt>
      <trkpt lat="45.66093" lon="5.71654">
        <ele>644</ele>
        <time>2025-05-01T09:18:26.244+00:00</time>
      </trkpt>
      <trkpt lat="45.66097" lon="5.7166">
        <ele>638</ele>
        <time>2025-05-01T09:18:31.236+00:00</time>
      </trkpt>
      <trkpt lat="45.66103" lon="5.71665">
        <ele>638</ele>
        <time>2025-05-01T09:18:35.256+00:00</time>
      </trkpt>
      <trkpt lat="45.66108" lon="5.71672">
        <ele>638</ele>
        <time>2025-05-01T09:18:40.241+00:00</time>
      </trkpt>
      <trkpt lat="45.6611" lon="5.71676">
        <ele>638</ele>
        <time>2025-05-01T09:18:44.251+00:00</time>
      </trkpt>
      <trkpt lat="45.66111" lon="5.71681">
        <ele>638</ele>
        <time>2025-05-01T09:18:48.254+00:00</time>
      </trkpt>
      <trkpt lat="45.66114" lon="5.71686">
        <ele>639</ele>
        <time>2025-05-01T09:18:53.234+00:00</time>
      </trkpt>
      <trkpt lat="45.6612" lon="5.71692">
        <ele>639</ele>
        <time>2025-05-01T09:18:57.238+00:00</time>
      </trkpt>
      <trkpt lat="45.66124" lon="5.71695">
        <ele>639</ele>
        <time>2025-05-01T09:19:02.250+00:00</time>
      </trkpt>
      <trkpt lat="45.66128" lon="5.71696">
        <ele>631</ele>
        <time>2025-05-01T09:19:07.239+00:00</time>
      </trkpt>
      <trkpt lat="45.66136" lon="5.71695">
        <ele>631</ele>
        <time>2025-05-01T09:19:12.247+00:00</time>
      </trkpt>
      <trkpt lat="45.66142" lon="5.71697">
        <ele>631</ele>
        <time>2025-05-01T09:19:17.244+00:00</time>
      </trkpt>
      <trkpt lat="45.66147" lon="5.71705">
        <ele>631</ele>
        <time>2025-05-01T09:19:22.243+00:00</time>
      </trkpt>
      <trkpt lat="45.66151" lon="5.71712">
        <ele>631</ele>
        <time>2025-05-01T09:19:27.242+00:00</time>
      </trkpt>
      <trkpt lat="45.66155" lon="5.71718">
        <ele>625</ele>
        <time>2025-05-01T09:19:32.240+00:00</time>
      </trkpt>
      <trkpt lat="45.66159" lon="5.71721">
        <ele>625</ele>
        <time>2025-05-01T09:19:36.245+00:00</time>
      </trkpt>
      <trkpt lat="45.66164" lon="5.71721">
        <ele>625</ele>
        <time>2025-05-01T09:19:41.242+00:00</time>
      </trkpt>
      <trkpt lat="45.66167" lon="5.71725">
        <ele>625</ele>
        <time>2025-05-01T09:19:46.246+00:00</time>
      </trkpt>
      <trkpt lat="45.66169" lon="5.71728">
        <ele>625</ele>
        <time>2025-05-01T09:19:51.234+00:00</time>
      </trkpt>
      <trkpt lat="45.6617" lon="5.71733">
        <ele>625</ele>
        <time>2025-05-01T09:19:55.241+00:00</time>
      </trkpt>
      <trkpt lat="45.66175" lon="5.71737">
        <ele>626</ele>
        <time>2025-05-01T09:20:00.251+00:00</time>
      </trkpt>
      <trkpt lat="45.66181" lon="5.7174">
        <ele>621</ele>
        <time>2025-05-01T09:20:05.240+00:00</time>
      </trkpt>
      <trkpt lat="45.66187" lon="5.71744">
        <ele>621</ele>
        <time>2025-05-01T09:20:10.240+00:00</time>
      </trkpt>
      <trkpt lat="45.66194" lon="5.71747">
        <ele>621</ele>
        <time>2025-05-01T09:20:14.249+00:00</time>
      </trkpt>
      <trkpt lat="45.66202" lon="5.7175">
        <ele>621</ele>
        <time>2025-05-01T09:20:19.233+00:00</time>
      </trkpt>
      <trkpt lat="45.6621" lon="5.71753">
        <ele>618</ele>
        <time>2025-05-01T09:20:24.233+00:00</time>
      </trkpt>
      <trkpt lat="45.66218" lon="5.71753">
        <ele>618</ele>
        <time>2025-05-01T09:20:28.244+00:00</time>
      </trkpt>
      <trkpt lat="45.66223" lon="5.71755">
        <ele>618</ele>
        <time>2025-05-01T09:20:32.234+00:00</time>
      </trkpt>
      <trkpt lat="45.66227" lon="5.71758">
        <ele>618</ele>
        <time>2025-05-01T09:20:37.250+00:00</time>
      </trkpt>
      <trkpt lat="45.66234" lon="5.71763">
        <ele>618</ele>
        <time>2025-05-01T09:20:42.236+00:00</time>
      </trkpt>
      <trkpt lat="45.66241" lon="5.7177">
        <ele>617</ele>
        <time>2025-05-01T09:20:47.236+00:00</time>
      </trkpt>
      <trkpt lat="45.66248" lon="5.71782">
        <ele>617</ele>
        <time>2025-05-01T09:20:52.243+00:00</time>
      </trkpt>
      <trkpt lat="45.66258" lon="5.71803">
        <ele>618</ele>
        <time>2025-05-01T09:20:57.240+00:00</time>
      </trkpt>
      <trkpt lat="45.66263" lon="5.71815">
        <ele>618</ele>
        <time>2025-05-01T09:21:02.235+00:00</time>
      </trkpt>
      <trkpt lat="45.66264" lon="5.71821">
        <ele>614</ele>
        <time>2025-05-01T09:21:06.664+00:00</time>
      </trkpt>
      <trkpt lat="45.66269" lon="5.71828">
        <ele>614</ele>
        <time>2025-05-01T09:21:10.981+00:00</time>
      </trkpt>
      <trkpt lat="45.66273" lon="5.71838">
        <ele>614</ele>
        <time>2025-05-01T09:21:15.233+00:00</time>
      </trkpt>
      <trkpt lat="45.66277" lon="5.71849">
        <ele>613</ele>
        <time>2025-05-01T09:21:19.642+00:00</time>
      </trkpt>
      <trkpt lat="45.66279" lon="5.71857">
        <ele>613</ele>
        <time>2025-05-01T09:21:23.981+00:00</time>
      </trkpt>
      <trkpt lat="45.6628" lon="5.71862">
        <ele>613</ele>
        <time>2025-05-01T09:21:27.981+00:00</time>
      </trkpt>
      <trkpt lat="45.66283" lon="5.71869">
        <ele>613</ele>
        <time>2025-05-01T09:21:32.160+00:00</time>
      </trkpt>
      <trkpt lat="45.66285" lon="5.71876">
        <ele>610</ele>
        <time>2025-05-01T09:21:36.253+00:00</time>
      </trkpt>
      <trkpt lat="45.66289" lon="5.71883">
        <ele>610</ele>
        <time>2025-05-01T09:21:41.041+00:00</time>
      </trkpt>
      <trkpt lat="45.66293" lon="5.71886">
        <ele>606</ele>
        <time>2025-05-01T09:21:45.559+00:00</time>
      </trkpt>
      <trkpt lat="45.66297" lon="5.71892">
        <ele>606</ele>
        <time>2025-05-01T09:21:49.981+00:00</time>
      </trkpt>
      <trkpt lat="45.66301" lon="5.71896">
        <ele>606</ele>
        <time>2025-05-01T09:21:54.518+00:00</time>
      </trkpt>
      <trkpt lat="45.66304" lon="5.71903">
        <ele>605</ele>
        <time>2025-05-01T09:21:58.858+00:00</time>
      </trkpt>
      <trkpt lat="45.66307" lon="5.71912">
        <ele>605</ele>
        <time>2025-05-01T09:22:03.244+00:00</time>
      </trkpt>
      <trkpt lat="45.66309" lon="5.71922">
        <ele>605</ele>
        <time>2025-05-01T09:22:08.260+00:00</time>
      </trkpt>
      <trkpt lat="45.66311" lon="5.7193">
        <ele>605</ele>
        <time>2025-05-01T09:22:13.240+00:00</time>
      </trkpt>
      <trkpt lat="45.66317" lon="5.71934">
        <ele>606</ele>
        <time>2025-05-01T09:22:17.239+00:00</time>
      </trkpt>
      <trkpt lat="45.66322" lon="5.71938">
        <ele>601</ele>
        <time>2025-05-01T09:22:22.229+00:00</time>
      </trkpt>
      <trkpt lat="45.66325" lon="5.71941">
        <ele>601</ele>
        <time>2025-05-01T09:22:26.236+00:00</time>
      </trkpt>
      <trkpt lat="45.66326" lon="5.71942">
        <ele>601</ele>
        <time>2025-05-01T09:22:31.238+00:00</time>
      </trkpt>
      <trkpt lat="45.66334" lon="5.7194">
        <ele>601</ele>
        <time>2025-05-01T09:22:36.229+00:00</time>
      </trkpt>
      <trkpt lat="45.66342" lon="5.71939">
        <ele>601</ele>
        <time>2025-05-01T09:22:40.237+00:00</time>
      </trkpt>
      <trkpt lat="45.66349" lon="5.71934">
        <ele>595</ele>
        <time>2025-05-01T09:22:44.236+00:00</time>
      </trkpt>
      <trkpt lat="45.66355" lon="5.71927">
        <ele>595</ele>
        <time>2025-05-01T09:22:48.249+00:00</time>
      </trkpt>
      <trkpt lat="45.66358" lon="5.71916">
        <ele>595</ele>
        <time>2025-05-01T09:22:53.241+00:00</time>
      </trkpt>
      <trkpt lat="45.66358" lon="5.71909">
        <ele>595</ele>
        <time>2025-05-01T09:22:58.240+00:00</time>
      </trkpt>
      <trkpt lat="45.6636" lon="5.71905">
        <ele>595</ele>
        <time>2025-05-01T09:23:03.235+00:00</time>
      </trkpt>
      <trkpt lat="45.66363" lon="5.71899">
        <ele>596</ele>
        <time>2025-05-01T09:23:07.235+00:00</time>
      </trkpt>
      <trkpt lat="45.66369" lon="5.71889">
        <ele>596</ele>
        <time>2025-05-01T09:23:12.235+00:00</time>
      </trkpt>
      <trkpt lat="45.66376" lon="5.71884">
        <ele>589</ele>
        <time>2025-05-01T09:23:16.239+00:00</time>
      </trkpt>
      <trkpt lat="45.66383" lon="5.71878">
        <ele>589</ele>
        <time>2025-05-01T09:23:21.243+00:00</time>
      </trkpt>
      <trkpt lat="45.66389" lon="5.71872">
        <ele>588</ele>
        <time>2025-05-01T09:23:26.237+00:00</time>
      </trkpt>
      <trkpt lat="45.66395" lon="5.71865">
        <ele>588</ele>
        <time>2025-05-01T09:23:31.242+00:00</time>
      </trkpt>
      <trkpt lat="45.66401" lon="5.71857">
        <ele>588</ele>
        <time>2025-05-01T09:23:36.233+00:00</time>
      </trkpt>
      <trkpt lat="45.66404" lon="5.71852">
        <ele>583</ele>
        <time>2025-05-01T09:23:40.746+00:00</time>
      </trkpt>
      <trkpt lat="45.66406" lon="5.71846">
        <ele>583</ele>
        <time>2025-05-01T09:23:44.805+00:00</time>
      </trkpt>
      <trkpt lat="45.66409" lon="5.71839">
        <ele>583</ele>
        <time>2025-05-01T09:23:48.886+00:00</time>
      </trkpt>
      <trkpt lat="45.66412" lon="5.71832">
        <ele>583</ele>
        <time>2025-05-01T09:23:53.235+00:00</time>
      </trkpt>
      <trkpt lat="45.66411" lon="5.71824">
        <ele>583</ele>
        <time>2025-05-01T09:23:57.686+00:00</time>
      </trkpt>
      <trkpt lat="45.66413" lon="5.71818">
        <ele>583</ele>
        <time>2025-05-01T09:24:01.864+00:00</time>
      </trkpt>
      <trkpt lat="45.66416" lon="5.71807">
        <ele>583</ele>
        <time>2025-05-01T09:24:06.225+00:00</time>
      </trkpt>
      <trkpt lat="45.66415" lon="5.71797">
        <ele>583</ele>
        <time>2025-05-01T09:24:10.822+00:00</time>
      </trkpt>
      <trkpt lat="45.66415" lon="5.71788">
        <ele>585</ele>
        <time>2025-05-01T09:24:15.235+00:00</time>
      </trkpt>
      <trkpt lat="45.66413" lon="5.71779">
        <ele>585</ele>
        <time>2025-05-01T09:24:19.763+00:00</time>
      </trkpt>
      <trkpt lat="45.66412" lon="5.71772">
        <ele>585</ele>
        <time>2025-05-01T09:24:23.845+00:00</time>
      </trkpt>
      <trkpt lat="45.66417" lon="5.71759">
        <ele>588</ele>
        <time>2025-05-01T09:24:28.963+00:00</time>
      </trkpt>
      <trkpt lat="45.66424" lon="5.71751">
        <ele>588</ele>
        <time>2025-05-01T09:24:33.246+00:00</time>
      </trkpt>
      <trkpt lat="45.6643" lon="5.71743">
        <ele>588</ele>
        <time>2025-05-01T09:24:37.961+00:00</time>
      </trkpt>
      <trkpt lat="45.66438" lon="5.71741">
        <ele>583</ele>
        <time>2025-05-01T09:24:42.239+00:00</time>
      </trkpt>
      <trkpt lat="45.66445" lon="5.71742">
        <ele>583</ele>
        <time>2025-05-01T09:24:46.246+00:00</time>
      </trkpt>
      <trkpt lat="45.6645" lon="5.71747">
        <ele>583</ele>
        <time>2025-05-01T09:24:51.224+00:00</time>
      </trkpt>
      <trkpt lat="45.66454" lon="5.71754">
        <ele>583</ele>
        <time>2025-05-01T09:24:55.240+00:00</time>
      </trkpt>
      <trkpt lat="45.66459" lon="5.71759">
        <ele>582</ele>
        <time>2025-05-01T09:24:59.244+00:00</time>
      </trkpt>
      <trkpt lat="45.66465" lon="5.71766">
        <ele>580</ele>
        <time>2025-05-01T09:25:04.242+00:00</time>
      </trkpt>
      <trkpt lat="45.6647" lon="5.71775">
        <ele>580</ele>
        <time>2025-05-01T09:25:09.228+00:00</time>
      </trkpt>
      <trkpt lat="45.66475" lon="5.71777">
        <ele>580</ele>
        <time>2025-05-01T09:25:13.225+00:00</time>
      </trkpt>
      <trkpt lat="45.66478" lon="5.71779">
        <ele>580</ele>
        <time>2025-05-01T09:25:17.245+00:00</time>
      </trkpt>
      <trkpt lat="45.66484" lon="5.71782">
        <ele>580</ele>
        <time>2025-05-01T09:25:22.236+00:00</time>
      </trkpt>
      <trkpt lat="45.66487" lon="5.71786">
        <ele>581</ele>
        <time>2025-05-01T09:25:27.243+00:00</time>
      </trkpt>
      <trkpt lat="45.66498" lon="5.71793">
        <ele>579</ele>
        <time>2025-05-01T09:25:32.240+00:00</time>
      </trkpt>
      <trkpt lat="45.66505" lon="5.71795">
        <ele>579</ele>
        <time>2025-05-01T09:25:37.246+00:00</time>
      </trkpt>
      <trkpt lat="45.66512" lon="5.71797">
        <ele>579</ele>
        <time>2025-05-01T09:25:42.227+00:00</time>
      </trkpt>
      <trkpt lat="45.66518" lon="5.71797">
        <ele>577</ele>
        <time>2025-05-01T09:25:46.224+00:00</time>
      </trkpt>
      <trkpt lat="45.66525" lon="5.71797">
        <ele>577</ele>
        <time>2025-05-01T09:25:50.237+00:00</time>
      </trkpt>
      <trkpt lat="45.66531" lon="5.71797">
        <ele>577</ele>
        <time>2025-05-01T09:25:54.246+00:00</time>
      </trkpt>
      <trkpt lat="45.66538" lon="5.71798">
        <ele>577</ele>
        <time>2025-05-01T09:25:59.255+00:00</time>
      </trkpt>
      <trkpt lat="45.66546" lon="5.71797">
        <ele>577</ele>
        <time>2025-05-01T09:26:04.238+00:00</time>
      </trkpt>
      <trkpt lat="45.66552" lon="5.71796">
        <ele>577</ele>
        <time>2025-05-01T09:26:08.247+00:00</time>
      </trkpt>
      <trkpt lat="45.66558" lon="5.71795">
        <ele>577</ele>
        <time>2025-05-01T09:26:13.239+00:00</time>
      </trkpt>
      <trkpt lat="45.66564" lon="5.71795">
        <ele>577</ele>
        <time>2025-05-01T09:26:17.247+00:00</time>
      </trkpt>
      <trkpt lat="45.66569" lon="5.71795">
        <ele>576</ele>
        <time>2025-05-01T09:26:22.237+00:00</time>
      </trkpt>
      <trkpt lat="45.66577" lon="5.71794">
        <ele>576</ele>
        <time>2025-05-01T09:26:26.917+00:00</time>
      </trkpt>
      <trkpt lat="45.66582" lon="5.71792">
        <ele>576</ele>
        <time>2025-05-01T09:26:31.036+00:00</time>
      </trkpt>
      <trkpt lat="45.66587" lon="5.7179">
        <ele>577</ele>
        <time>2025-05-01T09:26:35.037+00:00</time>
      </trkpt>
      <trkpt lat="45.66593" lon="5.71788">
        <ele>577</ele>
        <time>2025-05-01T09:26:39.246+00:00</time>
      </trkpt>
      <trkpt lat="45.66599" lon="5.71787">
        <ele>574</ele>
        <time>2025-05-01T09:26:43.397+00:00</time>
      </trkpt>
      <trkpt lat="45.66605" lon="5.71788">
        <ele>574</ele>
        <time>2025-05-01T09:26:47.856+00:00</time>
      </trkpt>
      <trkpt lat="45.6661" lon="5.7179">
        <ele>574</ele>
        <time>2025-05-01T09:26:51.918+00:00</time>
      </trkpt>
      <trkpt lat="45.66617" lon="5.71791">
        <ele>574</ele>
        <time>2025-05-01T09:26:56.457+00:00</time>
      </trkpt>
      <trkpt lat="45.66623" lon="5.71794">
        <ele>573</ele>
        <time>2025-05-01T09:27:00.537+00:00</time>
      </trkpt>
      <trkpt lat="45.6663" lon="5.71796">
        <ele>571</ele>
        <time>2025-05-01T09:27:05.058+00:00</time>
      </trkpt>
      <trkpt lat="45.66636" lon="5.71799">
        <ele>571</ele>
        <time>2025-05-01T09:27:09.102+00:00</time>
      </trkpt>
      <trkpt lat="45.66642" lon="5.71802">
        <ele>571</ele>
        <time>2025-05-01T09:27:13.201+00:00</time>
      </trkpt>
      <trkpt lat="45.6665" lon="5.71804">
        <ele>571</ele>
        <time>2025-05-01T09:27:17.220+00:00</time>
      </trkpt>
      <trkpt lat="45.66657" lon="5.71806">
        <ele>570</ele>
        <time>2025-05-01T09:27:21.247+00:00</time>
      </trkpt>
      <trkpt lat="45.66665" lon="5.71808">
        <ele>570</ele>
        <time>2025-05-01T09:27:26.254+00:00</time>
      </trkpt>
      <trkpt lat="45.66671" lon="5.71803">
        <ele>570</ele>
        <time>2025-05-01T09:27:31.220+00:00</time>
      </trkpt>
      <trkpt lat="45.66675" lon="5.71798">
        <ele>570</ele>
        <time>2025-05-01T09:27:35.561+00:00</time>
      </trkpt>
      <trkpt lat="45.66675" lon="5.71791">
        <ele>571</ele>
        <time>2025-05-01T09:27:39.842+00:00</time>
      </trkpt>
      <trkpt lat="45.66674" lon="5.71784">
        <ele>571</ele>
        <time>2025-05-01T09:27:44.041+00:00</time>
      </trkpt>
      <trkpt lat="45.66672" lon="5.71777">
        <ele>571</ele>
        <time>2025-05-01T09:27:48.235+00:00</time>
      </trkpt>
      <trkpt lat="45.66671" lon="5.71768">
        <ele>571</ele>
        <time>2025-05-01T09:27:52.600+00:00</time>
      </trkpt>
      <trkpt lat="45.66671" lon="5.71759">
        <ele>571</ele>
        <time>2025-05-01T09:27:56.617+00:00</time>
      </trkpt>
      <trkpt lat="45.66671" lon="5.71751">
        <ele>571</ele>
        <time>2025-05-01T09:28:00.739+00:00</time>
      </trkpt>
      <trkpt lat="45.66671" lon="5.71741">
        <ele>571</ele>
        <time>2025-05-01T09:28:05.250+00:00</time>
      </trkpt>
      <trkpt lat="45.6667" lon="5.71731">
        <ele>572</ele>
        <time>2025-05-01T09:28:10.079+00:00</time>
      </trkpt>
      <trkpt lat="45.66668" lon="5.71721">
        <ele>572</ele>
        <time>2025-05-01T09:28:14.435+00:00</time>
      </trkpt>
      <trkpt lat="45.66667" lon="5.71711">
        <ele>572</ele>
        <time>2025-05-01T09:28:18.677+00:00</time>
      </trkpt>
      <trkpt lat="45.66667" lon="5.717">
        <ele>573</ele>
        <time>2025-05-01T09:28:23.243+00:00</time>
      </trkpt>
      <trkpt lat="45.66667" lon="5.71693">
        <ele>573</ele>
        <time>2025-05-01T09:28:27.241+00:00</time>
      </trkpt>
      <trkpt lat="45.66669" lon="5.71682">
        <ele>573</ele>
        <time>2025-05-01T09:28:31.775+00:00</time>
      </trkpt>
      <trkpt lat="45.66671" lon="5.71672">
        <ele>572</ele>
        <time>2025-05-01T09:28:36.115+00:00</time>
      </trkpt>
      <trkpt lat="45.66673" lon="5.71662">
        <ele>572</ele>
        <time>2025-05-01T09:28:40.536+00:00</time>
      </trkpt>
      <trkpt lat="45.66675" lon="5.71653">
        <ele>571</ele>
        <time>2025-05-01T09:28:45.253+00:00</time>
      </trkpt>
      <trkpt lat="45.66676" lon="5.71644">
        <ele>571</ele>
        <time>2025-05-01T09:28:49.756+00:00</time>
      </trkpt>
      <trkpt lat="45.66676" lon="5.71635">
        <ele>571</ele>
        <time>2025-05-01T09:28:54.241+00:00</time>
      </trkpt>
      <trkpt lat="45.66676" lon="5.71625">
        <ele>570</ele>
        <time>2025-05-01T09:28:59.246+00:00</time>
      </trkpt>
      <trkpt lat="45.66675" lon="5.71616">
        <ele>570</ele>
        <time>2025-05-01T09:29:03.705+00:00</time>
      </trkpt>
      <trkpt lat="45.66673" lon="5.71608">
        <ele>570</ele>
        <time>2025-05-01T09:29:08.236+00:00</time>
      </trkpt>
      <trkpt lat="45.66673" lon="5.71599">
        <ele>570</ele>
        <time>2025-05-01T09:29:12.665+00:00</time>
      </trkpt>
      <trkpt lat="45.66669" lon="5.71593">
        <ele>568</ele>
        <time>2025-05-01T09:29:17.244+00:00</time>
      </trkpt>
      <trkpt lat="45.66666" lon="5.71582">
        <ele>568</ele>
        <time>2025-05-01T09:29:22.241+00:00</time>
      </trkpt>
      <trkpt lat="45.66663" lon="5.71573">
        <ele>568</ele>
        <time>2025-05-01T09:29:27.237+00:00</time>
      </trkpt>
      <trkpt lat="45.66658" lon="5.71558">
        <ele>567</ele>
        <time>2025-05-01T09:29:32.221+00:00</time>
      </trkpt>
      <trkpt lat="45.66653" lon="5.71543">
        <ele>567</ele>
        <time>2025-05-01T09:29:36.237+00:00</time>
      </trkpt>
      <trkpt lat="45.66651" lon="5.71535">
        <ele>567</ele>
        <time>2025-05-01T09:29:41.248+00:00</time>
      </trkpt>
      <trkpt lat="45.66651" lon="5.71529">
        <ele>567</ele>
        <time>2025-05-01T09:29:45.242+00:00</time>
      </trkpt>
      <trkpt lat="45.6665" lon="5.71521">
        <ele>567</ele>
        <time>2025-05-01T09:29:50.251+00:00</time>
      </trkpt>
      <trkpt lat="45.66649" lon="5.71513">
        <ele>565</ele>
        <time>2025-05-01T09:29:54.843+00:00</time>
      </trkpt>
      <trkpt lat="45.66652" lon="5.71504">
        <ele>565</ele>
        <time>2025-05-01T09:29:59.022+00:00</time>
      </trkpt>
      <trkpt lat="45.66656" lon="5.71494">
        <ele>564</ele>
        <time>2025-05-01T09:30:03.242+00:00</time>
      </trkpt>
      <trkpt lat="45.66665" lon="5.71487">
        <ele>564</ele>
        <time>2025-05-01T09:30:07.579+00:00</time>
      </trkpt>
      <trkpt lat="45.66674" lon="5.71476">
        <ele>563</ele>
        <time>2025-05-01T09:30:12.132+00:00</time>
      </trkpt>
      <trkpt lat="45.66683" lon="5.71464">
        <ele>563</ele>
        <time>2025-05-01T09:30:16.233+00:00</time>
      </trkpt>
      <trkpt lat="45.66689" lon="5.71453">
        <ele>560</ele>
        <time>2025-05-01T09:30:20.921+00:00</time>
      </trkpt>
      <trkpt lat="45.66699" lon="5.71447">
        <ele>560</ele>
        <time>2025-05-01T09:30:25.243+00:00</time>
      </trkpt>
      <trkpt lat="45.66707" lon="5.71442">
        <ele>560</ele>
        <time>2025-05-01T09:30:29.878+00:00</time>
      </trkpt>
      <trkpt lat="45.66717" lon="5.71436">
        <ele>559</ele>
        <time>2025-05-01T09:30:34.300+00:00</time>
      </trkpt>
      <trkpt lat="45.66728" lon="5.71429">
        <ele>555</ele>
        <time>2025-05-01T09:30:39.242+00:00</time>
      </trkpt>
      <trkpt lat="45.66737" lon="5.71427">
        <ele>552</ele>
        <time>2025-05-01T09:30:44.244+00:00</time>
      </trkpt>
      <trkpt lat="45.66743" lon="5.71433">
        <ele>557</ele>
        <time>2025-05-01T09:30:49.248+00:00</time>
      </trkpt>
      <trkpt lat="45.66749" lon="5.7145">
        <ele>557</ele>
        <time>2025-05-01T09:30:54.239+00:00</time>
      </trkpt>
      <trkpt lat="45.66756" lon="5.71464">
        <ele>562</ele>
        <time>2025-05-01T09:30:59.238+00:00</time>
      </trkpt>
      <trkpt lat="45.66762" lon="5.71471">
        <ele>562</ele>
        <time>2025-05-01T09:31:04.237+00:00</time>
      </trkpt>
      <trkpt lat="45.66769" lon="5.71475">
        <ele>559</ele>
        <time>2025-05-01T09:31:08.240+00:00</time>
      </trkpt>
      <trkpt lat="45.66779" lon="5.71477">
        <ele>559</ele>
        <time>2025-05-01T09:31:13.240+00:00</time>
      </trkpt>
      <trkpt lat="45.66789" lon="5.71478">
        <ele>559</ele>
        <time>2025-05-01T09:31:17.243+00:00</time>
      </trkpt>
      <trkpt lat="45.668" lon="5.71479">
        <ele>556</ele>
        <time>2025-05-01T09:31:22.238+00:00</time>
      </trkpt>
      <trkpt lat="45.66809" lon="5.71483">
        <ele>556</ele>
        <time>2025-05-01T09:31:27.243+00:00</time>
      </trkpt>
      <trkpt lat="45.66814" lon="5.71484">
        <ele>556</ele>
        <time>2025-05-01T09:31:31.252+00:00</time>
      </trkpt>
      <trkpt lat="45.66819" lon="5.71486">
        <ele>558</ele>
        <time>2025-05-01T09:31:36.240+00:00</time>
      </trkpt>
      <trkpt lat="45.66825" lon="5.71489">
        <ele>558</ele>
        <time>2025-05-01T09:31:40.476+00:00</time>
      </trkpt>
      <trkpt lat="45.66832" lon="5.71494">
        <ele>558</ele>
        <time>2025-05-01T09:31:44.626+00:00</time>
      </trkpt>
      <trkpt lat="45.66839" lon="5.71498">
        <ele>558</ele>
        <time>2025-05-01T09:31:48.886+00:00</time>
      </trkpt>
      <trkpt lat="45.66844" lon="5.71502">
        <ele>558</ele>
        <time>2025-05-01T09:31:53.084+00:00</time>
      </trkpt>
      <trkpt lat="45.6685" lon="5.71505">
        <ele>554</ele>
        <time>2025-05-01T09:31:57.238+00:00</time>
      </trkpt>
      <trkpt lat="45.66855" lon="5.71506">
        <ele>554</ele>
        <time>2025-05-01T09:32:01.242+00:00</time>
      </trkpt>
      <trkpt lat="45.66859" lon="5.71505">
        <ele>554</ele>
        <time>2025-05-01T09:32:05.543+00:00</time>
      </trkpt>
      <trkpt lat="45.66864" lon="5.71502">
        <ele>554</ele>
        <time>2025-05-01T09:32:09.685+00:00</time>
      </trkpt>
      <trkpt lat="45.66871" lon="5.71502">
        <ele>554</ele>
        <time>2025-05-01T09:32:13.985+00:00</time>
      </trkpt>
      <trkpt lat="45.66877" lon="5.71501">
        <ele>550</ele>
        <time>2025-05-01T09:32:18.064+00:00</time>
      </trkpt>
      <trkpt lat="45.66886" lon="5.71502">
        <ele>550</ele>
        <time>2025-05-01T09:32:22.203+00:00</time>
      </trkpt>
      <trkpt lat="45.66899" lon="5.71512">
        <ele>550</ele>
        <time>2025-05-01T09:32:26.704+00:00</time>
      </trkpt>
      <trkpt lat="45.66908" lon="5.71523">
        <ele>553</ele>
        <time>2025-05-01T09:32:30.984+00:00</time>
      </trkpt>
      <trkpt lat="45.66915" lon="5.71532">
        <ele>553</ele>
        <time>2025-05-01T09:32:35.222+00:00</time>
      </trkpt>
      <trkpt lat="45.66935" lon="5.71556">
        <ele>557</ele>
        <time>2025-05-01T09:32:39.743+00:00</time>
      </trkpt>
      <trkpt lat="45.66957" lon="5.71576">
        <ele>564</ele>
        <time>2025-05-01T09:32:44.082+00:00</time>
      </trkpt>
      <trkpt lat="45.66961" lon="5.71587">
        <ele>561</ele>
        <time>2025-05-01T09:32:48.783+00:00</time>
      </trkpt>
      <trkpt lat="45.66966" lon="5.71595">
        <ele>561</ele>
        <time>2025-05-01T09:32:53.081+00:00</time>
      </trkpt>
      <trkpt lat="45.66971" lon="5.716">
        <ele>567</ele>
        <time>2025-05-01T09:32:57.598+00:00</time>
      </trkpt>
      <trkpt lat="45.66977" lon="5.71605">
        <ele>567</ele>
        <time>2025-05-01T09:33:02.230+00:00</time>
      </trkpt>
      <trkpt lat="45.66985" lon="5.71609">
        <ele>567</ele>
        <time>2025-05-01T09:33:06.399+00:00</time>
      </trkpt>
      <trkpt lat="45.66992" lon="5.71608">
        <ele>563</ele>
        <time>2025-05-01T09:33:10.841+00:00</time>
      </trkpt>
      <trkpt lat="45.66997" lon="5.71606">
        <ele>563</ele>
        <time>2025-05-01T09:33:15.246+00:00</time>
      </trkpt>
      <trkpt lat="45.67003" lon="5.71606">
        <ele>563</ele>
        <time>2025-05-01T09:33:19.679+00:00</time>
      </trkpt>
      <trkpt lat="45.67009" lon="5.71605">
        <ele>563</ele>
        <time>2025-05-01T09:33:24.199+00:00</time>
      </trkpt>
      <trkpt lat="45.67015" lon="5.71603">
        <ele>561</ele>
        <time>2025-05-01T09:33:28.219+00:00</time>
      </trkpt>
      <trkpt lat="45.6702" lon="5.71601">
        <ele>561</ele>
        <time>2025-05-01T09:33:33.238+00:00</time>
      </trkpt>
      <trkpt lat="45.67021" lon="5.71601">
        <ele>561</ele>
        <time>2025-05-01T09:33:37.240+00:00</time>
      </trkpt>
      <trkpt lat="45.67022" lon="5.716">
        <ele>561</ele>
        <time>2025-05-01T09:33:42.158+00:00</time>
      </trkpt>
      <trkpt lat="45.67025" lon="5.71599">
        <ele>561</ele>
        <time>2025-05-01T09:33:46.236+00:00</time>
      </trkpt>
      <trkpt lat="45.67032" lon="5.71601">
        <ele>561</ele>
        <time>2025-05-01T09:33:50.924+00:00</time>
      </trkpt>
      <trkpt lat="45.67043" lon="5.71604">
        <ele>559</ele>
        <time>2025-05-01T09:33:55.242+00:00</time>
      </trkpt>
      <trkpt lat="45.67054" lon="5.71609">
        <ele>559</ele>
        <time>2025-05-01T09:34:00.229+00:00</time>
      </trkpt>
      <trkpt lat="45.6706" lon="5.71617">
        <ele>559</ele>
        <time>2025-05-01T09:34:05.244+00:00</time>
      </trkpt>
      <trkpt lat="45.67063" lon="5.71618">
        <ele>559</ele>
        <time>2025-05-01T09:34:10.216+00:00</time>
      </trkpt>
      <trkpt lat="45.67067" lon="5.71619">
        <ele>559</ele>
        <time>2025-05-01T09:34:14.227+00:00</time>
      </trkpt>
      <trkpt lat="45.67073" lon="5.71623">
        <ele>552</ele>
        <time>2025-05-01T09:34:19.239+00:00</time>
      </trkpt>
      <trkpt lat="45.6708" lon="5.71624">
        <ele>552</ele>
        <time>2025-05-01T09:34:23.248+00:00</time>
      </trkpt>
      <trkpt lat="45.6709" lon="5.71626">
        <ele>555</ele>
        <time>2025-05-01T09:34:28.223+00:00</time>
      </trkpt>
      <trkpt lat="45.67097" lon="5.71629">
        <ele>549</ele>
        <time>2025-05-01T09:34:32.231+00:00</time>
      </trkpt>
      <trkpt lat="45.67106" lon="5.71629">
        <ele>549</ele>
        <time>2025-05-01T09:34:37.244+00:00</time>
      </trkpt>
      <trkpt lat="45.67113" lon="5.71627">
        <ele>549</ele>
        <time>2025-05-01T09:34:42.239+00:00</time>
      </trkpt>
      <trkpt lat="45.67119" lon="5.71624">
        <ele>547</ele>
        <time>2025-05-01T09:34:47.238+00:00</time>
      </trkpt>
      <trkpt lat="45.67126" lon="5.71624">
        <ele>542</ele>
        <time>2025-05-01T09:34:52.228+00:00</time>
      </trkpt>
      <trkpt lat="45.67133" lon="5.71624">
        <ele>542</ele>
        <time>2025-05-01T09:34:56.228+00:00</time>
      </trkpt>
      <trkpt lat="45.67141" lon="5.71625">
        <ele>545</ele>
        <time>2025-05-01T09:35:01.237+00:00</time>
      </trkpt>
      <trkpt lat="45.67148" lon="5.7163">
        <ele>545</ele>
        <time>2025-05-01T09:35:06.236+00:00</time>
      </trkpt>
      <trkpt lat="45.6716" lon="5.71641">
        <ele>543</ele>
        <time>2025-05-01T09:35:15.233+00:00</time>
      </trkpt>
      <trkpt lat="45.67161" lon="5.71641">
        <ele>543</ele>
        <time>2025-05-01T09:35:20.223+00:00</time>
      </trkpt>
      <trkpt lat="45.67162" lon="5.7164">
        <ele>543</ele>
        <time>2025-05-01T09:35:24.225+00:00</time>
      </trkpt>
      <trkpt lat="45.67162" lon="5.7164">
        <ele>543</ele>
        <time>2025-05-01T09:35:28.242+00:00</time>
      </trkpt>
      <trkpt lat="45.67164" lon="5.71644">
        <ele>543</ele>
        <time>2025-05-01T09:35:33.238+00:00</time>
      </trkpt>
      <trkpt lat="45.67168" lon="5.71648">
        <ele>543</ele>
        <time>2025-05-01T09:35:37.247+00:00</time>
      </trkpt>
      <trkpt lat="45.67174" lon="5.71655">
        <ele>545</ele>
        <time>2025-05-01T09:35:42.241+00:00</time>
      </trkpt>
      <trkpt lat="45.67181" lon="5.71661">
        <ele>544</ele>
        <time>2025-05-01T09:35:47.237+00:00</time>
      </trkpt>
      <trkpt lat="45.67193" lon="5.71668">
        <ele>544</ele>
        <time>2025-05-01T09:35:52.231+00:00</time>
      </trkpt>
      <trkpt lat="45.67201" lon="5.71671">
        <ele>544</ele>
        <time>2025-05-01T09:36:44.189+00:00</time>
      </trkpt>
      <trkpt lat="45.67206" lon="5.71669">
        <ele>544</ele>
        <time>2025-05-01T09:36:48.224+00:00</time>
      </trkpt>
      <trkpt lat="45.67216" lon="5.71663">
        <ele>540</ele>
        <time>2025-05-01T09:36:53.238+00:00</time>
      </trkpt>
      <trkpt lat="45.67228" lon="5.71656">
        <ele>540</ele>
        <time>2025-05-01T09:36:58.237+00:00</time>
      </trkpt>
      <trkpt lat="45.67238" lon="5.71651">
        <ele>537</ele>
        <time>2025-05-01T09:37:02.977+00:00</time>
      </trkpt>
      <trkpt lat="45.67247" lon="5.71645">
        <ele>537</ele>
        <time>2025-05-01T09:37:07.248+00:00</time>
      </trkpt>
      <trkpt lat="45.67255" lon="5.71639">
        <ele>537</ele>
        <time>2025-05-01T09:37:11.735+00:00</time>
      </trkpt>
      <trkpt lat="45.67264" lon="5.71632">
        <ele>537</ele>
        <time>2025-05-01T09:37:16.235+00:00</time>
      </trkpt>
      <trkpt lat="45.67272" lon="5.71628">
        <ele>538</ele>
        <time>2025-05-01T09:37:20.384+00:00</time>
      </trkpt>
      <trkpt lat="45.67284" lon="5.7162">
        <ele>536</ele>
        <time>2025-05-01T09:37:24.664+00:00</time>
      </trkpt>
      <trkpt lat="45.67296" lon="5.71606">
        <ele>540</ele>
        <time>2025-05-01T09:37:29.026+00:00</time>
      </trkpt>
      <trkpt lat="45.67323" lon="5.71577">
        <ele>543</ele>
        <time>2025-05-01T09:37:33.241+00:00</time>
      </trkpt>
      <trkpt lat="45.67335" lon="5.71564">
        <ele>541</ele>
        <time>2025-05-01T09:37:38.237+00:00</time>
      </trkpt>
      <trkpt lat="45.67338" lon="5.71559">
        <ele>541</ele>
        <time>2025-05-01T09:37:42.923+00:00</time>
      </trkpt>
      <trkpt lat="45.67344" lon="5.71546">
        <ele>541</ele>
        <time>2025-05-01T09:37:47.164+00:00</time>
      </trkpt>
      <trkpt lat="45.67348" lon="5.71539">
        <ele>540</ele>
        <time>2025-05-01T09:37:51.241+00:00</time>
      </trkpt>
      <trkpt lat="45.67351" lon="5.71535">
        <ele>540</ele>
        <time>2025-05-01T09:37:55.566+00:00</time>
      </trkpt>
      <trkpt lat="45.67353" lon="5.7153">
        <ele>540</ele>
        <time>2025-05-01T09:37:59.725+00:00</time>
      </trkpt>
      <trkpt lat="45.67358" lon="5.71524">
        <ele>540</ele>
        <time>2025-05-01T09:38:03.904+00:00</time>
      </trkpt>
      <trkpt lat="45.67364" lon="5.7152">
        <ele>540</ele>
        <time>2025-05-01T09:38:08.223+00:00</time>
      </trkpt>
      <trkpt lat="45.67374" lon="5.71513">
        <ele>532</ele>
        <time>2025-05-01T09:38:13.233+00:00</time>
      </trkpt>
      <trkpt lat="45.67381" lon="5.71511">
        <ele>536</ele>
        <time>2025-05-01T09:38:17.236+00:00</time>
      </trkpt>
      <trkpt lat="45.6739" lon="5.71507">
        <ele>536</ele>
        <time>2025-05-01T09:38:22.230+00:00</time>
      </trkpt>
      <trkpt lat="45.67397" lon="5.71504">
        <ele>536</ele>
        <time>2025-05-01T09:38:26.241+00:00</time>
      </trkpt>
      <trkpt lat="45.67402" lon="5.71502">
        <ele>536</ele>
        <time>2025-05-01T09:38:31.237+00:00</time>
      </trkpt>
      <trkpt lat="45.67405" lon="5.71502">
        <ele>533</ele>
        <time>2025-05-01T09:38:35.231+00:00</time>
      </trkpt>
      <trkpt lat="45.6741" lon="5.71503">
        <ele>533</ele>
        <time>2025-05-01T09:38:40.239+00:00</time>
      </trkpt>
      <trkpt lat="45.67418" lon="5.71502">
        <ele>533</ele>
        <time>2025-05-01T09:38:45.239+00:00</time>
      </trkpt>
      <trkpt lat="45.67426" lon="5.71504">
        <ele>533</ele>
        <time>2025-05-01T09:38:50.234+00:00</time>
      </trkpt>
      <trkpt lat="45.67434" lon="5.7151">
        <ele>531</ele>
        <time>2025-05-01T09:38:55.235+00:00</time>
      </trkpt>
      <trkpt lat="45.6744" lon="5.7151">
        <ele>531</ele>
        <time>2025-05-01T09:38:59.239+00:00</time>
      </trkpt>
      <trkpt lat="45.67445" lon="5.71508">
        <ele>531</ele>
        <time>2025-05-01T09:39:03.246+00:00</time>
      </trkpt>
      <trkpt lat="45.67452" lon="5.71508">
        <ele>531</ele>
        <time>2025-05-01T09:39:08.234+00:00</time>
      </trkpt>
      <trkpt lat="45.67462" lon="5.71509">
        <ele>529</ele>
        <time>2025-05-01T09:39:12.232+00:00</time>
      </trkpt>
      <trkpt lat="45.6747" lon="5.71507">
        <ele>529</ele>
        <time>2025-05-01T09:39:17.240+00:00</time>
      </trkpt>
      <trkpt lat="45.67475" lon="5.71506">
        <ele>529</ele>
        <time>2025-05-01T09:39:21.241+00:00</time>
      </trkpt>
      <trkpt lat="45.67483" lon="5.71507">
        <ele>529</ele>
        <time>2025-05-01T09:39:26.235+00:00</time>
      </trkpt>
      <trkpt lat="45.67489" lon="5.71506">
        <ele>527</ele>
        <time>2025-05-01T09:39:30.235+00:00</time>
      </trkpt>
      <trkpt lat="45.67493" lon="5.71505">
        <ele>527</ele>
        <time>2025-05-01T09:39:34.234+00:00</time>
      </trkpt>
      <trkpt lat="45.67499" lon="5.71505">
        <ele>527</ele>
        <time>2025-05-01T09:39:38.709+00:00</time>
      </trkpt>
      <trkpt lat="45.67506" lon="5.71505">
        <ele>527</ele>
        <time>2025-05-01T09:39:43.187+00:00</time>
      </trkpt>
      <trkpt lat="45.67512" lon="5.71506">
        <ele>527</ele>
        <time>2025-05-01T09:39:47.240+00:00</time>
      </trkpt>
      <trkpt lat="45.67517" lon="5.71506">
        <ele>517</ele>
        <time>2025-05-01T09:39:52.228+00:00</time>
      </trkpt>
      <trkpt lat="45.67521" lon="5.71505">
        <ele>517</ele>
        <time>2025-05-01T09:39:56.650+00:00</time>
      </trkpt>
      <trkpt lat="45.67526" lon="5.71502">
        <ele>517</ele>
        <time>2025-05-01T09:40:00.868+00:00</time>
      </trkpt>
      <trkpt lat="45.67532" lon="5.71498">
        <ele>517</ele>
        <time>2025-05-01T09:40:05.008+00:00</time>
      </trkpt>
      <trkpt lat="45.6754" lon="5.71499">
        <ele>517</ele>
        <time>2025-05-01T09:40:09.109+00:00</time>
      </trkpt>
      <trkpt lat="45.67547" lon="5.71503">
        <ele>509</ele>
        <time>2025-05-01T09:40:13.407+00:00</time>
      </trkpt>
      <trkpt lat="45.67553" lon="5.71509">
        <ele>509</ele>
        <time>2025-05-01T09:40:17.826+00:00</time>
      </trkpt>
      <trkpt lat="45.6756" lon="5.71515">
        <ele>521</ele>
        <time>2025-05-01T09:40:22.229+00:00</time>
      </trkpt>
      <trkpt lat="45.67565" lon="5.7152">
        <ele>521</ele>
        <time>2025-05-01T09:40:26.233+00:00</time>
      </trkpt>
      <trkpt lat="45.67571" lon="5.71523">
        <ele>518</ele>
        <time>2025-05-01T09:40:30.404+00:00</time>
      </trkpt>
      <trkpt lat="45.67577" lon="5.71524">
        <ele>518</ele>
        <time>2025-05-01T09:40:34.564+00:00</time>
      </trkpt>
      <trkpt lat="45.67583" lon="5.71522">
        <ele>518</ele>
        <time>2025-05-01T09:40:39.203+00:00</time>
      </trkpt>
      <trkpt lat="45.67589" lon="5.71519">
        <ele>518</ele>
        <time>2025-05-01T09:40:43.231+00:00</time>
      </trkpt>
      <trkpt lat="45.67596" lon="5.71517">
        <ele>518</ele>
        <time>2025-05-01T09:40:47.483+00:00</time>
      </trkpt>
      <trkpt lat="45.67603" lon="5.71518">
        <ele>516</ele>
        <time>2025-05-01T09:40:51.765+00:00</time>
      </trkpt>
      <trkpt lat="45.6761" lon="5.71522">
        <ele>516</ele>
        <time>2025-05-01T09:40:56.104+00:00</time>
      </trkpt>
      <trkpt lat="45.67616" lon="5.71526">
        <ele>516</ele>
        <time>2025-05-01T09:41:00.229+00:00</time>
      </trkpt>
      <trkpt lat="45.67623" lon="5.71527">
        <ele>516</ele>
        <time>2025-05-01T09:41:04.743+00:00</time>
      </trkpt>
      <trkpt lat="45.67629" lon="5.71524">
        <ele>515</ele>
        <time>2025-05-01T09:41:09.043+00:00</time>
      </trkpt>
      <trkpt lat="45.67636" lon="5.7152">
        <ele>515</ele>
        <time>2025-05-01T09:41:13.462+00:00</time>
      </trkpt>
      <trkpt lat="45.67643" lon="5.71516">
        <ele>515</ele>
        <time>2025-05-01T09:41:17.823+00:00</time>
      </trkpt>
      <trkpt lat="45.6765" lon="5.71513">
        <ele>505</ele>
        <time>2025-05-01T09:41:22.061+00:00</time>
      </trkpt>
      <trkpt lat="45.67657" lon="5.71508">
        <ele>506</ele>
        <time>2025-05-01T09:41:26.231+00:00</time>
      </trkpt>
      <trkpt lat="45.67663" lon="5.71505">
        <ele>506</ele>
        <time>2025-05-01T09:41:30.894+00:00</time>
      </trkpt>
      <trkpt lat="45.67669" lon="5.71501">
        <ele>506</ele>
        <time>2025-05-01T09:41:35.015+00:00</time>
      </trkpt>
      <trkpt lat="45.67674" lon="5.715">
        <ele>506</ele>
        <time>2025-05-01T09:41:39.241+00:00</time>
      </trkpt>
      <trkpt lat="45.67681" lon="5.71499">
        <ele>509</ele>
        <time>2025-05-01T09:41:43.953+00:00</time>
      </trkpt>
      <trkpt lat="45.67687" lon="5.71502">
        <ele>509</ele>
        <time>2025-05-01T09:41:48.241+00:00</time>
      </trkpt>
      <trkpt lat="45.67692" lon="5.71505">
        <ele>509</ele>
        <time>2025-05-01T09:41:52.234+00:00</time>
      </trkpt>
      <trkpt lat="45.67699" lon="5.71507">
        <ele>509</ele>
        <time>2025-05-01T09:41:56.432+00:00</time>
      </trkpt>
      <trkpt lat="45.67704" lon="5.71502">
        <ele>509</ele>
        <time>2025-05-01T09:42:01.190+00:00</time>
      </trkpt>
      <trkpt lat="45.67709" lon="5.71498">
        <ele>514</ele>
        <time>2025-05-01T09:42:05.235+00:00</time>
      </trkpt>
      <trkpt lat="45.67713" lon="5.71494">
        <ele>514</ele>
        <time>2025-05-01T09:42:09.590+00:00</time>
      </trkpt>
      <trkpt lat="45.67717" lon="5.71488">
        <ele>514</ele>
        <time>2025-05-01T09:42:14.090+00:00</time>
      </trkpt>
      <trkpt lat="45.67719" lon="5.71481">
        <ele>506</ele>
        <time>2025-05-01T09:42:18.191+00:00</time>
      </trkpt>
      <trkpt lat="45.67718" lon="5.71474">
        <ele>506</ele>
        <time>2025-05-01T09:42:22.231+00:00</time>
      </trkpt>
      <trkpt lat="45.67715" lon="5.71469">
        <ele>506</ele>
        <time>2025-05-01T09:42:27.251+00:00</time>
      </trkpt>
      <trkpt lat="45.67711" lon="5.71467">
        <ele>506</ele>
        <time>2025-05-01T09:42:32.031+00:00</time>
      </trkpt>
      <trkpt lat="45.67708" lon="5.71466">
        <ele>501</ele>
        <time>2025-05-01T09:42:36.234+00:00</time>
      </trkpt>
      <trkpt lat="45.67698" lon="5.71466">
        <ele>501</ele>
        <time>2025-05-01T09:44:47.242+00:00</time>
      </trkpt>
      <trkpt lat="45.67698" lon="5.71471">
        <ele>501</ele>
        <time>2025-05-01T09:44:52.231+00:00</time>
      </trkpt>
      <trkpt lat="45.67698" lon="5.71473">
        <ele>501</ele>
        <time>2025-05-01T09:45:00.235+00:00</time>
      </trkpt>
      <trkpt lat="45.67698" lon="5.71472">
        <ele>501</ele>
        <time>2025-05-01T09:45:06.192+00:00</time>
      </trkpt>
      <trkpt lat="45.67694" lon="5.71474">
        <ele>501</ele>
        <time>2025-05-01T09:45:10.232+00:00</time>
      </trkpt>
      <trkpt lat="45.67686" lon="5.71477">
        <ele>501</ele>
        <time>2025-05-01T09:45:15.232+00:00</time>
      </trkpt>
      <trkpt lat="45.67681" lon="5.7148">
        <ele>501</ele>
        <time>2025-05-01T09:45:19.241+00:00</time>
      </trkpt>
      <trkpt lat="45.67673" lon="5.71484">
        <ele>497</ele>
        <time>2025-05-01T09:45:24.234+00:00</time>
      </trkpt>
      <trkpt lat="45.67668" lon="5.71485">
        <ele>497</ele>
        <time>2025-05-01T09:45:28.236+00:00</time>
      </trkpt>
      <trkpt lat="45.67663" lon="5.71486">
        <ele>497</ele>
        <time>2025-05-01T09:45:32.243+00:00</time>
      </trkpt>
      <trkpt lat="45.67655" lon="5.71484">
        <ele>497</ele>
        <time>2025-05-01T09:45:37.243+00:00</time>
      </trkpt>
      <trkpt lat="45.67649" lon="5.71483">
        <ele>496</ele>
        <time>2025-05-01T09:45:42.237+00:00</time>
      </trkpt>
      <trkpt lat="45.67643" lon="5.7148">
        <ele>496</ele>
        <time>2025-05-01T09:45:46.240+00:00</time>
      </trkpt>
      <trkpt lat="45.67636" lon="5.71476">
        <ele>496</ele>
        <time>2025-05-01T09:45:50.244+00:00</time>
      </trkpt>
      <trkpt lat="45.67629" lon="5.71474">
        <ele>496</ele>
        <time>2025-05-01T09:45:55.241+00:00</time>
      </trkpt>
      <trkpt lat="45.67623" lon="5.7147">
        <ele>497</ele>
        <time>2025-05-01T09:46:00.230+00:00</time>
      </trkpt>
      <trkpt lat="45.67618" lon="5.71465">
        <ele>497</ele>
        <time>2025-05-01T09:46:04.238+00:00</time>
      </trkpt>
      <trkpt lat="45.6761" lon="5.71459">
        <ele>497</ele>
        <time>2025-05-01T09:46:09.242+00:00</time>
      </trkpt>
      <trkpt lat="45.67604" lon="5.71456">
        <ele>487</ele>
        <time>2025-05-01T09:46:14.245+00:00</time>
      </trkpt>
      <trkpt lat="45.67598" lon="5.71455">
        <ele>487</ele>
        <time>2025-05-01T09:46:18.242+00:00</time>
      </trkpt>
      <trkpt lat="45.67591" lon="5.71454">
        <ele>489</ele>
        <time>2025-05-01T09:46:22.241+00:00</time>
      </trkpt>
      <trkpt lat="45.67583" lon="5.71452">
        <ele>489</ele>
        <time>2025-05-01T09:46:27.242+00:00</time>
      </trkpt>
      <trkpt lat="45.67577" lon="5.7145">
        <ele>489</ele>
        <time>2025-05-01T09:46:32.237+00:00</time>
      </trkpt>
      <trkpt lat="45.6757" lon="5.71445">
        <ele>489</ele>
        <time>2025-05-01T09:46:37.241+00:00</time>
      </trkpt>
      <trkpt lat="45.67563" lon="5.71439">
        <ele>491</ele>
        <time>2025-05-01T09:46:41.233+00:00</time>
      </trkpt>
      <trkpt lat="45.67558" lon="5.71433">
        <ele>491</ele>
        <time>2025-05-01T09:46:46.234+00:00</time>
      </trkpt>
      <trkpt lat="45.67554" lon="5.7143">
        <ele>483</ele>
        <time>2025-05-01T09:46:50.250+00:00</time>
      </trkpt>
      <trkpt lat="45.6755" lon="5.71424">
        <ele>483</ele>
        <time>2025-05-01T09:46:54.241+00:00</time>
      </trkpt>
      <trkpt lat="45.67546" lon="5.71419">
        <ele>483</ele>
        <time>2025-05-01T09:46:58.694+00:00</time>
      </trkpt>
      <trkpt lat="45.67542" lon="5.71411">
        <ele>483</ele>
        <time>2025-05-01T09:47:03.224+00:00</time>
      </trkpt>
      <trkpt lat="45.67536" lon="5.71404">
        <ele>487</ele>
        <time>2025-05-01T09:47:07.244+00:00</time>
      </trkpt>
      <trkpt lat="45.67532" lon="5.71395">
        <ele>480</ele>
        <time>2025-05-01T09:47:11.851+00:00</time>
      </trkpt>
      <trkpt lat="45.67529" lon="5.71386">
        <ele>480</ele>
        <time>2025-05-01T09:47:16.237+00:00</time>
      </trkpt>
      <trkpt lat="45.67523" lon="5.71379">
        <ele>480</ele>
        <time>2025-05-01T09:47:21.152+00:00</time>
      </trkpt>
      <trkpt lat="45.67519" lon="5.71378">
        <ele>480</ele>
        <time>2025-05-01T09:47:25.242+00:00</time>
      </trkpt>
      <trkpt lat="45.67513" lon="5.71377">
        <ele>484</ele>
        <time>2025-05-01T09:47:30.034+00:00</time>
      </trkpt>
      <trkpt lat="45.67508" lon="5.71375">
        <ele>484</ele>
        <time>2025-05-01T09:47:34.149+00:00</time>
      </trkpt>
      <trkpt lat="45.67503" lon="5.71371">
        <ele>478</ele>
        <time>2025-05-01T09:47:38.251+00:00</time>
      </trkpt>
      <trkpt lat="45.67496" lon="5.7137">
        <ele>478</ele>
        <time>2025-05-01T09:47:42.591+00:00</time>
      </trkpt>
      <trkpt lat="45.6749" lon="5.71365">
        <ele>478</ele>
        <time>2025-05-01T09:47:47.240+00:00</time>
      </trkpt>
      <trkpt lat="45.67485" lon="5.71359">
        <ele>481</ele>
        <time>2025-05-01T09:47:52.245+00:00</time>
      </trkpt>
      <trkpt lat="45.67479" lon="5.71353">
        <ele>481</ele>
        <time>2025-05-01T09:47:57.241+00:00</time>
      </trkpt>
      <trkpt lat="45.67472" lon="5.7135">
        <ele>481</ele>
        <time>2025-05-01T09:48:01.829+00:00</time>
      </trkpt>
      <trkpt lat="45.67466" lon="5.71347">
        <ele>474</ele>
        <time>2025-05-01T09:48:06.238+00:00</time>
      </trkpt>
      <trkpt lat="45.67462" lon="5.71343">
        <ele>474</ele>
        <time>2025-05-01T09:48:10.245+00:00</time>
      </trkpt>
      <trkpt lat="45.67456" lon="5.7134">
        <ele>473</ele>
        <time>2025-05-01T09:48:14.888+00:00</time>
      </trkpt>
      <trkpt lat="45.67452" lon="5.71336">
        <ele>473</ele>
        <time>2025-05-01T09:48:19.238+00:00</time>
      </trkpt>
      <trkpt lat="45.67446" lon="5.71332">
        <ele>473</ele>
        <time>2025-05-01T09:48:24.250+00:00</time>
      </trkpt>
      <trkpt lat="45.67439" lon="5.71328">
        <ele>473</ele>
        <time>2025-05-01T09:48:28.252+00:00</time>
      </trkpt>
      <trkpt lat="45.67431" lon="5.71326">
        <ele>473</ele>
        <time>2025-05-01T09:48:33.187+00:00</time>
      </trkpt>
      <trkpt lat="45.67426" lon="5.71325">
        <ele>473</ele>
        <time>2025-05-01T09:48:37.666+00:00</time>
      </trkpt>
      <trkpt lat="45.6742" lon="5.71321">
        <ele>473</ele>
        <time>2025-05-01T09:48:41.888+00:00</time>
      </trkpt>
      <trkpt lat="45.67414" lon="5.71313">
        <ele>471</ele>
        <time>2025-05-01T09:48:46.887+00:00</time>
      </trkpt>
      <trkpt lat="45.67415" lon="5.71307">
        <ele>471</ele>
        <time>2025-05-01T09:48:51.906+00:00</time>
      </trkpt>
      <trkpt lat="45.67416" lon="5.713">
        <ele>471</ele>
        <time>2025-05-01T09:48:56.006+00:00</time>
      </trkpt>
      <trkpt lat="45.67422" lon="5.71295">
        <ele>471</ele>
        <time>2025-05-01T09:49:00.232+00:00</time>
      </trkpt>
      <trkpt lat="45.67428" lon="5.71291">
        <ele>467</ele>
        <time>2025-05-01T09:49:05.250+00:00</time>
      </trkpt>
      <trkpt lat="45.67431" lon="5.71292">
        <ele>469</ele>
        <time>2025-05-01T09:49:14.217+00:00</time>
      </trkpt>
      <trkpt lat="45.67431" lon="5.71293">
        <ele>469</ele>
        <time>2025-05-01T09:49:18.230+00:00</time>
      </trkpt>
      <trkpt lat="45.67432" lon="5.71294">
        <ele>469</ele>
        <time>2025-05-01T09:49:24.241+00:00</time>
      </trkpt>
      <trkpt lat="45.67437" lon="5.71287">
        <ele>464</ele>
        <time>2025-05-01T09:49:28.945+00:00</time>
      </trkpt>
      <trkpt lat="45.67441" lon="5.71282">
        <ele>464</ele>
        <time>2025-05-01T09:49:33.185+00:00</time>
      </trkpt>
      <trkpt lat="45.67456" lon="5.71268">
        <ele>464</ele>
        <time>2025-05-01T09:49:53.228+00:00</time>
      </trkpt>
      <trkpt lat="45.67456" lon="5.71268">
        <ele>464</ele>
        <time>2025-05-01T09:49:57.241+00:00</time>
      </trkpt>
      <trkpt lat="45.67462" lon="5.71272">
        <ele>460</ele>
        <time>2025-05-01T09:50:01.250+00:00</time>
      </trkpt>
      <trkpt lat="45.67469" lon="5.71272">
        <ele>460</ele>
        <time>2025-05-01T09:50:05.526+00:00</time>
      </trkpt>
      <trkpt lat="45.67476" lon="5.71273">
        <ele>460</ele>
        <time>2025-05-01T09:50:10.240+00:00</time>
      </trkpt>
      <trkpt lat="45.67484" lon="5.71274">
        <ele>460</ele>
        <time>2025-05-01T09:50:15.126+00:00</time>
      </trkpt>
      <trkpt lat="45.67488" lon="5.71276">
        <ele>457</ele>
        <time>2025-05-01T09:50:19.252+00:00</time>
      </trkpt>
      <trkpt lat="45.67492" lon="5.71278">
        <ele>457</ele>
        <time>2025-05-01T09:50:23.851+00:00</time>
      </trkpt>
      <trkpt lat="45.67498" lon="5.7128">
        <ele>457</ele>
        <time>2025-05-01T09:50:28.034+00:00</time>
      </trkpt>
      <trkpt lat="45.67499" lon="5.71285">
        <ele>457</ele>
        <time>2025-05-01T09:50:32.236+00:00</time>
      </trkpt>
      <trkpt lat="45.67506" lon="5.71288">
        <ele>457</ele>
        <time>2025-05-01T09:50:37.243+00:00</time>
      </trkpt>
      <trkpt lat="45.67512" lon="5.7129">
        <ele>457</ele>
        <time>2025-05-01T09:50:42.242+00:00</time>
      </trkpt>
      <trkpt lat="45.67515" lon="5.71298">
        <ele>460</ele>
        <time>2025-05-01T09:50:47.230+00:00</time>
      </trkpt>
      <trkpt lat="45.67524" lon="5.7131">
        <ele>460</ele>
        <time>2025-05-01T09:51:05.239+00:00</time>
      </trkpt>
      <trkpt lat="45.67525" lon="5.7131">
        <ele>460</ele>
        <time>2025-05-01T09:51:10.243+00:00</time>
      </trkpt>
      <trkpt lat="45.67527" lon="5.7131">
        <ele>460</ele>
        <time>2025-05-01T09:51:14.689+00:00</time>
      </trkpt>
      <trkpt lat="45.67534" lon="5.71311">
        <ele>460</ele>
        <time>2025-05-01T09:51:19.254+00:00</time>
      </trkpt>
      <trkpt lat="45.67541" lon="5.71311">
        <ele>460</ele>
        <time>2025-05-01T09:51:24.242+00:00</time>
      </trkpt>
      <trkpt lat="45.67549" lon="5.71309">
        <ele>454</ele>
        <time>2025-05-01T09:51:28.828+00:00</time>
      </trkpt>
      <trkpt lat="45.67556" lon="5.71309">
        <ele>454</ele>
        <time>2025-05-01T09:51:33.242+00:00</time>
      </trkpt>
      <trkpt lat="45.67564" lon="5.71309">
        <ele>454</ele>
        <time>2025-05-01T09:51:38.239+00:00</time>
      </trkpt>
      <trkpt lat="45.67572" lon="5.71309">
        <ele>446</ele>
        <time>2025-05-01T09:51:43.223+00:00</time>
      </trkpt>
      <trkpt lat="45.67576" lon="5.71312">
        <ele>446</ele>
        <time>2025-05-01T09:51:47.240+00:00</time>
      </trkpt>
      <trkpt lat="45.67582" lon="5.71311">
        <ele>446</ele>
        <time>2025-05-01T09:51:52.186+00:00</time>
      </trkpt>
      <trkpt lat="45.67587" lon="5.71311">
        <ele>446</ele>
        <time>2025-05-01T09:51:56.241+00:00</time>
      </trkpt>
      <trkpt lat="45.67593" lon="5.7131">
        <ele>446</ele>
        <time>2025-05-01T09:52:00.239+00:00</time>
      </trkpt>
      <trkpt lat="45.67605" lon="5.71312">
        <ele>441</ele>
        <time>2025-05-01T09:52:19.236+00:00</time>
      </trkpt>
      <trkpt lat="45.67605" lon="5.71313">
        <ele>441</ele>
        <time>2025-05-01T09:52:23.244+00:00</time>
      </trkpt>
      <trkpt lat="45.67607" lon="5.71313">
        <ele>441</ele>
        <time>2025-05-01T09:52:27.911+00:00</time>
      </trkpt>
      <trkpt lat="45.67615" lon="5.71309">
        <ele>441</ele>
        <time>2025-05-01T09:52:32.208+00:00</time>
      </trkpt>
      <trkpt lat="45.67622" lon="5.71305">
        <ele>441</ele>
        <time>2025-05-01T09:52:36.809+00:00</time>
      </trkpt>
      <trkpt lat="45.67625" lon="5.71305">
        <ele>434</ele>
        <time>2025-05-01T09:52:41.010+00:00</time>
      </trkpt>
      <trkpt lat="45.67629" lon="5.71304">
        <ele>434</ele>
        <time>2025-05-01T09:52:45.169+00:00</time>
      </trkpt>
      <trkpt lat="45.67634" lon="5.71304">
        <ele>434</ele>
        <time>2025-05-01T09:52:49.254+00:00</time>
      </trkpt>
      <trkpt lat="45.6764" lon="5.71301">
        <ele>434</ele>
        <time>2025-05-01T09:52:54.234+00:00</time>
      </trkpt>
      <trkpt lat="45.67644" lon="5.71298">
        <ele>434</ele>
        <time>2025-05-01T09:52:59.128+00:00</time>
      </trkpt>
      <trkpt lat="45.67647" lon="5.71299">
        <ele>434</ele>
        <time>2025-05-01T09:53:03.240+00:00</time>
      </trkpt>
      <trkpt lat="45.67652" lon="5.71299">
        <ele>434</ele>
        <time>2025-05-01T09:53:07.766+00:00</time>
      </trkpt>
      <trkpt lat="45.67656" lon="5.71299">
        <ele>430</ele>
        <time>2025-05-01T09:53:12.087+00:00</time>
      </trkpt>
      <trkpt lat="45.6766" lon="5.71297">
        <ele>430</ele>
        <time>2025-05-01T09:53:16.365+00:00</time>
      </trkpt>
      <trkpt lat="45.67666" lon="5.71298">
        <ele>430</ele>
        <time>2025-05-01T09:53:20.425+00:00</time>
      </trkpt>
      <trkpt lat="45.67672" lon="5.71301">
        <ele>430</ele>
        <time>2025-05-01T09:53:24.707+00:00</time>
      </trkpt>
      <trkpt lat="45.67678" lon="5.71304">
        <ele>430</ele>
        <time>2025-05-01T09:53:29.067+00:00</time>
      </trkpt>
      <trkpt lat="45.67682" lon="5.71306">
        <ele>428</ele>
        <time>2025-05-01T09:53:33.242+00:00</time>
      </trkpt>
      <trkpt lat="45.67682" lon="5.71306">
        <ele>428</ele>
        <time>2025-05-01T09:53:37.684+00:00</time>
      </trkpt>
      <trkpt lat="45.67689" lon="5.71303">
        <ele>428</ele>
        <time>2025-05-01T09:53:42.247+00:00</time>
      </trkpt>
      <trkpt lat="45.67697" lon="5.71303">
        <ele>428</ele>
        <time>2025-05-01T09:53:47.206+00:00</time>
      </trkpt>
      <trkpt lat="45.67704" lon="5.71306">
        <ele>428</ele>
        <time>2025-05-01T09:53:51.236+00:00</time>
      </trkpt>
      <trkpt lat="45.6771" lon="5.71307">
        <ele>423</ele>
        <time>2025-05-01T09:53:56.124+00:00</time>
      </trkpt>
      <trkpt lat="45.67714" lon="5.7131">
        <ele>423</ele>
        <time>2025-05-01T09:54:00.234+00:00</time>
      </trkpt>
      <trkpt lat="45.67718" lon="5.71308">
        <ele>423</ele>
        <time>2025-05-01T09:54:04.243+00:00</time>
      </trkpt>
      <trkpt lat="45.67719" lon="5.71308">
        <ele>423</ele>
        <time>2025-05-01T09:55:36.233+00:00</time>
      </trkpt>
      <trkpt lat="45.67717" lon="5.71307">
        <ele>423</ele>
        <time>2025-05-01T09:55:40.868+00:00</time>
      </trkpt>
      <trkpt lat="45.67713" lon="5.71304">
        <ele>423</ele>
        <time>2025-05-01T09:55:45.047+00:00</time>
      </trkpt>
      <trkpt lat="45.67708" lon="5.71302">
        <ele>428</ele>
        <time>2025-05-01T09:55:49.108+00:00</time>
      </trkpt>
      <trkpt lat="45.67701" lon="5.71303">
        <ele>428</ele>
        <time>2025-05-01T09:55:53.238+00:00</time>
      </trkpt>
      <trkpt lat="45.67694" lon="5.71299">
        <ele>428</ele>
        <time>2025-05-01T09:55:57.947+00:00</time>
      </trkpt>
      <trkpt lat="45.6769" lon="5.71295">
        <ele>428</ele>
        <time>2025-05-01T09:56:02.239+00:00</time>
      </trkpt>
      <trkpt lat="45.67684" lon="5.71289">
        <ele>420</ele>
        <time>2025-05-01T09:56:07.238+00:00</time>
      </trkpt>
      <trkpt lat="45.67679" lon="5.71284">
        <ele>421</ele>
        <time>2025-05-01T09:56:11.629+00:00</time>
      </trkpt>
      <trkpt lat="45.67677" lon="5.71275">
        <ele>421</ele>
        <time>2025-05-01T09:56:16.238+00:00</time>
      </trkpt>
      <trkpt lat="45.67673" lon="5.71267">
        <ele>421</ele>
        <time>2025-05-01T09:56:21.241+00:00</time>
      </trkpt>
      <trkpt lat="45.67665" lon="5.71264">
        <ele>414</ele>
        <time>2025-05-01T09:56:25.906+00:00</time>
      </trkpt>
      <trkpt lat="45.6766" lon="5.7126">
        <ele>414</ele>
        <time>2025-05-01T09:56:30.236+00:00</time>
      </trkpt>
      <trkpt lat="45.67656" lon="5.71255">
        <ele>414</ele>
        <time>2025-05-01T09:56:35.235+00:00</time>
      </trkpt>
      <trkpt lat="45.67651" lon="5.71248">
        <ele>420</ele>
        <time>2025-05-01T09:56:39.765+00:00</time>
      </trkpt>
      <trkpt lat="45.67646" lon="5.71241">
        <ele>420</ele>
        <time>2025-05-01T09:56:44.145+00:00</time>
      </trkpt>
      <trkpt lat="45.67642" lon="5.71234">
        <ele>415</ele>
        <time>2025-05-01T09:56:48.164+00:00</time>
      </trkpt>
      <trkpt lat="45.6764" lon="5.71226">
        <ele>415</ele>
        <time>2025-05-01T09:56:52.222+00:00</time>
      </trkpt>
      <trkpt lat="45.67638" lon="5.71218">
        <ele>415</ele>
        <time>2025-05-01T09:56:56.531+00:00</time>
      </trkpt>
      <trkpt lat="45.67633" lon="5.71212">
        <ele>415</ele>
        <time>2025-05-01T09:57:00.794+00:00</time>
      </trkpt>
      <trkpt lat="45.6763" lon="5.71206">
        <ele>412</ele>
        <time>2025-05-01T09:57:04.953+00:00</time>
      </trkpt>
      <trkpt lat="45.67625" lon="5.71203">
        <ele>412</ele>
        <time>2025-05-01T09:57:09.242+00:00</time>
      </trkpt>
      <trkpt lat="45.6762" lon="5.71203">
        <ele>414</ele>
        <time>2025-05-01T09:57:14.239+00:00</time>
      </trkpt>
      <trkpt lat="45.67614" lon="5.71202">
        <ele>414</ele>
        <time>2025-05-01T09:57:19.233+00:00</time>
      </trkpt>
      <trkpt lat="45.67606" lon="5.712">
        <ele>414</ele>
        <time>2025-05-01T09:57:24.233+00:00</time>
      </trkpt>
      <trkpt lat="45.67591" lon="5.71195">
        <ele>412</ele>
        <time>2025-05-01T09:57:50.237+00:00</time>
      </trkpt>
      <trkpt lat="45.6759" lon="5.71194">
        <ele>412</ele>
        <time>2025-05-01T09:57:55.238+00:00</time>
      </trkpt>
      <trkpt lat="45.67588" lon="5.71193">
        <ele>412</ele>
        <time>2025-05-01T09:58:00.233+00:00</time>
      </trkpt>
      <trkpt lat="45.67587" lon="5.71191">
        <ele>412</ele>
        <time>2025-05-01T09:58:05.050+00:00</time>
      </trkpt>
      <trkpt lat="45.67582" lon="5.71188">
        <ele>412</ele>
        <time>2025-05-01T09:58:09.249+00:00</time>
      </trkpt>
      <trkpt lat="45.6758" lon="5.71188">
        <ele>412</ele>
        <time>2025-05-01T09:58:13.848+00:00</time>
      </trkpt>
      <trkpt lat="45.67574" lon="5.71187">
        <ele>412</ele>
        <time>2025-05-01T09:58:18.109+00:00</time>
      </trkpt>
      <trkpt lat="45.67567" lon="5.71187">
        <ele>411</ele>
        <time>2025-05-01T09:58:22.238+00:00</time>
      </trkpt>
      <trkpt lat="45.67562" lon="5.71185">
        <ele>411</ele>
        <time>2025-05-01T09:58:27.011+00:00</time>
      </trkpt>
      <trkpt lat="45.67555" lon="5.71184">
        <ele>411</ele>
        <time>2025-05-01T09:58:32.235+00:00</time>
      </trkpt>
      <trkpt lat="45.67549" lon="5.71181">
        <ele>411</ele>
        <time>2025-05-01T09:58:37.236+00:00</time>
      </trkpt>
      <trkpt lat="45.67543" lon="5.71175">
        <ele>402</ele>
        <time>2025-05-01T09:58:41.907+00:00</time>
      </trkpt>
      <trkpt lat="45.67538" lon="5.71171">
        <ele>399</ele>
        <time>2025-05-01T09:58:46.049+00:00</time>
      </trkpt>
      <trkpt lat="45.67532" lon="5.71169">
        <ele>399</ele>
        <time>2025-05-01T09:58:50.947+00:00</time>
      </trkpt>
      <trkpt lat="45.67527" lon="5.71166">
        <ele>399</ele>
        <time>2025-05-01T09:58:55.187+00:00</time>
      </trkpt>
      <trkpt lat="45.67523" lon="5.71163">
        <ele>399</ele>
        <time>2025-05-01T09:58:59.231+00:00</time>
      </trkpt>
      <trkpt lat="45.67522" lon="5.71159">
        <ele>399</ele>
        <time>2025-05-01T09:59:03.466+00:00</time>
      </trkpt>
      <trkpt lat="45.67516" lon="5.71157">
        <ele>399</ele>
        <time>2025-05-01T09:59:07.888+00:00</time>
      </trkpt>
      <trkpt lat="45.6751" lon="5.71155">
        <ele>402</ele>
        <time>2025-05-01T09:59:12.237+00:00</time>
      </trkpt>
      <trkpt lat="45.67504" lon="5.71149">
        <ele>388</ele>
        <time>2025-05-01T09:59:17.145+00:00</time>
      </trkpt>
      <trkpt lat="45.67501" lon="5.71143">
        <ele>388</ele>
        <time>2025-05-01T09:59:21.825+00:00</time>
      </trkpt>
      <trkpt lat="45.67499" lon="5.71137">
        <ele>388</ele>
        <time>2025-05-01T09:59:26.230+00:00</time>
      </trkpt>
      <trkpt lat="45.67499" lon="5.71135">
        <ele>388</ele>
        <time>2025-05-01T09:59:30.235+00:00</time>
      </trkpt>
      <trkpt lat="45.67494" lon="5.71134">
        <ele>388</ele>
        <time>2025-05-01T09:59:34.785+00:00</time>
      </trkpt>
      <trkpt lat="45.67492" lon="5.71131">
        <ele>388</ele>
        <time>2025-05-01T09:59:38.827+00:00</time>
      </trkpt>
      <trkpt lat="45.67487" lon="5.7113">
        <ele>388</ele>
        <time>2025-05-01T09:59:43.003+00:00</time>
      </trkpt>
      <trkpt lat="45.67482" lon="5.71127">
        <ele>393</ele>
        <time>2025-05-01T09:59:48.228+00:00</time>
      </trkpt>
      <trkpt lat="45.67476" lon="5.71125">
        <ele>393</ele>
        <time>2025-05-01T09:59:53.229+00:00</time>
      </trkpt>
      <trkpt lat="45.6747" lon="5.71123">
        <ele>381</ele>
        <time>2025-05-01T09:59:57.844+00:00</time>
      </trkpt>
      <trkpt lat="45.67464" lon="5.71119">
        <ele>381</ele>
        <time>2025-05-01T10:00:01.891+00:00</time>
      </trkpt>
      <trkpt lat="45.67458" lon="5.71116">
        <ele>381</ele>
        <time>2025-05-01T10:00:06.191+00:00</time>
      </trkpt>
      <trkpt lat="45.67453" lon="5.71115">
        <ele>384</ele>
        <time>2025-05-01T10:00:10.231+00:00</time>
      </trkpt>
      <trkpt lat="45.67447" lon="5.71115">
        <ele>384</ele>
        <time>2025-05-01T10:00:15.232+00:00</time>
      </trkpt>
      <trkpt lat="45.67442" lon="5.71113">
        <ele>384</ele>
        <time>2025-05-01T10:00:20.224+00:00</time>
      </trkpt>
      <trkpt lat="45.6744" lon="5.71107">
        <ele>384</ele>
        <time>2025-05-01T10:00:24.991+00:00</time>
      </trkpt>
      <trkpt lat="45.6744" lon="5.71102">
        <ele>384</ele>
        <time>2025-05-01T10:00:29.221+00:00</time>
      </trkpt>
      <trkpt lat="45.67436" lon="5.71096">
        <ele>371</ele>
        <time>2025-05-01T10:00:33.690+00:00</time>
      </trkpt>
      <trkpt lat="45.67433" lon="5.71092">
        <ele>371</ele>
        <time>2025-05-01T10:00:38.170+00:00</time>
      </trkpt>
      <trkpt lat="45.67428" lon="5.7109">
        <ele>371</ele>
        <time>2025-05-01T10:00:42.226+00:00</time>
      </trkpt>
      <trkpt lat="45.67422" lon="5.71088">
        <ele>371</ele>
        <time>2025-05-01T10:00:47.243+00:00</time>
      </trkpt>
      <trkpt lat="45.67418" lon="5.71087">
        <ele>371</ele>
        <time>2025-05-01T10:00:51.770+00:00</time>
      </trkpt>
      <trkpt lat="45.67418" lon="5.71083">
        <ele>371</ele>
        <time>2025-05-01T10:00:56.149+00:00</time>
      </trkpt>
      <trkpt lat="45.67419" lon="5.71083">
        <ele>371</ele>
        <time>2025-05-01T10:01:14.490+00:00</time>
      </trkpt>
      <trkpt lat="45.67417" lon="5.71083">
        <ele>371</ele>
        <time>2025-05-01T10:01:19.149+00:00</time>
      </trkpt>
      <trkpt lat="45.67415" lon="5.7108">
        <ele>371</ele>
        <time>2025-05-01T10:01:23.226+00:00</time>
      </trkpt>
      <trkpt lat="45.67413" lon="5.71079">
        <ele>371</ele>
        <time>2025-05-01T10:01:27.987+00:00</time>
      </trkpt>
      <trkpt lat="45.6741" lon="5.71079">
        <ele>371</ele>
        <time>2025-05-01T10:01:32.046+00:00</time>
      </trkpt>
      <trkpt lat="45.67403" lon="5.71077">
        <ele>371</ele>
        <time>2025-05-01T10:01:36.228+00:00</time>
      </trkpt>
      <trkpt lat="45.67398" lon="5.71073">
        <ele>374</ele>
        <time>2025-05-01T10:01:40.231+00:00</time>
      </trkpt>
      <trkpt lat="45.67393" lon="5.7107">
        <ele>374</ele>
        <time>2025-05-01T10:01:44.242+00:00</time>
      </trkpt>
      <trkpt lat="45.67386" lon="5.71066">
        <ele>362</ele>
        <time>2025-05-01T10:01:49.241+00:00</time>
      </trkpt>
      <trkpt lat="45.67382" lon="5.71061">
        <ele>362</ele>
        <time>2025-05-01T10:01:53.608+00:00</time>
      </trkpt>
      <trkpt lat="45.67377" lon="5.71056">
        <ele>362</ele>
        <time>2025-05-01T10:01:58.235+00:00</time>
      </trkpt>
      <trkpt lat="45.67373" lon="5.71052">
        <ele>363</ele>
        <time>2025-05-01T10:02:02.725+00:00</time>
      </trkpt>
      <trkpt lat="45.67368" lon="5.71052">
        <ele>363</ele>
        <time>2025-05-01T10:02:07.235+00:00</time>
      </trkpt>
      <trkpt lat="45.67363" lon="5.71049">
        <ele>363</ele>
        <time>2025-05-01T10:02:12.235+00:00</time>
      </trkpt>
      <trkpt lat="45.67357" lon="5.71045">
        <ele>363</ele>
        <time>2025-05-01T10:02:17.236+00:00</time>
      </trkpt>
      <trkpt lat="45.67352" lon="5.71043">
        <ele>363</ele>
        <time>2025-05-01T10:02:22.225+00:00</time>
      </trkpt>
      <trkpt lat="45.67349" lon="5.71039">
        <ele>352</ele>
        <time>2025-05-01T10:02:27.241+00:00</time>
      </trkpt>
      <trkpt lat="45.6735" lon="5.71042">
        <ele>363</ele>
        <time>2025-05-01T10:02:41.502+00:00</time>
      </trkpt>
      <trkpt lat="45.67345" lon="5.7104">
        <ele>350</ele>
        <time>2025-05-01T10:02:46.225+00:00</time>
      </trkpt>
      <trkpt lat="45.67341" lon="5.71037">
        <ele>350</ele>
        <time>2025-05-01T10:02:51.233+00:00</time>
      </trkpt>
      <trkpt lat="45.67338" lon="5.71032">
        <ele>350</ele>
        <time>2025-05-01T10:02:56.227+00:00</time>
      </trkpt>
      <trkpt lat="45.67334" lon="5.71032">
        <ele>350</ele>
        <time>2025-05-01T10:03:00.235+00:00</time>
      </trkpt>
      <trkpt lat="45.67329" lon="5.71031">
        <ele>350</ele>
        <time>2025-05-01T10:03:04.812+00:00</time>
      </trkpt>
      <trkpt lat="45.67323" lon="5.71028">
        <ele>350</ele>
        <time>2025-05-01T10:03:09.229+00:00</time>
      </trkpt>
      <trkpt lat="45.67317" lon="5.71025">
        <ele>349</ele>
        <time>2025-05-01T10:03:13.852+00:00</time>
      </trkpt>
      <trkpt lat="45.67313" lon="5.71022">
        <ele>349</ele>
        <time>2025-05-01T10:03:18.074+00:00</time>
      </trkpt>
      <trkpt lat="45.67307" lon="5.71019">
        <ele>349</ele>
        <time>2025-05-01T10:03:22.234+00:00</time>
      </trkpt>
      <trkpt lat="45.67299" lon="5.71016">
        <ele>349</ele>
        <time>2025-05-01T10:03:26.971+00:00</time>
      </trkpt>
      <trkpt lat="45.67294" lon="5.71015">
        <ele>349</ele>
        <time>2025-05-01T10:03:32.225+00:00</time>
      </trkpt>
      <trkpt lat="45.67288" lon="5.71012">
        <ele>339</ele>
        <time>2025-05-01T10:03:37.230+00:00</time>
      </trkpt>
      <trkpt lat="45.67278" lon="5.71004">
        <ele>339</ele>
        <time>2025-05-01T10:05:00.195+00:00</time>
      </trkpt>
      <trkpt lat="45.67278" lon="5.71003">
        <ele>339</ele>
        <time>2025-05-01T10:05:05.201+00:00</time>
      </trkpt>
      <trkpt lat="45.67278" lon="5.71002">
        <ele>339</ele>
        <time>2025-05-01T10:05:09.195+00:00</time>
      </trkpt>
      <trkpt lat="45.67277" lon="5.71003">
        <ele>339</ele>
        <time>2025-05-01T10:05:13.786+00:00</time>
      </trkpt>
      <trkpt lat="45.67272" lon="5.71007">
        <ele>339</ele>
        <time>2025-05-01T10:05:17.886+00:00</time>
      </trkpt>
      <trkpt lat="45.67267" lon="5.71013">
        <ele>339</ele>
        <time>2025-05-01T10:05:22.005+00:00</time>
      </trkpt>
      <trkpt lat="45.67258" lon="5.71009">
        <ele>334</ele>
        <time>2025-05-01T10:05:26.906+00:00</time>
      </trkpt>
      <trkpt lat="45.67249" lon="5.71003">
        <ele>334</ele>
        <time>2025-05-01T10:05:31.885+00:00</time>
      </trkpt>
      <trkpt lat="45.67239" lon="5.70998">
        <ele>334</ele>
        <time>2025-05-01T10:05:36.222+00:00</time>
      </trkpt>
      <trkpt lat="45.67233" lon="5.70995">
        <ele>330</ele>
        <time>2025-05-01T10:05:40.237+00:00</time>
      </trkpt>
      <trkpt lat="45.67228" lon="5.70993">
        <ele>330</ele>
        <time>2025-05-01T10:05:44.243+00:00</time>
      </trkpt>
      <trkpt lat="45.67223" lon="5.70995">
        <ele>330</ele>
        <time>2025-05-01T10:05:49.003+00:00</time>
      </trkpt>
      <trkpt lat="45.67217" lon="5.70996">
        <ele>330</ele>
        <time>2025-05-01T10:05:53.159+00:00</time>
      </trkpt>
      <trkpt lat="45.67212" lon="5.70995">
        <ele>330</ele>
        <time>2025-05-01T10:05:57.233+00:00</time>
      </trkpt>
      <trkpt lat="45.67205" lon="5.70992">
        <ele>326</ele>
        <time>2025-05-01T10:06:02.230+00:00</time>
      </trkpt>
      <trkpt lat="45.67202" lon="5.70995">
        <ele>326</ele>
        <time>2025-05-01T10:06:06.971+00:00</time>
      </trkpt>
      <trkpt lat="45.67198" lon="5.70996">
        <ele>326</ele>
        <time>2025-05-01T10:06:11.229+00:00</time>
      </trkpt>
      <trkpt lat="45.67195" lon="5.70999">
        <ele>326</ele>
        <time>2025-05-01T10:06:15.237+00:00</time>
      </trkpt>
      <trkpt lat="45.67191" lon="5.71006">
        <ele>326</ele>
        <time>2025-05-01T10:06:20.234+00:00</time>
      </trkpt>
      <trkpt lat="45.67185" lon="5.71011">
        <ele>326</ele>
        <time>2025-05-01T10:06:24.891+00:00</time>
      </trkpt>
      <trkpt lat="45.6718" lon="5.71013">
        <ele>326</ele>
        <time>2025-05-01T10:06:29.033+00:00</time>
      </trkpt>
      <trkpt lat="45.67173" lon="5.71011">
        <ele>326</ele>
        <time>2025-05-01T10:06:55.731+00:00</time>
      </trkpt>
      <trkpt lat="45.67172" lon="5.7101">
        <ele>326</ele>
        <time>2025-05-01T10:07:00.236+00:00</time>
      </trkpt>
      <trkpt lat="45.67171" lon="5.71008">
        <ele>326</ele>
        <time>2025-05-01T10:07:05.232+00:00</time>
      </trkpt>
      <trkpt lat="45.6717" lon="5.71009">
        <ele>326</ele>
        <time>2025-05-01T10:07:09.233+00:00</time>
      </trkpt>
      <trkpt lat="45.67162" lon="5.71009">
        <ele>326</ele>
        <time>2025-05-01T10:07:14.227+00:00</time>
      </trkpt>
      <trkpt lat="45.67155" lon="5.71003">
        <ele>326</ele>
        <time>2025-05-01T10:07:18.789+00:00</time>
      </trkpt>
      <trkpt lat="45.6715" lon="5.70996">
        <ele>329</ele>
        <time>2025-05-01T10:07:22.988+00:00</time>
      </trkpt>
      <trkpt lat="45.67147" lon="5.70988">
        <ele>329</ele>
        <time>2025-05-01T10:07:28.009+00:00</time>
      </trkpt>
      <trkpt lat="45.67145" lon="5.7098">
        <ele>320</ele>
        <time>2025-05-01T10:07:32.231+00:00</time>
      </trkpt>
      <trkpt lat="45.67146" lon="5.7097">
        <ele>320</ele>
        <time>2025-05-01T10:07:50.928+00:00</time>
      </trkpt>
      <trkpt lat="45.67147" lon="5.70967">
        <ele>320</ele>
        <time>2025-05-01T10:07:55.231+00:00</time>
      </trkpt>
      <trkpt lat="45.67147" lon="5.70965">
        <ele>320</ele>
        <time>2025-05-01T10:08:00.232+00:00</time>
      </trkpt>
      <trkpt lat="45.67147" lon="5.70964">
        <ele>320</ele>
        <time>2025-05-01T10:08:04.228+00:00</time>
      </trkpt>
      <trkpt lat="45.67143" lon="5.70955">
        <ele>306</ele>
        <time>2025-05-01T10:08:08.237+00:00</time>
      </trkpt>
      <trkpt lat="45.67135" lon="5.70947">
        <ele>306</ele>
        <time>2025-05-01T10:08:13.216+00:00</time>
      </trkpt>
      <trkpt lat="45.67129" lon="5.70945">
        <ele>306</ele>
        <time>2025-05-01T10:08:17.231+00:00</time>
      </trkpt>
      <trkpt lat="45.67123" lon="5.70943">
        <ele>316</ele>
        <time>2025-05-01T10:08:21.232+00:00</time>
      </trkpt>
      <trkpt lat="45.67116" lon="5.7094">
        <ele>316</ele>
        <time>2025-05-01T10:08:26.224+00:00</time>
      </trkpt>
      <trkpt lat="45.67111" lon="5.70937">
        <ele>316</ele>
        <time>2025-05-01T10:08:30.230+00:00</time>
      </trkpt>
      <trkpt lat="45.67109" lon="5.70935">
        <ele>316</ele>
        <time>2025-05-01T10:08:34.235+00:00</time>
      </trkpt>
      <trkpt lat="45.67105" lon="5.7093">
        <ele>304</ele>
        <time>2025-05-01T10:08:39.232+00:00</time>
      </trkpt>
      <trkpt lat="45.67099" lon="5.70923">
        <ele>304</ele>
        <time>2025-05-01T10:08:44.234+00:00</time>
      </trkpt>
      <trkpt lat="45.67087" lon="5.70913">
        <ele>313</ele>
        <time>2025-05-01T10:09:00.203+00:00</time>
      </trkpt>
      <trkpt lat="45.67085" lon="5.70913">
        <ele>313</ele>
        <time>2025-05-01T10:09:04.246+00:00</time>
      </trkpt>
      <trkpt lat="45.67078" lon="5.70911">
        <ele>313</ele>
        <time>2025-05-01T10:09:09.023+00:00</time>
      </trkpt>
      <trkpt lat="45.67074" lon="5.70905">
        <ele>313</ele>
        <time>2025-05-01T10:09:13.224+00:00</time>
      </trkpt>
      <trkpt lat="45.6707" lon="5.70898">
        <ele>299</ele>
        <time>2025-05-01T10:09:17.238+00:00</time>
      </trkpt>
      <trkpt lat="45.67068" lon="5.70894">
        <ele>301</ele>
        <time>2025-05-01T10:09:22.104+00:00</time>
      </trkpt>
      <trkpt lat="45.67066" lon="5.70895">
        <ele>301</ele>
        <time>2025-05-01T10:09:26.943+00:00</time>
      </trkpt>
      <trkpt lat="45.67059" lon="5.70896">
        <ele>301</ele>
        <time>2025-05-01T10:09:31.231+00:00</time>
      </trkpt>
      <trkpt lat="45.67056" lon="5.70891">
        <ele>301</ele>
        <time>2025-05-01T10:09:37.113+00:00</time>
      </trkpt>
      <trkpt lat="45.6705" lon="5.70889">
        <ele>301</ele>
        <time>2025-05-01T10:09:42.111+00:00</time>
      </trkpt>
      <trkpt lat="45.67045" lon="5.70887">
        <ele>301</ele>
        <time>2025-05-01T10:09:46.228+00:00</time>
      </trkpt>
      <trkpt lat="45.67043" lon="5.70883">
        <ele>301</ele>
        <time>2025-05-01T10:09:50.241+00:00</time>
      </trkpt>
      <trkpt lat="45.67042" lon="5.70884">
        <ele>301</ele>
        <time>2025-05-01T10:09:54.589+00:00</time>
      </trkpt>
      <trkpt lat="45.67036" lon="5.70881">
        <ele>302</ele>
        <time>2025-05-01T10:09:58.869+00:00</time>
      </trkpt>
      <trkpt lat="45.67029" lon="5.70878">
        <ele>302</ele>
        <time>2025-05-01T10:10:03.234+00:00</time>
      </trkpt>
      <trkpt lat="45.67023" lon="5.70875">
        <ele>302</ele>
        <time>2025-05-01T10:10:07.469+00:00</time>
      </trkpt>
      <trkpt lat="45.67018" lon="5.70875">
        <ele>288</ele>
        <time>2025-05-01T10:10:12.148+00:00</time>
      </trkpt>
      <trkpt lat="45.67015" lon="5.70872">
        <ele>288</ele>
        <time>2025-05-01T10:10:16.767+00:00</time>
      </trkpt>
      <trkpt lat="45.67009" lon="5.70872">
        <ele>288</ele>
        <time>2025-05-01T10:10:21.185+00:00</time>
      </trkpt>
      <trkpt lat="45.67004" lon="5.70871">
        <ele>288</ele>
        <time>2025-05-01T10:10:25.229+00:00</time>
      </trkpt>
      <trkpt lat="45.67003" lon="5.70868">
        <ele>288</ele>
        <time>2025-05-01T10:10:30.231+00:00</time>
      </trkpt>
      <trkpt lat="45.67003" lon="5.70869">
        <ele>288</ele>
        <time>2025-05-01T10:10:34.446+00:00</time>
      </trkpt>
      <trkpt lat="45.66996" lon="5.70873">
        <ele>288</ele>
        <time>2025-05-01T10:10:39.236+00:00</time>
      </trkpt>
      <trkpt lat="45.6699" lon="5.70871">
        <ele>288</ele>
        <time>2025-05-01T10:10:43.604+00:00</time>
      </trkpt>
      <trkpt lat="45.66985" lon="5.70866">
        <ele>298</ele>
        <time>2025-05-01T10:10:47.923+00:00</time>
      </trkpt>
      <trkpt lat="45.6698" lon="5.70862">
        <ele>298</ele>
        <time>2025-05-01T10:10:52.231+00:00</time>
      </trkpt>
      <trkpt lat="45.66974" lon="5.70862">
        <ele>298</ele>
        <time>2025-05-01T10:10:56.743+00:00</time>
      </trkpt>
      <trkpt lat="45.66969" lon="5.70857">
        <ele>298</ele>
        <time>2025-05-01T10:11:01.239+00:00</time>
      </trkpt>
      <trkpt lat="45.66964" lon="5.70851">
        <ele>298</ele>
        <time>2025-05-01T10:11:06.231+00:00</time>
      </trkpt>
      <trkpt lat="45.66958" lon="5.70845">
        <ele>292</ele>
        <time>2025-05-01T10:11:11.234+00:00</time>
      </trkpt>
      <trkpt lat="45.66953" lon="5.70843">
        <ele>292</ele>
        <time>2025-05-01T10:11:15.452+00:00</time>
      </trkpt>
      <trkpt lat="45.66947" lon="5.70842">
        <ele>292</ele>
        <time>2025-05-01T10:11:20.111+00:00</time>
      </trkpt>
      <trkpt lat="45.66941" lon="5.70839">
        <ele>292</ele>
        <time>2025-05-01T10:11:25.112+00:00</time>
      </trkpt>
      <trkpt lat="45.66941" lon="5.70835">
        <ele>292</ele>
        <time>2025-05-01T10:11:29.225+00:00</time>
      </trkpt>
      <trkpt lat="45.6694" lon="5.70835">
        <ele>292</ele>
        <time>2025-05-01T10:11:33.232+00:00</time>
      </trkpt>
      <trkpt lat="45.66937" lon="5.70832">
        <ele>292</ele>
        <time>2025-05-01T10:11:37.234+00:00</time>
      </trkpt>
      <trkpt lat="45.66931" lon="5.70828">
        <ele>292</ele>
        <time>2025-05-01T10:11:41.790+00:00</time>
      </trkpt>
      <trkpt lat="45.66925" lon="5.70828">
        <ele>295</ele>
        <time>2025-05-01T10:11:45.909+00:00</time>
      </trkpt>
      <trkpt lat="45.66917" lon="5.70824">
        <ele>295</ele>
        <time>2025-05-01T10:11:51.208+00:00</time>
      </trkpt>
      <trkpt lat="45.66911" lon="5.70817">
        <ele>274</ele>
        <time>2025-05-01T10:11:56.220+00:00</time>
      </trkpt>
      <trkpt lat="45.66905" lon="5.70814">
        <ele>274</ele>
        <time>2025-05-01T10:12:00.228+00:00</time>
      </trkpt>
      <trkpt lat="45.66899" lon="5.70811">
        <ele>286</ele>
        <time>2025-05-01T10:12:04.866+00:00</time>
      </trkpt>
      <trkpt lat="45.66895" lon="5.70805">
        <ele>286</ele>
        <time>2025-05-01T10:12:09.229+00:00</time>
      </trkpt>
      <trkpt lat="45.66889" lon="5.70804">
        <ele>286</ele>
        <time>2025-05-01T10:12:13.826+00:00</time>
      </trkpt>
      <trkpt lat="45.66884" lon="5.70803">
        <ele>286</ele>
        <time>2025-05-01T10:12:19.046+00:00</time>
      </trkpt>
      <trkpt lat="45.66879" lon="5.708">
        <ele>286</ele>
        <time>2025-05-01T10:12:23.231+00:00</time>
      </trkpt>
      <trkpt lat="45.66873" lon="5.70794">
        <ele>290</ele>
        <time>2025-05-01T10:12:28.127+00:00</time>
      </trkpt>
      <trkpt lat="45.66868" lon="5.70791">
        <ele>280</ele>
        <time>2025-05-01T10:12:32.230+00:00</time>
      </trkpt>
      <trkpt lat="45.66863" lon="5.70788">
        <ele>280</ele>
        <time>2025-05-01T10:12:37.233+00:00</time>
      </trkpt>
      <trkpt lat="45.66857" lon="5.70785">
        <ele>280</ele>
        <time>2025-05-01T10:12:42.227+00:00</time>
      </trkpt>
      <trkpt lat="45.66854" lon="5.70782">
        <ele>280</ele>
        <time>2025-05-01T10:12:46.986+00:00</time>
      </trkpt>
      <trkpt lat="45.6685" lon="5.70778">
        <ele>280</ele>
        <time>2025-05-01T10:12:51.236+00:00</time>
      </trkpt>
      <trkpt lat="45.66843" lon="5.70774">
        <ele>283</ele>
        <time>2025-05-01T10:12:55.803+00:00</time>
      </trkpt>
      <trkpt lat="45.66838" lon="5.7077">
        <ele>283</ele>
        <time>2025-05-01T10:13:00.142+00:00</time>
      </trkpt>
      <trkpt lat="45.66831" lon="5.70768">
        <ele>283</ele>
        <time>2025-05-01T10:13:05.163+00:00</time>
      </trkpt>
      <trkpt lat="45.66826" lon="5.70766">
        <ele>283</ele>
        <time>2025-05-01T10:13:09.227+00:00</time>
      </trkpt>
      <trkpt lat="45.66821" lon="5.70762">
        <ele>272</ele>
        <time>2025-05-01T10:13:13.971+00:00</time>
      </trkpt>
      <trkpt lat="45.66817" lon="5.70757">
        <ele>277</ele>
        <time>2025-05-01T10:13:18.210+00:00</time>
      </trkpt>
      <trkpt lat="45.66811" lon="5.70755">
        <ele>277</ele>
        <time>2025-05-01T10:13:23.228+00:00</time>
      </trkpt>
      <trkpt lat="45.66808" lon="5.7075">
        <ele>277</ele>
        <time>2025-05-01T10:13:28.227+00:00</time>
      </trkpt>
      <trkpt lat="45.66806" lon="5.7075">
        <ele>277</ele>
        <time>2025-05-01T10:13:32.227+00:00</time>
      </trkpt>
      <trkpt lat="45.66805" lon="5.70748">
        <ele>277</ele>
        <time>2025-05-01T10:13:36.630+00:00</time>
      </trkpt>
      <trkpt lat="45.668" lon="5.70745">
        <ele>277</ele>
        <time>2025-05-01T10:13:41.032+00:00</time>
      </trkpt>
      <trkpt lat="45.66795" lon="5.7074">
        <ele>277</ele>
        <time>2025-05-01T10:13:45.310+00:00</time>
      </trkpt>
      <trkpt lat="45.66789" lon="5.70737">
        <ele>276</ele>
        <time>2025-05-01T10:13:50.230+00:00</time>
      </trkpt>
      <trkpt lat="45.66784" lon="5.70734">
        <ele>267</ele>
        <time>2025-05-01T10:13:54.233+00:00</time>
      </trkpt>
      <trkpt lat="45.6678" lon="5.70733">
        <ele>267</ele>
        <time>2025-05-01T10:13:58.949+00:00</time>
      </trkpt>
      <trkpt lat="45.66776" lon="5.70731">
        <ele>267</ele>
        <time>2025-05-01T10:14:03.088+00:00</time>
      </trkpt>
      <trkpt lat="45.66769" lon="5.70727">
        <ele>267</ele>
        <time>2025-05-01T10:14:08.234+00:00</time>
      </trkpt>
      <trkpt lat="45.66756" lon="5.70714">
        <ele>270</ele>
        <time>2025-05-01T10:14:39.229+00:00</time>
      </trkpt>
      <trkpt lat="45.66754" lon="5.70713">
        <ele>270</ele>
        <time>2025-05-01T10:14:43.667+00:00</time>
      </trkpt>
      <trkpt lat="45.66749" lon="5.70704">
        <ele>259</ele>
        <time>2025-05-01T10:14:47.905+00:00</time>
      </trkpt>
      <trkpt lat="45.66744" lon="5.70699">
        <ele>259</ele>
        <time>2025-05-01T10:14:52.164+00:00</time>
      </trkpt>
      <trkpt lat="45.66737" lon="5.70698">
        <ele>259</ele>
        <time>2025-05-01T10:14:56.366+00:00</time>
      </trkpt>
      <trkpt lat="45.66732" lon="5.70697">
        <ele>261</ele>
        <time>2025-05-01T10:15:00.565+00:00</time>
      </trkpt>
      <trkpt lat="45.66726" lon="5.70697">
        <ele>261</ele>
        <time>2025-05-01T10:15:04.804+00:00</time>
      </trkpt>
      <trkpt lat="45.66723" lon="5.70695">
        <ele>261</ele>
        <time>2025-05-01T10:15:09.225+00:00</time>
      </trkpt>
      <trkpt lat="45.66718" lon="5.70694">
        <ele>261</ele>
        <time>2025-05-01T10:15:14.232+00:00</time>
      </trkpt>
      <trkpt lat="45.66709" lon="5.70695">
        <ele>261</ele>
        <time>2025-05-01T10:15:18.771+00:00</time>
      </trkpt>
      <trkpt lat="45.66704" lon="5.70696">
        <ele>257</ele>
        <time>2025-05-01T10:15:22.849+00:00</time>
      </trkpt>
      <trkpt lat="45.66699" lon="5.70695">
        <ele>257</ele>
        <time>2025-05-01T10:15:27.189+00:00</time>
      </trkpt>
      <trkpt lat="45.66693" lon="5.70692">
        <ele>257</ele>
        <time>2025-05-01T10:15:32.230+00:00</time>
      </trkpt>
      <trkpt lat="45.66686" lon="5.70689">
        <ele>257</ele>
        <time>2025-05-01T10:15:37.208+00:00</time>
      </trkpt>
      <trkpt lat="45.66681" lon="5.70687">
        <ele>257</ele>
        <time>2025-05-01T10:15:41.229+00:00</time>
      </trkpt>
      <trkpt lat="45.66676" lon="5.70685">
        <ele>259</ele>
        <time>2025-05-01T10:15:45.488+00:00</time>
      </trkpt>
      <trkpt lat="45.66671" lon="5.70682">
        <ele>259</ele>
        <time>2025-05-01T10:15:49.949+00:00</time>
      </trkpt>
      <trkpt lat="45.66664" lon="5.70679">
        <ele>248</ele>
        <time>2025-05-01T10:15:54.850+00:00</time>
      </trkpt>
      <trkpt lat="45.66656" lon="5.70676">
        <ele>248</ele>
        <time>2025-05-01T10:15:59.228+00:00</time>
      </trkpt>
      <trkpt lat="45.6665" lon="5.70672">
        <ele>250</ele>
        <time>2025-05-01T10:16:03.228+00:00</time>
      </trkpt>
      <trkpt lat="45.66649" lon="5.70669">
        <ele>250</ele>
        <time>2025-05-01T10:16:08.230+00:00</time>
      </trkpt>
      <trkpt lat="45.66647" lon="5.70667">
        <ele>250</ele>
        <time>2025-05-01T10:16:12.693+00:00</time>
      </trkpt>
      <trkpt lat="45.66642" lon="5.7067">
        <ele>250</ele>
        <time>2025-05-01T10:16:16.889+00:00</time>
      </trkpt>
      <trkpt lat="45.66637" lon="5.70666">
        <ele>250</ele>
        <time>2025-05-01T10:16:20.968+00:00</time>
      </trkpt>
      <trkpt lat="45.66633" lon="5.7066">
        <ele>250</ele>
        <time>2025-05-01T10:16:25.226+00:00</time>
      </trkpt>
      <trkpt lat="45.66628" lon="5.70658">
        <ele>250</ele>
        <time>2025-05-01T10:16:29.229+00:00</time>
      </trkpt>
      <trkpt lat="45.66622" lon="5.70656">
        <ele>251</ele>
        <time>2025-05-01T10:16:34.027+00:00</time>
      </trkpt>
      <trkpt lat="45.66618" lon="5.7065">
        <ele>239</ele>
        <time>2025-05-01T10:16:38.225+00:00</time>
      </trkpt>
      <trkpt lat="45.66612" lon="5.70647">
        <ele>239</ele>
        <time>2025-05-01T10:16:43.024+00:00</time>
      </trkpt>
      <trkpt lat="45.66605" lon="5.70644">
        <ele>239</ele>
        <time>2025-05-01T10:16:48.224+00:00</time>
      </trkpt>
      <trkpt lat="45.66599" lon="5.70641">
        <ele>239</ele>
        <time>2025-05-01T10:16:52.227+00:00</time>
      </trkpt>
      <trkpt lat="45.66597" lon="5.70637">
        <ele>239</ele>
        <time>2025-05-01T10:16:56.230+00:00</time>
      </trkpt>
      <trkpt lat="45.66597" lon="5.70637">
        <ele>239</ele>
        <time>2025-05-01T10:17:01.003+00:00</time>
      </trkpt>
      <trkpt lat="45.66592" lon="5.70634">
        <ele>239</ele>
        <time>2025-05-01T10:17:05.229+00:00</time>
      </trkpt>
      <trkpt lat="45.66586" lon="5.70632">
        <ele>239</ele>
        <time>2025-05-01T10:17:09.564+00:00</time>
      </trkpt>
      <trkpt lat="45.66582" lon="5.70629">
        <ele>239</ele>
        <time>2025-05-01T10:17:14.223+00:00</time>
      </trkpt>
      <trkpt lat="45.66577" lon="5.7063">
        <ele>239</ele>
        <time>2025-05-01T10:17:18.944+00:00</time>
      </trkpt>
      <trkpt lat="45.66574" lon="5.70624">
        <ele>232</ele>
        <time>2025-05-01T10:17:23.217+00:00</time>
      </trkpt>
      <trkpt lat="45.66573" lon="5.70623">
        <ele>232</ele>
        <time>2025-05-01T10:17:27.764+00:00</time>
      </trkpt>
      <trkpt lat="45.66569" lon="5.70624">
        <ele>236</ele>
        <time>2025-05-01T10:17:31.883+00:00</time>
      </trkpt>
      <trkpt lat="45.66564" lon="5.70625">
        <ele>236</ele>
        <time>2025-05-01T10:17:36.220+00:00</time>
      </trkpt>
      <trkpt lat="45.66558" lon="5.7062">
        <ele>236</ele>
        <time>2025-05-01T10:17:40.227+00:00</time>
      </trkpt>
      <trkpt lat="45.66553" lon="5.70616">
        <ele>236</ele>
        <time>2025-05-01T10:17:44.230+00:00</time>
      </trkpt>
      <trkpt lat="45.66548" lon="5.70611">
        <ele>236</ele>
        <time>2025-05-01T10:17:48.352+00:00</time>
      </trkpt>
      <trkpt lat="45.66544" lon="5.70609">
        <ele>236</ele>
        <time>2025-05-01T10:17:52.615+00:00</time>
      </trkpt>
      <trkpt lat="45.6654" lon="5.70605">
        <ele>240</ele>
        <time>2025-05-01T10:17:56.891+00:00</time>
      </trkpt>
      <trkpt lat="45.66536" lon="5.706">
        <ele>240</ele>
        <time>2025-05-01T10:18:01.092+00:00</time>
      </trkpt>
      <trkpt lat="45.66529" lon="5.70594">
        <ele>232</ele>
        <time>2025-05-01T10:18:05.227+00:00</time>
      </trkpt>
      <trkpt lat="45.66522" lon="5.70588">
        <ele>232</ele>
        <time>2025-05-01T10:18:09.452+00:00</time>
      </trkpt>
      <trkpt lat="45.66516" lon="5.70585">
        <ele>232</ele>
        <time>2025-05-01T10:18:13.751+00:00</time>
      </trkpt>
      <trkpt lat="45.66512" lon="5.70582">
        <ele>232</ele>
        <time>2025-05-01T10:18:17.830+00:00</time>
      </trkpt>
      <trkpt lat="45.66507" lon="5.70578">
        <ele>232</ele>
        <time>2025-05-01T10:18:22.208+00:00</time>
      </trkpt>
      <trkpt lat="45.66509" lon="5.70574">
        <ele>232</ele>
        <time>2025-05-01T10:18:26.211+00:00</time>
      </trkpt>
      <trkpt lat="45.6651" lon="5.70575">
        <ele>232</ele>
        <time>2025-05-01T10:18:30.767+00:00</time>
      </trkpt>
      <trkpt lat="45.66508" lon="5.70574">
        <ele>232</ele>
        <time>2025-05-01T10:18:35.225+00:00</time>
      </trkpt>
      <trkpt lat="45.66505" lon="5.70573">
        <ele>232</ele>
        <time>2025-05-01T10:18:40.226+00:00</time>
      </trkpt>
      <trkpt lat="45.66501" lon="5.70571">
        <ele>232</ele>
        <time>2025-05-01T10:18:45.231+00:00</time>
      </trkpt>
      <trkpt lat="45.66494" lon="5.7057">
        <ele>232</ele>
        <time>2025-05-01T10:18:49.286+00:00</time>
      </trkpt>
      <trkpt lat="45.66489" lon="5.70566">
        <ele>224</ele>
        <time>2025-05-01T10:18:54.228+00:00</time>
      </trkpt>
      <trkpt lat="45.66487" lon="5.70559">
        <ele>224</ele>
        <time>2025-05-01T10:18:58.806+00:00</time>
      </trkpt>
      <trkpt lat="45.66485" lon="5.7056">
        <ele>227</ele>
        <time>2025-05-01T10:19:02.925+00:00</time>
      </trkpt>
      <trkpt lat="45.66486" lon="5.70552">
        <ele>224</ele>
        <time>2025-05-01T10:19:07.125+00:00</time>
      </trkpt>
      <trkpt lat="45.66495" lon="5.70554">
        <ele>224</ele>
        <time>2025-05-01T10:19:11.228+00:00</time>
      </trkpt>
      <trkpt lat="45.66497" lon="5.70554">
        <ele>224</ele>
        <time>2025-05-01T10:19:16.233+00:00</time>
      </trkpt>
      <trkpt lat="45.665" lon="5.70557">
        <ele>224</ele>
        <time>2025-05-01T10:19:20.545+00:00</time>
      </trkpt>
      <trkpt lat="45.66506" lon="5.7056">
        <ele>224</ele>
        <time>2025-05-01T10:19:25.144+00:00</time>
      </trkpt>
      <trkpt lat="45.66512" lon="5.70564">
        <ele>224</ele>
        <time>2025-05-01T10:19:29.443+00:00</time>
      </trkpt>
      <trkpt lat="45.66517" lon="5.70571">
        <ele>232</ele>
        <time>2025-05-01T10:19:34.183+00:00</time>
      </trkpt>
      <trkpt lat="45.66523" lon="5.70571">
        <ele>232</ele>
        <time>2025-05-01T10:19:38.223+00:00</time>
      </trkpt>
      <trkpt lat="45.66531" lon="5.7057">
        <ele>232</ele>
        <time>2025-05-01T10:19:43.223+00:00</time>
      </trkpt>
      <trkpt lat="45.66538" lon="5.70571">
        <ele>232</ele>
        <time>2025-05-01T10:19:47.732+00:00</time>
      </trkpt>
      <trkpt lat="45.66544" lon="5.70574">
        <ele>229</ele>
        <time>2025-05-01T10:19:52.211+00:00</time>
      </trkpt>
      <trkpt lat="45.66551" lon="5.70578">
        <ele>229</ele>
        <time>2025-05-01T10:19:57.151+00:00</time>
      </trkpt>
      <trkpt lat="45.66556" lon="5.70578">
        <ele>229</ele>
        <time>2025-05-01T10:20:01.228+00:00</time>
      </trkpt>
      <trkpt lat="45.66563" lon="5.70578">
        <ele>229</ele>
        <time>2025-05-01T10:20:06.229+00:00</time>
      </trkpt>
      <trkpt lat="45.66568" lon="5.70577">
        <ele>229</ele>
        <time>2025-05-01T10:20:10.452+00:00</time>
      </trkpt>
      <trkpt lat="45.66573" lon="5.70574">
        <ele>224</ele>
        <time>2025-05-01T10:20:14.697+00:00</time>
      </trkpt>
      <trkpt lat="45.66576" lon="5.70564">
        <ele>221</ele>
        <time>2025-05-01T10:20:18.832+00:00</time>
      </trkpt>
      <trkpt lat="45.66576" lon="5.70554">
        <ele>221</ele>
        <time>2025-05-01T10:20:22.892+00:00</time>
      </trkpt>
      <trkpt lat="45.66575" lon="5.70545">
        <ele>221</ele>
        <time>2025-05-01T10:20:27.371+00:00</time>
      </trkpt>
      <trkpt lat="45.66578" lon="5.70537">
        <ele>218</ele>
        <time>2025-05-01T10:20:31.870+00:00</time>
      </trkpt>
      <trkpt lat="45.66581" lon="5.7053">
        <ele>218</ele>
        <time>2025-05-01T10:20:36.049+00:00</time>
      </trkpt>
      <trkpt lat="45.66585" lon="5.70524">
        <ele>218</ele>
        <time>2025-05-01T10:20:40.237+00:00</time>
      </trkpt>
      <trkpt lat="45.66588" lon="5.70518">
        <ele>218</ele>
        <time>2025-05-01T10:20:44.509+00:00</time>
      </trkpt>
      <trkpt lat="45.6659" lon="5.7051">
        <ele>217</ele>
        <time>2025-05-01T10:20:48.686+00:00</time>
      </trkpt>
      <trkpt lat="45.66591" lon="5.70501">
        <ele>217</ele>
        <time>2025-05-01T10:20:53.106+00:00</time>
      </trkpt>
      <trkpt lat="45.66591" lon="5.70495">
        <ele>217</ele>
        <time>2025-05-01T10:20:57.235+00:00</time>
      </trkpt>
      <trkpt lat="45.66591" lon="5.70489">
        <ele>217</ele>
        <time>2025-05-01T10:21:01.947+00:00</time>
      </trkpt>
      <trkpt lat="45.6659" lon="5.70483">
        <ele>218</ele>
        <time>2025-05-01T10:21:06.125+00:00</time>
      </trkpt>
      <trkpt lat="45.66588" lon="5.70474">
        <ele>218</ele>
        <time>2025-05-01T10:21:10.211+00:00</time>
      </trkpt>
      <trkpt lat="45.66586" lon="5.70466">
        <ele>218</ele>
        <time>2025-05-01T10:21:14.345+00:00</time>
      </trkpt>
      <trkpt lat="45.66583" lon="5.7046">
        <ele>218</ele>
        <time>2025-05-01T10:21:18.425+00:00</time>
      </trkpt>
      <trkpt lat="45.66582" lon="5.70459">
        <ele>218</ele>
        <time>2025-05-01T10:21:22.845+00:00</time>
      </trkpt>
      <trkpt lat="45.6658" lon="5.70459">
        <ele>218</ele>
        <time>2025-05-01T10:21:27.229+00:00</time>
      </trkpt>
      <trkpt lat="45.66579" lon="5.70459">
        <ele>218</ele>
        <time>2025-05-01T10:21:32.220+00:00</time>
      </trkpt>
      <trkpt lat="45.66579" lon="5.70459">
        <ele>218</ele>
        <time>2025-05-01T10:21:36.746+00:00</time>
      </trkpt>
      <trkpt lat="45.66573" lon="5.70454">
        <ele>218</ele>
        <time>2025-05-01T10:21:41.236+00:00</time>
      </trkpt>
      <trkpt lat="45.66574" lon="5.70443">
        <ele>218</ele>
        <time>2025-05-01T10:21:45.892+00:00</time>
      </trkpt>
      <trkpt lat="45.66575" lon="5.70442">
        <ele>218</ele>
        <time>2025-05-01T10:21:49.993+00:00</time>
      </trkpt>
      <trkpt lat="45.66575" lon="5.70443">
        <ele>218</ele>
        <time>2025-05-01T10:21:54.111+00:00</time>
      </trkpt>
      <trkpt lat="45.66575" lon="5.70442">
        <ele>218</ele>
        <time>2025-05-01T10:21:58.233+00:00</time>
      </trkpt>
      <trkpt lat="45.66578" lon="5.70433">
        <ele>218</ele>
        <time>2025-05-01T10:22:03.030+00:00</time>
      </trkpt>
      <trkpt lat="45.66584" lon="5.70425">
        <ele>218</ele>
        <time>2025-05-01T10:22:07.242+00:00</time>
      </trkpt>
      <trkpt lat="45.66587" lon="5.70415">
        <ele>218</ele>
        <time>2025-05-01T10:22:12.219+00:00</time>
      </trkpt>
      <trkpt lat="45.6659" lon="5.70407">
        <ele>218</ele>
        <time>2025-05-01T10:22:16.223+00:00</time>
      </trkpt>
      <trkpt lat="45.66593" lon="5.70403">
        <ele>217</ele>
        <time>2025-05-01T10:22:20.232+00:00</time>
      </trkpt>
      <trkpt lat="45.66594" lon="5.70398">
        <ele>217</ele>
        <time>2025-05-01T10:22:25.190+00:00</time>
      </trkpt>
      <trkpt lat="45.66593" lon="5.7038">
        <ele>217</ele>
        <time>2025-05-01T10:25:31.201+00:00</time>
      </trkpt>
      <trkpt lat="45.66588" lon="5.70377">
        <ele>217</ele>
        <time>2025-05-01T10:25:35.232+00:00</time>
      </trkpt>
      <trkpt lat="45.66584" lon="5.70371">
        <ele>217</ele>
        <time>2025-05-01T10:25:39.234+00:00</time>
      </trkpt>
      <trkpt lat="45.66579" lon="5.70362">
        <ele>217</ele>
        <time>2025-05-01T10:25:44.232+00:00</time>
      </trkpt>
      <trkpt lat="45.66575" lon="5.70352">
        <ele>217</ele>
        <time>2025-05-01T10:25:49.225+00:00</time>
      </trkpt>
      <trkpt lat="45.66571" lon="5.70344">
        <ele>217</ele>
        <time>2025-05-01T10:25:53.232+00:00</time>
      </trkpt>
      <trkpt lat="45.66569" lon="5.70337">
        <ele>217</ele>
        <time>2025-05-01T10:25:57.485+00:00</time>
      </trkpt>
      <trkpt lat="45.66565" lon="5.70325">
        <ele>217</ele>
        <time>2025-05-01T10:26:01.924+00:00</time>
      </trkpt>
      <trkpt lat="45.66564" lon="5.70315">
        <ele>217</ele>
        <time>2025-05-01T10:26:06.163+00:00</time>
      </trkpt>
      <trkpt lat="45.66561" lon="5.7031">
        <ele>217</ele>
        <time>2025-05-01T10:26:10.231+00:00</time>
      </trkpt>
      <trkpt lat="45.66557" lon="5.70306">
        <ele>217</ele>
        <time>2025-05-01T10:26:15.228+00:00</time>
      </trkpt>
      <trkpt lat="45.66554" lon="5.703">
        <ele>217</ele>
        <time>2025-05-01T10:26:20.224+00:00</time>
      </trkpt>
      <trkpt lat="45.6655" lon="5.70294">
        <ele>217</ele>
        <time>2025-05-01T10:26:24.226+00:00</time>
      </trkpt>
      <trkpt lat="45.66546" lon="5.70285">
        <ele>216</ele>
        <time>2025-05-01T10:26:29.240+00:00</time>
      </trkpt>
      <trkpt lat="45.66541" lon="5.70276">
        <ele>217</ele>
        <time>2025-05-01T10:26:34.234+00:00</time>
      </trkpt>
      <trkpt lat="45.66537" lon="5.70268">
        <ele>217</ele>
        <time>2025-05-01T10:26:39.223+00:00</time>
      </trkpt>
      <trkpt lat="45.66535" lon="5.7026">
        <ele>216</ele>
        <time>2025-05-01T10:26:44.234+00:00</time>
      </trkpt>
      <trkpt lat="45.66534" lon="5.70251">
        <ele>216</ele>
        <time>2025-05-01T10:26:49.233+00:00</time>
      </trkpt>
      <trkpt lat="45.66529" lon="5.70241">
        <ele>216</ele>
        <time>2025-05-01T10:26:54.240+00:00</time>
      </trkpt>
      <trkpt lat="45.66527" lon="5.70233">
        <ele>216</ele>
        <time>2025-05-01T10:26:58.550+00:00</time>
      </trkpt>
      <trkpt lat="45.66523" lon="5.70226">
        <ele>216</ele>
        <time>2025-05-01T10:27:02.964+00:00</time>
      </trkpt>
      <trkpt lat="45.66522" lon="5.70218">
        <ele>216</ele>
        <time>2025-05-01T10:27:07.232+00:00</time>
      </trkpt>
      <trkpt lat="45.66521" lon="5.70211">
        <ele>216</ele>
        <time>2025-05-01T10:27:11.410+00:00</time>
      </trkpt>
      <trkpt lat="45.66525" lon="5.70204">
        <ele>216</ele>
        <time>2025-05-01T10:27:16.209+00:00</time>
      </trkpt>
      <trkpt lat="45.66528" lon="5.70202">
        <ele>216</ele>
        <time>2025-05-01T10:27:20.237+00:00</time>
      </trkpt>
      <trkpt lat="45.66528" lon="5.70203">
        <ele>216</ele>
        <time>2025-05-01T10:27:25.069+00:00</time>
      </trkpt>
      <trkpt lat="45.6653" lon="5.70201">
        <ele>216</ele>
        <time>2025-05-01T10:27:29.387+00:00</time>
      </trkpt>
      <trkpt lat="45.66538" lon="5.70197">
        <ele>216</ele>
        <time>2025-05-01T10:27:33.567+00:00</time>
      </trkpt>
      <trkpt lat="45.66546" lon="5.70195">
        <ele>216</ele>
        <time>2025-05-01T10:27:37.608+00:00</time>
      </trkpt>
      <trkpt lat="45.66553" lon="5.70192">
        <ele>216</ele>
        <time>2025-05-01T10:27:42.165+00:00</time>
      </trkpt>
      <trkpt lat="45.66559" lon="5.7019">
        <ele>216</ele>
        <time>2025-05-01T10:27:46.205+00:00</time>
      </trkpt>
      <trkpt lat="45.66565" lon="5.70188">
        <ele>216</ele>
        <time>2025-05-01T10:27:50.445+00:00</time>
      </trkpt>
      <trkpt lat="45.66569" lon="5.70193">
        <ele>216</ele>
        <time>2025-05-01T10:27:55.234+00:00</time>
      </trkpt>
      <trkpt lat="45.6657" lon="5.70192">
        <ele>216</ele>
        <time>2025-05-01T10:28:00.221+00:00</time>
      </trkpt>
      <trkpt lat="45.6657" lon="5.70192">
        <ele>216</ele>
        <time>2025-05-01T10:28:04.226+00:00</time>
      </trkpt>
      <trkpt lat="45.6657" lon="5.70192">
        <ele>216</ele>
        <time>2025-05-01T10:28:08.972+00:00</time>
      </trkpt>
      <trkpt lat="45.66575" lon="5.70191">
        <ele>216</ele>
        <time>2025-05-01T10:28:13.210+00:00</time>
      </trkpt>
      <trkpt lat="45.66582" lon="5.70187">
        <ele>216</ele>
        <time>2025-05-01T10:28:17.473+00:00</time>
      </trkpt>
      <trkpt lat="45.66589" lon="5.70182">
        <ele>216</ele>
        <time>2025-05-01T10:28:21.951+00:00</time>
      </trkpt>
      <trkpt lat="45.66596" lon="5.70177">
        <ele>217</ele>
        <time>2025-05-01T10:28:26.588+00:00</time>
      </trkpt>
      <trkpt lat="45.66602" lon="5.70169">
        <ele>217</ele>
        <time>2025-05-01T10:28:31.069+00:00</time>
      </trkpt>
      <trkpt lat="45.66605" lon="5.70161">
        <ele>217</ele>
        <time>2025-05-01T10:28:35.235+00:00</time>
      </trkpt>
      <trkpt lat="45.66605" lon="5.7015">
        <ele>217</ele>
        <time>2025-05-01T10:28:39.549+00:00</time>
      </trkpt>
      <trkpt lat="45.66604" lon="5.70139">
        <ele>217</ele>
        <time>2025-05-01T10:28:43.990+00:00</time>
      </trkpt>
      <trkpt lat="45.66605" lon="5.70128">
        <ele>217</ele>
        <time>2025-05-01T10:28:49.072+00:00</time>
      </trkpt>
      <trkpt lat="45.66604" lon="5.7012">
        <ele>217</ele>
        <time>2025-05-01T10:28:53.109+00:00</time>
      </trkpt>
      <trkpt lat="45.66603" lon="5.7011">
        <ele>217</ele>
        <time>2025-05-01T10:28:57.629+00:00</time>
      </trkpt>
      <trkpt lat="45.66601" lon="5.701">
        <ele>217</ele>
        <time>2025-05-01T10:29:02.168+00:00</time>
      </trkpt>
      <trkpt lat="45.666" lon="5.7009">
        <ele>216</ele>
        <time>2025-05-01T10:29:06.187+00:00</time>
      </trkpt>
      <trkpt lat="45.66598" lon="5.70081">
        <ele>216</ele>
        <time>2025-05-01T10:29:10.238+00:00</time>
      </trkpt>
      <trkpt lat="45.66598" lon="5.70083">
        <ele>216</ele>
        <time>2025-05-01T10:29:14.241+00:00</time>
      </trkpt>
      <trkpt lat="45.66598" lon="5.70082">
        <ele>216</ele>
        <time>2025-05-01T10:29:18.885+00:00</time>
      </trkpt>
      <trkpt lat="45.66598" lon="5.70078">
        <ele>216</ele>
        <time>2025-05-01T10:29:23.227+00:00</time>
      </trkpt>
      <trkpt lat="45.66598" lon="5.7007">
        <ele>216</ele>
        <time>2025-05-01T10:29:27.234+00:00</time>
      </trkpt>
      <trkpt lat="45.666" lon="5.70057">
        <ele>216</ele>
        <time>2025-05-01T10:29:32.237+00:00</time>
      </trkpt>
      <trkpt lat="45.66599" lon="5.70046">
        <ele>216</ele>
        <time>2025-05-01T10:29:36.925+00:00</time>
      </trkpt>
      <trkpt lat="45.66598" lon="5.70035">
        <ele>216</ele>
        <time>2025-05-01T10:29:41.384+00:00</time>
      </trkpt>
      <trkpt lat="45.66598" lon="5.70025">
        <ele>216</ele>
        <time>2025-05-01T10:29:45.963+00:00</time>
      </trkpt>
      <trkpt lat="45.66598" lon="5.70018">
        <ele>216</ele>
        <time>2025-05-01T10:29:49.985+00:00</time>
      </trkpt>
      <trkpt lat="45.66598" lon="5.70008">
        <ele>218</ele>
        <time>2025-05-01T10:29:54.506+00:00</time>
      </trkpt>
      <trkpt lat="45.66599" lon="5.69998">
        <ele>218</ele>
        <time>2025-05-01T10:29:58.525+00:00</time>
      </trkpt>
      <trkpt lat="45.66601" lon="5.69989">
        <ele>218</ele>
        <time>2025-05-01T10:30:03.084+00:00</time>
      </trkpt>
      <trkpt lat="45.66602" lon="5.6998">
        <ele>219</ele>
        <time>2025-05-01T10:30:07.464+00:00</time>
      </trkpt>
      <trkpt lat="45.66601" lon="5.69971">
        <ele>219</ele>
        <time>2025-05-01T10:30:11.963+00:00</time>
      </trkpt>
      <trkpt lat="45.66601" lon="5.69962">
        <ele>219</ele>
        <time>2025-05-01T10:30:16.503+00:00</time>
      </trkpt>
      <trkpt lat="45.66599" lon="5.69955">
        <ele>221</ele>
        <time>2025-05-01T10:30:20.799+00:00</time>
      </trkpt>
      <trkpt lat="45.66595" lon="5.69948">
        <ele>219</ele>
        <time>2025-05-01T10:30:24.950+00:00</time>
      </trkpt>
      <trkpt lat="45.66589" lon="5.69943">
        <ele>219</ele>
        <time>2025-05-01T10:30:29.351+00:00</time>
      </trkpt>
      <trkpt lat="45.66582" lon="5.69941">
        <ele>219</ele>
        <time>2025-05-01T10:30:33.852+00:00</time>
      </trkpt>
      <trkpt lat="45.66575" lon="5.69937">
        <ele>219</ele>
        <time>2025-05-01T10:30:38.248+00:00</time>
      </trkpt>
      <trkpt lat="45.66568" lon="5.69932">
        <ele>218</ele>
        <time>2025-05-01T10:30:42.829+00:00</time>
      </trkpt>
      <trkpt lat="45.66563" lon="5.69925">
        <ele>218</ele>
        <time>2025-05-01T10:30:47.240+00:00</time>
      </trkpt>
      <trkpt lat="45.66558" lon="5.6992">
        <ele>218</ele>
        <time>2025-05-01T10:30:51.710+00:00</time>
      </trkpt>
      <trkpt lat="45.66551" lon="5.69917">
        <ele>218</ele>
        <time>2025-05-01T10:30:56.238+00:00</time>
      </trkpt>
      <trkpt lat="45.66543" lon="5.69913">
        <ele>218</ele>
        <time>2025-05-01T10:31:00.707+00:00</time>
      </trkpt>
      <trkpt lat="45.66535" lon="5.69911">
        <ele>217</ele>
        <time>2025-05-01T10:31:05.233+00:00</time>
      </trkpt>
      <trkpt lat="45.66529" lon="5.6991">
        <ele>217</ele>
        <time>2025-05-01T10:31:09.247+00:00</time>
      </trkpt>
      <trkpt lat="45.66523" lon="5.69908">
        <ele>217</ele>
        <time>2025-05-01T10:31:14.009+00:00</time>
      </trkpt>
      <trkpt lat="45.66518" lon="5.69907">
        <ele>217</ele>
        <time>2025-05-01T10:31:18.128+00:00</time>
      </trkpt>
      <trkpt lat="45.66507" lon="5.69909">
        <ele>217</ele>
        <time>2025-05-01T10:31:31.466+00:00</time>
      </trkpt>
      <trkpt lat="45.66499" lon="5.69907">
        <ele>217</ele>
        <time>2025-05-01T10:31:35.665+00:00</time>
      </trkpt>
      <trkpt lat="45.66493" lon="5.699">
        <ele>217</ele>
        <time>2025-05-01T10:31:40.164+00:00</time>
      </trkpt>
      <trkpt lat="45.66487" lon="5.69899">
        <ele>217</ele>
        <time>2025-05-01T10:31:44.248+00:00</time>
      </trkpt>
      <trkpt lat="45.6648" lon="5.69898">
        <ele>218</ele>
        <time>2025-05-01T10:31:48.744+00:00</time>
      </trkpt>
      <trkpt lat="45.66474" lon="5.69898">
        <ele>218</ele>
        <time>2025-05-01T10:31:53.222+00:00</time>
      </trkpt>
      <trkpt lat="45.66467" lon="5.69898">
        <ele>218</ele>
        <time>2025-05-01T10:31:57.236+00:00</time>
      </trkpt>
      <trkpt lat="45.6646" lon="5.69899">
        <ele>218</ele>
        <time>2025-05-01T10:32:01.863+00:00</time>
      </trkpt>
      <trkpt lat="45.66453" lon="5.69901">
        <ele>219</ele>
        <time>2025-05-01T10:32:06.445+00:00</time>
      </trkpt>
      <trkpt lat="45.66447" lon="5.69904">
        <ele>217</ele>
        <time>2025-05-01T10:32:10.492+00:00</time>
      </trkpt>
      <trkpt lat="45.66442" lon="5.69905">
        <ele>217</ele>
        <time>2025-05-01T10:32:14.551+00:00</time>
      </trkpt>
      <trkpt lat="45.66436" lon="5.69904">
        <ele>217</ele>
        <time>2025-05-01T10:32:19.091+00:00</time>
      </trkpt>
      <trkpt lat="45.66429" lon="5.69902">
        <ele>218</ele>
        <time>2025-05-01T10:32:23.591+00:00</time>
      </trkpt>
      <trkpt lat="45.66422" lon="5.699">
        <ele>218</ele>
        <time>2025-05-01T10:32:28.169+00:00</time>
      </trkpt>
      <trkpt lat="45.66415" lon="5.69899">
        <ele>218</ele>
        <time>2025-05-01T10:32:32.688+00:00</time>
      </trkpt>
      <trkpt lat="45.66408" lon="5.69897">
        <ele>218</ele>
        <time>2025-05-01T10:32:37.239+00:00</time>
      </trkpt>
      <trkpt lat="45.66402" lon="5.69898">
        <ele>218</ele>
        <time>2025-05-01T10:32:41.448+00:00</time>
      </trkpt>
      <trkpt lat="45.66396" lon="5.69897">
        <ele>218</ele>
        <time>2025-05-01T10:32:45.966+00:00</time>
      </trkpt>
      <trkpt lat="45.6639" lon="5.69896">
        <ele>218</ele>
        <time>2025-05-01T10:32:50.108+00:00</time>
      </trkpt>
      <trkpt lat="45.66384" lon="5.69894">
        <ele>218</ele>
        <time>2025-05-01T10:32:54.128+00:00</time>
      </trkpt>
      <trkpt lat="45.66378" lon="5.69894">
        <ele>218</ele>
        <time>2025-05-01T10:32:58.467+00:00</time>
      </trkpt>
      <trkpt lat="45.66371" lon="5.69893">
        <ele>218</ele>
        <time>2025-05-01T10:33:02.906+00:00</time>
      </trkpt>
      <trkpt lat="45.66363" lon="5.69892">
        <ele>218</ele>
        <time>2025-05-01T10:33:07.239+00:00</time>
      </trkpt>
      <trkpt lat="45.66355" lon="5.69888">
        <ele>218</ele>
        <time>2025-05-01T10:33:11.686+00:00</time>
      </trkpt>
      <trkpt lat="45.66349" lon="5.69885">
        <ele>218</ele>
        <time>2025-05-01T10:33:15.727+00:00</time>
      </trkpt>
      <trkpt lat="45.66343" lon="5.69885">
        <ele>217</ele>
        <time>2025-05-01T10:33:19.866+00:00</time>
      </trkpt>
      <trkpt lat="45.66339" lon="5.69885">
        <ele>217</ele>
        <time>2025-05-01T10:33:23.865+00:00</time>
      </trkpt>
      <trkpt lat="45.66331" lon="5.6988">
        <ele>217</ele>
        <time>2025-05-01T10:33:28.407+00:00</time>
      </trkpt>
      <trkpt lat="45.66325" lon="5.69878">
        <ele>217</ele>
        <time>2025-05-01T10:33:32.544+00:00</time>
      </trkpt>
      <trkpt lat="45.6632" lon="5.69877">
        <ele>217</ele>
        <time>2025-05-01T10:33:36.624+00:00</time>
      </trkpt>
      <trkpt lat="45.66314" lon="5.69875">
        <ele>219</ele>
        <time>2025-05-01T10:33:40.805+00:00</time>
      </trkpt>
      <trkpt lat="45.66308" lon="5.69873">
        <ele>219</ele>
        <time>2025-05-01T10:33:44.882+00:00</time>
      </trkpt>
      <trkpt lat="45.66303" lon="5.6987">
        <ele>219</ele>
        <time>2025-05-01T10:33:48.964+00:00</time>
      </trkpt>
      <trkpt lat="45.66295" lon="5.69865">
        <ele>219</ele>
        <time>2025-05-01T10:34:02.235+00:00</time>
      </trkpt>
      <trkpt lat="45.66294" lon="5.69865">
        <ele>219</ele>
        <time>2025-05-01T10:34:06.240+00:00</time>
      </trkpt>
      <trkpt lat="45.66293" lon="5.69865">
        <ele>219</ele>
        <time>2025-05-01T10:34:10.610+00:00</time>
      </trkpt>
      <trkpt lat="45.66286" lon="5.69863">
        <ele>218</ele>
        <time>2025-05-01T10:34:15.207+00:00</time>
      </trkpt>
      <trkpt lat="45.66278" lon="5.69863">
        <ele>218</ele>
        <time>2025-05-01T10:34:19.610+00:00</time>
      </trkpt>
      <trkpt lat="45.6627" lon="5.69864">
        <ele>218</ele>
        <time>2025-05-01T10:34:24.229+00:00</time>
      </trkpt>
      <trkpt lat="45.66264" lon="5.69863">
        <ele>218</ele>
        <time>2025-05-01T10:34:28.985+00:00</time>
      </trkpt>
      <trkpt lat="45.66258" lon="5.69862">
        <ele>216</ele>
        <time>2025-05-01T10:34:33.026+00:00</time>
      </trkpt>
      <trkpt lat="45.66251" lon="5.69861">
        <ele>216</ele>
        <time>2025-05-01T10:34:37.232+00:00</time>
      </trkpt>
      <trkpt lat="45.66247" lon="5.69858">
        <ele>216</ele>
        <time>2025-05-01T10:34:42.233+00:00</time>
      </trkpt>
      <trkpt lat="45.66246" lon="5.69858">
        <ele>216</ele>
        <time>2025-05-01T10:34:47.218+00:00</time>
      </trkpt>
      <trkpt lat="45.66243" lon="5.69858">
        <ele>216</ele>
        <time>2025-05-01T10:34:51.426+00:00</time>
      </trkpt>
      <trkpt lat="45.66237" lon="5.69854">
        <ele>216</ele>
        <time>2025-05-01T10:34:55.465+00:00</time>
      </trkpt>
      <trkpt lat="45.66231" lon="5.69849">
        <ele>215</ele>
        <time>2025-05-01T10:35:00.029+00:00</time>
      </trkpt>
      <trkpt lat="45.66224" lon="5.69843">
        <ele>214</ele>
        <time>2025-05-01T10:35:04.236+00:00</time>
      </trkpt>
      <trkpt lat="45.66219" lon="5.69838">
        <ele>214</ele>
        <time>2025-05-01T10:35:09.044+00:00</time>
      </trkpt>
      <trkpt lat="45.66214" lon="5.69833">
        <ele>214</ele>
        <time>2025-05-01T10:35:13.234+00:00</time>
      </trkpt>
      <trkpt lat="45.66209" lon="5.69829">
        <ele>214</ele>
        <time>2025-05-01T10:35:17.239+00:00</time>
      </trkpt>
      <trkpt lat="45.66203" lon="5.69824">
        <ele>214</ele>
        <time>2025-05-01T10:35:21.912+00:00</time>
      </trkpt>
      <trkpt lat="45.66198" lon="5.6982">
        <ele>214</ele>
        <time>2025-05-01T10:35:26.011+00:00</time>
      </trkpt>
      <trkpt lat="45.66193" lon="5.69815">
        <ele>214</ele>
        <time>2025-05-01T10:35:30.113+00:00</time>
      </trkpt>
      <trkpt lat="45.66189" lon="5.69812">
        <ele>214</ele>
        <time>2025-05-01T10:35:34.225+00:00</time>
      </trkpt>
      <trkpt lat="45.66184" lon="5.69806">
        <ele>214</ele>
        <time>2025-05-01T10:35:38.474+00:00</time>
      </trkpt>
      <trkpt lat="45.66178" lon="5.69799">
        <ele>215</ele>
        <time>2025-05-01T10:35:43.219+00:00</time>
      </trkpt>
      <trkpt lat="45.66173" lon="5.69795">
        <ele>215</ele>
        <time>2025-05-01T10:35:47.451+00:00</time>
      </trkpt>
      <trkpt lat="45.66168" lon="5.69791">
        <ele>215</ele>
        <time>2025-05-01T10:35:51.853+00:00</time>
      </trkpt>
      <trkpt lat="45.66163" lon="5.69787">
        <ele>215</ele>
        <time>2025-05-01T10:35:56.010+00:00</time>
      </trkpt>
      <trkpt lat="45.66159" lon="5.69782">
        <ele>215</ele>
        <time>2025-05-01T10:36:00.232+00:00</time>
      </trkpt>
      <trkpt lat="45.66154" lon="5.69776">
        <ele>215</ele>
        <time>2025-05-01T10:36:05.230+00:00</time>
      </trkpt>
      <trkpt lat="45.6614" lon="5.69768">
        <ele>216</ele>
        <time>2025-05-01T10:36:23.223+00:00</time>
      </trkpt>
      <trkpt lat="45.66139" lon="5.69768">
        <ele>216</ele>
        <time>2025-05-01T10:36:28.149+00:00</time>
      </trkpt>
      <trkpt lat="45.66134" lon="5.69769">
        <ele>216</ele>
        <time>2025-05-01T10:36:32.650+00:00</time>
      </trkpt>
      <trkpt lat="45.66129" lon="5.69763">
        <ele>216</ele>
        <time>2025-05-01T10:36:36.868+00:00</time>
      </trkpt>
      <trkpt lat="45.66128" lon="5.69753">
        <ele>216</ele>
        <time>2025-05-01T10:36:40.968+00:00</time>
      </trkpt>
      <trkpt lat="45.6613" lon="5.6974">
        <ele>216</ele>
        <time>2025-05-01T10:36:45.467+00:00</time>
      </trkpt>
      <trkpt lat="45.66132" lon="5.69729">
        <ele>216</ele>
        <time>2025-05-01T10:36:49.988+00:00</time>
      </trkpt>
      <trkpt lat="45.66133" lon="5.69723">
        <ele>216</ele>
        <time>2025-05-01T10:36:54.240+00:00</time>
      </trkpt>
      <trkpt lat="45.66134" lon="5.69722">
        <ele>216</ele>
        <time>2025-05-01T10:36:58.608+00:00</time>
      </trkpt>
      <trkpt lat="45.66136" lon="5.69713">
        <ele>216</ele>
        <time>2025-05-01T10:37:02.688+00:00</time>
      </trkpt>
      <trkpt lat="45.66138" lon="5.69705">
        <ele>215</ele>
        <time>2025-05-01T10:37:06.767+00:00</time>
      </trkpt>
      <trkpt lat="45.66142" lon="5.69698">
        <ele>215</ele>
        <time>2025-05-01T10:37:10.808+00:00</time>
      </trkpt>
      <trkpt lat="45.66145" lon="5.6969">
        <ele>215</ele>
        <time>2025-05-01T10:37:14.873+00:00</time>
      </trkpt>
      <trkpt lat="45.66148" lon="5.69683">
        <ele>215</ele>
        <time>2025-05-01T10:37:18.986+00:00</time>
      </trkpt>
      <trkpt lat="45.66151" lon="5.69673">
        <ele>214</ele>
        <time>2025-05-01T10:37:24.087+00:00</time>
      </trkpt>
      <trkpt lat="45.66154" lon="5.69668">
        <ele>214</ele>
        <time>2025-05-01T10:37:28.250+00:00</time>
      </trkpt>
      <trkpt lat="45.66153" lon="5.69668">
        <ele>214</ele>
        <time>2025-05-01T10:37:33.220+00:00</time>
      </trkpt>
      <trkpt lat="45.66154" lon="5.69667">
        <ele>214</ele>
        <time>2025-05-01T10:37:37.247+00:00</time>
      </trkpt>
      <trkpt lat="45.66154" lon="5.69666">
        <ele>214</ele>
        <time>2025-05-01T10:37:42.244+00:00</time>
      </trkpt>
      <trkpt lat="45.66154" lon="5.69665">
        <ele>214</ele>
        <time>2025-05-01T10:37:46.767+00:00</time>
      </trkpt>
      <trkpt lat="45.66156" lon="5.69662">
        <ele>214</ele>
        <time>2025-05-01T10:37:50.787+00:00</time>
      </trkpt>
      <trkpt lat="45.66161" lon="5.69652">
        <ele>214</ele>
        <time>2025-05-01T10:37:55.207+00:00</time>
      </trkpt>
      <trkpt lat="45.66163" lon="5.6964">
        <ele>214</ele>
        <time>2025-05-01T10:37:59.224+00:00</time>
      </trkpt>
      <trkpt lat="45.66166" lon="5.69633">
        <ele>214</ele>
        <time>2025-05-01T10:38:03.445+00:00</time>
      </trkpt>
      <trkpt lat="45.66168" lon="5.69625">
        <ele>214</ele>
        <time>2025-05-01T10:38:07.984+00:00</time>
      </trkpt>
      <trkpt lat="45.66171" lon="5.69616">
        <ele>214</ele>
        <time>2025-05-01T10:38:12.482+00:00</time>
      </trkpt>
      <trkpt lat="45.66175" lon="5.69607">
        <ele>214</ele>
        <time>2025-05-01T10:38:16.845+00:00</time>
      </trkpt>
      <trkpt lat="45.66179" lon="5.69599">
        <ele>214</ele>
        <time>2025-05-01T10:38:21.238+00:00</time>
      </trkpt>
      <trkpt lat="45.66182" lon="5.69591">
        <ele>216</ele>
        <time>2025-05-01T10:38:25.481+00:00</time>
      </trkpt>
      <trkpt lat="45.66185" lon="5.69583">
        <ele>216</ele>
        <time>2025-05-01T10:38:29.924+00:00</time>
      </trkpt>
      <trkpt lat="45.66185" lon="5.69572">
        <ele>216</ele>
        <time>2025-05-01T10:38:34.237+00:00</time>
      </trkpt>
      <trkpt lat="45.66187" lon="5.69561">
        <ele>216</ele>
        <time>2025-05-01T10:38:38.238+00:00</time>
      </trkpt>
      <trkpt lat="45.66191" lon="5.69547">
        <ele>216</ele>
        <time>2025-05-01T10:38:42.715+00:00</time>
      </trkpt>
      <trkpt lat="45.66194" lon="5.69536">
        <ele>216</ele>
        <time>2025-05-01T10:38:46.792+00:00</time>
      </trkpt>
      <trkpt lat="45.66197" lon="5.69527">
        <ele>216</ele>
        <time>2025-05-01T10:38:51.190+00:00</time>
      </trkpt>
      <trkpt lat="45.66203" lon="5.6952">
        <ele>216</ele>
        <time>2025-05-01T10:38:55.710+00:00</time>
      </trkpt>
      <trkpt lat="45.66208" lon="5.69513">
        <ele>215</ele>
        <time>2025-05-01T10:39:00.092+00:00</time>
      </trkpt>
      <trkpt lat="45.66214" lon="5.69508">
        <ele>215</ele>
        <time>2025-05-01T10:39:04.573+00:00</time>
      </trkpt>
      <trkpt lat="45.6622" lon="5.69502">
        <ele>215</ele>
        <time>2025-05-01T10:39:08.911+00:00</time>
      </trkpt>
      <trkpt lat="45.66225" lon="5.69497">
        <ele>215</ele>
        <time>2025-05-01T10:39:13.224+00:00</time>
      </trkpt>
      <trkpt lat="45.66232" lon="5.6949">
        <ele>215</ele>
        <time>2025-05-01T10:39:17.510+00:00</time>
      </trkpt>
      <trkpt lat="45.66236" lon="5.69482">
        <ele>214</ele>
        <time>2025-05-01T10:39:21.991+00:00</time>
      </trkpt>
      <trkpt lat="45.66239" lon="5.69473">
        <ele>214</ele>
        <time>2025-05-01T10:39:26.530+00:00</time>
      </trkpt>
      <trkpt lat="45.66242" lon="5.69464">
        <ele>214</ele>
        <time>2025-05-01T10:39:30.990+00:00</time>
      </trkpt>
      <trkpt lat="45.66244" lon="5.69453">
        <ele>214</ele>
        <time>2025-05-01T10:39:35.370+00:00</time>
      </trkpt>
      <trkpt lat="45.66245" lon="5.69444">
        <ele>214</ele>
        <time>2025-05-01T10:39:39.430+00:00</time>
      </trkpt>
      <trkpt lat="45.66244" lon="5.69434">
        <ele>214</ele>
        <time>2025-05-01T10:39:44.223+00:00</time>
      </trkpt>
      <trkpt lat="45.6624" lon="5.69427">
        <ele>215</ele>
        <time>2025-05-01T10:39:48.689+00:00</time>
      </trkpt>
      <trkpt lat="45.66234" lon="5.69426">
        <ele>215</ele>
        <time>2025-05-01T10:39:53.222+00:00</time>
      </trkpt>
      <trkpt lat="45.6623" lon="5.69427">
        <ele>215</ele>
        <time>2025-05-01T10:39:57.235+00:00</time>
      </trkpt>
      <trkpt lat="45.66219" lon="5.69428">
        <ele>215</ele>
        <time>2025-05-01T10:40:12.045+00:00</time>
      </trkpt>
      <trkpt lat="45.66215" lon="5.69427">
        <ele>215</ele>
        <time>2025-05-01T10:40:16.145+00:00</time>
      </trkpt>
      <trkpt lat="45.66208" lon="5.69424">
        <ele>215</ele>
        <time>2025-05-01T10:40:20.241+00:00</time>
      </trkpt>
      <trkpt lat="45.66201" lon="5.69422">
        <ele>215</ele>
        <time>2025-05-01T10:40:25.244+00:00</time>
      </trkpt>
      <trkpt lat="45.66192" lon="5.69419">
        <ele>215</ele>
        <time>2025-05-01T10:40:30.231+00:00</time>
      </trkpt>
      <trkpt lat="45.66185" lon="5.69421">
        <ele>215</ele>
        <time>2025-05-01T10:40:34.884+00:00</time>
      </trkpt>
      <trkpt lat="45.66179" lon="5.6942">
        <ele>215</ele>
        <time>2025-05-01T10:40:39.064+00:00</time>
      </trkpt>
      <trkpt lat="45.66172" lon="5.69419">
        <ele>215</ele>
        <time>2025-05-01T10:40:43.588+00:00</time>
      </trkpt>
      <trkpt lat="45.66164" lon="5.69417">
        <ele>215</ele>
        <time>2025-05-01T10:40:48.066+00:00</time>
      </trkpt>
      <trkpt lat="45.66157" lon="5.69415">
        <ele>215</ele>
        <time>2025-05-01T10:40:52.625+00:00</time>
      </trkpt>
      <trkpt lat="45.6615" lon="5.69412">
        <ele>214</ele>
        <time>2025-05-01T10:40:57.164+00:00</time>
      </trkpt>
      <trkpt lat="45.66142" lon="5.69411">
        <ele>214</ele>
        <time>2025-05-01T10:41:01.965+00:00</time>
      </trkpt>
      <trkpt lat="45.66139" lon="5.69408">
        <ele>214</ele>
        <time>2025-05-01T10:41:06.230+00:00</time>
      </trkpt>
      <trkpt lat="45.66134" lon="5.6941">
        <ele>214</ele>
        <time>2025-05-01T10:41:10.443+00:00</time>
      </trkpt>
      <trkpt lat="45.66128" lon="5.6941">
        <ele>214</ele>
        <time>2025-05-01T10:41:14.484+00:00</time>
      </trkpt>
      <trkpt lat="45.66121" lon="5.69409">
        <ele>215</ele>
        <time>2025-05-01T10:41:19.072+00:00</time>
      </trkpt>
      <trkpt lat="45.66115" lon="5.69407">
        <ele>215</ele>
        <time>2025-05-01T10:41:23.512+00:00</time>
      </trkpt>
      <trkpt lat="45.66109" lon="5.69407">
        <ele>215</ele>
        <time>2025-05-01T10:41:27.592+00:00</time>
      </trkpt>
      <trkpt lat="45.66101" lon="5.69406">
        <ele>215</ele>
        <time>2025-05-01T10:41:31.911+00:00</time>
      </trkpt>
      <trkpt lat="45.66094" lon="5.69404">
        <ele>215</ele>
        <time>2025-05-01T10:41:36.235+00:00</time>
      </trkpt>
      <trkpt lat="45.66089" lon="5.69402">
        <ele>215</ele>
        <time>2025-05-01T10:41:40.249+00:00</time>
      </trkpt>
      <trkpt lat="45.66082" lon="5.69402">
        <ele>215</ele>
        <time>2025-05-01T10:41:44.470+00:00</time>
      </trkpt>
      <trkpt lat="45.66075" lon="5.69402">
        <ele>215</ele>
        <time>2025-05-01T10:41:49.030+00:00</time>
      </trkpt>
      <trkpt lat="45.66068" lon="5.69402">
        <ele>215</ele>
        <time>2025-05-01T10:41:53.510+00:00</time>
      </trkpt>
      <trkpt lat="45.66063" lon="5.69401">
        <ele>215</ele>
        <time>2025-05-01T10:41:57.549+00:00</time>
      </trkpt>
      <trkpt lat="45.66057" lon="5.69399">
        <ele>215</ele>
        <time>2025-05-01T10:42:01.629+00:00</time>
      </trkpt>
      <trkpt lat="45.66051" lon="5.69398">
        <ele>215</ele>
        <time>2025-05-01T10:42:05.710+00:00</time>
      </trkpt>
      <trkpt lat="45.66044" lon="5.69399">
        <ele>215</ele>
        <time>2025-05-01T10:42:10.236+00:00</time>
      </trkpt>
      <trkpt lat="45.66037" lon="5.694">
        <ele>215</ele>
        <time>2025-05-01T10:42:14.749+00:00</time>
      </trkpt>
      <trkpt lat="45.6603" lon="5.69402">
        <ele>215</ele>
        <time>2025-05-01T10:42:19.237+00:00</time>
      </trkpt>
      <trkpt lat="45.66024" lon="5.69404">
        <ele>215</ele>
        <time>2025-05-01T10:42:23.367+00:00</time>
      </trkpt>
      <trkpt lat="45.66017" lon="5.69406">
        <ele>215</ele>
        <time>2025-05-01T10:42:27.470+00:00</time>
      </trkpt>
      <trkpt lat="45.6601" lon="5.69406">
        <ele>215</ele>
        <time>2025-05-01T10:42:31.989+00:00</time>
      </trkpt>
      <trkpt lat="45.66007" lon="5.69411">
        <ele>215</ele>
        <time>2025-05-01T10:42:36.248+00:00</time>
      </trkpt>
      <trkpt lat="45.66002" lon="5.69408">
        <ele>215</ele>
        <time>2025-05-01T10:42:40.566+00:00</time>
      </trkpt>
      <trkpt lat="45.65996" lon="5.69405">
        <ele>215</ele>
        <time>2025-05-01T10:42:44.587+00:00</time>
      </trkpt>
      <trkpt lat="45.6599" lon="5.69402">
        <ele>215</ele>
        <time>2025-05-01T10:42:48.607+00:00</time>
      </trkpt>
      <trkpt lat="45.65985" lon="5.69397">
        <ele>215</ele>
        <time>2025-05-01T10:42:53.108+00:00</time>
      </trkpt>
      <trkpt lat="45.65983" lon="5.69387">
        <ele>215</ele>
        <time>2025-05-01T10:42:57.848+00:00</time>
      </trkpt>
      <trkpt lat="45.65981" lon="5.69376">
        <ele>215</ele>
        <time>2025-05-01T10:43:03.006+00:00</time>
      </trkpt>
      <trkpt lat="45.6598" lon="5.69366">
        <ele>215</ele>
        <time>2025-05-01T10:43:07.581+00:00</time>
      </trkpt>
      <trkpt lat="45.65975" lon="5.69357">
        <ele>215</ele>
        <time>2025-05-01T10:43:12.172+00:00</time>
      </trkpt>
      <trkpt lat="45.65968" lon="5.69353">
        <ele>215</ele>
        <time>2025-05-01T10:43:16.572+00:00</time>
      </trkpt>
      <trkpt lat="45.65961" lon="5.69353">
        <ele>215</ele>
        <time>2025-05-01T10:43:21.155+00:00</time>
      </trkpt>
      <trkpt lat="45.65954" lon="5.69356">
        <ele>215</ele>
        <time>2025-05-01T10:43:26.011+00:00</time>
      </trkpt>
      <trkpt lat="45.65947" lon="5.69357">
        <ele>215</ele>
        <time>2025-05-01T10:43:30.111+00:00</time>
      </trkpt>
      <trkpt lat="45.6594" lon="5.69358">
        <ele>215</ele>
        <time>2025-05-01T10:43:34.691+00:00</time>
      </trkpt>
      <trkpt lat="45.65934" lon="5.69358">
        <ele>215</ele>
        <time>2025-05-01T10:43:39.238+00:00</time>
      </trkpt>
      <trkpt lat="45.65926" lon="5.69358">
        <ele>215</ele>
        <time>2025-05-01T10:43:44.070+00:00</time>
      </trkpt>
      <trkpt lat="45.6592" lon="5.69355">
        <ele>215</ele>
        <time>2025-05-01T10:43:48.690+00:00</time>
      </trkpt>
      <trkpt lat="45.65913" lon="5.69356">
        <ele>215</ele>
        <time>2025-05-01T10:43:52.930+00:00</time>
      </trkpt>
      <trkpt lat="45.65906" lon="5.69358">
        <ele>215</ele>
        <time>2025-05-01T10:43:57.490+00:00</time>
      </trkpt>
      <trkpt lat="45.659" lon="5.69357">
        <ele>215</ele>
        <time>2025-05-01T10:44:01.631+00:00</time>
      </trkpt>
      <trkpt lat="45.65894" lon="5.69359">
        <ele>215</ele>
        <time>2025-05-01T10:44:05.830+00:00</time>
      </trkpt>
      <trkpt lat="45.65888" lon="5.6936">
        <ele>215</ele>
        <time>2025-05-01T10:44:10.246+00:00</time>
      </trkpt>
      <trkpt lat="45.65881" lon="5.6936">
        <ele>215</ele>
        <time>2025-05-01T10:44:14.608+00:00</time>
      </trkpt>
      <trkpt lat="45.65875" lon="5.69361">
        <ele>215</ele>
        <time>2025-05-01T10:44:18.726+00:00</time>
      </trkpt>
      <trkpt lat="45.6587" lon="5.69363">
        <ele>216</ele>
        <time>2025-05-01T10:44:22.807+00:00</time>
      </trkpt>
      <trkpt lat="45.65864" lon="5.69365">
        <ele>216</ele>
        <time>2025-05-01T10:44:27.026+00:00</time>
      </trkpt>
      <trkpt lat="45.65858" lon="5.69366">
        <ele>216</ele>
        <time>2025-05-01T10:44:31.066+00:00</time>
      </trkpt>
      <trkpt lat="45.65852" lon="5.69365">
        <ele>216</ele>
        <time>2025-05-01T10:44:35.206+00:00</time>
      </trkpt>
      <trkpt lat="45.65847" lon="5.69365">
        <ele>216</ele>
        <time>2025-05-01T10:44:39.233+00:00</time>
      </trkpt>
      <trkpt lat="45.65842" lon="5.69367">
        <ele>216</ele>
        <time>2025-05-01T10:44:43.250+00:00</time>
      </trkpt>
      <trkpt lat="45.65836" lon="5.69368">
        <ele>216</ele>
        <time>2025-05-01T10:44:47.366+00:00</time>
      </trkpt>
      <trkpt lat="45.65829" lon="5.69368">
        <ele>216</ele>
        <time>2025-05-01T10:44:52.258+00:00</time>
      </trkpt>
      <trkpt lat="45.65824" lon="5.69366">
        <ele>216</ele>
        <time>2025-05-01T10:44:56.544+00:00</time>
      </trkpt>
      <trkpt lat="45.65821" lon="5.69363">
        <ele>216</ele>
        <time>2025-05-01T10:45:00.624+00:00</time>
      </trkpt>
      <trkpt lat="45.65815" lon="5.69361">
        <ele>216</ele>
        <time>2025-05-01T10:45:05.203+00:00</time>
      </trkpt>
      <trkpt lat="45.65809" lon="5.69356">
        <ele>216</ele>
        <time>2025-05-01T10:45:09.785+00:00</time>
      </trkpt>
      <trkpt lat="45.65803" lon="5.6935">
        <ele>216</ele>
        <time>2025-05-01T10:45:14.234+00:00</time>
      </trkpt>
      <trkpt lat="45.658" lon="5.69345">
        <ele>216</ele>
        <time>2025-05-01T10:45:19.240+00:00</time>
      </trkpt>
      <trkpt lat="45.65799" lon="5.69345">
        <ele>216</ele>
        <time>2025-05-01T10:45:23.238+00:00</time>
      </trkpt>
      <trkpt lat="45.65792" lon="5.6934">
        <ele>216</ele>
        <time>2025-05-01T10:45:27.771+00:00</time>
      </trkpt>
      <trkpt lat="45.65786" lon="5.69331">
        <ele>215</ele>
        <time>2025-05-01T10:45:31.850+00:00</time>
      </trkpt>
      <trkpt lat="45.65777" lon="5.69316">
        <ele>215</ele>
        <time>2025-05-01T10:45:35.990+00:00</time>
      </trkpt>
      <trkpt lat="45.65763" lon="5.69301">
        <ele>215</ele>
        <time>2025-05-01T10:45:40.609+00:00</time>
      </trkpt>
      <trkpt lat="45.6575" lon="5.69281">
        <ele>215</ele>
        <time>2025-05-01T10:45:45.247+00:00</time>
      </trkpt>
      <trkpt lat="45.65749" lon="5.69269">
        <ele>215</ele>
        <time>2025-05-01T10:45:49.247+00:00</time>
      </trkpt>
      <trkpt lat="45.65744" lon="5.69267">
        <ele>215</ele>
        <time>2025-05-01T10:45:53.750+00:00</time>
      </trkpt>
      <trkpt lat="45.65738" lon="5.69266">
        <ele>215</ele>
        <time>2025-05-01T10:45:58.227+00:00</time>
      </trkpt>
      <trkpt lat="45.65731" lon="5.69263">
        <ele>215</ele>
        <time>2025-05-01T10:46:02.767+00:00</time>
      </trkpt>
      <trkpt lat="45.65726" lon="5.69257">
        <ele>215</ele>
        <time>2025-05-01T10:46:06.787+00:00</time>
      </trkpt>
      <trkpt lat="45.65721" lon="5.6925">
        <ele>215</ele>
        <time>2025-05-01T10:46:11.206+00:00</time>
      </trkpt>
      <trkpt lat="45.65716" lon="5.69243">
        <ele>215</ele>
        <time>2025-05-01T10:46:15.788+00:00</time>
      </trkpt>
      <trkpt lat="45.65712" lon="5.69237">
        <ele>215</ele>
        <time>2025-05-01T10:46:19.806+00:00</time>
      </trkpt>
      <trkpt lat="45.65707" lon="5.69231">
        <ele>216</ele>
        <time>2025-05-01T10:46:23.829+00:00</time>
      </trkpt>
      <trkpt lat="45.65702" lon="5.69225">
        <ele>216</ele>
        <time>2025-05-01T10:46:28.285+00:00</time>
      </trkpt>
      <trkpt lat="45.65697" lon="5.69216">
        <ele>216</ele>
        <time>2025-05-01T10:46:33.240+00:00</time>
      </trkpt>
      <trkpt lat="45.65695" lon="5.69208">
        <ele>216</ele>
        <time>2025-05-01T10:46:37.807+00:00</time>
      </trkpt>
      <trkpt lat="45.65698" lon="5.69198">
        <ele>216</ele>
        <time>2025-05-01T10:46:42.105+00:00</time>
      </trkpt>
      <trkpt lat="45.65701" lon="5.69189">
        <ele>216</ele>
        <time>2025-05-01T10:46:46.251+00:00</time>
      </trkpt>
      <trkpt lat="45.65704" lon="5.69181">
        <ele>216</ele>
        <time>2025-05-01T10:46:50.403+00:00</time>
      </trkpt>
      <trkpt lat="45.65707" lon="5.69173">
        <ele>216</ele>
        <time>2025-05-01T10:46:54.823+00:00</time>
      </trkpt>
      <trkpt lat="45.65711" lon="5.69164">
        <ele>217</ele>
        <time>2025-05-01T10:46:59.230+00:00</time>
      </trkpt>
      <trkpt lat="45.65714" lon="5.69155">
        <ele>217</ele>
        <time>2025-05-01T10:47:03.462+00:00</time>
      </trkpt>
      <trkpt lat="45.65717" lon="5.69145">
        <ele>217</ele>
        <time>2025-05-01T10:47:08.123+00:00</time>
      </trkpt>
      <trkpt lat="45.65717" lon="5.69134">
        <ele>217</ele>
        <time>2025-05-01T10:47:13.173+00:00</time>
      </trkpt>
      <trkpt lat="45.65714" lon="5.69128">
        <ele>217</ele>
        <time>2025-05-01T10:47:17.243+00:00</time>
      </trkpt>
      <trkpt lat="45.65708" lon="5.69124">
        <ele>217</ele>
        <time>2025-05-01T10:47:21.253+00:00</time>
      </trkpt>
      <trkpt lat="45.65701" lon="5.69122">
        <ele>217</ele>
        <time>2025-05-01T10:47:26.244+00:00</time>
      </trkpt>
      <trkpt lat="45.65698" lon="5.6912">
        <ele>217</ele>
        <time>2025-05-01T10:47:31.247+00:00</time>
      </trkpt>
      <trkpt lat="45.65698" lon="5.6912">
        <ele>217</ele>
        <time>2025-05-01T10:47:36.241+00:00</time>
      </trkpt>
      <trkpt lat="45.65692" lon="5.69116">
        <ele>217</ele>
        <time>2025-05-01T10:47:40.749+00:00</time>
      </trkpt>
      <trkpt lat="45.65685" lon="5.69109">
        <ele>217</ele>
        <time>2025-05-01T10:47:45.238+00:00</time>
      </trkpt>
      <trkpt lat="45.65679" lon="5.69106">
        <ele>218</ele>
        <time>2025-05-01T10:47:49.251+00:00</time>
      </trkpt>
      <trkpt lat="45.65672" lon="5.69098">
        <ele>218</ele>
        <time>2025-05-01T10:47:53.647+00:00</time>
      </trkpt>
      <trkpt lat="45.65662" lon="5.69088">
        <ele>219</ele>
        <time>2025-05-01T10:47:57.769+00:00</time>
      </trkpt>
      <trkpt lat="45.6565" lon="5.69076">
        <ele>217</ele>
        <time>2025-05-01T10:48:02.147+00:00</time>
      </trkpt>
      <trkpt lat="45.65638" lon="5.69061">
        <ele>218</ele>
        <time>2025-05-01T10:48:06.234+00:00</time>
      </trkpt>
      <trkpt lat="45.65622" lon="5.69047">
        <ele>217</ele>
        <time>2025-05-01T10:48:10.306+00:00</time>
      </trkpt>
      <trkpt lat="45.65603" lon="5.69033">
        <ele>217</ele>
        <time>2025-05-01T10:48:14.585+00:00</time>
      </trkpt>
      <trkpt lat="45.65585" lon="5.6902">
        <ele>217</ele>
        <time>2025-05-01T10:48:18.745+00:00</time>
      </trkpt>
      <trkpt lat="45.65574" lon="5.69014">
        <ele>217</ele>
        <time>2025-05-01T10:48:23.238+00:00</time>
      </trkpt>
      <trkpt lat="45.6557" lon="5.69011">
        <ele>217</ele>
        <time>2025-05-01T10:48:27.371+00:00</time>
      </trkpt>
      <trkpt lat="45.6557" lon="5.69">
        <ele>217</ele>
        <time>2025-05-01T10:48:31.885+00:00</time>
      </trkpt>
      <trkpt lat="45.65567" lon="5.68992">
        <ele>217</ele>
        <time>2025-05-01T10:48:36.243+00:00</time>
      </trkpt>
      <trkpt lat="45.65567" lon="5.6898">
        <ele>217</ele>
        <time>2025-05-01T10:48:41.257+00:00</time>
      </trkpt>
      <trkpt lat="45.65568" lon="5.68971">
        <ele>217</ele>
        <time>2025-05-01T10:48:45.424+00:00</time>
      </trkpt>
      <trkpt lat="45.65566" lon="5.68964">
        <ele>217</ele>
        <time>2025-05-01T10:48:50.143+00:00</time>
      </trkpt>
      <trkpt lat="45.65567" lon="5.68958">
        <ele>217</ele>
        <time>2025-05-01T10:48:54.525+00:00</time>
      </trkpt>
      <trkpt lat="45.65566" lon="5.6895">
        <ele>216</ele>
        <time>2025-05-01T10:48:58.623+00:00</time>
      </trkpt>
      <trkpt lat="45.65566" lon="5.68941">
        <ele>216</ele>
        <time>2025-05-01T10:49:02.783+00:00</time>
      </trkpt>
      <trkpt lat="45.65564" lon="5.68934">
        <ele>216</ele>
        <time>2025-05-01T10:49:06.843+00:00</time>
      </trkpt>
      <trkpt lat="45.65561" lon="5.68926">
        <ele>215</ele>
        <time>2025-05-01T10:49:11.241+00:00</time>
      </trkpt>
      <trkpt lat="45.65556" lon="5.68922">
        <ele>215</ele>
        <time>2025-05-01T10:49:16.237+00:00</time>
      </trkpt>
      <trkpt lat="45.65552" lon="5.68926">
        <ele>215</ele>
        <time>2025-05-01T10:49:20.772+00:00</time>
      </trkpt>
      <trkpt lat="45.65546" lon="5.68928">
        <ele>215</ele>
        <time>2025-05-01T10:49:25.238+00:00</time>
      </trkpt>
      <trkpt lat="45.65541" lon="5.68932">
        <ele>217</ele>
        <time>2025-05-01T10:49:29.552+00:00</time>
      </trkpt>
      <trkpt lat="45.65535" lon="5.68934">
        <ele>217</ele>
        <time>2025-05-01T10:49:33.634+00:00</time>
      </trkpt>
      <trkpt lat="45.65529" lon="5.68937">
        <ele>217</ele>
        <time>2025-05-01T10:49:37.712+00:00</time>
      </trkpt>
      <trkpt lat="45.65523" lon="5.68939">
        <ele>217</ele>
        <time>2025-05-01T10:49:41.773+00:00</time>
      </trkpt>
      <trkpt lat="45.65518" lon="5.68941">
        <ele>217</ele>
        <time>2025-05-01T10:49:46.032+00:00</time>
      </trkpt>
      <trkpt lat="45.65513" lon="5.68944">
        <ele>217</ele>
        <time>2025-05-01T10:49:50.092+00:00</time>
      </trkpt>
      <trkpt lat="45.65507" lon="5.68946">
        <ele>217</ele>
        <time>2025-05-01T10:49:54.114+00:00</time>
      </trkpt>
      <trkpt lat="45.65502" lon="5.68948">
        <ele>217</ele>
        <time>2025-05-01T10:49:58.152+00:00</time>
      </trkpt>
      <trkpt lat="45.65496" lon="5.68949">
        <ele>217</ele>
        <time>2025-05-01T10:50:02.254+00:00</time>
      </trkpt>
      <trkpt lat="45.65489" lon="5.68952">
        <ele>217</ele>
        <time>2025-05-01T10:50:06.244+00:00</time>
      </trkpt>
      <trkpt lat="45.65483" lon="5.68955">
        <ele>217</ele>
        <time>2025-05-01T10:50:10.450+00:00</time>
      </trkpt>
      <trkpt lat="45.65477" lon="5.68959">
        <ele>216</ele>
        <time>2025-05-01T10:50:14.590+00:00</time>
      </trkpt>
      <trkpt lat="45.65472" lon="5.68961">
        <ele>216</ele>
        <time>2025-05-01T10:50:18.790+00:00</time>
      </trkpt>
      <trkpt lat="45.65466" lon="5.68962">
        <ele>216</ele>
        <time>2025-05-01T10:50:22.970+00:00</time>
      </trkpt>
      <trkpt lat="45.6546" lon="5.68965">
        <ele>216</ele>
        <time>2025-05-01T10:50:27.109+00:00</time>
      </trkpt>
      <trkpt lat="45.65454" lon="5.68967">
        <ele>216</ele>
        <time>2025-05-01T10:50:31.189+00:00</time>
      </trkpt>
      <trkpt lat="45.65448" lon="5.6897">
        <ele>216</ele>
        <time>2025-05-01T10:50:35.240+00:00</time>
      </trkpt>
      <trkpt lat="45.65442" lon="5.68973">
        <ele>216</ele>
        <time>2025-05-01T10:50:39.407+00:00</time>
      </trkpt>
      <trkpt lat="45.65436" lon="5.68976">
        <ele>216</ele>
        <time>2025-05-01T10:50:43.967+00:00</time>
      </trkpt>
      <trkpt lat="45.6543" lon="5.68979">
        <ele>216</ele>
        <time>2025-05-01T10:50:48.242+00:00</time>
      </trkpt>
      <trkpt lat="45.65424" lon="5.68981">
        <ele>216</ele>
        <time>2025-05-01T10:50:53.005+00:00</time>
      </trkpt>
      <trkpt lat="45.65418" lon="5.68984">
        <ele>216</ele>
        <time>2025-05-01T10:50:57.247+00:00</time>
      </trkpt>
      <trkpt lat="45.65411" lon="5.68988">
        <ele>215</ele>
        <time>2025-05-01T10:51:01.407+00:00</time>
      </trkpt>
      <trkpt lat="45.65405" lon="5.6899">
        <ele>215</ele>
        <time>2025-05-01T10:51:05.967+00:00</time>
      </trkpt>
      <trkpt lat="45.654" lon="5.68993">
        <ele>215</ele>
        <time>2025-05-01T10:51:10.206+00:00</time>
      </trkpt>
      <trkpt lat="45.65395" lon="5.68996">
        <ele>215</ele>
        <time>2025-05-01T10:51:14.386+00:00</time>
      </trkpt>
      <trkpt lat="45.65389" lon="5.68998">
        <ele>215</ele>
        <time>2025-05-01T10:51:18.505+00:00</time>
      </trkpt>
      <trkpt lat="45.65383" lon="5.69">
        <ele>215</ele>
        <time>2025-05-01T10:51:22.765+00:00</time>
      </trkpt>
      <trkpt lat="45.65377" lon="5.68999">
        <ele>215</ele>
        <time>2025-05-01T10:51:26.864+00:00</time>
      </trkpt>
      <trkpt lat="45.65372" lon="5.69004">
        <ele>215</ele>
        <time>2025-05-01T10:51:31.003+00:00</time>
      </trkpt>
      <trkpt lat="45.65366" lon="5.69003">
        <ele>215</ele>
        <time>2025-05-01T10:51:35.184+00:00</time>
      </trkpt>
      <trkpt lat="45.6536" lon="5.69006">
        <ele>215</ele>
        <time>2025-05-01T10:51:39.239+00:00</time>
      </trkpt>
      <trkpt lat="45.65354" lon="5.69007">
        <ele>215</ele>
        <time>2025-05-01T10:51:43.503+00:00</time>
      </trkpt>
      <trkpt lat="45.65348" lon="5.69007">
        <ele>215</ele>
        <time>2025-05-01T10:51:47.643+00:00</time>
      </trkpt>
      <trkpt lat="45.65341" lon="5.6901">
        <ele>215</ele>
        <time>2025-05-01T10:51:52.247+00:00</time>
      </trkpt>
      <trkpt lat="45.65335" lon="5.69015">
        <ele>215</ele>
        <time>2025-05-01T10:51:56.545+00:00</time>
      </trkpt>
      <trkpt lat="45.6533" lon="5.69018">
        <ele>215</ele>
        <time>2025-05-01T10:52:00.762+00:00</time>
      </trkpt>
      <trkpt lat="45.65325" lon="5.6902">
        <ele>215</ele>
        <time>2025-05-01T10:52:04.963+00:00</time>
      </trkpt>
      <trkpt lat="45.65319" lon="5.69023">
        <ele>215</ele>
        <time>2025-05-01T10:52:09.144+00:00</time>
      </trkpt>
      <trkpt lat="45.65313" lon="5.69024">
        <ele>215</ele>
        <time>2025-05-01T10:52:13.242+00:00</time>
      </trkpt>
      <trkpt lat="45.65307" lon="5.69025">
        <ele>215</ele>
        <time>2025-05-01T10:52:17.632+00:00</time>
      </trkpt>
      <trkpt lat="45.65301" lon="5.69028">
        <ele>215</ele>
        <time>2025-05-01T10:52:21.930+00:00</time>
      </trkpt>
      <trkpt lat="45.65295" lon="5.6903">
        <ele>215</ele>
        <time>2025-05-01T10:52:26.245+00:00</time>
      </trkpt>
      <trkpt lat="45.65289" lon="5.69033">
        <ele>214</ele>
        <time>2025-05-01T10:52:30.850+00:00</time>
      </trkpt>
      <trkpt lat="45.65282" lon="5.69037">
        <ele>214</ele>
        <time>2025-05-01T10:52:35.242+00:00</time>
      </trkpt>
      <trkpt lat="45.65276" lon="5.6904">
        <ele>214</ele>
        <time>2025-05-01T10:52:39.244+00:00</time>
      </trkpt>
      <trkpt lat="45.65269" lon="5.69044">
        <ele>215</ele>
        <time>2025-05-01T10:52:43.890+00:00</time>
      </trkpt>
      <trkpt lat="45.65264" lon="5.69046">
        <ele>215</ele>
        <time>2025-05-01T10:52:48.129+00:00</time>
      </trkpt>
      <trkpt lat="45.65259" lon="5.6905">
        <ele>215</ele>
        <time>2025-05-01T10:52:52.234+00:00</time>
      </trkpt>
      <trkpt lat="45.65254" lon="5.69051">
        <ele>215</ele>
        <time>2025-05-01T10:52:56.608+00:00</time>
      </trkpt>
      <trkpt lat="45.65248" lon="5.69052">
        <ele>215</ele>
        <time>2025-05-01T10:53:00.747+00:00</time>
      </trkpt>
      <trkpt lat="45.65242" lon="5.69054">
        <ele>215</ele>
        <time>2025-05-01T10:53:04.928+00:00</time>
      </trkpt>
      <trkpt lat="45.65236" lon="5.69058">
        <ele>215</ele>
        <time>2025-05-01T10:53:09.226+00:00</time>
      </trkpt>
      <trkpt lat="45.65235" lon="5.69061">
        <ele>215</ele>
        <time>2025-05-01T10:53:13.236+00:00</time>
      </trkpt>
      <trkpt lat="45.65235" lon="5.6906">
        <ele>215</ele>
        <time>2025-05-01T10:53:18.239+00:00</time>
      </trkpt>
      <trkpt lat="45.65234" lon="5.6906">
        <ele>215</ele>
        <time>2025-05-01T10:53:22.627+00:00</time>
      </trkpt>
      <trkpt lat="45.65228" lon="5.6906">
        <ele>215</ele>
        <time>2025-05-01T10:53:26.766+00:00</time>
      </trkpt>
      <trkpt lat="45.6522" lon="5.69064">
        <ele>215</ele>
        <time>2025-05-01T10:53:30.986+00:00</time>
      </trkpt>
      <trkpt lat="45.65214" lon="5.69067">
        <ele>215</ele>
        <time>2025-05-01T10:53:35.237+00:00</time>
      </trkpt>
      <trkpt lat="45.65207" lon="5.6907">
        <ele>215</ele>
        <time>2025-05-01T10:53:39.963+00:00</time>
      </trkpt>
      <trkpt lat="45.65201" lon="5.69071">
        <ele>215</ele>
        <time>2025-05-01T10:53:44.184+00:00</time>
      </trkpt>
      <trkpt lat="45.65196" lon="5.6907">
        <ele>215</ele>
        <time>2025-05-01T10:53:48.223+00:00</time>
      </trkpt>
      <trkpt lat="45.6519" lon="5.69073">
        <ele>215</ele>
        <time>2025-05-01T10:53:52.704+00:00</time>
      </trkpt>
      <trkpt lat="45.65184" lon="5.69076">
        <ele>215</ele>
        <time>2025-05-01T10:53:56.956+00:00</time>
      </trkpt>
      <trkpt lat="45.65177" lon="5.69078">
        <ele>215</ele>
        <time>2025-05-01T10:54:01.228+00:00</time>
      </trkpt>
      <trkpt lat="45.6517" lon="5.6908">
        <ele>215</ele>
        <time>2025-05-01T10:54:05.808+00:00</time>
      </trkpt>
      <trkpt lat="45.65164" lon="5.69083">
        <ele>215</ele>
        <time>2025-05-01T10:54:09.909+00:00</time>
      </trkpt>
      <trkpt lat="45.65158" lon="5.69085">
        <ele>215</ele>
        <time>2025-05-01T10:54:13.988+00:00</time>
      </trkpt>
      <trkpt lat="45.65153" lon="5.69087">
        <ele>215</ele>
        <time>2025-05-01T10:54:18.089+00:00</time>
      </trkpt>
      <trkpt lat="45.65148" lon="5.6909">
        <ele>214</ele>
        <time>2025-05-01T10:54:22.226+00:00</time>
      </trkpt>
      <trkpt lat="45.65143" lon="5.69094">
        <ele>214</ele>
        <time>2025-05-01T10:54:26.609+00:00</time>
      </trkpt>
      <trkpt lat="45.65143" lon="5.69101">
        <ele>215</ele>
        <time>2025-05-01T10:54:30.707+00:00</time>
      </trkpt>
      <trkpt lat="45.65146" lon="5.6911">
        <ele>215</ele>
        <time>2025-05-01T10:54:35.186+00:00</time>
      </trkpt>
      <trkpt lat="45.65149" lon="5.69119">
        <ele>215</ele>
        <time>2025-05-01T10:54:39.205+00:00</time>
      </trkpt>
      <trkpt lat="45.65149" lon="5.6913">
        <ele>215</ele>
        <time>2025-05-01T10:54:43.725+00:00</time>
      </trkpt>
      <trkpt lat="45.65145" lon="5.69139">
        <ele>215</ele>
        <time>2025-05-01T10:54:48.229+00:00</time>
      </trkpt>
      <trkpt lat="45.65143" lon="5.69144">
        <ele>215</ele>
        <time>2025-05-01T10:54:52.254+00:00</time>
      </trkpt>
      <trkpt lat="45.65139" lon="5.69149">
        <ele>215</ele>
        <time>2025-05-01T10:54:56.444+00:00</time>
      </trkpt>
      <trkpt lat="45.65136" lon="5.69157">
        <ele>215</ele>
        <time>2025-05-01T10:55:00.624+00:00</time>
      </trkpt>
      <trkpt lat="45.65131" lon="5.69162">
        <ele>215</ele>
        <time>2025-05-01T10:55:04.684+00:00</time>
      </trkpt>
      <trkpt lat="45.65126" lon="5.69169">
        <ele>215</ele>
        <time>2025-05-01T10:55:09.228+00:00</time>
      </trkpt>
      <trkpt lat="45.65121" lon="5.69176">
        <ele>214</ele>
        <time>2025-05-01T10:55:13.564+00:00</time>
      </trkpt>
      <trkpt lat="45.65116" lon="5.69183">
        <ele>214</ele>
        <time>2025-05-01T10:55:18.164+00:00</time>
      </trkpt>
      <trkpt lat="45.65108" lon="5.6919">
        <ele>214</ele>
        <time>2025-05-01T10:55:22.238+00:00</time>
      </trkpt>
      <trkpt lat="45.65103" lon="5.69198">
        <ele>214</ele>
        <time>2025-05-01T10:55:26.402+00:00</time>
      </trkpt>
      <trkpt lat="45.65098" lon="5.69205">
        <ele>214</ele>
        <time>2025-05-01T10:55:30.423+00:00</time>
      </trkpt>
      <trkpt lat="45.65093" lon="5.6921">
        <ele>213</ele>
        <time>2025-05-01T10:55:34.582+00:00</time>
      </trkpt>
      <trkpt lat="45.65084" lon="5.69218">
        <ele>213</ele>
        <time>2025-05-01T10:55:39.211+00:00</time>
      </trkpt>
      <trkpt lat="45.65075" lon="5.69229">
        <ele>213</ele>
        <time>2025-05-01T10:55:43.752+00:00</time>
      </trkpt>
      <trkpt lat="45.6507" lon="5.69234">
        <ele>213</ele>
        <time>2025-05-01T10:55:47.790+00:00</time>
      </trkpt>
      <trkpt lat="45.65066" lon="5.69238">
        <ele>214</ele>
        <time>2025-05-01T10:55:51.910+00:00</time>
      </trkpt>
      <trkpt lat="45.65062" lon="5.69244">
        <ele>214</ele>
        <time>2025-05-01T10:55:56.030+00:00</time>
      </trkpt>
      <trkpt lat="45.65059" lon="5.69251">
        <ele>214</ele>
        <time>2025-05-01T10:56:00.229+00:00</time>
      </trkpt>
      <trkpt lat="45.65054" lon="5.69256">
        <ele>214</ele>
        <time>2025-05-01T10:56:04.511+00:00</time>
      </trkpt>
      <trkpt lat="45.65049" lon="5.69262">
        <ele>214</ele>
        <time>2025-05-01T10:56:08.699+00:00</time>
      </trkpt>
      <trkpt lat="45.65045" lon="5.69268">
        <ele>214</ele>
        <time>2025-05-01T10:56:12.974+00:00</time>
      </trkpt>
      <trkpt lat="45.6504" lon="5.69273">
        <ele>214</ele>
        <time>2025-05-01T10:56:17.085+00:00</time>
      </trkpt>
      <trkpt lat="45.65035" lon="5.69278">
        <ele>214</ele>
        <time>2025-05-01T10:56:21.245+00:00</time>
      </trkpt>
      <trkpt lat="45.6503" lon="5.69284">
        <ele>214</ele>
        <time>2025-05-01T10:56:25.811+00:00</time>
      </trkpt>
      <trkpt lat="45.65024" lon="5.69291">
        <ele>214</ele>
        <time>2025-05-01T10:56:30.249+00:00</time>
      </trkpt>
      <trkpt lat="45.65017" lon="5.69297">
        <ele>214</ele>
        <time>2025-05-01T10:56:35.130+00:00</time>
      </trkpt>
      <trkpt lat="45.65011" lon="5.69304">
        <ele>214</ele>
        <time>2025-05-01T10:56:39.233+00:00</time>
      </trkpt>
      <trkpt lat="45.65006" lon="5.69311">
        <ele>214</ele>
        <time>2025-05-01T10:56:44.066+00:00</time>
      </trkpt>
      <trkpt lat="45.65002" lon="5.69314">
        <ele>214</ele>
        <time>2025-05-01T10:56:48.187+00:00</time>
      </trkpt>
      <trkpt lat="45.64998" lon="5.69319">
        <ele>214</ele>
        <time>2025-05-01T10:56:52.236+00:00</time>
      </trkpt>
      <trkpt lat="45.64992" lon="5.69324">
        <ele>215</ele>
        <time>2025-05-01T10:56:56.506+00:00</time>
      </trkpt>
      <trkpt lat="45.64987" lon="5.6933">
        <ele>215</ele>
        <time>2025-05-01T10:57:00.886+00:00</time>
      </trkpt>
      <trkpt lat="45.64982" lon="5.69336">
        <ele>216</ele>
        <time>2025-05-01T10:57:05.238+00:00</time>
      </trkpt>
      <trkpt lat="45.64978" lon="5.69341">
        <ele>216</ele>
        <time>2025-05-01T10:57:09.465+00:00</time>
      </trkpt>
      <trkpt lat="45.64975" lon="5.69346">
        <ele>216</ele>
        <time>2025-05-01T10:57:13.546+00:00</time>
      </trkpt>
      <trkpt lat="45.64973" lon="5.69351">
        <ele>216</ele>
        <time>2025-05-01T10:57:17.745+00:00</time>
      </trkpt>
      <trkpt lat="45.6497" lon="5.69356">
        <ele>216</ele>
        <time>2025-05-01T10:57:21.845+00:00</time>
      </trkpt>
      <trkpt lat="45.64965" lon="5.6936">
        <ele>216</ele>
        <time>2025-05-01T10:57:25.885+00:00</time>
      </trkpt>
      <trkpt lat="45.64963" lon="5.69366">
        <ele>216</ele>
        <time>2025-05-01T10:57:29.984+00:00</time>
      </trkpt>
      <trkpt lat="45.64958" lon="5.69373">
        <ele>216</ele>
        <time>2025-05-01T10:57:34.226+00:00</time>
      </trkpt>
      <trkpt lat="45.64955" lon="5.69381">
        <ele>216</ele>
        <time>2025-05-01T10:57:38.240+00:00</time>
      </trkpt>
      <trkpt lat="45.6495" lon="5.69388">
        <ele>216</ele>
        <time>2025-05-01T10:57:42.486+00:00</time>
      </trkpt>
      <trkpt lat="45.64944" lon="5.69395">
        <ele>216</ele>
        <time>2025-05-01T10:57:46.626+00:00</time>
      </trkpt>
      <trkpt lat="45.64936" lon="5.694">
        <ele>216</ele>
        <time>2025-05-01T10:57:51.229+00:00</time>
      </trkpt>
      <trkpt lat="45.64927" lon="5.69404">
        <ele>215</ele>
        <time>2025-05-01T10:57:56.125+00:00</time>
      </trkpt>
      <trkpt lat="45.64919" lon="5.69408">
        <ele>215</ele>
        <time>2025-05-01T10:58:00.624+00:00</time>
      </trkpt>
      <trkpt lat="45.64909" lon="5.6941">
        <ele>215</ele>
        <time>2025-05-01T10:58:05.172+00:00</time>
      </trkpt>
      <trkpt lat="45.64902" lon="5.69411">
        <ele>215</ele>
        <time>2025-05-01T10:58:09.231+00:00</time>
      </trkpt>
      <trkpt lat="45.64897" lon="5.6941">
        <ele>215</ele>
        <time>2025-05-01T10:58:13.470+00:00</time>
      </trkpt>
      <trkpt lat="45.6489" lon="5.6941">
        <ele>215</ele>
        <time>2025-05-01T10:58:17.590+00:00</time>
      </trkpt>
      <trkpt lat="45.64887" lon="5.69412">
        <ele>215</ele>
        <time>2025-05-01T10:58:22.242+00:00</time>
      </trkpt>
      <trkpt lat="45.64887" lon="5.69412">
        <ele>215</ele>
        <time>2025-05-01T10:58:26.692+00:00</time>
      </trkpt>
      <trkpt lat="45.6488" lon="5.69412">
        <ele>215</ele>
        <time>2025-05-01T10:58:30.931+00:00</time>
      </trkpt>
      <trkpt lat="45.64877" lon="5.69411">
        <ele>215</ele>
        <time>2025-05-01T10:58:35.047+00:00</time>
      </trkpt>
      <trkpt lat="45.64873" lon="5.6941">
        <ele>215</ele>
        <time>2025-05-01T10:58:39.234+00:00</time>
      </trkpt>
      <trkpt lat="45.64867" lon="5.6941">
        <ele>215</ele>
        <time>2025-05-01T10:58:43.387+00:00</time>
      </trkpt>
      <trkpt lat="45.64858" lon="5.6941">
        <ele>215</ele>
        <time>2025-05-01T10:58:47.845+00:00</time>
      </trkpt>
      <trkpt lat="45.64851" lon="5.69408">
        <ele>215</ele>
        <time>2025-05-01T10:58:52.236+00:00</time>
      </trkpt>
      <trkpt lat="45.64843" lon="5.69407">
        <ele>217</ele>
        <time>2025-05-01T10:58:56.567+00:00</time>
      </trkpt>
      <trkpt lat="45.64836" lon="5.69408">
        <ele>217</ele>
        <time>2025-05-01T10:59:00.646+00:00</time>
      </trkpt>
      <trkpt lat="45.64829" lon="5.69408">
        <ele>217</ele>
        <time>2025-05-01T10:59:05.144+00:00</time>
      </trkpt>
      <trkpt lat="45.64822" lon="5.69408">
        <ele>217</ele>
        <time>2025-05-01T10:59:09.233+00:00</time>
      </trkpt>
      <trkpt lat="45.64809" lon="5.69404">
        <ele>217</ele>
        <time>2025-05-01T10:59:13.844+00:00</time>
      </trkpt>
      <trkpt lat="45.648" lon="5.69402">
        <ele>217</ele>
        <time>2025-05-01T10:59:17.887+00:00</time>
      </trkpt>
      <trkpt lat="45.64794" lon="5.694">
        <ele>217</ele>
        <time>2025-05-01T10:59:21.946+00:00</time>
      </trkpt>
      <trkpt lat="45.64788" lon="5.69397">
        <ele>216</ele>
        <time>2025-05-01T10:59:25.985+00:00</time>
      </trkpt>
      <trkpt lat="45.64781" lon="5.69393">
        <ele>216</ele>
        <time>2025-05-01T10:59:30.066+00:00</time>
      </trkpt>
      <trkpt lat="45.64774" lon="5.69389">
        <ele>216</ele>
        <time>2025-05-01T10:59:34.684+00:00</time>
      </trkpt>
      <trkpt lat="45.64768" lon="5.69385">
        <ele>216</ele>
        <time>2025-05-01T10:59:39.238+00:00</time>
      </trkpt>
      <trkpt lat="45.64763" lon="5.69382">
        <ele>215</ele>
        <time>2025-05-01T10:59:43.463+00:00</time>
      </trkpt>
      <trkpt lat="45.64758" lon="5.69379">
        <ele>215</ele>
        <time>2025-05-01T10:59:47.652+00:00</time>
      </trkpt>
      <trkpt lat="45.64751" lon="5.69379">
        <ele>215</ele>
        <time>2025-05-01T10:59:51.832+00:00</time>
      </trkpt>
      <trkpt lat="45.64745" lon="5.69377">
        <ele>215</ele>
        <time>2025-05-01T10:59:56.073+00:00</time>
      </trkpt>
      <trkpt lat="45.64739" lon="5.69377">
        <ele>215</ele>
        <time>2025-05-01T11:00:00.194+00:00</time>
      </trkpt>
      <trkpt lat="45.64733" lon="5.69375">
        <ele>214</ele>
        <time>2025-05-01T11:00:04.242+00:00</time>
      </trkpt>
      <trkpt lat="45.64728" lon="5.69373">
        <ele>215</ele>
        <time>2025-05-01T11:00:08.412+00:00</time>
      </trkpt>
      <trkpt lat="45.64721" lon="5.69369">
        <ele>215</ele>
        <time>2025-05-01T11:00:12.669+00:00</time>
      </trkpt>
      <trkpt lat="45.64716" lon="5.69365">
        <ele>215</ele>
        <time>2025-05-01T11:00:16.870+00:00</time>
      </trkpt>
      <trkpt lat="45.64711" lon="5.6936">
        <ele>215</ele>
        <time>2025-05-01T11:00:21.230+00:00</time>
      </trkpt>
      <trkpt lat="45.64706" lon="5.69357">
        <ele>215</ele>
        <time>2025-05-01T11:00:25.238+00:00</time>
      </trkpt>
      <trkpt lat="45.647" lon="5.69353">
        <ele>215</ele>
        <time>2025-05-01T11:00:29.889+00:00</time>
      </trkpt>
      <trkpt lat="45.64695" lon="5.6935">
        <ele>215</ele>
        <time>2025-05-01T11:00:34.190+00:00</time>
      </trkpt>
      <trkpt lat="45.6469" lon="5.69347">
        <ele>215</ele>
        <time>2025-05-01T11:00:38.252+00:00</time>
      </trkpt>
      <trkpt lat="45.64684" lon="5.69345">
        <ele>215</ele>
        <time>2025-05-01T11:00:42.768+00:00</time>
      </trkpt>
      <trkpt lat="45.64679" lon="5.69341">
        <ele>215</ele>
        <time>2025-05-01T11:00:46.849+00:00</time>
      </trkpt>
      <trkpt lat="45.64673" lon="5.69337">
        <ele>215</ele>
        <time>2025-05-01T11:00:51.237+00:00</time>
      </trkpt>
      <trkpt lat="45.64668" lon="5.69336">
        <ele>215</ele>
        <time>2025-05-01T11:00:55.468+00:00</time>
      </trkpt>
      <trkpt lat="45.64662" lon="5.69331">
        <ele>215</ele>
        <time>2025-05-01T11:00:59.807+00:00</time>
      </trkpt>
      <trkpt lat="45.64656" lon="5.69326">
        <ele>215</ele>
        <time>2025-05-01T11:01:04.048+00:00</time>
      </trkpt>
      <trkpt lat="45.64651" lon="5.69321">
        <ele>215</ele>
        <time>2025-05-01T11:01:08.233+00:00</time>
      </trkpt>
      <trkpt lat="45.64645" lon="5.69318">
        <ele>215</ele>
        <time>2025-05-01T11:01:12.626+00:00</time>
      </trkpt>
      <trkpt lat="45.6464" lon="5.69314">
        <ele>215</ele>
        <time>2025-05-01T11:01:17.026+00:00</time>
      </trkpt>
      <trkpt lat="45.64635" lon="5.69308">
        <ele>215</ele>
        <time>2025-05-01T11:01:21.223+00:00</time>
      </trkpt>
      <trkpt lat="45.64631" lon="5.69302">
        <ele>215</ele>
        <time>2025-05-01T11:01:25.542+00:00</time>
      </trkpt>
      <trkpt lat="45.6463" lon="5.69294">
        <ele>215</ele>
        <time>2025-05-01T11:01:29.890+00:00</time>
      </trkpt>
      <trkpt lat="45.6463" lon="5.69286">
        <ele>214</ele>
        <time>2025-05-01T11:01:34.071+00:00</time>
      </trkpt>
      <trkpt lat="45.64626" lon="5.69281">
        <ele>214</ele>
        <time>2025-05-01T11:01:38.390+00:00</time>
      </trkpt>
      <trkpt lat="45.64622" lon="5.69275">
        <ele>215</ele>
        <time>2025-05-01T11:01:43.148+00:00</time>
      </trkpt>
      <trkpt lat="45.64616" lon="5.69272">
        <ele>215</ele>
        <time>2025-05-01T11:01:47.229+00:00</time>
      </trkpt>
      <trkpt lat="45.64608" lon="5.69269">
        <ele>215</ele>
        <time>2025-05-01T11:01:51.808+00:00</time>
      </trkpt>
      <trkpt lat="45.64602" lon="5.69267">
        <ele>215</ele>
        <time>2025-05-01T11:01:55.869+00:00</time>
      </trkpt>
      <trkpt lat="45.64595" lon="5.69267">
        <ele>216</ele>
        <time>2025-05-01T11:01:59.969+00:00</time>
      </trkpt>
      <trkpt lat="45.64589" lon="5.6927">
        <ele>216</ele>
        <time>2025-05-01T11:02:04.168+00:00</time>
      </trkpt>
      <trkpt lat="45.64583" lon="5.6927">
        <ele>216</ele>
        <time>2025-05-01T11:02:08.230+00:00</time>
      </trkpt>
      <trkpt lat="45.64577" lon="5.69271">
        <ele>216</ele>
        <time>2025-05-01T11:02:12.569+00:00</time>
      </trkpt>
      <trkpt lat="45.64572" lon="5.69275">
        <ele>216</ele>
        <time>2025-05-01T11:02:17.235+00:00</time>
      </trkpt>
      <trkpt lat="45.64566" lon="5.69279">
        <ele>217</ele>
        <time>2025-05-01T11:02:22.168+00:00</time>
      </trkpt>
      <trkpt lat="45.64562" lon="5.69286">
        <ele>217</ele>
        <time>2025-05-01T11:02:26.235+00:00</time>
      </trkpt>
      <trkpt lat="45.64558" lon="5.69292">
        <ele>217</ele>
        <time>2025-05-01T11:02:30.590+00:00</time>
      </trkpt>
      <trkpt lat="45.64553" lon="5.69296">
        <ele>217</ele>
        <time>2025-05-01T11:02:34.747+00:00</time>
      </trkpt>
      <trkpt lat="45.64548" lon="5.69298">
        <ele>217</ele>
        <time>2025-05-01T11:02:39.232+00:00</time>
      </trkpt>
      <trkpt lat="45.64544" lon="5.69302">
        <ele>217</ele>
        <time>2025-05-01T11:02:43.626+00:00</time>
      </trkpt>
      <trkpt lat="45.64538" lon="5.69304">
        <ele>218</ele>
        <time>2025-05-01T11:02:47.787+00:00</time>
      </trkpt>
      <trkpt lat="45.64532" lon="5.69305">
        <ele>218</ele>
        <time>2025-05-01T11:02:52.067+00:00</time>
      </trkpt>
      <trkpt lat="45.64526" lon="5.69306">
        <ele>218</ele>
        <time>2025-05-01T11:02:56.166+00:00</time>
      </trkpt>
      <trkpt lat="45.6452" lon="5.69307">
        <ele>218</ele>
        <time>2025-05-01T11:03:00.226+00:00</time>
      </trkpt>
      <trkpt lat="45.64514" lon="5.69308">
        <ele>218</ele>
        <time>2025-05-01T11:03:04.241+00:00</time>
      </trkpt>
      <trkpt lat="45.64508" lon="5.69309">
        <ele>217</ele>
        <time>2025-05-01T11:03:08.389+00:00</time>
      </trkpt>
      <trkpt lat="45.64503" lon="5.69312">
        <ele>217</ele>
        <time>2025-05-01T11:03:12.528+00:00</time>
      </trkpt>
      <trkpt lat="45.64497" lon="5.69313">
        <ele>217</ele>
        <time>2025-05-01T11:03:17.206+00:00</time>
      </trkpt>
      <trkpt lat="45.64492" lon="5.69313">
        <ele>217</ele>
        <time>2025-05-01T11:03:21.239+00:00</time>
      </trkpt>
      <trkpt lat="45.64484" lon="5.69311">
        <ele>215</ele>
        <time>2025-05-01T11:03:26.025+00:00</time>
      </trkpt>
      <trkpt lat="45.64476" lon="5.69311">
        <ele>215</ele>
        <time>2025-05-01T11:03:30.237+00:00</time>
      </trkpt>
      <trkpt lat="45.64468" lon="5.69312">
        <ele>215</ele>
        <time>2025-05-01T11:03:34.745+00:00</time>
      </trkpt>
      <trkpt lat="45.64462" lon="5.69309">
        <ele>215</ele>
        <time>2025-05-01T11:03:39.104+00:00</time>
      </trkpt>
      <trkpt lat="45.64452" lon="5.69308">
        <ele>215</ele>
        <time>2025-05-01T11:03:43.682+00:00</time>
      </trkpt>
      <trkpt lat="45.64445" lon="5.69304">
        <ele>215</ele>
        <time>2025-05-01T11:03:47.705+00:00</time>
      </trkpt>
      <trkpt lat="45.64439" lon="5.69299">
        <ele>215</ele>
        <time>2025-05-01T11:03:51.883+00:00</time>
      </trkpt>
      <trkpt lat="45.64433" lon="5.69294">
        <ele>215</ele>
        <time>2025-05-01T11:03:56.093+00:00</time>
      </trkpt>
      <trkpt lat="45.64427" lon="5.6929">
        <ele>214</ele>
        <time>2025-05-01T11:04:00.152+00:00</time>
      </trkpt>
      <trkpt lat="45.64423" lon="5.69283">
        <ele>214</ele>
        <time>2025-05-01T11:04:04.210+00:00</time>
      </trkpt>
      <trkpt lat="45.6442" lon="5.69275">
        <ele>214</ele>
        <time>2025-05-01T11:04:08.247+00:00</time>
      </trkpt>
      <trkpt lat="45.64417" lon="5.69268">
        <ele>214</ele>
        <time>2025-05-01T11:04:12.247+00:00</time>
      </trkpt>
      <trkpt lat="45.64415" lon="5.69267">
        <ele>214</ele>
        <time>2025-05-01T11:04:17.235+00:00</time>
      </trkpt>
      <trkpt lat="45.64412" lon="5.69262">
        <ele>214</ele>
        <time>2025-05-01T11:04:21.907+00:00</time>
      </trkpt>
      <trkpt lat="45.64407" lon="5.69256">
        <ele>214</ele>
        <time>2025-05-01T11:04:26.047+00:00</time>
      </trkpt>
      <trkpt lat="45.64402" lon="5.6925">
        <ele>214</ele>
        <time>2025-05-01T11:04:30.129+00:00</time>
      </trkpt>
      <trkpt lat="45.64398" lon="5.69243">
        <ele>214</ele>
        <time>2025-05-01T11:04:34.238+00:00</time>
      </trkpt>
      <trkpt lat="45.64394" lon="5.69236">
        <ele>214</ele>
        <time>2025-05-01T11:04:38.405+00:00</time>
      </trkpt>
      <trkpt lat="45.64391" lon="5.69229">
        <ele>214</ele>
        <time>2025-05-01T11:04:42.506+00:00</time>
      </trkpt>
      <trkpt lat="45.64387" lon="5.69222">
        <ele>214</ele>
        <time>2025-05-01T11:04:46.649+00:00</time>
      </trkpt>
      <trkpt lat="45.64383" lon="5.69216">
        <ele>214</ele>
        <time>2025-05-01T11:04:50.765+00:00</time>
      </trkpt>
      <trkpt lat="45.64378" lon="5.69209">
        <ele>214</ele>
        <time>2025-05-01T11:04:54.905+00:00</time>
      </trkpt>
      <trkpt lat="45.64374" lon="5.69201">
        <ele>215</ele>
        <time>2025-05-01T11:04:59.026+00:00</time>
      </trkpt>
      <trkpt lat="45.6437" lon="5.69193">
        <ele>215</ele>
        <time>2025-05-01T11:05:03.683+00:00</time>
      </trkpt>
      <trkpt lat="45.64367" lon="5.69185">
        <ele>215</ele>
        <time>2025-05-01T11:05:07.825+00:00</time>
      </trkpt>
      <trkpt lat="45.64364" lon="5.69177">
        <ele>215</ele>
        <time>2025-05-01T11:05:12.045+00:00</time>
      </trkpt>
      <trkpt lat="45.64362" lon="5.69169">
        <ele>215</ele>
        <time>2025-05-01T11:05:16.193+00:00</time>
      </trkpt>
      <trkpt lat="45.64359" lon="5.69162">
        <ele>215</ele>
        <time>2025-05-01T11:05:20.223+00:00</time>
      </trkpt>
      <trkpt lat="45.64356" lon="5.69154">
        <ele>215</ele>
        <time>2025-05-01T11:05:24.450+00:00</time>
      </trkpt>
      <trkpt lat="45.64352" lon="5.69148">
        <ele>214</ele>
        <time>2025-05-01T11:05:28.629+00:00</time>
      </trkpt>
      <trkpt lat="45.64347" lon="5.69142">
        <ele>214</ele>
        <time>2025-05-01T11:05:32.750+00:00</time>
      </trkpt>
      <trkpt lat="45.64342" lon="5.69137">
        <ele>216</ele>
        <time>2025-05-01T11:05:36.949+00:00</time>
      </trkpt>
      <trkpt lat="45.64337" lon="5.69132">
        <ele>216</ele>
        <time>2025-05-01T11:05:41.057+00:00</time>
      </trkpt>
      <trkpt lat="45.64332" lon="5.69128">
        <ele>216</ele>
        <time>2025-05-01T11:05:45.069+00:00</time>
      </trkpt>
      <trkpt lat="45.64326" lon="5.69124">
        <ele>215</ele>
        <time>2025-05-01T11:05:49.148+00:00</time>
      </trkpt>
      <trkpt lat="45.6432" lon="5.69122">
        <ele>215</ele>
        <time>2025-05-01T11:05:53.589+00:00</time>
      </trkpt>
      <trkpt lat="45.64314" lon="5.69118">
        <ele>216</ele>
        <time>2025-05-01T11:05:58.227+00:00</time>
      </trkpt>
      <trkpt lat="45.64307" lon="5.69117">
        <ele>216</ele>
        <time>2025-05-01T11:06:03.148+00:00</time>
      </trkpt>
      <trkpt lat="45.64301" lon="5.69116">
        <ele>216</ele>
        <time>2025-05-01T11:06:07.167+00:00</time>
      </trkpt>
      <trkpt lat="45.64294" lon="5.69112">
        <ele>216</ele>
        <time>2025-05-01T11:06:11.189+00:00</time>
      </trkpt>
      <trkpt lat="45.64288" lon="5.69109">
        <ele>216</ele>
        <time>2025-05-01T11:06:15.240+00:00</time>
      </trkpt>
      <trkpt lat="45.64281" lon="5.69103">
        <ele>216</ele>
        <time>2025-05-01T11:06:19.868+00:00</time>
      </trkpt>
      <trkpt lat="45.64276" lon="5.69097">
        <ele>216</ele>
        <time>2025-05-01T11:06:23.908+00:00</time>
      </trkpt>
      <trkpt lat="45.64271" lon="5.69093">
        <ele>215</ele>
        <time>2025-05-01T11:06:28.007+00:00</time>
      </trkpt>
      <trkpt lat="45.64266" lon="5.69089">
        <ele>215</ele>
        <time>2025-05-01T11:06:32.028+00:00</time>
      </trkpt>
      <trkpt lat="45.6426" lon="5.69087">
        <ele>216</ele>
        <time>2025-05-01T11:06:36.044+00:00</time>
      </trkpt>
      <trkpt lat="45.64253" lon="5.69084">
        <ele>216</ele>
        <time>2025-05-01T11:06:40.107+00:00</time>
      </trkpt>
      <trkpt lat="45.64247" lon="5.69082">
        <ele>216</ele>
        <time>2025-05-01T11:06:44.204+00:00</time>
      </trkpt>
      <trkpt lat="45.64241" lon="5.69078">
        <ele>216</ele>
        <time>2025-05-01T11:06:48.386+00:00</time>
      </trkpt>
      <trkpt lat="45.64236" lon="5.69074">
        <ele>216</ele>
        <time>2025-05-01T11:06:52.546+00:00</time>
      </trkpt>
      <trkpt lat="45.6423" lon="5.6907">
        <ele>216</ele>
        <time>2025-05-01T11:06:56.626+00:00</time>
      </trkpt>
      <trkpt lat="45.64224" lon="5.69067">
        <ele>217</ele>
        <time>2025-05-01T11:07:00.685+00:00</time>
      </trkpt>
      <trkpt lat="45.64218" lon="5.69064">
        <ele>217</ele>
        <time>2025-05-01T11:07:04.847+00:00</time>
      </trkpt>
      <trkpt lat="45.64213" lon="5.6906">
        <ele>217</ele>
        <time>2025-05-01T11:07:08.945+00:00</time>
      </trkpt>
      <trkpt lat="45.64208" lon="5.69055">
        <ele>217</ele>
        <time>2025-05-01T11:07:13.045+00:00</time>
      </trkpt>
      <trkpt lat="45.64203" lon="5.6905">
        <ele>217</ele>
        <time>2025-05-01T11:07:17.224+00:00</time>
      </trkpt>
      <trkpt lat="45.64197" lon="5.69045">
        <ele>217</ele>
        <time>2025-05-01T11:07:21.945+00:00</time>
      </trkpt>
      <trkpt lat="45.64192" lon="5.69041">
        <ele>217</ele>
        <time>2025-05-01T11:07:26.224+00:00</time>
      </trkpt>
      <trkpt lat="45.64187" lon="5.69036">
        <ele>217</ele>
        <time>2025-05-01T11:07:30.424+00:00</time>
      </trkpt>
      <trkpt lat="45.64181" lon="5.69031">
        <ele>217</ele>
        <time>2025-05-01T11:07:34.705+00:00</time>
      </trkpt>
      <trkpt lat="45.64176" lon="5.69026">
        <ele>217</ele>
        <time>2025-05-01T11:07:38.826+00:00</time>
      </trkpt>
      <trkpt lat="45.6417" lon="5.69024">
        <ele>217</ele>
        <time>2025-05-01T11:07:42.965+00:00</time>
      </trkpt>
      <trkpt lat="45.64164" lon="5.69021">
        <ele>217</ele>
        <time>2025-05-01T11:07:47.228+00:00</time>
      </trkpt>
      <trkpt lat="45.64158" lon="5.69019">
        <ele>217</ele>
        <time>2025-05-01T11:07:51.231+00:00</time>
      </trkpt>
      <trkpt lat="45.64152" lon="5.69014">
        <ele>218</ele>
        <time>2025-05-01T11:07:55.724+00:00</time>
      </trkpt>
      <trkpt lat="45.64146" lon="5.6901">
        <ele>217</ele>
        <time>2025-05-01T11:07:59.741+00:00</time>
      </trkpt>
      <trkpt lat="45.64141" lon="5.69005">
        <ele>217</ele>
        <time>2025-05-01T11:08:03.822+00:00</time>
      </trkpt>
      <trkpt lat="45.64136" lon="5.69">
        <ele>217</ele>
        <time>2025-05-01T11:08:07.883+00:00</time>
      </trkpt>
      <trkpt lat="45.64131" lon="5.68995">
        <ele>217</ele>
        <time>2025-05-01T11:08:11.943+00:00</time>
      </trkpt>
      <trkpt lat="45.64125" lon="5.68991">
        <ele>217</ele>
        <time>2025-05-01T11:08:16.002+00:00</time>
      </trkpt>
      <trkpt lat="45.64119" lon="5.68987">
        <ele>219</ele>
        <time>2025-05-01T11:08:20.082+00:00</time>
      </trkpt>
      <trkpt lat="45.64113" lon="5.68979">
        <ele>217</ele>
        <time>2025-05-01T11:08:24.236+00:00</time>
      </trkpt>
      <trkpt lat="45.64106" lon="5.6897">
        <ele>217</ele>
        <time>2025-05-01T11:08:28.302+00:00</time>
      </trkpt>
      <trkpt lat="45.64101" lon="5.68962">
        <ele>217</ele>
        <time>2025-05-01T11:08:33.202+00:00</time>
      </trkpt>
      <trkpt lat="45.64097" lon="5.68958">
        <ele>217</ele>
        <time>2025-05-01T11:08:37.235+00:00</time>
      </trkpt>
      <trkpt lat="45.64091" lon="5.68956">
        <ele>217</ele>
        <time>2025-05-01T11:08:41.410+00:00</time>
      </trkpt>
      <trkpt lat="45.64085" lon="5.68951">
        <ele>217</ele>
        <time>2025-05-01T11:08:46.089+00:00</time>
      </trkpt>
      <trkpt lat="45.64081" lon="5.68946">
        <ele>217</ele>
        <time>2025-05-01T11:08:50.226+00:00</time>
      </trkpt>
      <trkpt lat="45.64076" lon="5.68941">
        <ele>217</ele>
        <time>2025-05-01T11:08:54.236+00:00</time>
      </trkpt>
      <trkpt lat="45.64071" lon="5.68933">
        <ele>217</ele>
        <time>2025-05-01T11:08:58.949+00:00</time>
      </trkpt>
      <trkpt lat="45.64067" lon="5.68927">
        <ele>220</ele>
        <time>2025-05-01T11:09:03.107+00:00</time>
      </trkpt>
      <trkpt lat="45.64064" lon="5.68921">
        <ele>220</ele>
        <time>2025-05-01T11:09:07.207+00:00</time>
      </trkpt>
      <trkpt lat="45.6406" lon="5.68916">
        <ele>220</ele>
        <time>2025-05-01T11:09:11.466+00:00</time>
      </trkpt>
      <trkpt lat="45.64055" lon="5.6891">
        <ele>220</ele>
        <time>2025-05-01T11:09:15.669+00:00</time>
      </trkpt>
      <trkpt lat="45.6405" lon="5.68907">
        <ele>220</ele>
        <time>2025-05-01T11:09:19.725+00:00</time>
      </trkpt>
      <trkpt lat="45.64045" lon="5.68903">
        <ele>220</ele>
        <time>2025-05-01T11:09:23.845+00:00</time>
      </trkpt>
      <trkpt lat="45.64043" lon="5.68895">
        <ele>216</ele>
        <time>2025-05-01T11:09:28.086+00:00</time>
      </trkpt>
      <trkpt lat="45.64036" lon="5.68888">
        <ele>224</ele>
        <time>2025-05-01T11:09:32.231+00:00</time>
      </trkpt>
      <trkpt lat="45.64032" lon="5.68885">
        <ele>224</ele>
        <time>2025-05-01T11:09:36.427+00:00</time>
      </trkpt>
      <trkpt lat="45.64028" lon="5.68877">
        <ele>224</ele>
        <time>2025-05-01T11:09:40.546+00:00</time>
      </trkpt>
      <trkpt lat="45.64023" lon="5.68871">
        <ele>220</ele>
        <time>2025-05-01T11:09:44.687+00:00</time>
      </trkpt>
      <trkpt lat="45.64019" lon="5.68864">
        <ele>220</ele>
        <time>2025-05-01T11:09:48.846+00:00</time>
      </trkpt>
      <trkpt lat="45.64014" lon="5.68857">
        <ele>220</ele>
        <time>2025-05-01T11:09:53.068+00:00</time>
      </trkpt>
      <trkpt lat="45.6401" lon="5.68851">
        <ele>227</ele>
        <time>2025-05-01T11:09:57.230+00:00</time>
      </trkpt>
      <trkpt lat="45.64005" lon="5.68845">
        <ele>223</ele>
        <time>2025-05-01T11:10:01.566+00:00</time>
      </trkpt>
      <trkpt lat="45.64001" lon="5.68839">
        <ele>223</ele>
        <time>2025-05-01T11:10:05.807+00:00</time>
      </trkpt>
      <trkpt lat="45.63999" lon="5.68832">
        <ele>223</ele>
        <time>2025-05-01T11:10:09.926+00:00</time>
      </trkpt>
      <trkpt lat="45.63996" lon="5.68825">
        <ele>223</ele>
        <time>2025-05-01T11:10:14.105+00:00</time>
      </trkpt>
      <trkpt lat="45.63991" lon="5.68819">
        <ele>216</ele>
        <time>2025-05-01T11:10:18.230+00:00</time>
      </trkpt>
      <trkpt lat="45.63986" lon="5.68815">
        <ele>216</ele>
        <time>2025-05-01T11:10:22.466+00:00</time>
      </trkpt>
      <trkpt lat="45.63981" lon="5.6881">
        <ele>224</ele>
        <time>2025-05-01T11:10:27.194+00:00</time>
      </trkpt>
      <trkpt lat="45.63978" lon="5.68804">
        <ele>224</ele>
        <time>2025-05-01T11:10:31.227+00:00</time>
      </trkpt>
      <trkpt lat="45.63974" lon="5.68798">
        <ele>224</ele>
        <time>2025-05-01T11:10:35.525+00:00</time>
      </trkpt>
      <trkpt lat="45.6397" lon="5.68792">
        <ele>224</ele>
        <time>2025-05-01T11:10:39.748+00:00</time>
      </trkpt>
      <trkpt lat="45.63966" lon="5.68785">
        <ele>217</ele>
        <time>2025-05-01T11:10:43.912+00:00</time>
      </trkpt>
      <trkpt lat="45.63963" lon="5.68778">
        <ele>217</ele>
        <time>2025-05-01T11:10:48.112+00:00</time>
      </trkpt>
      <trkpt lat="45.6396" lon="5.68771">
        <ele>217</ele>
        <time>2025-05-01T11:10:52.229+00:00</time>
      </trkpt>
      <trkpt lat="45.63956" lon="5.68763">
        <ele>218</ele>
        <time>2025-05-01T11:10:56.230+00:00</time>
      </trkpt>
      <trkpt lat="45.63953" lon="5.68754">
        <ele>218</ele>
        <time>2025-05-01T11:11:01.209+00:00</time>
      </trkpt>
      <trkpt lat="45.63952" lon="5.6875">
        <ele>218</ele>
        <time>2025-05-01T11:11:05.729+00:00</time>
      </trkpt>
      <trkpt lat="45.63947" lon="5.68746">
        <ele>218</ele>
        <time>2025-05-01T11:11:09.949+00:00</time>
      </trkpt>
      <trkpt lat="45.63942" lon="5.68741">
        <ele>218</ele>
        <time>2025-05-01T11:11:14.008+00:00</time>
      </trkpt>
      <trkpt lat="45.63935" lon="5.68737">
        <ele>218</ele>
        <time>2025-05-01T11:11:18.207+00:00</time>
      </trkpt>
      <trkpt lat="45.63931" lon="5.68731">
        <ele>217</ele>
        <time>2025-05-01T11:11:22.233+00:00</time>
      </trkpt>
      <trkpt lat="45.63928" lon="5.68725">
        <ele>216</ele>
        <time>2025-05-01T11:11:26.550+00:00</time>
      </trkpt>
      <trkpt lat="45.63925" lon="5.68719">
        <ele>216</ele>
        <time>2025-05-01T11:11:30.708+00:00</time>
      </trkpt>
      <trkpt lat="45.63922" lon="5.68711">
        <ele>216</ele>
        <time>2025-05-01T11:11:35.068+00:00</time>
      </trkpt>
      <trkpt lat="45.63922" lon="5.68706">
        <ele>215</ele>
        <time>2025-05-01T11:11:39.235+00:00</time>
      </trkpt>
      <trkpt lat="45.63921" lon="5.68706">
        <ele>215</ele>
        <time>2025-05-01T11:11:45.238+00:00</time>
      </trkpt>
      <trkpt lat="45.63921" lon="5.68706">
        <ele>215</ele>
        <time>2025-05-01T11:11:51.728+00:00</time>
      </trkpt>
      <trkpt lat="45.63919" lon="5.687">
        <ele>215</ele>
        <time>2025-05-01T11:11:56.239+00:00</time>
      </trkpt>
      <trkpt lat="45.63912" lon="5.68695">
        <ele>215</ele>
        <time>2025-05-01T11:12:00.248+00:00</time>
      </trkpt>
      <trkpt lat="45.63912" lon="5.68692">
        <ele>215</ele>
        <time>2025-05-01T11:12:05.230+00:00</time>
      </trkpt>
      <trkpt lat="45.63912" lon="5.68692">
        <ele>215</ele>
        <time>2025-05-01T11:12:09.236+00:00</time>
      </trkpt>
      <trkpt lat="45.63907" lon="5.68688">
        <ele>215</ele>
        <time>2025-05-01T11:12:13.844+00:00</time>
      </trkpt>
      <trkpt lat="45.63903" lon="5.68683">
        <ele>215</ele>
        <time>2025-05-01T11:12:18.229+00:00</time>
      </trkpt>
      <trkpt lat="45.639" lon="5.68677">
        <ele>215</ele>
        <time>2025-05-01T11:12:22.232+00:00</time>
      </trkpt>
      <trkpt lat="45.63896" lon="5.68671">
        <ele>215</ele>
        <time>2025-05-01T11:12:26.606+00:00</time>
      </trkpt>
      <trkpt lat="45.63893" lon="5.68664">
        <ele>215</ele>
        <time>2025-05-01T11:12:30.905+00:00</time>
      </trkpt>
      <trkpt lat="45.63893" lon="5.68654">
        <ele>215</ele>
        <time>2025-05-01T11:12:35.044+00:00</time>
      </trkpt>
      <trkpt lat="45.63892" lon="5.68646">
        <ele>215</ele>
        <time>2025-05-01T11:12:39.144+00:00</time>
      </trkpt>
      <trkpt lat="45.63888" lon="5.68637">
        <ele>215</ele>
        <time>2025-05-01T11:12:43.750+00:00</time>
      </trkpt>
      <trkpt lat="45.63883" lon="5.68627">
        <ele>215</ele>
        <time>2025-05-01T11:12:48.234+00:00</time>
      </trkpt>
      <trkpt lat="45.6388" lon="5.68621">
        <ele>216</ele>
        <time>2025-05-01T11:12:52.725+00:00</time>
      </trkpt>
      <trkpt lat="45.63879" lon="5.68612">
        <ele>216</ele>
        <time>2025-05-01T11:12:57.249+00:00</time>
      </trkpt>
      <trkpt lat="45.63873" lon="5.68603">
        <ele>217</ele>
        <time>2025-05-01T11:13:02.234+00:00</time>
      </trkpt>
      <trkpt lat="45.63869" lon="5.68595">
        <ele>218</ele>
        <time>2025-05-01T11:13:07.230+00:00</time>
      </trkpt>
      <trkpt lat="45.63866" lon="5.68587">
        <ele>218</ele>
        <time>2025-05-01T11:13:12.232+00:00</time>
      </trkpt>
      <trkpt lat="45.63864" lon="5.68579">
        <ele>218</ele>
        <time>2025-05-01T11:13:16.234+00:00</time>
      </trkpt>
      <trkpt lat="45.63861" lon="5.68567">
        <ele>218</ele>
        <time>2025-05-01T11:13:21.251+00:00</time>
      </trkpt>
      <trkpt lat="45.63859" lon="5.6856">
        <ele>218</ele>
        <time>2025-05-01T11:13:25.964+00:00</time>
      </trkpt>
      <trkpt lat="45.63855" lon="5.68552">
        <ele>218</ele>
        <time>2025-05-01T11:13:30.202+00:00</time>
      </trkpt>
      <trkpt lat="45.63852" lon="5.68544">
        <ele>218</ele>
        <time>2025-05-01T11:13:34.232+00:00</time>
      </trkpt>
      <trkpt lat="45.63852" lon="5.68535">
        <ele>218</ele>
        <time>2025-05-01T11:13:38.443+00:00</time>
      </trkpt>
      <trkpt lat="45.6385" lon="5.6853">
        <ele>218</ele>
        <time>2025-05-01T11:13:42.584+00:00</time>
      </trkpt>
      <trkpt lat="45.63849" lon="5.6852">
        <ele>218</ele>
        <time>2025-05-01T11:13:46.825+00:00</time>
      </trkpt>
      <trkpt lat="45.63847" lon="5.68511">
        <ele>218</ele>
        <time>2025-05-01T11:13:51.062+00:00</time>
      </trkpt>
      <trkpt lat="45.63846" lon="5.68502">
        <ele>215</ele>
        <time>2025-05-01T11:13:55.230+00:00</time>
      </trkpt>
      <trkpt lat="45.63844" lon="5.68494">
        <ele>215</ele>
        <time>2025-05-01T11:13:59.473+00:00</time>
      </trkpt>
      <trkpt lat="45.63842" lon="5.68486">
        <ele>215</ele>
        <time>2025-05-01T11:14:03.852+00:00</time>
      </trkpt>
      <trkpt lat="45.63839" lon="5.68479">
        <ele>216</ele>
        <time>2025-05-01T11:14:08.237+00:00</time>
      </trkpt>
      <trkpt lat="45.63838" lon="5.6847">
        <ele>216</ele>
        <time>2025-05-01T11:14:12.391+00:00</time>
      </trkpt>
      <trkpt lat="45.63838" lon="5.6846">
        <ele>216</ele>
        <time>2025-05-01T11:14:17.032+00:00</time>
      </trkpt>
      <trkpt lat="45.63838" lon="5.6845">
        <ele>216</ele>
        <time>2025-05-01T11:14:21.232+00:00</time>
      </trkpt>
      <trkpt lat="45.63837" lon="5.6844">
        <ele>216</ele>
        <time>2025-05-01T11:14:25.733+00:00</time>
      </trkpt>
      <trkpt lat="45.63837" lon="5.68431">
        <ele>216</ele>
        <time>2025-05-01T11:14:29.779+00:00</time>
      </trkpt>
      <trkpt lat="45.63836" lon="5.68423">
        <ele>216</ele>
        <time>2025-05-01T11:14:33.910+00:00</time>
      </trkpt>
      <trkpt lat="45.63835" lon="5.68415">
        <ele>216</ele>
        <time>2025-05-01T11:14:38.092+00:00</time>
      </trkpt>
      <trkpt lat="45.63835" lon="5.68405">
        <ele>216</ele>
        <time>2025-05-01T11:14:42.232+00:00</time>
      </trkpt>
      <trkpt lat="45.63834" lon="5.68395">
        <ele>217</ele>
        <time>2025-05-01T11:14:46.452+00:00</time>
      </trkpt>
      <trkpt lat="45.63834" lon="5.68386">
        <ele>217</ele>
        <time>2025-05-01T11:14:50.870+00:00</time>
      </trkpt>
      <trkpt lat="45.63835" lon="5.68377">
        <ele>217</ele>
        <time>2025-05-01T11:14:55.230+00:00</time>
      </trkpt>
      <trkpt lat="45.63835" lon="5.68368">
        <ele>217</ele>
        <time>2025-05-01T11:14:59.569+00:00</time>
      </trkpt>
      <trkpt lat="45.63835" lon="5.6836">
        <ele>217</ele>
        <time>2025-05-01T11:15:03.749+00:00</time>
      </trkpt>
      <trkpt lat="45.63835" lon="5.6835">
        <ele>217</ele>
        <time>2025-05-01T11:15:08.227+00:00</time>
      </trkpt>
      <trkpt lat="45.63835" lon="5.6834">
        <ele>217</ele>
        <time>2025-05-01T11:15:12.710+00:00</time>
      </trkpt>
      <trkpt lat="45.63835" lon="5.68334">
        <ele>217</ele>
        <time>2025-05-01T11:15:16.952+00:00</time>
      </trkpt>
      <trkpt lat="45.63834" lon="5.68326">
        <ele>217</ele>
        <time>2025-05-01T11:15:21.227+00:00</time>
      </trkpt>
      <trkpt lat="45.63833" lon="5.68317">
        <ele>217</ele>
        <time>2025-05-01T11:15:26.088+00:00</time>
      </trkpt>
      <trkpt lat="45.63833" lon="5.6831">
        <ele>217</ele>
        <time>2025-05-01T11:15:30.207+00:00</time>
      </trkpt>
      <trkpt lat="45.63834" lon="5.68301">
        <ele>217</ele>
        <time>2025-05-01T11:15:34.589+00:00</time>
      </trkpt>
      <trkpt lat="45.63833" lon="5.68292">
        <ele>217</ele>
        <time>2025-05-01T11:15:38.847+00:00</time>
      </trkpt>
      <trkpt lat="45.63832" lon="5.68284">
        <ele>216</ele>
        <time>2025-05-01T11:15:42.968+00:00</time>
      </trkpt>
      <trkpt lat="45.63832" lon="5.68276">
        <ele>216</ele>
        <time>2025-05-01T11:15:47.207+00:00</time>
      </trkpt>
      <trkpt lat="45.63832" lon="5.68267">
        <ele>216</ele>
        <time>2025-05-01T11:15:51.549+00:00</time>
      </trkpt>
      <trkpt lat="45.63831" lon="5.68259">
        <ele>215</ele>
        <time>2025-05-01T11:15:55.627+00:00</time>
      </trkpt>
      <trkpt lat="45.63832" lon="5.68251">
        <ele>215</ele>
        <time>2025-05-01T11:15:59.788+00:00</time>
      </trkpt>
      <trkpt lat="45.63831" lon="5.68244">
        <ele>215</ele>
        <time>2025-05-01T11:16:04.225+00:00</time>
      </trkpt>
      <trkpt lat="45.63832" lon="5.68236">
        <ele>217</ele>
        <time>2025-05-01T11:16:08.405+00:00</time>
      </trkpt>
      <trkpt lat="45.63833" lon="5.68229">
        <ele>217</ele>
        <time>2025-05-01T11:16:13.248+00:00</time>
      </trkpt>
      <trkpt lat="45.63832" lon="5.68222">
        <ele>217</ele>
        <time>2025-05-01T11:16:18.027+00:00</time>
      </trkpt>
      <trkpt lat="45.63831" lon="5.68215">
        <ele>217</ele>
        <time>2025-05-01T11:16:22.093+00:00</time>
      </trkpt>
      <trkpt lat="45.6383" lon="5.68208">
        <ele>217</ele>
        <time>2025-05-01T11:16:26.311+00:00</time>
      </trkpt>
      <trkpt lat="45.63827" lon="5.682">
        <ele>217</ele>
        <time>2025-05-01T11:16:31.197+00:00</time>
      </trkpt>
      <trkpt lat="45.63825" lon="5.68189">
        <ele>217</ele>
        <time>2025-05-01T11:16:35.872+00:00</time>
      </trkpt>
      <trkpt lat="45.63823" lon="5.6818">
        <ele>218</ele>
        <time>2025-05-01T11:16:40.230+00:00</time>
      </trkpt>
      <trkpt lat="45.6382" lon="5.68171">
        <ele>218</ele>
        <time>2025-05-01T11:16:44.590+00:00</time>
      </trkpt>
      <trkpt lat="45.63818" lon="5.68162">
        <ele>216</ele>
        <time>2025-05-01T11:16:48.730+00:00</time>
      </trkpt>
      <trkpt lat="45.63816" lon="5.68154">
        <ele>216</ele>
        <time>2025-05-01T11:16:52.869+00:00</time>
      </trkpt>
      <trkpt lat="45.63814" lon="5.68146">
        <ele>215</ele>
        <time>2025-05-01T11:16:56.989+00:00</time>
      </trkpt>
      <trkpt lat="45.63812" lon="5.68137">
        <ele>215</ele>
        <time>2025-05-01T11:17:01.069+00:00</time>
      </trkpt>
      <trkpt lat="45.63811" lon="5.68129">
        <ele>215</ele>
        <time>2025-05-01T11:17:05.211+00:00</time>
      </trkpt>
      <trkpt lat="45.63809" lon="5.68123">
        <ele>214</ele>
        <time>2025-05-01T11:17:09.430+00:00</time>
      </trkpt>
      <trkpt lat="45.63807" lon="5.68116">
        <ele>214</ele>
        <time>2025-05-01T11:17:13.569+00:00</time>
      </trkpt>
      <trkpt lat="45.63805" lon="5.68108">
        <ele>214</ele>
        <time>2025-05-01T11:17:17.751+00:00</time>
      </trkpt>
      <trkpt lat="45.63802" lon="5.68099">
        <ele>214</ele>
        <time>2025-05-01T11:17:22.108+00:00</time>
      </trkpt>
      <trkpt lat="45.638" lon="5.68091">
        <ele>214</ele>
        <time>2025-05-01T11:17:26.368+00:00</time>
      </trkpt>
      <trkpt lat="45.63798" lon="5.68083">
        <ele>214</ele>
        <time>2025-05-01T11:17:30.689+00:00</time>
      </trkpt>
      <trkpt lat="45.63796" lon="5.68077">
        <ele>214</ele>
        <time>2025-05-01T11:17:34.749+00:00</time>
      </trkpt>
      <trkpt lat="45.63796" lon="5.68074">
        <ele>214</ele>
        <time>2025-05-01T11:17:39.240+00:00</time>
      </trkpt>
      <trkpt lat="45.63796" lon="5.68072">
        <ele>214</ele>
        <time>2025-05-01T11:17:44.234+00:00</time>
      </trkpt>
      <trkpt lat="45.63794" lon="5.68063">
        <ele>213</ele>
        <time>2025-05-01T11:17:48.347+00:00</time>
      </trkpt>
      <trkpt lat="45.63792" lon="5.68053">
        <ele>213</ele>
        <time>2025-05-01T11:17:53.232+00:00</time>
      </trkpt>
      <trkpt lat="45.63791" lon="5.68045">
        <ele>217</ele>
        <time>2025-05-01T11:17:57.487+00:00</time>
      </trkpt>
      <trkpt lat="45.63789" lon="5.68038">
        <ele>220</ele>
        <time>2025-05-01T11:18:01.927+00:00</time>
      </trkpt>
      <trkpt lat="45.63785" lon="5.68031">
        <ele>220</ele>
        <time>2025-05-01T11:18:06.108+00:00</time>
      </trkpt>
      <trkpt lat="45.63778" lon="5.68011">
        <ele>220</ele>
        <time>2025-05-01T11:18:28.231+00:00</time>
      </trkpt>
      <trkpt lat="45.63777" lon="5.68011">
        <ele>220</ele>
        <time>2025-05-01T11:18:34.226+00:00</time>
      </trkpt>
      <trkpt lat="45.63781" lon="5.68006">
        <ele>220</ele>
        <time>2025-05-01T11:18:38.506+00:00</time>
      </trkpt>
      <trkpt lat="45.63791" lon="5.68003">
        <ele>220</ele>
        <time>2025-05-01T11:18:42.847+00:00</time>
      </trkpt>
      <trkpt lat="45.63797" lon="5.67996">
        <ele>213</ele>
        <time>2025-05-01T11:18:46.946+00:00</time>
      </trkpt>
      <trkpt lat="45.63796" lon="5.67988">
        <ele>213</ele>
        <time>2025-05-01T11:18:51.206+00:00</time>
      </trkpt>
      <trkpt lat="45.63792" lon="5.67982">
        <ele>213</ele>
        <time>2025-05-01T11:18:55.224+00:00</time>
      </trkpt>
      <trkpt lat="45.63788" lon="5.67973">
        <ele>218</ele>
        <time>2025-05-01T11:19:00.237+00:00</time>
      </trkpt>
      <trkpt lat="45.63785" lon="5.67965">
        <ele>218</ele>
        <time>2025-05-01T11:19:04.745+00:00</time>
      </trkpt>
      <trkpt lat="45.63782" lon="5.67956">
        <ele>216</ele>
        <time>2025-05-01T11:19:09.256+00:00</time>
      </trkpt>
      <trkpt lat="45.63778" lon="5.67948">
        <ele>216</ele>
        <time>2025-05-01T11:19:13.643+00:00</time>
      </trkpt>
      <trkpt lat="45.63777" lon="5.67939">
        <ele>216</ele>
        <time>2025-05-01T11:19:17.884+00:00</time>
      </trkpt>
      <trkpt lat="45.63774" lon="5.67931">
        <ele>216</ele>
        <time>2025-05-01T11:19:22.163+00:00</time>
      </trkpt>
      <trkpt lat="45.63772" lon="5.67924">
        <ele>213</ele>
        <time>2025-05-01T11:19:26.238+00:00</time>
      </trkpt>
      <trkpt lat="45.63769" lon="5.67916">
        <ele>213</ele>
        <time>2025-05-01T11:19:31.241+00:00</time>
      </trkpt>
      <trkpt lat="45.63766" lon="5.67908">
        <ele>213</ele>
        <time>2025-05-01T11:19:35.802+00:00</time>
      </trkpt>
      <trkpt lat="45.63763" lon="5.679">
        <ele>214</ele>
        <time>2025-05-01T11:19:40.023+00:00</time>
      </trkpt>
      <trkpt lat="45.6376" lon="5.67893">
        <ele>214</ele>
        <time>2025-05-01T11:19:44.220+00:00</time>
      </trkpt>
      <trkpt lat="45.63757" lon="5.67887">
        <ele>214</ele>
        <time>2025-05-01T11:19:48.230+00:00</time>
      </trkpt>
      <trkpt lat="45.63755" lon="5.6788">
        <ele>214</ele>
        <time>2025-05-01T11:19:52.768+00:00</time>
      </trkpt>
      <trkpt lat="45.63752" lon="5.67872">
        <ele>215</ele>
        <time>2025-05-01T11:19:56.933+00:00</time>
      </trkpt>
      <trkpt lat="45.6375" lon="5.67863">
        <ele>215</ele>
        <time>2025-05-01T11:20:01.836+00:00</time>
      </trkpt>
      <trkpt lat="45.63747" lon="5.67854">
        <ele>215</ele>
        <time>2025-05-01T11:20:06.235+00:00</time>
      </trkpt>
      <trkpt lat="45.63745" lon="5.67844">
        <ele>213</ele>
        <time>2025-05-01T11:20:10.671+00:00</time>
      </trkpt>
      <trkpt lat="45.63743" lon="5.67838">
        <ele>213</ele>
        <time>2025-05-01T11:20:14.771+00:00</time>
      </trkpt>
      <trkpt lat="45.63741" lon="5.6783">
        <ele>213</ele>
        <time>2025-05-01T11:20:19.246+00:00</time>
      </trkpt>
      <trkpt lat="45.63739" lon="5.67819">
        <ele>213</ele>
        <time>2025-05-01T11:20:23.969+00:00</time>
      </trkpt>
      <trkpt lat="45.63738" lon="5.6781">
        <ele>213</ele>
        <time>2025-05-01T11:20:28.227+00:00</time>
      </trkpt>
      <trkpt lat="45.63735" lon="5.67801">
        <ele>214</ele>
        <time>2025-05-01T11:20:33.237+00:00</time>
      </trkpt>
      <trkpt lat="45.63733" lon="5.67793">
        <ele>214</ele>
        <time>2025-05-01T11:20:37.929+00:00</time>
      </trkpt>
      <trkpt lat="45.6373" lon="5.67784">
        <ele>214</ele>
        <time>2025-05-01T11:20:42.223+00:00</time>
      </trkpt>
      <trkpt lat="45.63729" lon="5.67775">
        <ele>214</ele>
        <time>2025-05-01T11:20:46.447+00:00</time>
      </trkpt>
      <trkpt lat="45.63726" lon="5.67765">
        <ele>214</ele>
        <time>2025-05-01T11:20:51.175+00:00</time>
      </trkpt>
      <trkpt lat="45.63725" lon="5.67756">
        <ele>213</ele>
        <time>2025-05-01T11:20:55.236+00:00</time>
      </trkpt>
      <trkpt lat="45.63723" lon="5.67748">
        <ele>213</ele>
        <time>2025-05-01T11:21:00.044+00:00</time>
      </trkpt>
      <trkpt lat="45.63721" lon="5.6774">
        <ele>213</ele>
        <time>2025-05-01T11:21:04.223+00:00</time>
      </trkpt>
      <trkpt lat="45.63718" lon="5.67731">
        <ele>213</ele>
        <time>2025-05-01T11:21:08.545+00:00</time>
      </trkpt>
      <trkpt lat="45.63715" lon="5.67724">
        <ele>213</ele>
        <time>2025-05-01T11:21:12.727+00:00</time>
      </trkpt>
      <trkpt lat="45.63712" lon="5.67716">
        <ele>213</ele>
        <time>2025-05-01T11:21:17.233+00:00</time>
      </trkpt>
      <trkpt lat="45.63711" lon="5.67709">
        <ele>213</ele>
        <time>2025-05-01T11:21:21.234+00:00</time>
      </trkpt>
      <trkpt lat="45.63709" lon="5.67701">
        <ele>213</ele>
        <time>2025-05-01T11:21:25.444+00:00</time>
      </trkpt>
      <trkpt lat="45.63706" lon="5.67693">
        <ele>213</ele>
        <time>2025-05-01T11:21:29.685+00:00</time>
      </trkpt>
      <trkpt lat="45.63703" lon="5.67686">
        <ele>213</ele>
        <time>2025-05-01T11:21:34.005+00:00</time>
      </trkpt>
      <trkpt lat="45.63698" lon="5.6768">
        <ele>214</ele>
        <time>2025-05-01T11:21:38.226+00:00</time>
      </trkpt>
      <trkpt lat="45.63695" lon="5.67674">
        <ele>214</ele>
        <time>2025-05-01T11:21:43.244+00:00</time>
      </trkpt>
      <trkpt lat="45.63695" lon="5.67673">
        <ele>214</ele>
        <time>2025-05-01T11:21:47.631+00:00</time>
      </trkpt>
      <trkpt lat="45.63692" lon="5.67665">
        <ele>214</ele>
        <time>2025-05-01T11:21:52.151+00:00</time>
      </trkpt>
      <trkpt lat="45.63687" lon="5.67662">
        <ele>214</ele>
        <time>2025-05-01T11:21:56.231+00:00</time>
      </trkpt>
      <trkpt lat="45.6368" lon="5.67662">
        <ele>214</ele>
        <time>2025-05-01T11:22:01.111+00:00</time>
      </trkpt>
      <trkpt lat="45.63674" lon="5.67662">
        <ele>214</ele>
        <time>2025-05-01T11:22:05.244+00:00</time>
      </trkpt>
      <trkpt lat="45.63668" lon="5.67662">
        <ele>214</ele>
        <time>2025-05-01T11:22:09.550+00:00</time>
      </trkpt>
      <trkpt lat="45.63663" lon="5.67659">
        <ele>214</ele>
        <time>2025-05-01T11:22:13.849+00:00</time>
      </trkpt>
      <trkpt lat="45.63659" lon="5.67652">
        <ele>214</ele>
        <time>2025-05-01T11:22:18.151+00:00</time>
      </trkpt>
      <trkpt lat="45.63657" lon="5.67643">
        <ele>214</ele>
        <time>2025-05-01T11:22:22.530+00:00</time>
      </trkpt>
      <trkpt lat="45.63656" lon="5.67635">
        <ele>214</ele>
        <time>2025-05-01T11:22:26.770+00:00</time>
      </trkpt>
      <trkpt lat="45.63657" lon="5.67625">
        <ele>214</ele>
        <time>2025-05-01T11:22:31.238+00:00</time>
      </trkpt>
      <trkpt lat="45.63656" lon="5.67614">
        <ele>214</ele>
        <time>2025-05-01T11:22:36.237+00:00</time>
      </trkpt>
      <trkpt lat="45.63655" lon="5.67601">
        <ele>214</ele>
        <time>2025-05-01T11:22:41.248+00:00</time>
      </trkpt>
      <trkpt lat="45.63653" lon="5.67589">
        <ele>214</ele>
        <time>2025-05-01T11:22:45.630+00:00</time>
      </trkpt>
      <trkpt lat="45.63653" lon="5.67579">
        <ele>215</ele>
        <time>2025-05-01T11:22:49.938+00:00</time>
      </trkpt>
      <trkpt lat="45.63652" lon="5.6757">
        <ele>215</ele>
        <time>2025-05-01T11:22:54.149+00:00</time>
      </trkpt>
      <trkpt lat="45.63651" lon="5.67562">
        <ele>215</ele>
        <time>2025-05-01T11:22:58.492+00:00</time>
      </trkpt>
      <trkpt lat="45.63652" lon="5.67554">
        <ele>215</ele>
        <time>2025-05-01T11:23:02.831+00:00</time>
      </trkpt>
      <trkpt lat="45.63653" lon="5.67546">
        <ele>215</ele>
        <time>2025-05-01T11:23:07.198+00:00</time>
      </trkpt>
      <trkpt lat="45.63652" lon="5.67537">
        <ele>215</ele>
        <time>2025-05-01T11:23:11.468+00:00</time>
      </trkpt>
      <trkpt lat="45.63652" lon="5.67529">
        <ele>215</ele>
        <time>2025-05-01T11:23:15.829+00:00</time>
      </trkpt>
      <trkpt lat="45.63653" lon="5.67519">
        <ele>215</ele>
        <time>2025-05-01T11:23:20.234+00:00</time>
      </trkpt>
      <trkpt lat="45.63654" lon="5.6751">
        <ele>214</ele>
        <time>2025-05-01T11:23:24.529+00:00</time>
      </trkpt>
      <trkpt lat="45.63654" lon="5.67501">
        <ele>214</ele>
        <time>2025-05-01T11:23:29.222+00:00</time>
      </trkpt>
      <trkpt lat="45.63654" lon="5.67493">
        <ele>214</ele>
        <time>2025-05-01T11:23:33.828+00:00</time>
      </trkpt>
      <trkpt lat="45.63655" lon="5.67484">
        <ele>214</ele>
        <time>2025-05-01T11:23:38.109+00:00</time>
      </trkpt>
      <trkpt lat="45.63655" lon="5.67476">
        <ele>214</ele>
        <time>2025-05-01T11:23:42.229+00:00</time>
      </trkpt>
      <trkpt lat="45.63655" lon="5.67468">
        <ele>214</ele>
        <time>2025-05-01T11:23:46.649+00:00</time>
      </trkpt>
      <trkpt lat="45.63655" lon="5.6746">
        <ele>214</ele>
        <time>2025-05-01T11:23:50.929+00:00</time>
      </trkpt>
      <trkpt lat="45.63655" lon="5.67451">
        <ele>213</ele>
        <time>2025-05-01T11:23:55.252+00:00</time>
      </trkpt>
      <trkpt lat="45.63655" lon="5.67442">
        <ele>213</ele>
        <time>2025-05-01T11:23:59.907+00:00</time>
      </trkpt>
      <trkpt lat="45.63656" lon="5.67433">
        <ele>213</ele>
        <time>2025-05-01T11:24:04.229+00:00</time>
      </trkpt>
      <trkpt lat="45.63656" lon="5.67425">
        <ele>213</ele>
        <time>2025-05-01T11:24:08.509+00:00</time>
      </trkpt>
      <trkpt lat="45.63655" lon="5.67416">
        <ele>213</ele>
        <time>2025-05-01T11:24:13.250+00:00</time>
      </trkpt>
      <trkpt lat="45.63655" lon="5.67407">
        <ele>213</ele>
        <time>2025-05-01T11:24:17.608+00:00</time>
      </trkpt>
      <trkpt lat="45.63655" lon="5.67399">
        <ele>213</ele>
        <time>2025-05-01T11:24:21.809+00:00</time>
      </trkpt>
      <trkpt lat="45.63655" lon="5.6739">
        <ele>213</ele>
        <time>2025-05-01T11:24:26.087+00:00</time>
      </trkpt>
      <trkpt lat="45.63656" lon="5.67382">
        <ele>213</ele>
        <time>2025-05-01T11:24:30.187+00:00</time>
      </trkpt>
      <trkpt lat="45.63656" lon="5.67373">
        <ele>214</ele>
        <time>2025-05-01T11:24:34.688+00:00</time>
      </trkpt>
      <trkpt lat="45.63656" lon="5.67364">
        <ele>214</ele>
        <time>2025-05-01T11:24:39.230+00:00</time>
      </trkpt>
      <trkpt lat="45.63656" lon="5.67355">
        <ele>214</ele>
        <time>2025-05-01T11:24:43.668+00:00</time>
      </trkpt>
      <trkpt lat="45.63657" lon="5.67346">
        <ele>213</ele>
        <time>2025-05-01T11:24:47.888+00:00</time>
      </trkpt>
      <trkpt lat="45.63658" lon="5.67338">
        <ele>213</ele>
        <time>2025-05-01T11:24:52.241+00:00</time>
      </trkpt>
      <trkpt lat="45.63659" lon="5.6733">
        <ele>213</ele>
        <time>2025-05-01T11:24:56.865+00:00</time>
      </trkpt>
      <trkpt lat="45.63657" lon="5.67321">
        <ele>213</ele>
        <time>2025-05-01T11:25:01.144+00:00</time>
      </trkpt>
      <trkpt lat="45.63658" lon="5.67313">
        <ele>213</ele>
        <time>2025-05-01T11:25:05.404+00:00</time>
      </trkpt>
      <trkpt lat="45.63659" lon="5.67305">
        <ele>213</ele>
        <time>2025-05-01T11:25:09.544+00:00</time>
      </trkpt>
      <trkpt lat="45.6366" lon="5.67296">
        <ele>213</ele>
        <time>2025-05-01T11:25:13.743+00:00</time>
      </trkpt>
      <trkpt lat="45.6366" lon="5.67288">
        <ele>215</ele>
        <time>2025-05-01T11:25:17.983+00:00</time>
      </trkpt>
      <trkpt lat="45.63658" lon="5.67278">
        <ele>215</ele>
        <time>2025-05-01T11:25:22.229+00:00</time>
      </trkpt>
      <trkpt lat="45.63657" lon="5.67269">
        <ele>215</ele>
        <time>2025-05-01T11:25:26.524+00:00</time>
      </trkpt>
      <trkpt lat="45.63657" lon="5.6726">
        <ele>215</ele>
        <time>2025-05-01T11:25:30.766+00:00</time>
      </trkpt>
      <trkpt lat="45.63658" lon="5.67251">
        <ele>215</ele>
        <time>2025-05-01T11:25:35.053+00:00</time>
      </trkpt>
      <trkpt lat="45.63658" lon="5.67243">
        <ele>215</ele>
        <time>2025-05-01T11:25:39.248+00:00</time>
      </trkpt>
      <trkpt lat="45.63659" lon="5.67234">
        <ele>216</ele>
        <time>2025-05-01T11:25:43.534+00:00</time>
      </trkpt>
      <trkpt lat="45.63659" lon="5.67225">
        <ele>216</ele>
        <time>2025-05-01T11:25:47.750+00:00</time>
      </trkpt>
      <trkpt lat="45.63659" lon="5.67216">
        <ele>216</ele>
        <time>2025-05-01T11:25:51.973+00:00</time>
      </trkpt>
      <trkpt lat="45.6366" lon="5.67208">
        <ele>215</ele>
        <time>2025-05-01T11:25:56.228+00:00</time>
      </trkpt>
      <trkpt lat="45.6366" lon="5.67198">
        <ele>215</ele>
        <time>2025-05-01T11:26:00.891+00:00</time>
      </trkpt>
      <trkpt lat="45.63659" lon="5.67191">
        <ele>215</ele>
        <time>2025-05-01T11:26:05.243+00:00</time>
      </trkpt>
      <trkpt lat="45.63661" lon="5.67181">
        <ele>215</ele>
        <time>2025-05-01T11:26:10.236+00:00</time>
      </trkpt>
      <trkpt lat="45.63661" lon="5.67171">
        <ele>214</ele>
        <time>2025-05-01T11:26:15.209+00:00</time>
      </trkpt>
      <trkpt lat="45.63663" lon="5.67164">
        <ele>214</ele>
        <time>2025-05-01T11:26:19.237+00:00</time>
      </trkpt>
      <trkpt lat="45.63664" lon="5.67157">
        <ele>214</ele>
        <time>2025-05-01T11:26:23.729+00:00</time>
      </trkpt>
      <trkpt lat="45.63664" lon="5.67149">
        <ele>213</ele>
        <time>2025-05-01T11:26:27.771+00:00</time>
      </trkpt>
      <trkpt lat="45.63663" lon="5.6714">
        <ele>213</ele>
        <time>2025-05-01T11:26:32.235+00:00</time>
      </trkpt>
      <trkpt lat="45.63662" lon="5.67132">
        <ele>213</ele>
        <time>2025-05-01T11:26:36.770+00:00</time>
      </trkpt>
      <trkpt lat="45.63663" lon="5.67123">
        <ele>213</ele>
        <time>2025-05-01T11:26:41.186+00:00</time>
      </trkpt>
      <trkpt lat="45.63665" lon="5.67115">
        <ele>213</ele>
        <time>2025-05-01T11:26:45.508+00:00</time>
      </trkpt>
      <trkpt lat="45.63665" lon="5.67104">
        <ele>213</ele>
        <time>2025-05-01T11:26:50.238+00:00</time>
      </trkpt>
      <trkpt lat="45.63666" lon="5.67096">
        <ele>214</ele>
        <time>2025-05-01T11:26:54.237+00:00</time>
      </trkpt>
      <trkpt lat="45.63666" lon="5.67087">
        <ele>214</ele>
        <time>2025-05-01T11:26:59.234+00:00</time>
      </trkpt>
      <trkpt lat="45.63665" lon="5.67076">
        <ele>214</ele>
        <time>2025-05-01T11:27:04.229+00:00</time>
      </trkpt>
      <trkpt lat="45.63664" lon="5.67071">
        <ele>214</ele>
        <time>2025-05-01T11:27:09.234+00:00</time>
      </trkpt>
      <trkpt lat="45.63664" lon="5.67063">
        <ele>215</ele>
        <time>2025-05-01T11:27:14.229+00:00</time>
      </trkpt>
      <trkpt lat="45.63664" lon="5.67054">
        <ele>215</ele>
        <time>2025-05-01T11:27:18.240+00:00</time>
      </trkpt>
      <trkpt lat="45.63665" lon="5.67045">
        <ele>215</ele>
        <time>2025-05-01T11:27:22.236+00:00</time>
      </trkpt>
      <trkpt lat="45.63666" lon="5.67036">
        <ele>215</ele>
        <time>2025-05-01T11:27:27.250+00:00</time>
      </trkpt>
      <trkpt lat="45.63666" lon="5.67028">
        <ele>215</ele>
        <time>2025-05-01T11:27:31.251+00:00</time>
      </trkpt>
      <trkpt lat="45.63666" lon="5.67017">
        <ele>215</ele>
        <time>2025-05-01T11:27:36.232+00:00</time>
      </trkpt>
      <trkpt lat="45.63666" lon="5.67007">
        <ele>215</ele>
        <time>2025-05-01T11:27:41.230+00:00</time>
      </trkpt>
      <trkpt lat="45.63665" lon="5.66997">
        <ele>215</ele>
        <time>2025-05-01T11:27:46.235+00:00</time>
      </trkpt>
      <trkpt lat="45.63665" lon="5.66988">
        <ele>215</ele>
        <time>2025-05-01T11:27:51.237+00:00</time>
      </trkpt>
      <trkpt lat="45.63664" lon="5.66978">
        <ele>215</ele>
        <time>2025-05-01T11:27:56.234+00:00</time>
      </trkpt>
      <trkpt lat="45.63666" lon="5.66969">
        <ele>215</ele>
        <time>2025-05-01T11:28:01.237+00:00</time>
      </trkpt>
      <trkpt lat="45.63667" lon="5.66957">
        <ele>214</ele>
        <time>2025-05-01T11:28:06.224+00:00</time>
      </trkpt>
      <trkpt lat="45.63669" lon="5.66947">
        <ele>214</ele>
        <time>2025-05-01T11:28:11.233+00:00</time>
      </trkpt>
      <trkpt lat="45.6367" lon="5.66937">
        <ele>214</ele>
        <time>2025-05-01T11:28:16.234+00:00</time>
      </trkpt>
      <trkpt lat="45.63669" lon="5.66928">
        <ele>213</ele>
        <time>2025-05-01T11:28:20.241+00:00</time>
      </trkpt>
      <trkpt lat="45.63669" lon="5.66919">
        <ele>213</ele>
        <time>2025-05-01T11:28:25.230+00:00</time>
      </trkpt>
      <trkpt lat="45.63669" lon="5.6691">
        <ele>213</ele>
        <time>2025-05-01T11:28:30.237+00:00</time>
      </trkpt>
      <trkpt lat="45.6367" lon="5.669">
        <ele>212</ele>
        <time>2025-05-01T11:28:35.233+00:00</time>
      </trkpt>
      <trkpt lat="45.6367" lon="5.66888">
        <ele>212</ele>
        <time>2025-05-01T11:28:40.233+00:00</time>
      </trkpt>
      <trkpt lat="45.6367" lon="5.66881">
        <ele>212</ele>
        <time>2025-05-01T11:28:44.238+00:00</time>
      </trkpt>
      <trkpt lat="45.6367" lon="5.66872">
        <ele>212</ele>
        <time>2025-05-01T11:28:49.238+00:00</time>
      </trkpt>
      <trkpt lat="45.6367" lon="5.66861">
        <ele>212</ele>
        <time>2025-05-01T11:28:54.241+00:00</time>
      </trkpt>
      <trkpt lat="45.6367" lon="5.66849">
        <ele>212</ele>
        <time>2025-05-01T11:28:59.227+00:00</time>
      </trkpt>
      <trkpt lat="45.63671" lon="5.6684">
        <ele>213</ele>
        <time>2025-05-01T11:29:03.232+00:00</time>
      </trkpt>
      <trkpt lat="45.63671" lon="5.6683">
        <ele>213</ele>
        <time>2025-05-01T11:29:08.234+00:00</time>
      </trkpt>
      <trkpt lat="45.6367" lon="5.66819">
        <ele>213</ele>
        <time>2025-05-01T11:29:13.232+00:00</time>
      </trkpt>
      <trkpt lat="45.63671" lon="5.6681">
        <ele>213</ele>
        <time>2025-05-01T11:29:18.236+00:00</time>
      </trkpt>
      <trkpt lat="45.63671" lon="5.66803">
        <ele>213</ele>
        <time>2025-05-01T11:29:22.238+00:00</time>
      </trkpt>
      <trkpt lat="45.63672" lon="5.66793">
        <ele>213</ele>
        <time>2025-05-01T11:29:27.241+00:00</time>
      </trkpt>
      <trkpt lat="45.63672" lon="5.66785">
        <ele>214</ele>
        <time>2025-05-01T11:29:32.239+00:00</time>
      </trkpt>
      <trkpt lat="45.63672" lon="5.66776">
        <ele>214</ele>
        <time>2025-05-01T11:29:37.232+00:00</time>
      </trkpt>
      <trkpt lat="45.63671" lon="5.66769">
        <ele>214</ele>
        <time>2025-05-01T11:29:41.236+00:00</time>
      </trkpt>
      <trkpt lat="45.63673" lon="5.6676">
        <ele>213</ele>
        <time>2025-05-01T11:29:46.241+00:00</time>
      </trkpt>
      <trkpt lat="45.63674" lon="5.66749">
        <ele>213</ele>
        <time>2025-05-01T11:29:51.235+00:00</time>
      </trkpt>
      <trkpt lat="45.63674" lon="5.66738">
        <ele>213</ele>
        <time>2025-05-01T11:29:56.239+00:00</time>
      </trkpt>
      <trkpt lat="45.63675" lon="5.66728">
        <ele>213</ele>
        <time>2025-05-01T11:30:01.225+00:00</time>
      </trkpt>
      <trkpt lat="45.63675" lon="5.6672">
        <ele>213</ele>
        <time>2025-05-01T11:30:05.235+00:00</time>
      </trkpt>
      <trkpt lat="45.63675" lon="5.66711">
        <ele>213</ele>
        <time>2025-05-01T11:30:10.244+00:00</time>
      </trkpt>
      <trkpt lat="45.63675" lon="5.66702">
        <ele>212</ele>
        <time>2025-05-01T11:30:15.233+00:00</time>
      </trkpt>
      <trkpt lat="45.63676" lon="5.66691">
        <ele>212</ele>
        <time>2025-05-01T11:30:20.238+00:00</time>
      </trkpt>
      <trkpt lat="45.63675" lon="5.66681">
        <ele>212</ele>
        <time>2025-05-01T11:30:25.237+00:00</time>
      </trkpt>
      <trkpt lat="45.63676" lon="5.66671">
        <ele>213</ele>
        <time>2025-05-01T11:30:30.233+00:00</time>
      </trkpt>
      <trkpt lat="45.63677" lon="5.6666">
        <ele>213</ele>
        <time>2025-05-01T11:30:35.232+00:00</time>
      </trkpt>
      <trkpt lat="45.63676" lon="5.66651">
        <ele>213</ele>
        <time>2025-05-01T11:30:40.235+00:00</time>
      </trkpt>
      <trkpt lat="45.63676" lon="5.66641">
        <ele>213</ele>
        <time>2025-05-01T11:30:45.219+00:00</time>
      </trkpt>
      <trkpt lat="45.63676" lon="5.66633">
        <ele>213</ele>
        <time>2025-05-01T11:30:49.226+00:00</time>
      </trkpt>
      <trkpt lat="45.63675" lon="5.66623">
        <ele>213</ele>
        <time>2025-05-01T11:30:53.233+00:00</time>
      </trkpt>
      <trkpt lat="45.63677" lon="5.66615">
        <ele>213</ele>
        <time>2025-05-01T11:30:57.238+00:00</time>
      </trkpt>
      <trkpt lat="45.63679" lon="5.66606">
        <ele>213</ele>
        <time>2025-05-01T11:31:02.232+00:00</time>
      </trkpt>
      <trkpt lat="45.6368" lon="5.66598">
        <ele>213</ele>
        <time>2025-05-01T11:31:06.228+00:00</time>
      </trkpt>
      <trkpt lat="45.6368" lon="5.66592">
        <ele>213</ele>
        <time>2025-05-01T11:31:10.235+00:00</time>
      </trkpt>
      <trkpt lat="45.6368" lon="5.66581">
        <ele>213</ele>
        <time>2025-05-01T11:31:15.231+00:00</time>
      </trkpt>
      <trkpt lat="45.6368" lon="5.6657">
        <ele>213</ele>
        <time>2025-05-01T11:31:20.228+00:00</time>
      </trkpt>
      <trkpt lat="45.63679" lon="5.66569">
        <ele>213</ele>
        <time>2025-05-01T11:31:24.241+00:00</time>
      </trkpt>
      <trkpt lat="45.6368" lon="5.66564">
        <ele>213</ele>
        <time>2025-05-01T11:31:29.232+00:00</time>
      </trkpt>
      <trkpt lat="45.63678" lon="5.66553">
        <ele>213</ele>
        <time>2025-05-01T11:31:34.223+00:00</time>
      </trkpt>
      <trkpt lat="45.63677" lon="5.66546">
        <ele>213</ele>
        <time>2025-05-01T11:31:38.239+00:00</time>
      </trkpt>
      <trkpt lat="45.63678" lon="5.66538">
        <ele>214</ele>
        <time>2025-05-01T11:31:42.689+00:00</time>
      </trkpt>
      <trkpt lat="45.63678" lon="5.6653">
        <ele>214</ele>
        <time>2025-05-01T11:31:47.127+00:00</time>
      </trkpt>
      <trkpt lat="45.63678" lon="5.6652">
        <ele>214</ele>
        <time>2025-05-01T11:31:51.730+00:00</time>
      </trkpt>
      <trkpt lat="45.63678" lon="5.66512">
        <ele>214</ele>
        <time>2025-05-01T11:31:55.949+00:00</time>
      </trkpt>
      <trkpt lat="45.63678" lon="5.66503">
        <ele>214</ele>
        <time>2025-05-01T11:32:00.568+00:00</time>
      </trkpt>
      <trkpt lat="45.63678" lon="5.66495">
        <ele>214</ele>
        <time>2025-05-01T11:32:05.027+00:00</time>
      </trkpt>
      <trkpt lat="45.63678" lon="5.66487">
        <ele>214</ele>
        <time>2025-05-01T11:32:09.649+00:00</time>
      </trkpt>
      <trkpt lat="45.63679" lon="5.6648">
        <ele>213</ele>
        <time>2025-05-01T11:32:14.127+00:00</time>
      </trkpt>
      <trkpt lat="45.63679" lon="5.66472">
        <ele>213</ele>
        <time>2025-05-01T11:32:18.569+00:00</time>
      </trkpt>
      <trkpt lat="45.63679" lon="5.66464">
        <ele>213</ele>
        <time>2025-05-01T11:32:23.028+00:00</time>
      </trkpt>
      <trkpt lat="45.6368" lon="5.66455">
        <ele>213</ele>
        <time>2025-05-01T11:32:27.548+00:00</time>
      </trkpt>
      <trkpt lat="45.63681" lon="5.66447">
        <ele>214</ele>
        <time>2025-05-01T11:32:32.228+00:00</time>
      </trkpt>
      <trkpt lat="45.63682" lon="5.6644">
        <ele>214</ele>
        <time>2025-05-01T11:32:36.244+00:00</time>
      </trkpt>
      <trkpt lat="45.63682" lon="5.66432">
        <ele>214</ele>
        <time>2025-05-01T11:32:41.227+00:00</time>
      </trkpt>
      <trkpt lat="45.63683" lon="5.66424">
        <ele>214</ele>
        <time>2025-05-01T11:32:45.567+00:00</time>
      </trkpt>
      <trkpt lat="45.63682" lon="5.66416">
        <ele>214</ele>
        <time>2025-05-01T11:32:49.908+00:00</time>
      </trkpt>
      <trkpt lat="45.63684" lon="5.66408">
        <ele>214</ele>
        <time>2025-05-01T11:32:54.230+00:00</time>
      </trkpt>
      <trkpt lat="45.63685" lon="5.664">
        <ele>214</ele>
        <time>2025-05-01T11:32:58.667+00:00</time>
      </trkpt>
      <trkpt lat="45.63684" lon="5.66392">
        <ele>214</ele>
        <time>2025-05-01T11:33:02.787+00:00</time>
      </trkpt>
      <trkpt lat="45.63684" lon="5.66384">
        <ele>214</ele>
        <time>2025-05-01T11:33:07.205+00:00</time>
      </trkpt>
      <trkpt lat="45.63683" lon="5.66376">
        <ele>214</ele>
        <time>2025-05-01T11:33:11.227+00:00</time>
      </trkpt>
      <trkpt lat="45.63681" lon="5.66368">
        <ele>214</ele>
        <time>2025-05-01T11:33:15.230+00:00</time>
      </trkpt>
      <trkpt lat="45.6368" lon="5.66359">
        <ele>213</ele>
        <time>2025-05-01T11:33:19.886+00:00</time>
      </trkpt>
      <trkpt lat="45.63681" lon="5.66351">
        <ele>214</ele>
        <time>2025-05-01T11:33:24.229+00:00</time>
      </trkpt>
      <trkpt lat="45.63683" lon="5.66344">
        <ele>214</ele>
        <time>2025-05-01T11:33:28.235+00:00</time>
      </trkpt>
      <trkpt lat="45.63683" lon="5.66333">
        <ele>214</ele>
        <time>2025-05-01T11:33:33.230+00:00</time>
      </trkpt>
      <trkpt lat="45.63684" lon="5.66324">
        <ele>214</ele>
        <time>2025-05-01T11:33:38.235+00:00</time>
      </trkpt>
      <trkpt lat="45.63685" lon="5.66313">
        <ele>214</ele>
        <time>2025-05-01T11:33:43.230+00:00</time>
      </trkpt>
      <trkpt lat="45.63685" lon="5.66302">
        <ele>214</ele>
        <time>2025-05-01T11:33:48.238+00:00</time>
      </trkpt>
      <trkpt lat="45.63685" lon="5.6629">
        <ele>214</ele>
        <time>2025-05-01T11:33:53.227+00:00</time>
      </trkpt>
      <trkpt lat="45.63685" lon="5.6628">
        <ele>214</ele>
        <time>2025-05-01T11:33:58.234+00:00</time>
      </trkpt>
      <trkpt lat="45.63685" lon="5.66274">
        <ele>214</ele>
        <time>2025-05-01T11:34:02.234+00:00</time>
      </trkpt>
      <trkpt lat="45.63685" lon="5.66263">
        <ele>214</ele>
        <time>2025-05-01T11:34:07.228+00:00</time>
      </trkpt>
      <trkpt lat="45.63685" lon="5.66253">
        <ele>214</ele>
        <time>2025-05-01T11:34:12.224+00:00</time>
      </trkpt>
      <trkpt lat="45.63685" lon="5.66245">
        <ele>214</ele>
        <time>2025-05-01T11:34:16.411+00:00</time>
      </trkpt>
      <trkpt lat="45.63685" lon="5.66237">
        <ele>214</ele>
        <time>2025-05-01T11:34:20.651+00:00</time>
      </trkpt>
      <trkpt lat="45.63686" lon="5.6623">
        <ele>214</ele>
        <time>2025-05-01T11:34:24.751+00:00</time>
      </trkpt>
      <trkpt lat="45.63686" lon="5.6622">
        <ele>214</ele>
        <time>2025-05-01T11:34:29.032+00:00</time>
      </trkpt>
      <trkpt lat="45.63686" lon="5.66203">
        <ele>214</ele>
        <time>2025-05-01T11:34:33.237+00:00</time>
      </trkpt>
      <trkpt lat="45.63685" lon="5.66178">
        <ele>214</ele>
        <time>2025-05-01T11:34:38.150+00:00</time>
      </trkpt>
      <trkpt lat="45.63688" lon="5.6615">
        <ele>215</ele>
        <time>2025-05-01T11:34:42.231+00:00</time>
      </trkpt>
      <trkpt lat="45.63687" lon="5.66129">
        <ele>215</ele>
        <time>2025-05-01T11:34:46.510+00:00</time>
      </trkpt>
      <trkpt lat="45.63689" lon="5.66118">
        <ele>214</ele>
        <time>2025-05-01T11:34:51.169+00:00</time>
      </trkpt>
      <trkpt lat="45.63689" lon="5.66111">
        <ele>214</ele>
        <time>2025-05-01T11:34:55.610+00:00</time>
      </trkpt>
      <trkpt lat="45.63689" lon="5.66104">
        <ele>214</ele>
        <time>2025-05-01T11:34:59.971+00:00</time>
      </trkpt>
      <trkpt lat="45.63689" lon="5.66096">
        <ele>214</ele>
        <time>2025-05-01T11:35:03.988+00:00</time>
      </trkpt>
      <trkpt lat="45.6369" lon="5.66088">
        <ele>214</ele>
        <time>2025-05-01T11:35:08.031+00:00</time>
      </trkpt>
      <trkpt lat="45.63689" lon="5.66079">
        <ele>214</ele>
        <time>2025-05-01T11:35:12.109+00:00</time>
      </trkpt>
      <trkpt lat="45.6369" lon="5.66071">
        <ele>214</ele>
        <time>2025-05-01T11:35:16.230+00:00</time>
      </trkpt>
      <trkpt lat="45.63689" lon="5.66058">
        <ele>214</ele>
        <time>2025-05-01T11:35:41.223+00:00</time>
      </trkpt>
      <trkpt lat="45.63689" lon="5.66058">
        <ele>214</ele>
        <time>2025-05-01T11:35:45.227+00:00</time>
      </trkpt>
      <trkpt lat="45.63689" lon="5.66056">
        <ele>214</ele>
        <time>2025-05-01T11:35:50.234+00:00</time>
      </trkpt>
      <trkpt lat="45.6369" lon="5.66053">
        <ele>214</ele>
        <time>2025-05-01T11:35:54.230+00:00</time>
      </trkpt>
      <trkpt lat="45.63688" lon="5.66041">
        <ele>214</ele>
        <time>2025-05-01T11:35:58.785+00:00</time>
      </trkpt>
      <trkpt lat="45.63688" lon="5.66027">
        <ele>214</ele>
        <time>2025-05-01T11:36:02.794+00:00</time>
      </trkpt>
      <trkpt lat="45.63689" lon="5.66015">
        <ele>214</ele>
        <time>2025-05-01T11:36:07.235+00:00</time>
      </trkpt>
      <trkpt lat="45.63688" lon="5.66006">
        <ele>214</ele>
        <time>2025-05-01T11:36:11.375+00:00</time>
      </trkpt>
      <trkpt lat="45.63688" lon="5.65998">
        <ele>214</ele>
        <time>2025-05-01T11:36:15.432+00:00</time>
      </trkpt>
      <trkpt lat="45.63687" lon="5.65988">
        <ele>214</ele>
        <time>2025-05-01T11:36:19.694+00:00</time>
      </trkpt>
      <trkpt lat="45.63686" lon="5.65978">
        <ele>214</ele>
        <time>2025-05-01T11:36:23.891+00:00</time>
      </trkpt>
      <trkpt lat="45.63686" lon="5.6597">
        <ele>214</ele>
        <time>2025-05-01T11:36:27.893+00:00</time>
      </trkpt>
      <trkpt lat="45.63685" lon="5.65962">
        <ele>214</ele>
        <time>2025-05-01T11:36:32.230+00:00</time>
      </trkpt>
      <trkpt lat="45.63683" lon="5.65951">
        <ele>214</ele>
        <time>2025-05-01T11:36:36.453+00:00</time>
      </trkpt>
      <trkpt lat="45.63681" lon="5.65941">
        <ele>214</ele>
        <time>2025-05-01T11:36:40.914+00:00</time>
      </trkpt>
      <trkpt lat="45.63678" lon="5.65931">
        <ele>211</ele>
        <time>2025-05-01T11:36:44.934+00:00</time>
      </trkpt>
      <trkpt lat="45.63676" lon="5.6592">
        <ele>211</ele>
        <time>2025-05-01T11:36:49.430+00:00</time>
      </trkpt>
      <trkpt lat="45.63674" lon="5.65909">
        <ele>211</ele>
        <time>2025-05-01T11:36:54.073+00:00</time>
      </trkpt>
      <trkpt lat="45.63673" lon="5.65898">
        <ele>213</ele>
        <time>2025-05-01T11:36:58.109+00:00</time>
      </trkpt>
      <trkpt lat="45.63671" lon="5.65888">
        <ele>213</ele>
        <time>2025-05-01T11:37:02.450+00:00</time>
      </trkpt>
      <trkpt lat="45.6367" lon="5.65878">
        <ele>213</ele>
        <time>2025-05-01T11:37:06.971+00:00</time>
      </trkpt>
      <trkpt lat="45.63667" lon="5.65869">
        <ele>213</ele>
        <time>2025-05-01T11:37:11.369+00:00</time>
      </trkpt>
      <trkpt lat="45.63664" lon="5.6586">
        <ele>213</ele>
        <time>2025-05-01T11:37:15.767+00:00</time>
      </trkpt>
      <trkpt lat="45.6366" lon="5.65851">
        <ele>213</ele>
        <time>2025-05-01T11:37:19.947+00:00</time>
      </trkpt>
      <trkpt lat="45.63655" lon="5.65841">
        <ele>213</ele>
        <time>2025-05-01T11:37:24.468+00:00</time>
      </trkpt>
      <trkpt lat="45.63651" lon="5.65833">
        <ele>213</ele>
        <time>2025-05-01T11:37:29.147+00:00</time>
      </trkpt>
      <trkpt lat="45.63646" lon="5.65821">
        <ele>213</ele>
        <time>2025-05-01T11:37:33.865+00:00</time>
      </trkpt>
      <trkpt lat="45.63642" lon="5.65812">
        <ele>213</ele>
        <time>2025-05-01T11:37:38.087+00:00</time>
      </trkpt>
      <trkpt lat="45.63639" lon="5.658">
        <ele>213</ele>
        <time>2025-05-01T11:37:42.434+00:00</time>
      </trkpt>
      <trkpt lat="45.63635" lon="5.6579">
        <ele>213</ele>
        <time>2025-05-01T11:37:46.789+00:00</time>
      </trkpt>
      <trkpt lat="45.63631" lon="5.65781">
        <ele>213</ele>
        <time>2025-05-01T11:37:50.868+00:00</time>
      </trkpt>
      <trkpt lat="45.63628" lon="5.6577">
        <ele>213</ele>
        <time>2025-05-01T11:37:55.047+00:00</time>
      </trkpt>
      <trkpt lat="45.63624" lon="5.65761">
        <ele>213</ele>
        <time>2025-05-01T11:37:59.545+00:00</time>
      </trkpt>
      <trkpt lat="45.6362" lon="5.65753">
        <ele>213</ele>
        <time>2025-05-01T11:38:03.885+00:00</time>
      </trkpt>
      <trkpt lat="45.63616" lon="5.65744">
        <ele>213</ele>
        <time>2025-05-01T11:38:08.183+00:00</time>
      </trkpt>
      <trkpt lat="45.63611" lon="5.65733">
        <ele>213</ele>
        <time>2025-05-01T11:38:12.230+00:00</time>
      </trkpt>
      <trkpt lat="45.63606" lon="5.65723">
        <ele>213</ele>
        <time>2025-05-01T11:38:16.254+00:00</time>
      </trkpt>
      <trkpt lat="45.63603" lon="5.65714">
        <ele>213</ele>
        <time>2025-05-01T11:38:20.632+00:00</time>
      </trkpt>
      <trkpt lat="45.63602" lon="5.65708">
        <ele>213</ele>
        <time>2025-05-01T11:38:24.691+00:00</time>
      </trkpt>
      <trkpt lat="45.63598" lon="5.65701">
        <ele>213</ele>
        <time>2025-05-01T11:38:29.233+00:00</time>
      </trkpt>
      <trkpt lat="45.63593" lon="5.65693">
        <ele>213</ele>
        <time>2025-05-01T11:38:33.992+00:00</time>
      </trkpt>
      <trkpt lat="45.63588" lon="5.65688">
        <ele>213</ele>
        <time>2025-05-01T11:38:38.143+00:00</time>
      </trkpt>
      <trkpt lat="45.63583" lon="5.65684">
        <ele>213</ele>
        <time>2025-05-01T11:38:42.247+00:00</time>
      </trkpt>
      <trkpt lat="45.63579" lon="5.65677">
        <ele>213</ele>
        <time>2025-05-01T11:38:46.923+00:00</time>
      </trkpt>
      <trkpt lat="45.63575" lon="5.65671">
        <ele>213</ele>
        <time>2025-05-01T11:38:51.093+00:00</time>
      </trkpt>
      <trkpt lat="45.6357" lon="5.65665">
        <ele>213</ele>
        <time>2025-05-01T11:38:55.220+00:00</time>
      </trkpt>
      <trkpt lat="45.63565" lon="5.65661">
        <ele>213</ele>
        <time>2025-05-01T11:38:59.236+00:00</time>
      </trkpt>
      <trkpt lat="45.63561" lon="5.65657">
        <ele>213</ele>
        <time>2025-05-01T11:39:04.071+00:00</time>
      </trkpt>
      <trkpt lat="45.63555" lon="5.6565">
        <ele>212</ele>
        <time>2025-05-01T11:39:08.824+00:00</time>
      </trkpt>
      <trkpt lat="45.63549" lon="5.65646">
        <ele>212</ele>
        <time>2025-05-01T11:39:12.971+00:00</time>
      </trkpt>
      <trkpt lat="45.63542" lon="5.65644">
        <ele>212</ele>
        <time>2025-05-01T11:39:17.236+00:00</time>
      </trkpt>
      <trkpt lat="45.63536" lon="5.6564">
        <ele>213</ele>
        <time>2025-05-01T11:39:21.610+00:00</time>
      </trkpt>
      <trkpt lat="45.6353" lon="5.65638">
        <ele>213</ele>
        <time>2025-05-01T11:39:26.210+00:00</time>
      </trkpt>
      <trkpt lat="45.63524" lon="5.65634">
        <ele>213</ele>
        <time>2025-05-01T11:39:30.230+00:00</time>
      </trkpt>
      <trkpt lat="45.63517" lon="5.65634">
        <ele>213</ele>
        <time>2025-05-01T11:39:34.871+00:00</time>
      </trkpt>
      <trkpt lat="45.63511" lon="5.65632">
        <ele>213</ele>
        <time>2025-05-01T11:39:39.410+00:00</time>
      </trkpt>
      <trkpt lat="45.63504" lon="5.65629">
        <ele>213</ele>
        <time>2025-05-01T11:39:43.929+00:00</time>
      </trkpt>
      <trkpt lat="45.63497" lon="5.65625">
        <ele>213</ele>
        <time>2025-05-01T11:39:48.452+00:00</time>
      </trkpt>
      <trkpt lat="45.63491" lon="5.65619">
        <ele>213</ele>
        <time>2025-05-01T11:39:53.089+00:00</time>
      </trkpt>
      <trkpt lat="45.63485" lon="5.65614">
        <ele>213</ele>
        <time>2025-05-01T11:39:57.650+00:00</time>
      </trkpt>
      <trkpt lat="45.6348" lon="5.65609">
        <ele>213</ele>
        <time>2025-05-01T11:40:02.071+00:00</time>
      </trkpt>
      <trkpt lat="45.63476" lon="5.65603">
        <ele>213</ele>
        <time>2025-05-01T11:40:06.233+00:00</time>
      </trkpt>
      <trkpt lat="45.63473" lon="5.65596">
        <ele>214</ele>
        <time>2025-05-01T11:40:10.351+00:00</time>
      </trkpt>
      <trkpt lat="45.63476" lon="5.65587">
        <ele>214</ele>
        <time>2025-05-01T11:40:14.751+00:00</time>
      </trkpt>
      <trkpt lat="45.63479" lon="5.6558">
        <ele>214</ele>
        <time>2025-05-01T11:40:18.810+00:00</time>
      </trkpt>
      <trkpt lat="45.63482" lon="5.65574">
        <ele>214</ele>
        <time>2025-05-01T11:40:22.928+00:00</time>
      </trkpt>
      <trkpt lat="45.63485" lon="5.65565">
        <ele>212</ele>
        <time>2025-05-01T11:40:26.967+00:00</time>
      </trkpt>
      <trkpt lat="45.63491" lon="5.65557">
        <ele>212</ele>
        <time>2025-05-01T11:40:31.241+00:00</time>
      </trkpt>
      <trkpt lat="45.63497" lon="5.65553">
        <ele>212</ele>
        <time>2025-05-01T11:40:35.687+00:00</time>
      </trkpt>
      <trkpt lat="45.635" lon="5.65546">
        <ele>212</ele>
        <time>2025-05-01T11:40:40.233+00:00</time>
      </trkpt>
      <trkpt lat="45.63504" lon="5.6554">
        <ele>212</ele>
        <time>2025-05-01T11:40:44.726+00:00</time>
      </trkpt>
      <trkpt lat="45.63507" lon="5.65535">
        <ele>212</ele>
        <time>2025-05-01T11:40:49.241+00:00</time>
      </trkpt>
      <trkpt lat="45.63508" lon="5.65533">
        <ele>212</ele>
        <time>2025-05-01T11:40:53.238+00:00</time>
      </trkpt>
      <trkpt lat="45.63507" lon="5.65534">
        <ele>212</ele>
        <time>2025-05-01T11:41:02.166+00:00</time>
      </trkpt>
      <trkpt lat="45.63507" lon="5.65534">
        <ele>212</ele>
        <time>2025-05-01T11:41:06.743+00:00</time>
      </trkpt>
      <trkpt lat="45.63509" lon="5.65534">
        <ele>212</ele>
        <time>2025-05-01T11:41:10.865+00:00</time>
      </trkpt>
      <trkpt lat="45.63514" lon="5.65534">
        <ele>212</ele>
        <time>2025-05-01T11:41:15.228+00:00</time>
      </trkpt>
      <trkpt lat="45.63516" lon="5.65533">
        <ele>212</ele>
        <time>2025-05-01T11:41:19.245+00:00</time>
      </trkpt>
      <trkpt lat="45.63517" lon="5.65532">
        <ele>212</ele>
        <time>2025-05-01T11:41:34.794+00:00</time>
      </trkpt>
      <trkpt lat="45.63517" lon="5.65531">
        <ele>212</ele>
        <time>2025-05-01T11:41:38.913+00:00</time>
      </trkpt>
      <trkpt lat="45.63516" lon="5.65527">
        <ele>212</ele>
        <time>2025-05-01T11:41:43.234+00:00</time>
      </trkpt>
      <trkpt lat="45.63512" lon="5.65519">
        <ele>212</ele>
        <time>2025-05-01T11:41:47.852+00:00</time>
      </trkpt>
      <trkpt lat="45.63508" lon="5.65512">
        <ele>212</ele>
        <time>2025-05-01T11:41:52.214+00:00</time>
      </trkpt>
      <trkpt lat="45.63502" lon="5.65504">
        <ele>212</ele>
        <time>2025-05-01T11:42:31.152+00:00</time>
      </trkpt>
      <trkpt lat="45.63502" lon="5.65504">
        <ele>212</ele>
        <time>2025-05-01T11:42:35.188+00:00</time>
      </trkpt>
      <trkpt lat="45.63502" lon="5.65503">
        <ele>212</ele>
        <time>2025-05-01T11:42:39.203+00:00</time>
      </trkpt>
      <trkpt lat="45.63502" lon="5.65501">
        <ele>212</ele>
        <time>2025-05-01T11:42:44.168+00:00</time>
      </trkpt>
      <trkpt lat="45.63501" lon="5.65489">
        <ele>212</ele>
        <time>2025-05-01T11:42:49.236+00:00</time>
      </trkpt>
      <trkpt lat="45.63502" lon="5.65486">
        <ele>212</ele>
        <time>2025-05-01T11:43:10.049+00:00</time>
      </trkpt>
      <trkpt lat="45.63505" lon="5.65493">
        <ele>212</ele>
        <time>2025-05-01T11:43:15.128+00:00</time>
      </trkpt>
      <trkpt lat="45.63509" lon="5.65501">
        <ele>212</ele>
        <time>2025-05-01T11:43:19.223+00:00</time>
      </trkpt>
      <trkpt lat="45.6351" lon="5.65503">
        <ele>212</ele>
        <time>2025-05-01T11:43:24.236+00:00</time>
      </trkpt>
      <trkpt lat="45.6351" lon="5.65504">
        <ele>212</ele>
        <time>2025-05-01T11:43:28.948+00:00</time>
      </trkpt>
      <trkpt lat="45.63515" lon="5.65504">
        <ele>212</ele>
        <time>2025-05-01T11:43:37.238+00:00</time>
      </trkpt>
      <trkpt lat="45.63516" lon="5.65503">
        <ele>212</ele>
        <time>2025-05-01T11:43:41.240+00:00</time>
      </trkpt>
      <trkpt lat="45.63518" lon="5.65502">
        <ele>212</ele>
        <time>2025-05-01T11:43:46.229+00:00</time>
      </trkpt>
      <trkpt lat="45.63519" lon="5.65502">
        <ele>212</ele>
        <time>2025-05-01T11:43:50.467+00:00</time>
      </trkpt>
      <trkpt lat="45.63523" lon="5.65499">
        <ele>212</ele>
        <time>2025-05-01T11:43:54.785+00:00</time>
      </trkpt>
      <trkpt lat="45.6353" lon="5.65493">
        <ele>212</ele>
        <time>2025-05-01T11:43:59.232+00:00</time>
      </trkpt>
      <trkpt lat="45.63536" lon="5.65488">
        <ele>212</ele>
        <time>2025-05-01T11:44:04.221+00:00</time>
      </trkpt>
      <trkpt lat="45.63535" lon="5.65486">
        <ele>212</ele>
        <time>2025-05-01T11:44:08.230+00:00</time>
      </trkpt>
      <trkpt lat="45.63536" lon="5.65484">
        <ele>212</ele>
        <time>2025-05-01T11:44:13.236+00:00</time>
      </trkpt>
      <trkpt lat="45.63537" lon="5.65483">
        <ele>212</ele>
        <time>2025-05-01T11:44:17.238+00:00</time>
      </trkpt>
      <trkpt lat="45.63538" lon="5.65482">
        <ele>212</ele>
        <time>2025-05-01T11:44:22.237+00:00</time>
      </trkpt>
      <trkpt lat="45.63538" lon="5.65481">
        <ele>212</ele>
        <time>2025-05-01T11:44:28.227+00:00</time>
      </trkpt>
      <trkpt lat="45.63539" lon="5.6548">
        <ele>212</ele>
        <time>2025-05-01T11:44:32.234+00:00</time>
      </trkpt>
      <trkpt lat="45.63539" lon="5.6548">
        <ele>212</ele>
        <time>2025-05-01T11:44:37.163+00:00</time>
      </trkpt>
      <trkpt lat="45.63542" lon="5.6547">
        <ele>212</ele>
        <time>2025-05-01T11:44:41.585+00:00</time>
      </trkpt>
      <trkpt lat="45.63545" lon="5.65463">
        <ele>212</ele>
        <time>2025-05-01T11:44:45.764+00:00</time>
      </trkpt>
      <trkpt lat="45.6355" lon="5.65458">
        <ele>212</ele>
        <time>2025-05-01T11:44:49.903+00:00</time>
      </trkpt>
      <trkpt lat="45.63555" lon="5.65454">
        <ele>212</ele>
        <time>2025-05-01T11:44:53.982+00:00</time>
      </trkpt>
      <trkpt lat="45.63559" lon="5.65449">
        <ele>212</ele>
        <time>2025-05-01T11:44:58.163+00:00</time>
      </trkpt>
      <trkpt lat="45.63564" lon="5.65443">
        <ele>212</ele>
        <time>2025-05-01T11:45:02.624+00:00</time>
      </trkpt>
      <trkpt lat="45.63568" lon="5.65436">
        <ele>212</ele>
        <time>2025-05-01T11:45:06.853+00:00</time>
      </trkpt>
      <trkpt lat="45.63572" lon="5.65431">
        <ele>212</ele>
        <time>2025-05-01T11:45:10.992+00:00</time>
      </trkpt>
      <trkpt lat="45.63575" lon="5.65424">
        <ele>212</ele>
        <time>2025-05-01T11:45:15.237+00:00</time>
      </trkpt>
      <trkpt lat="45.63578" lon="5.65417">
        <ele>212</ele>
        <time>2025-05-01T11:45:19.236+00:00</time>
      </trkpt>
      <trkpt lat="45.63583" lon="5.65411">
        <ele>212</ele>
        <time>2025-05-01T11:45:23.610+00:00</time>
      </trkpt>
      <trkpt lat="45.63588" lon="5.65405">
        <ele>212</ele>
        <time>2025-05-01T11:45:28.236+00:00</time>
      </trkpt>
      <trkpt lat="45.63593" lon="5.65398">
        <ele>212</ele>
        <time>2025-05-01T11:45:33.244+00:00</time>
      </trkpt>
      <trkpt lat="45.63597" lon="5.65391">
        <ele>213</ele>
        <time>2025-05-01T11:45:37.690+00:00</time>
      </trkpt>
      <trkpt lat="45.63601" lon="5.65386">
        <ele>213</ele>
        <time>2025-05-01T11:45:41.730+00:00</time>
      </trkpt>
      <trkpt lat="45.63607" lon="5.6538">
        <ele>213</ele>
        <time>2025-05-01T11:45:46.233+00:00</time>
      </trkpt>
      <trkpt lat="45.63611" lon="5.65376">
        <ele>213</ele>
        <time>2025-05-01T11:45:50.770+00:00</time>
      </trkpt>
      <trkpt lat="45.63616" lon="5.65377">
        <ele>213</ele>
        <time>2025-05-01T11:45:55.226+00:00</time>
      </trkpt>
      <trkpt lat="45.63623" lon="5.65381">
        <ele>213</ele>
        <time>2025-05-01T11:46:00.221+00:00</time>
      </trkpt>
      <trkpt lat="45.63626" lon="5.65383">
        <ele>216</ele>
        <time>2025-05-01T11:46:04.248+00:00</time>
      </trkpt>
      <trkpt lat="45.63627" lon="5.65385">
        <ele>216</ele>
        <time>2025-05-01T11:46:09.251+00:00</time>
      </trkpt>
      <trkpt lat="45.63629" lon="5.65388">
        <ele>216</ele>
        <time>2025-05-01T11:47:28.190+00:00</time>
      </trkpt>
      <trkpt lat="45.63629" lon="5.65388">
        <ele>216</ele>
        <time>2025-05-01T11:47:33.186+00:00</time>
      </trkpt>
      <trkpt lat="45.63629" lon="5.65388">
        <ele>216</ele>
        <time>2025-05-01T11:47:38.184+00:00</time>
      </trkpt>
      <trkpt lat="45.63628" lon="5.65393">
        <ele>216</ele>
        <time>2025-05-01T11:47:42.237+00:00</time>
      </trkpt>
      <trkpt lat="45.63627" lon="5.65399">
        <ele>216</ele>
        <time>2025-05-01T11:47:47.234+00:00</time>
      </trkpt>
      <trkpt lat="45.63629" lon="5.65406">
        <ele>216</ele>
        <time>2025-05-01T11:47:51.710+00:00</time>
      </trkpt>
      <trkpt lat="45.6363" lon="5.65414">
        <ele>216</ele>
        <time>2025-05-01T11:47:56.191+00:00</time>
      </trkpt>
      <trkpt lat="45.63631" lon="5.6542">
        <ele>216</ele>
        <time>2025-05-01T11:48:00.235+00:00</time>
      </trkpt>
      <trkpt lat="45.63632" lon="5.65421">
        <ele>216</ele>
        <time>2025-05-01T11:48:05.230+00:00</time>
      </trkpt>
      <trkpt lat="45.63632" lon="5.65421">
        <ele>216</ele>
        <time>2025-05-01T11:48:33.236+00:00</time>
      </trkpt>
      <trkpt lat="45.63703" lon="5.65165">
        <ele>210</ele>
        <time>2025-05-01T12:57:21.738+00:00</time>
      </trkpt>
      <trkpt lat="45.63696" lon="5.65161">
        <ele>210</ele>
        <time>2025-05-01T12:57:26.586+00:00</time>
      </trkpt>
      <trkpt lat="45.63696" lon="5.65151">
        <ele>211</ele>
        <time>2025-05-01T12:57:31.228+00:00</time>
      </trkpt>
      <trkpt lat="45.63696" lon="5.65148">
        <ele>211</ele>
        <time>2025-05-01T12:57:36.235+00:00</time>
      </trkpt>
      <trkpt lat="45.63693" lon="5.65145">
        <ele>211</ele>
        <time>2025-05-01T12:57:41.077+00:00</time>
      </trkpt>
      <trkpt lat="45.63685" lon="5.65144">
        <ele>211</ele>
        <time>2025-05-01T12:57:45.796+00:00</time>
      </trkpt>
      <trkpt lat="45.6368" lon="5.65147">
        <ele>212</ele>
        <time>2025-05-01T12:57:49.827+00:00</time>
      </trkpt>
      <trkpt lat="45.63674" lon="5.65147">
        <ele>212</ele>
        <time>2025-05-01T12:57:54.043+00:00</time>
      </trkpt>
      <trkpt lat="45.63672" lon="5.65145">
        <ele>212</ele>
        <time>2025-05-01T12:57:58.221+00:00</time>
      </trkpt>
      <trkpt lat="45.63673" lon="5.65145">
        <ele>212</ele>
        <time>2025-05-01T12:58:02.722+00:00</time>
      </trkpt>
      <trkpt lat="45.63674" lon="5.65145">
        <ele>212</ele>
        <time>2025-05-01T12:58:08.099+00:00</time>
      </trkpt>
      <trkpt lat="45.63678" lon="5.65144">
        <ele>212</ele>
        <time>2025-05-01T12:58:12.120+00:00</time>
      </trkpt>
      <trkpt lat="45.63686" lon="5.65146">
        <ele>211</ele>
        <time>2025-05-01T12:58:16.222+00:00</time>
      </trkpt>
      <trkpt lat="45.63693" lon="5.65144">
        <ele>211</ele>
        <time>2025-05-01T12:58:20.577+00:00</time>
      </trkpt>
      <trkpt lat="45.63698" lon="5.6514">
        <ele>211</ele>
        <time>2025-05-01T12:58:25.038+00:00</time>
      </trkpt>
      <trkpt lat="45.63702" lon="5.65133">
        <ele>211</ele>
        <time>2025-05-01T12:58:29.220+00:00</time>
      </trkpt>
      <trkpt lat="45.637" lon="5.65124">
        <ele>212</ele>
        <time>2025-05-01T12:58:34.216+00:00</time>
      </trkpt>
      <trkpt lat="45.63698" lon="5.65116">
        <ele>212</ele>
        <time>2025-05-01T12:58:38.889+00:00</time>
      </trkpt>
      <trkpt lat="45.63695" lon="5.6511">
        <ele>212</ele>
        <time>2025-05-01T12:58:43.184+00:00</time>
      </trkpt>
      <trkpt lat="45.63692" lon="5.65104">
        <ele>212</ele>
        <time>2025-05-01T12:58:47.204+00:00</time>
      </trkpt>
      <trkpt lat="45.63688" lon="5.65097">
        <ele>212</ele>
        <time>2025-05-01T12:58:51.504+00:00</time>
      </trkpt>
      <trkpt lat="45.63683" lon="5.65091">
        <ele>213</ele>
        <time>2025-05-01T12:58:56.225+00:00</time>
      </trkpt>
      <trkpt lat="45.6368" lon="5.65084">
        <ele>213</ele>
        <time>2025-05-01T12:59:00.219+00:00</time>
      </trkpt>
      <trkpt lat="45.63676" lon="5.65077">
        <ele>213</ele>
        <time>2025-05-01T12:59:04.763+00:00</time>
      </trkpt>
      <trkpt lat="45.63671" lon="5.65071">
        <ele>213</ele>
        <time>2025-05-01T12:59:08.982+00:00</time>
      </trkpt>
      <trkpt lat="45.63668" lon="5.65063">
        <ele>213</ele>
        <time>2025-05-01T12:59:13.214+00:00</time>
      </trkpt>
      <trkpt lat="45.63664" lon="5.65058">
        <ele>213</ele>
        <time>2025-05-01T12:59:17.441+00:00</time>
      </trkpt>
      <trkpt lat="45.6366" lon="5.65051">
        <ele>213</ele>
        <time>2025-05-01T12:59:21.720+00:00</time>
      </trkpt>
      <trkpt lat="45.63656" lon="5.65046">
        <ele>213</ele>
        <time>2025-05-01T12:59:25.922+00:00</time>
      </trkpt>
      <trkpt lat="45.63651" lon="5.65043">
        <ele>214</ele>
        <time>2025-05-01T12:59:30.179+00:00</time>
      </trkpt>
      <trkpt lat="45.63647" lon="5.65038">
        <ele>213</ele>
        <time>2025-05-01T12:59:34.541+00:00</time>
      </trkpt>
      <trkpt lat="45.63644" lon="5.65031">
        <ele>213</ele>
        <time>2025-05-01T12:59:38.760+00:00</time>
      </trkpt>
      <trkpt lat="45.6364" lon="5.65024">
        <ele>213</ele>
        <time>2025-05-01T12:59:42.920+00:00</time>
      </trkpt>
      <trkpt lat="45.63635" lon="5.65018">
        <ele>213</ele>
        <time>2025-05-01T12:59:47.119+00:00</time>
      </trkpt>
      <trkpt lat="45.63629" lon="5.65012">
        <ele>213</ele>
        <time>2025-05-01T12:59:51.210+00:00</time>
      </trkpt>
      <trkpt lat="45.63625" lon="5.65006">
        <ele>214</ele>
        <time>2025-05-01T12:59:56.210+00:00</time>
      </trkpt>
      <trkpt lat="45.63621" lon="5.65">
        <ele>214</ele>
        <time>2025-05-01T13:00:00.480+00:00</time>
      </trkpt>
      <trkpt lat="45.63616" lon="5.64993">
        <ele>214</ele>
        <time>2025-05-01T13:00:04.760+00:00</time>
      </trkpt>
      <trkpt lat="45.63611" lon="5.64988">
        <ele>214</ele>
        <time>2025-05-01T13:00:08.920+00:00</time>
      </trkpt>
      <trkpt lat="45.63607" lon="5.64982">
        <ele>214</ele>
        <time>2025-05-01T13:00:13.100+00:00</time>
      </trkpt>
      <trkpt lat="45.63603" lon="5.64976">
        <ele>214</ele>
        <time>2025-05-01T13:00:17.212+00:00</time>
      </trkpt>
      <trkpt lat="45.636" lon="5.6497">
        <ele>214</ele>
        <time>2025-05-01T13:00:21.842+00:00</time>
      </trkpt>
      <trkpt lat="45.63596" lon="5.64963">
        <ele>214</ele>
        <time>2025-05-01T13:00:25.978+00:00</time>
      </trkpt>
      <trkpt lat="45.63593" lon="5.64957">
        <ele>214</ele>
        <time>2025-05-01T13:00:30.203+00:00</time>
      </trkpt>
      <trkpt lat="45.63588" lon="5.64952">
        <ele>214</ele>
        <time>2025-05-01T13:00:34.481+00:00</time>
      </trkpt>
      <trkpt lat="45.63584" lon="5.64945">
        <ele>214</ele>
        <time>2025-05-01T13:00:38.614+00:00</time>
      </trkpt>
      <trkpt lat="45.63579" lon="5.6494">
        <ele>214</ele>
        <time>2025-05-01T13:00:42.858+00:00</time>
      </trkpt>
      <trkpt lat="45.63574" lon="5.6494">
        <ele>214</ele>
        <time>2025-05-01T13:00:47+00:00</time>
      </trkpt>
      <trkpt lat="45.63569" lon="5.6494">
        <ele>213</ele>
        <time>2025-05-01T13:00:51.601+00:00</time>
      </trkpt>
      <trkpt lat="45.63564" lon="5.64938">
        <ele>213</ele>
        <time>2025-05-01T13:00:55.739+00:00</time>
      </trkpt>
      <trkpt lat="45.63558" lon="5.64936">
        <ele>213</ele>
        <time>2025-05-01T13:01:00.178+00:00</time>
      </trkpt>
      <trkpt lat="45.63552" lon="5.64937">
        <ele>213</ele>
        <time>2025-05-01T13:01:04.417+00:00</time>
      </trkpt>
      <trkpt lat="45.63546" lon="5.64933">
        <ele>213</ele>
        <time>2025-05-01T13:01:09.097+00:00</time>
      </trkpt>
      <trkpt lat="45.63546" lon="5.64929">
        <ele>213</ele>
        <time>2025-05-01T13:01:13.211+00:00</time>
      </trkpt>
      <trkpt lat="45.63545" lon="5.64929">
        <ele>213</ele>
        <time>2025-05-01T13:01:17.677+00:00</time>
      </trkpt>
      <trkpt lat="45.63545" lon="5.64928">
        <ele>213</ele>
        <time>2025-05-01T13:01:21.857+00:00</time>
      </trkpt>
      <trkpt lat="45.6354" lon="5.64927">
        <ele>212</ele>
        <time>2025-05-01T13:01:25.875+00:00</time>
      </trkpt>
      <trkpt lat="45.63535" lon="5.64929">
        <ele>212</ele>
        <time>2025-05-01T13:01:29.905+00:00</time>
      </trkpt>
      <trkpt lat="45.63529" lon="5.64931">
        <ele>213</ele>
        <time>2025-05-01T13:02:01.224+00:00</time>
      </trkpt>
      <trkpt lat="45.63535" lon="5.64929">
        <ele>212</ele>
        <time>2025-05-01T13:02:06.099+00:00</time>
      </trkpt>
      <trkpt lat="45.63544" lon="5.64926">
        <ele>213</ele>
        <time>2025-05-01T13:02:10.559+00:00</time>
      </trkpt>
      <trkpt lat="45.63549" lon="5.64921">
        <ele>213</ele>
        <time>2025-05-01T13:02:14.598+00:00</time>
      </trkpt>
      <trkpt lat="45.63553" lon="5.64915">
        <ele>213</ele>
        <time>2025-05-01T13:02:19.206+00:00</time>
      </trkpt>
      <trkpt lat="45.63553" lon="5.64914">
        <ele>213</ele>
        <time>2025-05-01T13:02:24.224+00:00</time>
      </trkpt>
      <trkpt lat="45.63553" lon="5.64914">
        <ele>213</ele>
        <time>2025-05-01T13:02:28.865+00:00</time>
      </trkpt>
      <trkpt lat="45.63553" lon="5.64909">
        <ele>213</ele>
        <time>2025-05-01T13:02:33.230+00:00</time>
      </trkpt>
      <trkpt lat="45.63551" lon="5.649">
        <ele>213</ele>
        <time>2025-05-01T13:02:37.644+00:00</time>
      </trkpt>
      <trkpt lat="45.63545" lon="5.64894">
        <ele>213</ele>
        <time>2025-05-01T13:02:41.905+00:00</time>
      </trkpt>
      <trkpt lat="45.6354" lon="5.64887">
        <ele>213</ele>
        <time>2025-05-01T13:02:46.082+00:00</time>
      </trkpt>
      <trkpt lat="45.63536" lon="5.64881">
        <ele>213</ele>
        <time>2025-05-01T13:02:50.224+00:00</time>
      </trkpt>
      <trkpt lat="45.63532" lon="5.64875">
        <ele>213</ele>
        <time>2025-05-01T13:02:55.224+00:00</time>
      </trkpt>
      <trkpt lat="45.63528" lon="5.6487">
        <ele>215</ele>
        <time>2025-05-01T13:02:59.222+00:00</time>
      </trkpt>
      <trkpt lat="45.63524" lon="5.64865">
        <ele>215</ele>
        <time>2025-05-01T13:03:03.223+00:00</time>
      </trkpt>
      <trkpt lat="45.63519" lon="5.64859">
        <ele>215</ele>
        <time>2025-05-01T13:03:07.763+00:00</time>
      </trkpt>
      <trkpt lat="45.63515" lon="5.64853">
        <ele>215</ele>
        <time>2025-05-01T13:03:12.081+00:00</time>
      </trkpt>
      <trkpt lat="45.6351" lon="5.64846">
        <ele>214</ele>
        <time>2025-05-01T13:03:16.181+00:00</time>
      </trkpt>
      <trkpt lat="45.63506" lon="5.64838">
        <ele>214</ele>
        <time>2025-05-01T13:03:20.979+00:00</time>
      </trkpt>
      <trkpt lat="45.63502" lon="5.64831">
        <ele>214</ele>
        <time>2025-05-01T13:03:25.006+00:00</time>
      </trkpt>
      <trkpt lat="45.63498" lon="5.64824">
        <ele>214</ele>
        <time>2025-05-01T13:03:29.920+00:00</time>
      </trkpt>
      <trkpt lat="45.63493" lon="5.64818">
        <ele>214</ele>
        <time>2025-05-01T13:03:34.739+00:00</time>
      </trkpt>
      <trkpt lat="45.63488" lon="5.64814">
        <ele>214</ele>
        <time>2025-05-01T13:03:39.214+00:00</time>
      </trkpt>
      <trkpt lat="45.63483" lon="5.64809">
        <ele>212</ele>
        <time>2025-05-01T13:03:43.539+00:00</time>
      </trkpt>
      <trkpt lat="45.63479" lon="5.64803">
        <ele>212</ele>
        <time>2025-05-01T13:03:48.120+00:00</time>
      </trkpt>
      <trkpt lat="45.63475" lon="5.64796">
        <ele>212</ele>
        <time>2025-05-01T13:03:52.579+00:00</time>
      </trkpt>
      <trkpt lat="45.63472" lon="5.64788">
        <ele>212</ele>
        <time>2025-05-01T13:03:56.797+00:00</time>
      </trkpt>
      <trkpt lat="45.63467" lon="5.64781">
        <ele>212</ele>
        <time>2025-05-01T13:04:01.217+00:00</time>
      </trkpt>
      <trkpt lat="45.63462" lon="5.64774">
        <ele>212</ele>
        <time>2025-05-01T13:04:05.759+00:00</time>
      </trkpt>
      <trkpt lat="45.63458" lon="5.64769">
        <ele>213</ele>
        <time>2025-05-01T13:04:10.219+00:00</time>
      </trkpt>
      <trkpt lat="45.63457" lon="5.64764">
        <ele>213</ele>
        <time>2025-05-01T13:04:15.166+00:00</time>
      </trkpt>
      <trkpt lat="45.63457" lon="5.64757">
        <ele>213</ele>
        <time>2025-05-01T13:04:19.218+00:00</time>
      </trkpt>
      <trkpt lat="45.63454" lon="5.6475">
        <ele>213</ele>
        <time>2025-05-01T13:04:23.944+00:00</time>
      </trkpt>
      <trkpt lat="45.63448" lon="5.64745">
        <ele>213</ele>
        <time>2025-05-01T13:04:28.086+00:00</time>
      </trkpt>
      <trkpt lat="45.63445" lon="5.64739">
        <ele>213</ele>
        <time>2025-05-01T13:04:32.246+00:00</time>
      </trkpt>
      <trkpt lat="45.6344" lon="5.64733">
        <ele>213</ele>
        <time>2025-05-01T13:04:36.945+00:00</time>
      </trkpt>
      <trkpt lat="45.63436" lon="5.64727">
        <ele>213</ele>
        <time>2025-05-01T13:04:41.026+00:00</time>
      </trkpt>
      <trkpt lat="45.63432" lon="5.6472">
        <ele>213</ele>
        <time>2025-05-01T13:04:45.567+00:00</time>
      </trkpt>
      <trkpt lat="45.63427" lon="5.64714">
        <ele>212</ele>
        <time>2025-05-01T13:04:49.665+00:00</time>
      </trkpt>
      <trkpt lat="45.63423" lon="5.64707">
        <ele>213</ele>
        <time>2025-05-01T13:04:53.765+00:00</time>
      </trkpt>
      <trkpt lat="45.6342" lon="5.64699">
        <ele>213</ele>
        <time>2025-05-01T13:04:58.004+00:00</time>
      </trkpt>
      <trkpt lat="45.63418" lon="5.64692">
        <ele>213</ele>
        <time>2025-05-01T13:05:02.042+00:00</time>
      </trkpt>
      <trkpt lat="45.63414" lon="5.64685">
        <ele>213</ele>
        <time>2025-05-01T13:05:06.122+00:00</time>
      </trkpt>
      <trkpt lat="45.63411" lon="5.64677">
        <ele>213</ele>
        <time>2025-05-01T13:05:10.159+00:00</time>
      </trkpt>
      <trkpt lat="45.63408" lon="5.64669">
        <ele>213</ele>
        <time>2025-05-01T13:05:14.178+00:00</time>
      </trkpt>
      <trkpt lat="45.63404" lon="5.6466">
        <ele>213</ele>
        <time>2025-05-01T13:05:18.599+00:00</time>
      </trkpt>
      <trkpt lat="45.63401" lon="5.64653">
        <ele>214</ele>
        <time>2025-05-01T13:05:22.601+00:00</time>
      </trkpt>
      <trkpt lat="45.634" lon="5.64644">
        <ele>214</ele>
        <time>2025-05-01T13:05:26.605+00:00</time>
      </trkpt>
      <trkpt lat="45.63399" lon="5.64635">
        <ele>214</ele>
        <time>2025-05-01T13:05:31.225+00:00</time>
      </trkpt>
      <trkpt lat="45.63399" lon="5.64626">
        <ele>214</ele>
        <time>2025-05-01T13:05:35.443+00:00</time>
      </trkpt>
      <trkpt lat="45.634" lon="5.64619">
        <ele>219</ele>
        <time>2025-05-01T13:05:39.544+00:00</time>
      </trkpt>
      <trkpt lat="45.634" lon="5.6461">
        <ele>219</ele>
        <time>2025-05-01T13:05:44.218+00:00</time>
      </trkpt>
      <trkpt lat="45.63398" lon="5.64601">
        <ele>219</ele>
        <time>2025-05-01T13:05:48.563+00:00</time>
      </trkpt>
      <trkpt lat="45.63396" lon="5.64591">
        <ele>222</ele>
        <time>2025-05-01T13:05:53.230+00:00</time>
      </trkpt>
      <trkpt lat="45.63395" lon="5.64582">
        <ele>222</ele>
        <time>2025-05-01T13:05:57.822+00:00</time>
      </trkpt>
      <trkpt lat="45.63396" lon="5.64574">
        <ele>222</ele>
        <time>2025-05-01T13:06:01.901+00:00</time>
      </trkpt>
      <trkpt lat="45.63397" lon="5.64566">
        <ele>223</ele>
        <time>2025-05-01T13:06:06.025+00:00</time>
      </trkpt>
      <trkpt lat="45.63399" lon="5.64558">
        <ele>223</ele>
        <time>2025-05-01T13:06:10.207+00:00</time>
      </trkpt>
      <trkpt lat="45.634" lon="5.64547">
        <ele>223</ele>
        <time>2025-05-01T13:06:15.235+00:00</time>
      </trkpt>
      <trkpt lat="45.63402" lon="5.64538">
        <ele>225</ele>
        <time>2025-05-01T13:06:19.481+00:00</time>
      </trkpt>
      <trkpt lat="45.63404" lon="5.64529">
        <ele>212</ele>
        <time>2025-05-01T13:06:24.080+00:00</time>
      </trkpt>
      <trkpt lat="45.63407" lon="5.64522">
        <ele>212</ele>
        <time>2025-05-01T13:06:28.100+00:00</time>
      </trkpt>
      <trkpt lat="45.63407" lon="5.64515">
        <ele>212</ele>
        <time>2025-05-01T13:06:32.680+00:00</time>
      </trkpt>
      <trkpt lat="45.63409" lon="5.64506">
        <ele>222</ele>
        <time>2025-05-01T13:06:36.739+00:00</time>
      </trkpt>
      <trkpt lat="45.63411" lon="5.64498">
        <ele>222</ele>
        <time>2025-05-01T13:06:40.879+00:00</time>
      </trkpt>
      <trkpt lat="45.63413" lon="5.64491">
        <ele>222</ele>
        <time>2025-05-01T13:06:44.900+00:00</time>
      </trkpt>
      <trkpt lat="45.63416" lon="5.64483">
        <ele>221</ele>
        <time>2025-05-01T13:06:49.059+00:00</time>
      </trkpt>
      <trkpt lat="45.63418" lon="5.64475">
        <ele>221</ele>
        <time>2025-05-01T13:06:53.159+00:00</time>
      </trkpt>
      <trkpt lat="45.6342" lon="5.64467">
        <ele>221</ele>
        <time>2025-05-01T13:06:57.210+00:00</time>
      </trkpt>
      <trkpt lat="45.63423" lon="5.64459">
        <ele>221</ele>
        <time>2025-05-01T13:07:01.378+00:00</time>
      </trkpt>
      <trkpt lat="45.63426" lon="5.64452">
        <ele>223</ele>
        <time>2025-05-01T13:07:05.437+00:00</time>
      </trkpt>
      <trkpt lat="45.63429" lon="5.64444">
        <ele>223</ele>
        <time>2025-05-01T13:07:09.538+00:00</time>
      </trkpt>
      <trkpt lat="45.63432" lon="5.64437">
        <ele>216</ele>
        <time>2025-05-01T13:07:13.718+00:00</time>
      </trkpt>
      <trkpt lat="45.63434" lon="5.64428">
        <ele>221</ele>
        <time>2025-05-01T13:07:18.237+00:00</time>
      </trkpt>
      <trkpt lat="45.63437" lon="5.64418">
        <ele>221</ele>
        <time>2025-05-01T13:07:23.057+00:00</time>
      </trkpt>
      <trkpt lat="45.63439" lon="5.64409">
        <ele>221</ele>
        <time>2025-05-01T13:07:27.249+00:00</time>
      </trkpt>
      <trkpt lat="45.63441" lon="5.644">
        <ele>226</ele>
        <time>2025-05-01T13:07:31.698+00:00</time>
      </trkpt>
      <trkpt lat="45.63444" lon="5.64392">
        <ele>226</ele>
        <time>2025-05-01T13:07:36.028+00:00</time>
      </trkpt>
      <trkpt lat="45.63447" lon="5.64385">
        <ele>226</ele>
        <time>2025-05-01T13:07:40.186+00:00</time>
      </trkpt>
      <trkpt lat="45.63449" lon="5.64377">
        <ele>226</ele>
        <time>2025-05-01T13:07:44.216+00:00</time>
      </trkpt>
      <trkpt lat="45.6345" lon="5.64368">
        <ele>225</ele>
        <time>2025-05-01T13:07:49.220+00:00</time>
      </trkpt>
      <trkpt lat="45.63452" lon="5.64359">
        <ele>225</ele>
        <time>2025-05-01T13:07:54.229+00:00</time>
      </trkpt>
      <trkpt lat="45.63452" lon="5.6435">
        <ele>225</ele>
        <time>2025-05-01T13:07:58.324+00:00</time>
      </trkpt>
      <trkpt lat="45.63453" lon="5.64341">
        <ele>224</ele>
        <time>2025-05-01T13:08:03.026+00:00</time>
      </trkpt>
      <trkpt lat="45.63453" lon="5.64333">
        <ele>224</ele>
        <time>2025-05-01T13:08:07.083+00:00</time>
      </trkpt>
      <trkpt lat="45.63453" lon="5.64324">
        <ele>224</ele>
        <time>2025-05-01T13:08:11.144+00:00</time>
      </trkpt>
      <trkpt lat="45.63453" lon="5.64316">
        <ele>225</ele>
        <time>2025-05-01T13:08:15.234+00:00</time>
      </trkpt>
      <trkpt lat="45.63454" lon="5.64306">
        <ele>225</ele>
        <time>2025-05-01T13:08:19.862+00:00</time>
      </trkpt>
      <trkpt lat="45.63455" lon="5.64297">
        <ele>225</ele>
        <time>2025-05-01T13:08:23.982+00:00</time>
      </trkpt>
      <trkpt lat="45.63457" lon="5.64287">
        <ele>227</ele>
        <time>2025-05-01T13:08:29.121+00:00</time>
      </trkpt>
      <trkpt lat="45.63459" lon="5.64278">
        <ele>220</ele>
        <time>2025-05-01T13:08:33.201+00:00</time>
      </trkpt>
      <trkpt lat="45.6346" lon="5.6427">
        <ele>220</ele>
        <time>2025-05-01T13:08:37.234+00:00</time>
      </trkpt>
      <trkpt lat="45.63462" lon="5.64261">
        <ele>222</ele>
        <time>2025-05-01T13:08:41.521+00:00</time>
      </trkpt>
      <trkpt lat="45.63464" lon="5.64252">
        <ele>222</ele>
        <time>2025-05-01T13:08:46.123+00:00</time>
      </trkpt>
      <trkpt lat="45.63466" lon="5.64244">
        <ele>222</ele>
        <time>2025-05-01T13:08:50.178+00:00</time>
      </trkpt>
      <trkpt lat="45.63467" lon="5.64235">
        <ele>222</ele>
        <time>2025-05-01T13:08:54.229+00:00</time>
      </trkpt>
      <trkpt lat="45.6347" lon="5.64226">
        <ele>222</ele>
        <time>2025-05-01T13:08:58.877+00:00</time>
      </trkpt>
      <trkpt lat="45.63472" lon="5.64217">
        <ele>222</ele>
        <time>2025-05-01T13:09:03.226+00:00</time>
      </trkpt>
      <trkpt lat="45.63476" lon="5.6421">
        <ele>222</ele>
        <time>2025-05-01T13:09:07.538+00:00</time>
      </trkpt>
      <trkpt lat="45.6348" lon="5.64202">
        <ele>224</ele>
        <time>2025-05-01T13:09:12.116+00:00</time>
      </trkpt>
      <trkpt lat="45.63485" lon="5.64196">
        <ele>224</ele>
        <time>2025-05-01T13:09:16.222+00:00</time>
      </trkpt>
      <trkpt lat="45.63489" lon="5.64187">
        <ele>223</ele>
        <time>2025-05-01T13:09:21.165+00:00</time>
      </trkpt>
      <trkpt lat="45.63493" lon="5.6418">
        <ele>225</ele>
        <time>2025-05-01T13:09:25.223+00:00</time>
      </trkpt>
      <trkpt lat="45.63499" lon="5.64174">
        <ele>225</ele>
        <time>2025-05-01T13:09:30.215+00:00</time>
      </trkpt>
      <trkpt lat="45.63505" lon="5.64166">
        <ele>225</ele>
        <time>2025-05-01T13:09:35.003+00:00</time>
      </trkpt>
      <trkpt lat="45.63509" lon="5.6416">
        <ele>225</ele>
        <time>2025-05-01T13:09:39.004+00:00</time>
      </trkpt>
      <trkpt lat="45.63515" lon="5.64152">
        <ele>224</ele>
        <time>2025-05-01T13:09:43.565+00:00</time>
      </trkpt>
      <trkpt lat="45.6352" lon="5.64147">
        <ele>224</ele>
        <time>2025-05-01T13:09:47.627+00:00</time>
      </trkpt>
      <trkpt lat="45.63525" lon="5.64144">
        <ele>224</ele>
        <time>2025-05-01T13:09:51.763+00:00</time>
      </trkpt>
      <trkpt lat="45.63531" lon="5.64144">
        <ele>224</ele>
        <time>2025-05-01T13:09:56.084+00:00</time>
      </trkpt>
      <trkpt lat="45.63536" lon="5.64143">
        <ele>224</ele>
        <time>2025-05-01T13:10:00.232+00:00</time>
      </trkpt>
      <trkpt lat="45.63541" lon="5.64141">
        <ele>224</ele>
        <time>2025-05-01T13:10:04.782+00:00</time>
      </trkpt>
      <trkpt lat="45.63547" lon="5.64137">
        <ele>221</ele>
        <time>2025-05-01T13:10:09.249+00:00</time>
      </trkpt>
      <trkpt lat="45.63551" lon="5.64132">
        <ele>221</ele>
        <time>2025-05-01T13:10:13.401+00:00</time>
      </trkpt>
      <trkpt lat="45.63556" lon="5.64127">
        <ele>221</ele>
        <time>2025-05-01T13:10:17.602+00:00</time>
      </trkpt>
      <trkpt lat="45.63562" lon="5.64124">
        <ele>224</ele>
        <time>2025-05-01T13:10:21.801+00:00</time>
      </trkpt>
      <trkpt lat="45.63569" lon="5.64125">
        <ele>221</ele>
        <time>2025-05-01T13:10:25.961+00:00</time>
      </trkpt>
      <trkpt lat="45.63576" lon="5.64133">
        <ele>222</ele>
        <time>2025-05-01T13:12:21.216+00:00</time>
      </trkpt>
      <trkpt lat="45.63582" lon="5.64128">
        <ele>222</ele>
        <time>2025-05-01T13:12:25.588+00:00</time>
      </trkpt>
      <trkpt lat="45.6359" lon="5.64125">
        <ele>222</ele>
        <time>2025-05-01T13:12:30.007+00:00</time>
      </trkpt>
      <trkpt lat="45.63598" lon="5.64126">
        <ele>222</ele>
        <time>2025-05-01T13:12:35.232+00:00</time>
      </trkpt>
      <trkpt lat="45.63602" lon="5.64133">
        <ele>222</ele>
        <time>2025-05-01T13:12:39.987+00:00</time>
      </trkpt>
      <trkpt lat="45.63602" lon="5.64136">
        <ele>222</ele>
        <time>2025-05-01T13:14:01.141+00:00</time>
      </trkpt>
      <trkpt lat="45.63603" lon="5.64129">
        <ele>222</ele>
        <time>2025-05-01T13:14:05.840+00:00</time>
      </trkpt>
      <trkpt lat="45.63609" lon="5.64124">
        <ele>223</ele>
        <time>2025-05-01T13:14:10.224+00:00</time>
      </trkpt>
      <trkpt lat="45.63616" lon="5.64123">
        <ele>223</ele>
        <time>2025-05-01T13:14:14.939+00:00</time>
      </trkpt>
      <trkpt lat="45.63623" lon="5.64127">
        <ele>222</ele>
        <time>2025-05-01T13:14:19.199+00:00</time>
      </trkpt>
      <trkpt lat="45.63629" lon="5.64133">
        <ele>223</ele>
        <time>2025-05-01T13:14:23.499+00:00</time>
      </trkpt>
      <trkpt lat="45.63636" lon="5.64139">
        <ele>223</ele>
        <time>2025-05-01T13:14:28.217+00:00</time>
      </trkpt>
      <trkpt lat="45.63641" lon="5.64146">
        <ele>223</ele>
        <time>2025-05-01T13:14:32.578+00:00</time>
      </trkpt>
      <trkpt lat="45.63644" lon="5.64155">
        <ele>222</ele>
        <time>2025-05-01T13:14:36.996+00:00</time>
      </trkpt>
      <trkpt lat="45.63649" lon="5.64163">
        <ele>222</ele>
        <time>2025-05-01T13:14:41.229+00:00</time>
      </trkpt>
      <trkpt lat="45.63653" lon="5.64168">
        <ele>222</ele>
        <time>2025-05-01T13:14:46.212+00:00</time>
      </trkpt>
      <trkpt lat="45.63657" lon="5.64172">
        <ele>222</ele>
        <time>2025-05-01T13:14:50.230+00:00</time>
      </trkpt>
      <trkpt lat="45.63661" lon="5.64176">
        <ele>222</ele>
        <time>2025-05-01T13:14:54.645+00:00</time>
      </trkpt>
      <trkpt lat="45.63664" lon="5.6418">
        <ele>222</ele>
        <time>2025-05-01T13:14:58.725+00:00</time>
      </trkpt>
      <trkpt lat="45.63668" lon="5.64185">
        <ele>212</ele>
        <time>2025-05-01T13:15:03.228+00:00</time>
      </trkpt>
      <trkpt lat="45.63673" lon="5.64189">
        <ele>212</ele>
        <time>2025-05-01T13:15:07.647+00:00</time>
      </trkpt>
      <trkpt lat="45.63678" lon="5.64193">
        <ele>212</ele>
        <time>2025-05-01T13:15:12.187+00:00</time>
      </trkpt>
      <trkpt lat="45.63684" lon="5.64197">
        <ele>220</ele>
        <time>2025-05-01T13:15:16.427+00:00</time>
      </trkpt>
      <trkpt lat="45.6369" lon="5.64202">
        <ele>220</ele>
        <time>2025-05-01T13:15:20.717+00:00</time>
      </trkpt>
      <trkpt lat="45.63695" lon="5.64208">
        <ele>220</ele>
        <time>2025-05-01T13:15:25.125+00:00</time>
      </trkpt>
      <trkpt lat="45.63699" lon="5.64213">
        <ele>212</ele>
        <time>2025-05-01T13:15:29.237+00:00</time>
      </trkpt>
      <trkpt lat="45.63702" lon="5.64219">
        <ele>212</ele>
        <time>2025-05-01T13:15:33.683+00:00</time>
      </trkpt>
      <trkpt lat="45.63707" lon="5.64226">
        <ele>212</ele>
        <time>2025-05-01T13:15:37.984+00:00</time>
      </trkpt>
      <trkpt lat="45.63712" lon="5.64231">
        <ele>219</ele>
        <time>2025-05-01T13:15:42.217+00:00</time>
      </trkpt>
      <trkpt lat="45.63717" lon="5.64235">
        <ele>219</ele>
        <time>2025-05-01T13:15:46.885+00:00</time>
      </trkpt>
      <trkpt lat="45.63721" lon="5.64241">
        <ele>212</ele>
        <time>2025-05-01T13:15:51.227+00:00</time>
      </trkpt>
      <trkpt lat="45.63725" lon="5.64248">
        <ele>212</ele>
        <time>2025-05-01T13:15:55.844+00:00</time>
      </trkpt>
      <trkpt lat="45.6373" lon="5.64252">
        <ele>212</ele>
        <time>2025-05-01T13:16:00.181+00:00</time>
      </trkpt>
      <trkpt lat="45.63735" lon="5.64259">
        <ele>212</ele>
        <time>2025-05-01T13:16:04.523+00:00</time>
      </trkpt>
      <trkpt lat="45.6374" lon="5.64265">
        <ele>212</ele>
        <time>2025-05-01T13:16:09.227+00:00</time>
      </trkpt>
      <trkpt lat="45.63744" lon="5.6427">
        <ele>212</ele>
        <time>2025-05-01T13:16:13.217+00:00</time>
      </trkpt>
      <trkpt lat="45.63749" lon="5.64276">
        <ele>212</ele>
        <time>2025-05-01T13:16:18.210+00:00</time>
      </trkpt>
      <trkpt lat="45.63754" lon="5.64282">
        <ele>212</ele>
        <time>2025-05-01T13:16:22.902+00:00</time>
      </trkpt>
      <trkpt lat="45.63758" lon="5.64286">
        <ele>212</ele>
        <time>2025-05-01T13:16:27.217+00:00</time>
      </trkpt>
      <trkpt lat="45.63762" lon="5.64291">
        <ele>212</ele>
        <time>2025-05-01T13:16:31.222+00:00</time>
      </trkpt>
      <trkpt lat="45.63766" lon="5.64295">
        <ele>212</ele>
        <time>2025-05-01T13:16:35.220+00:00</time>
      </trkpt>
      <trkpt lat="45.6377" lon="5.64301">
        <ele>212</ele>
        <time>2025-05-01T13:16:39.224+00:00</time>
      </trkpt>
      <trkpt lat="45.63774" lon="5.64306">
        <ele>212</ele>
        <time>2025-05-01T13:16:43.482+00:00</time>
      </trkpt>
      <trkpt lat="45.63778" lon="5.64311">
        <ele>212</ele>
        <time>2025-05-01T13:16:47.923+00:00</time>
      </trkpt>
      <trkpt lat="45.63782" lon="5.64318">
        <ele>212</ele>
        <time>2025-05-01T13:16:52.228+00:00</time>
      </trkpt>
      <trkpt lat="45.63786" lon="5.64325">
        <ele>212</ele>
        <time>2025-05-01T13:16:56.642+00:00</time>
      </trkpt>
      <trkpt lat="45.63789" lon="5.64333">
        <ele>212</ele>
        <time>2025-05-01T13:17:01.022+00:00</time>
      </trkpt>
      <trkpt lat="45.63792" lon="5.64339">
        <ele>212</ele>
        <time>2025-05-01T13:17:05.219+00:00</time>
      </trkpt>
      <trkpt lat="45.63795" lon="5.64344">
        <ele>212</ele>
        <time>2025-05-01T13:17:09.742+00:00</time>
      </trkpt>
      <trkpt lat="45.63796" lon="5.64352">
        <ele>212</ele>
        <time>2025-05-01T13:17:14.217+00:00</time>
      </trkpt>
      <trkpt lat="45.63795" lon="5.64363">
        <ele>212</ele>
        <time>2025-05-01T13:17:18.719+00:00</time>
      </trkpt>
      <trkpt lat="45.63793" lon="5.64373">
        <ele>212</ele>
        <time>2025-05-01T13:17:22.856+00:00</time>
      </trkpt>
      <trkpt lat="45.63791" lon="5.64382">
        <ele>212</ele>
        <time>2025-05-01T13:17:26.959+00:00</time>
      </trkpt>
      <trkpt lat="45.63791" lon="5.6439">
        <ele>212</ele>
        <time>2025-05-01T13:17:31.081+00:00</time>
      </trkpt>
      <trkpt lat="45.63791" lon="5.64398">
        <ele>212</ele>
        <time>2025-05-01T13:17:35.229+00:00</time>
      </trkpt>
      <trkpt lat="45.6379" lon="5.64407">
        <ele>212</ele>
        <time>2025-05-01T13:17:39.479+00:00</time>
      </trkpt>
      <trkpt lat="45.63791" lon="5.64414">
        <ele>212</ele>
        <time>2025-05-01T13:17:44.216+00:00</time>
      </trkpt>
      <trkpt lat="45.63791" lon="5.64416">
        <ele>212</ele>
        <time>2025-05-01T13:17:48.781+00:00</time>
      </trkpt>
      <trkpt lat="45.63792" lon="5.64425">
        <ele>212</ele>
        <time>2025-05-01T13:17:52.841+00:00</time>
      </trkpt>
      <trkpt lat="45.63793" lon="5.6443">
        <ele>212</ele>
        <time>2025-05-01T13:17:57.061+00:00</time>
      </trkpt>
      <trkpt lat="45.63796" lon="5.64434">
        <ele>212</ele>
        <time>2025-05-01T13:18:01.079+00:00</time>
      </trkpt>
      <trkpt lat="45.63801" lon="5.64431">
        <ele>212</ele>
        <time>2025-05-01T13:18:05.159+00:00</time>
      </trkpt>
      <trkpt lat="45.63805" lon="5.64426">
        <ele>212</ele>
        <time>2025-05-01T13:18:09.197+00:00</time>
      </trkpt>
      <trkpt lat="45.6381" lon="5.64419">
        <ele>212</ele>
        <time>2025-05-01T13:18:13.213+00:00</time>
      </trkpt>
      <trkpt lat="45.63814" lon="5.64412">
        <ele>212</ele>
        <time>2025-05-01T13:18:17.560+00:00</time>
      </trkpt>
      <trkpt lat="45.63818" lon="5.64406">
        <ele>212</ele>
        <time>2025-05-01T13:18:21.840+00:00</time>
      </trkpt>
      <trkpt lat="45.63823" lon="5.64399">
        <ele>212</ele>
        <time>2025-05-01T13:18:25.937+00:00</time>
      </trkpt>
      <trkpt lat="45.63828" lon="5.64392">
        <ele>212</ele>
        <time>2025-05-01T13:18:30.218+00:00</time>
      </trkpt>
      <trkpt lat="45.63832" lon="5.64385">
        <ele>212</ele>
        <time>2025-05-01T13:18:35.021+00:00</time>
      </trkpt>
      <trkpt lat="45.63835" lon="5.64379">
        <ele>212</ele>
        <time>2025-05-01T13:18:39.227+00:00</time>
      </trkpt>
      <trkpt lat="45.63838" lon="5.64372">
        <ele>212</ele>
        <time>2025-05-01T13:18:43.558+00:00</time>
      </trkpt>
      <trkpt lat="45.63842" lon="5.64367">
        <ele>212</ele>
        <time>2025-05-01T13:18:47.860+00:00</time>
      </trkpt>
      <trkpt lat="45.63845" lon="5.64362">
        <ele>212</ele>
        <time>2025-05-01T13:18:52.117+00:00</time>
      </trkpt>
      <trkpt lat="45.63848" lon="5.64355">
        <ele>212</ele>
        <time>2025-05-01T13:18:56.186+00:00</time>
      </trkpt>
      <trkpt lat="45.63852" lon="5.64347">
        <ele>212</ele>
        <time>2025-05-01T13:19:00.231+00:00</time>
      </trkpt>
      <trkpt lat="45.63856" lon="5.6434">
        <ele>212</ele>
        <time>2025-05-01T13:19:04.426+00:00</time>
      </trkpt>
      <trkpt lat="45.6386" lon="5.64333">
        <ele>212</ele>
        <time>2025-05-01T13:19:08.876+00:00</time>
      </trkpt>
      <trkpt lat="45.63863" lon="5.64327">
        <ele>212</ele>
        <time>2025-05-01T13:19:13.228+00:00</time>
      </trkpt>
      <trkpt lat="45.63867" lon="5.6432">
        <ele>212</ele>
        <time>2025-05-01T13:19:18.105+00:00</time>
      </trkpt>
      <trkpt lat="45.6387" lon="5.64313">
        <ele>220</ele>
        <time>2025-05-01T13:19:22.445+00:00</time>
      </trkpt>
      <trkpt lat="45.63873" lon="5.64306">
        <ele>220</ele>
        <time>2025-05-01T13:19:27.223+00:00</time>
      </trkpt>
      <trkpt lat="45.63876" lon="5.643">
        <ele>212</ele>
        <time>2025-05-01T13:19:31.224+00:00</time>
      </trkpt>
      <trkpt lat="45.6388" lon="5.64292">
        <ele>212</ele>
        <time>2025-05-01T13:19:35.442+00:00</time>
      </trkpt>
      <trkpt lat="45.63884" lon="5.64285">
        <ele>212</ele>
        <time>2025-05-01T13:19:39.681+00:00</time>
      </trkpt>
      <trkpt lat="45.63887" lon="5.64278">
        <ele>212</ele>
        <time>2025-05-01T13:19:43.839+00:00</time>
      </trkpt>
      <trkpt lat="45.6389" lon="5.64271">
        <ele>212</ele>
        <time>2025-05-01T13:19:47.940+00:00</time>
      </trkpt>
      <trkpt lat="45.63892" lon="5.64264">
        <ele>212</ele>
        <time>2025-05-01T13:19:52.089+00:00</time>
      </trkpt>
      <trkpt lat="45.63895" lon="5.64257">
        <ele>212</ele>
        <time>2025-05-01T13:19:56.224+00:00</time>
      </trkpt>
      <trkpt lat="45.63898" lon="5.64252">
        <ele>212</ele>
        <time>2025-05-01T13:20:00.429+00:00</time>
      </trkpt>
      <trkpt lat="45.63902" lon="5.64247">
        <ele>212</ele>
        <time>2025-05-01T13:20:04.607+00:00</time>
      </trkpt>
      <trkpt lat="45.63906" lon="5.64241">
        <ele>212</ele>
        <time>2025-05-01T13:20:08.888+00:00</time>
      </trkpt>
      <trkpt lat="45.63908" lon="5.64236">
        <ele>212</ele>
        <time>2025-05-01T13:20:13.223+00:00</time>
      </trkpt>
      <trkpt lat="45.63911" lon="5.64229">
        <ele>212</ele>
        <time>2025-05-01T13:20:17.212+00:00</time>
      </trkpt>
      <trkpt lat="45.63913" lon="5.6422">
        <ele>212</ele>
        <time>2025-05-01T13:20:22.223+00:00</time>
      </trkpt>
      <trkpt lat="45.63904" lon="5.642">
        <ele>212</ele>
        <time>2025-05-01T13:22:05.827+00:00</time>
      </trkpt>
      <trkpt lat="45.63904" lon="5.642">
        <ele>212</ele>
        <time>2025-05-01T13:22:11.214+00:00</time>
      </trkpt>
      <trkpt lat="45.63904" lon="5.64199">
        <ele>212</ele>
        <time>2025-05-01T13:22:16.174+00:00</time>
      </trkpt>
      <trkpt lat="45.63904" lon="5.64199">
        <ele>212</ele>
        <time>2025-05-01T13:22:20.178+00:00</time>
      </trkpt>
      <trkpt lat="45.63904" lon="5.64199">
        <ele>212</ele>
        <time>2025-05-01T13:22:27.180+00:00</time>
      </trkpt>
      <trkpt lat="45.63903" lon="5.64193">
        <ele>212</ele>
        <time>2025-05-01T13:23:08.213+00:00</time>
      </trkpt>
      <trkpt lat="45.63903" lon="5.64192">
        <ele>212</ele>
        <time>2025-05-01T13:23:12.758+00:00</time>
      </trkpt>
      <trkpt lat="45.63903" lon="5.64191">
        <ele>212</ele>
        <time>2025-05-01T13:23:16.798+00:00</time>
      </trkpt>
      <trkpt lat="45.63903" lon="5.64187">
        <ele>212</ele>
        <time>2025-05-01T13:23:21.230+00:00</time>
      </trkpt>
      <trkpt lat="45.63904" lon="5.64186">
        <ele>212</ele>
        <time>2025-05-01T13:23:25.841+00:00</time>
      </trkpt>
      <trkpt lat="45.63906" lon="5.64178">
        <ele>212</ele>
        <time>2025-05-01T13:23:30.147+00:00</time>
      </trkpt>
      <trkpt lat="45.63908" lon="5.64168">
        <ele>212</ele>
        <time>2025-05-01T13:23:34.242+00:00</time>
      </trkpt>
      <trkpt lat="45.63907" lon="5.64158">
        <ele>212</ele>
        <time>2025-05-01T13:23:38.419+00:00</time>
      </trkpt>
      <trkpt lat="45.63905" lon="5.6415">
        <ele>212</ele>
        <time>2025-05-01T13:23:43.221+00:00</time>
      </trkpt>
      <trkpt lat="45.63907" lon="5.64141">
        <ele>212</ele>
        <time>2025-05-01T13:23:47.507+00:00</time>
      </trkpt>
      <trkpt lat="45.63912" lon="5.64126">
        <ele>212</ele>
        <time>2025-05-01T13:23:51.805+00:00</time>
      </trkpt>
      <trkpt lat="45.63915" lon="5.64107">
        <ele>212</ele>
        <time>2025-05-01T13:23:56.047+00:00</time>
      </trkpt>
      <trkpt lat="45.63921" lon="5.64082">
        <ele>217</ele>
        <time>2025-05-01T13:24:00.669+00:00</time>
      </trkpt>
      <trkpt lat="45.63924" lon="5.64065">
        <ele>217</ele>
        <time>2025-05-01T13:24:05.213+00:00</time>
      </trkpt>
      <trkpt lat="45.63926" lon="5.64055">
        <ele>217</ele>
        <time>2025-05-01T13:24:09.707+00:00</time>
      </trkpt>
      <trkpt lat="45.63929" lon="5.64046">
        <ele>217</ele>
        <time>2025-05-01T13:24:13.803+00:00</time>
      </trkpt>
      <trkpt lat="45.63929" lon="5.64042">
        <ele>217</ele>
        <time>2025-05-01T13:24:18.226+00:00</time>
      </trkpt>
      <trkpt lat="45.63928" lon="5.64042">
        <ele>217</ele>
        <time>2025-05-01T13:24:23.215+00:00</time>
      </trkpt>
      <trkpt lat="45.63927" lon="5.64041">
        <ele>217</ele>
        <time>2025-05-01T13:24:27.926+00:00</time>
      </trkpt>
      <trkpt lat="45.63927" lon="5.64034">
        <ele>217</ele>
        <time>2025-05-01T13:24:32.041+00:00</time>
      </trkpt>
      <trkpt lat="45.63926" lon="5.64023">
        <ele>217</ele>
        <time>2025-05-01T13:24:36.421+00:00</time>
      </trkpt>
      <trkpt lat="45.63927" lon="5.64012">
        <ele>217</ele>
        <time>2025-05-01T13:24:40.621+00:00</time>
      </trkpt>
      <trkpt lat="45.63928" lon="5.64002">
        <ele>217</ele>
        <time>2025-05-01T13:24:45.160+00:00</time>
      </trkpt>
      <trkpt lat="45.63928" lon="5.63993">
        <ele>217</ele>
        <time>2025-05-01T13:24:49.225+00:00</time>
      </trkpt>
      <trkpt lat="45.63929" lon="5.63985">
        <ele>217</ele>
        <time>2025-05-01T13:24:53.420+00:00</time>
      </trkpt>
      <trkpt lat="45.6393" lon="5.63976">
        <ele>217</ele>
        <time>2025-05-01T13:24:58.159+00:00</time>
      </trkpt>
      <trkpt lat="45.63933" lon="5.63968">
        <ele>212</ele>
        <time>2025-05-01T13:25:02.226+00:00</time>
      </trkpt>
      <trkpt lat="45.63934" lon="5.63959">
        <ele>212</ele>
        <time>2025-05-01T13:25:06.232+00:00</time>
      </trkpt>
      <trkpt lat="45.63935" lon="5.6395">
        <ele>212</ele>
        <time>2025-05-01T13:25:10.957+00:00</time>
      </trkpt>
      <trkpt lat="45.63934" lon="5.63939">
        <ele>212</ele>
        <time>2025-05-01T13:25:15.719+00:00</time>
      </trkpt>
      <trkpt lat="45.63934" lon="5.63931">
        <ele>212</ele>
        <time>2025-05-01T13:25:19.825+00:00</time>
      </trkpt>
      <trkpt lat="45.63936" lon="5.63922">
        <ele>212</ele>
        <time>2025-05-01T13:25:24.221+00:00</time>
      </trkpt>
      <trkpt lat="45.63937" lon="5.63919">
        <ele>212</ele>
        <time>2025-05-01T13:25:29.227+00:00</time>
      </trkpt>
      <trkpt lat="45.63936" lon="5.63918">
        <ele>212</ele>
        <time>2025-05-01T13:25:33.544+00:00</time>
      </trkpt>
      <trkpt lat="45.63936" lon="5.63907">
        <ele>212</ele>
        <time>2025-05-01T13:25:37.666+00:00</time>
      </trkpt>
      <trkpt lat="45.63936" lon="5.63898">
        <ele>212</ele>
        <time>2025-05-01T13:25:42.221+00:00</time>
      </trkpt>
      <trkpt lat="45.63937" lon="5.6389">
        <ele>212</ele>
        <time>2025-05-01T13:25:46.217+00:00</time>
      </trkpt>
      <trkpt lat="45.63939" lon="5.63882">
        <ele>212</ele>
        <time>2025-05-01T13:25:50.224+00:00</time>
      </trkpt>
      <trkpt lat="45.6394" lon="5.63873">
        <ele>212</ele>
        <time>2025-05-01T13:25:54.864+00:00</time>
      </trkpt>
      <trkpt lat="45.63941" lon="5.63864">
        <ele>212</ele>
        <time>2025-05-01T13:25:59.045+00:00</time>
      </trkpt>
      <trkpt lat="45.63942" lon="5.63853">
        <ele>212</ele>
        <time>2025-05-01T13:26:04.230+00:00</time>
      </trkpt>
      <trkpt lat="45.63942" lon="5.63843">
        <ele>212</ele>
        <time>2025-05-01T13:26:08.864+00:00</time>
      </trkpt>
      <trkpt lat="45.6394" lon="5.63833">
        <ele>212</ele>
        <time>2025-05-01T13:26:13.218+00:00</time>
      </trkpt>
      <trkpt lat="45.63936" lon="5.63825">
        <ele>212</ele>
        <time>2025-05-01T13:26:17.504+00:00</time>
      </trkpt>
      <trkpt lat="45.63935" lon="5.63823">
        <ele>212</ele>
        <time>2025-05-01T13:26:22.222+00:00</time>
      </trkpt>
      <trkpt lat="45.63931" lon="5.63825">
        <ele>212</ele>
        <time>2025-05-01T13:28:23.165+00:00</time>
      </trkpt>
      <trkpt lat="45.63931" lon="5.63825">
        <ele>212</ele>
        <time>2025-05-01T13:28:27.788+00:00</time>
      </trkpt>
      <trkpt lat="45.6393" lon="5.63822">
        <ele>217</ele>
        <time>2025-05-01T13:28:32.049+00:00</time>
      </trkpt>
      <trkpt lat="45.63924" lon="5.63815">
        <ele>218</ele>
        <time>2025-05-01T13:28:36.227+00:00</time>
      </trkpt>
      <trkpt lat="45.63918" lon="5.63808">
        <ele>218</ele>
        <time>2025-05-01T13:28:40.946+00:00</time>
      </trkpt>
      <trkpt lat="45.63912" lon="5.63803">
        <ele>218</ele>
        <time>2025-05-01T13:28:44.986+00:00</time>
      </trkpt>
      <trkpt lat="45.63908" lon="5.63797">
        <ele>218</ele>
        <time>2025-05-01T13:28:48.985+00:00</time>
      </trkpt>
      <trkpt lat="45.63905" lon="5.63791">
        <ele>217</ele>
        <time>2025-05-01T13:28:53.221+00:00</time>
      </trkpt>
      <trkpt lat="45.63904" lon="5.6379">
        <ele>217</ele>
        <time>2025-05-01T13:28:58.251+00:00</time>
      </trkpt>
      <trkpt lat="45.63901" lon="5.63786">
        <ele>220</ele>
        <time>2025-05-01T13:29:03.213+00:00</time>
      </trkpt>
      <trkpt lat="45.63898" lon="5.63783">
        <ele>220</ele>
        <time>2025-05-01T13:29:07.226+00:00</time>
      </trkpt>
      <trkpt lat="45.63896" lon="5.63779">
        <ele>220</ele>
        <time>2025-05-01T13:29:11.226+00:00</time>
      </trkpt>
      <trkpt lat="45.63895" lon="5.63775">
        <ele>220</ele>
        <time>2025-05-01T13:29:16.219+00:00</time>
      </trkpt>
      <trkpt lat="45.63893" lon="5.6377">
        <ele>220</ele>
        <time>2025-05-01T13:29:20.222+00:00</time>
      </trkpt>
      <trkpt lat="45.63888" lon="5.63761">
        <ele>219</ele>
        <time>2025-05-01T13:29:24.483+00:00</time>
      </trkpt>
      <trkpt lat="45.63882" lon="5.63749">
        <ele>219</ele>
        <time>2025-05-01T13:29:29.121+00:00</time>
      </trkpt>
      <trkpt lat="45.63872" lon="5.63736">
        <ele>219</ele>
        <time>2025-05-01T13:29:33.663+00:00</time>
      </trkpt>
      <trkpt lat="45.63863" lon="5.63725">
        <ele>219</ele>
        <time>2025-05-01T13:29:37.902+00:00</time>
      </trkpt>
      <trkpt lat="45.63858" lon="5.63714">
        <ele>219</ele>
        <time>2025-05-01T13:29:42.383+00:00</time>
      </trkpt>
      <trkpt lat="45.63853" lon="5.63706">
        <ele>218</ele>
        <time>2025-05-01T13:29:47.220+00:00</time>
      </trkpt>
      <trkpt lat="45.63847" lon="5.63698">
        <ele>218</ele>
        <time>2025-05-01T13:29:52.226+00:00</time>
      </trkpt>
      <trkpt lat="45.63842" lon="5.63691">
        <ele>218</ele>
        <time>2025-05-01T13:29:56.821+00:00</time>
      </trkpt>
      <trkpt lat="45.63838" lon="5.63682">
        <ele>218</ele>
        <time>2025-05-01T13:30:00.899+00:00</time>
      </trkpt>
      <trkpt lat="45.63836" lon="5.63673">
        <ele>217</ele>
        <time>2025-05-01T13:30:05.221+00:00</time>
      </trkpt>
      <trkpt lat="45.63834" lon="5.63665">
        <ele>217</ele>
        <time>2025-05-01T13:30:09.759+00:00</time>
      </trkpt>
      <trkpt lat="45.63832" lon="5.63657">
        <ele>217</ele>
        <time>2025-05-01T13:30:14.157+00:00</time>
      </trkpt>
      <trkpt lat="45.6383" lon="5.63647">
        <ele>212</ele>
        <time>2025-05-01T13:30:18.718+00:00</time>
      </trkpt>
      <trkpt lat="45.63828" lon="5.63639">
        <ele>212</ele>
        <time>2025-05-01T13:30:23.017+00:00</time>
      </trkpt>
      <trkpt lat="45.63825" lon="5.63634">
        <ele>212</ele>
        <time>2025-05-01T13:30:27.166+00:00</time>
      </trkpt>
      <trkpt lat="45.63824" lon="5.63626">
        <ele>212</ele>
        <time>2025-05-01T13:30:31.406+00:00</time>
      </trkpt>
      <trkpt lat="45.63822" lon="5.63617">
        <ele>212</ele>
        <time>2025-05-01T13:30:35.984+00:00</time>
      </trkpt>
      <trkpt lat="45.63821" lon="5.63608">
        <ele>212</ele>
        <time>2025-05-01T13:30:40.705+00:00</time>
      </trkpt>
      <trkpt lat="45.63821" lon="5.636">
        <ele>212</ele>
        <time>2025-05-01T13:30:44.746+00:00</time>
      </trkpt>
      <trkpt lat="45.6382" lon="5.63592">
        <ele>212</ele>
        <time>2025-05-01T13:30:48.905+00:00</time>
      </trkpt>
      <trkpt lat="45.63819" lon="5.63584">
        <ele>212</ele>
        <time>2025-05-01T13:30:53.406+00:00</time>
      </trkpt>
      <trkpt lat="45.63819" lon="5.63576">
        <ele>212</ele>
        <time>2025-05-01T13:30:57.403+00:00</time>
      </trkpt>
      <trkpt lat="45.63817" lon="5.63568">
        <ele>212</ele>
        <time>2025-05-01T13:31:01.503+00:00</time>
      </trkpt>
      <trkpt lat="45.63816" lon="5.63559">
        <ele>212</ele>
        <time>2025-05-01T13:31:05.823+00:00</time>
      </trkpt>
      <trkpt lat="45.63815" lon="5.6355">
        <ele>212</ele>
        <time>2025-05-01T13:31:10.214+00:00</time>
      </trkpt>
      <trkpt lat="45.63814" lon="5.63541">
        <ele>212</ele>
        <time>2025-05-01T13:31:14.343+00:00</time>
      </trkpt>
      <trkpt lat="45.63814" lon="5.63532">
        <ele>212</ele>
        <time>2025-05-01T13:31:18.422+00:00</time>
      </trkpt>
      <trkpt lat="45.63815" lon="5.63525">
        <ele>212</ele>
        <time>2025-05-01T13:31:22.644+00:00</time>
      </trkpt>
      <trkpt lat="45.63815" lon="5.63517">
        <ele>212</ele>
        <time>2025-05-01T13:31:26.922+00:00</time>
      </trkpt>
      <trkpt lat="45.63814" lon="5.63509">
        <ele>212</ele>
        <time>2025-05-01T13:31:31.223+00:00</time>
      </trkpt>
      <trkpt lat="45.63813" lon="5.63501">
        <ele>212</ele>
        <time>2025-05-01T13:31:35.683+00:00</time>
      </trkpt>
      <trkpt lat="45.63811" lon="5.63494">
        <ele>212</ele>
        <time>2025-05-01T13:31:40.064+00:00</time>
      </trkpt>
      <trkpt lat="45.63809" lon="5.63486">
        <ele>212</ele>
        <time>2025-05-01T13:31:44.623+00:00</time>
      </trkpt>
      <trkpt lat="45.63807" lon="5.63478">
        <ele>212</ele>
        <time>2025-05-01T13:31:48.963+00:00</time>
      </trkpt>
      <trkpt lat="45.63804" lon="5.6347">
        <ele>212</ele>
        <time>2025-05-01T13:31:53.218+00:00</time>
      </trkpt>
      <trkpt lat="45.63802" lon="5.63462">
        <ele>212</ele>
        <time>2025-05-01T13:31:57.562+00:00</time>
      </trkpt>
      <trkpt lat="45.63798" lon="5.63456">
        <ele>212</ele>
        <time>2025-05-01T13:32:02.214+00:00</time>
      </trkpt>
      <trkpt lat="45.63797" lon="5.63456">
        <ele>212</ele>
        <time>2025-05-01T13:32:07.224+00:00</time>
      </trkpt>
      <trkpt lat="45.63796" lon="5.63453">
        <ele>212</ele>
        <time>2025-05-01T13:32:12.222+00:00</time>
      </trkpt>
      <trkpt lat="45.63795" lon="5.6345">
        <ele>212</ele>
        <time>2025-05-01T13:32:17.213+00:00</time>
      </trkpt>
      <trkpt lat="45.63795" lon="5.63448">
        <ele>212</ele>
        <time>2025-05-01T13:32:21.821+00:00</time>
      </trkpt>
      <trkpt lat="45.63794" lon="5.63438">
        <ele>212</ele>
        <time>2025-05-01T13:32:26.220+00:00</time>
      </trkpt>
      <trkpt lat="45.63793" lon="5.63433">
        <ele>212</ele>
        <time>2025-05-01T13:32:30.215+00:00</time>
      </trkpt>
      <trkpt lat="45.63793" lon="5.63433">
        <ele>212</ele>
        <time>2025-05-01T13:32:34.720+00:00</time>
      </trkpt>
      <trkpt lat="45.63792" lon="5.63425">
        <ele>212</ele>
        <time>2025-05-01T13:32:38.858+00:00</time>
      </trkpt>
      <trkpt lat="45.63792" lon="5.63415">
        <ele>224</ele>
        <time>2025-05-01T13:32:43.419+00:00</time>
      </trkpt>
      <trkpt lat="45.6379" lon="5.63407">
        <ele>224</ele>
        <time>2025-05-01T13:32:47.839+00:00</time>
      </trkpt>
      <trkpt lat="45.63786" lon="5.63398">
        <ele>226</ele>
        <time>2025-05-01T13:32:52.212+00:00</time>
      </trkpt>
      <trkpt lat="45.63783" lon="5.63388">
        <ele>226</ele>
        <time>2025-05-01T13:32:56.757+00:00</time>
      </trkpt>
      <trkpt lat="45.63781" lon="5.63379">
        <ele>226</ele>
        <time>2025-05-01T13:33:01.222+00:00</time>
      </trkpt>
      <trkpt lat="45.63782" lon="5.6337">
        <ele>227</ele>
        <time>2025-05-01T13:33:05.897+00:00</time>
      </trkpt>
      <trkpt lat="45.63785" lon="5.63363">
        <ele>227</ele>
        <time>2025-05-01T13:33:10.038+00:00</time>
      </trkpt>
      <trkpt lat="45.6379" lon="5.63358">
        <ele>227</ele>
        <time>2025-05-01T13:33:14.228+00:00</time>
      </trkpt>
      <trkpt lat="45.63796" lon="5.63352">
        <ele>212</ele>
        <time>2025-05-01T13:33:18.877+00:00</time>
      </trkpt>
      <trkpt lat="45.63801" lon="5.63346">
        <ele>220</ele>
        <time>2025-05-01T13:33:22.938+00:00</time>
      </trkpt>
      <trkpt lat="45.63804" lon="5.63329">
        <ele>220</ele>
        <time>2025-05-01T13:33:36.221+00:00</time>
      </trkpt>
      <trkpt lat="45.63804" lon="5.63329">
        <ele>220</ele>
        <time>2025-05-01T13:33:41.117+00:00</time>
      </trkpt>
      <trkpt lat="45.63803" lon="5.63323">
        <ele>220</ele>
        <time>2025-05-01T13:33:45.820+00:00</time>
      </trkpt>
      <trkpt lat="45.63804" lon="5.63314">
        <ele>224</ele>
        <time>2025-05-01T13:33:49.959+00:00</time>
      </trkpt>
      <trkpt lat="45.63805" lon="5.63305">
        <ele>224</ele>
        <time>2025-05-01T13:33:54.239+00:00</time>
      </trkpt>
      <trkpt lat="45.63806" lon="5.63296">
        <ele>224</ele>
        <time>2025-05-01T13:33:58.557+00:00</time>
      </trkpt>
      <trkpt lat="45.63808" lon="5.63286">
        <ele>227</ele>
        <time>2025-05-01T13:34:03.157+00:00</time>
      </trkpt>
      <trkpt lat="45.6381" lon="5.63277">
        <ele>227</ele>
        <time>2025-05-01T13:34:07.625+00:00</time>
      </trkpt>
      <trkpt lat="45.63812" lon="5.63267">
        <ele>227</ele>
        <time>2025-05-01T13:34:12.166+00:00</time>
      </trkpt>
      <trkpt lat="45.63814" lon="5.63258">
        <ele>232</ele>
        <time>2025-05-01T13:34:16.219+00:00</time>
      </trkpt>
      <trkpt lat="45.63816" lon="5.63251">
        <ele>232</ele>
        <time>2025-05-01T13:34:20.426+00:00</time>
      </trkpt>
      <trkpt lat="45.63818" lon="5.63243">
        <ele>232</ele>
        <time>2025-05-01T13:34:24.767+00:00</time>
      </trkpt>
      <trkpt lat="45.63819" lon="5.63235">
        <ele>235</ele>
        <time>2025-05-01T13:34:29.217+00:00</time>
      </trkpt>
      <trkpt lat="45.6382" lon="5.63227">
        <ele>212</ele>
        <time>2025-05-01T13:34:33.947+00:00</time>
      </trkpt>
      <trkpt lat="45.63819" lon="5.63214">
        <ele>235</ele>
        <time>2025-05-01T13:34:38.265+00:00</time>
      </trkpt>
      <trkpt lat="45.6382" lon="5.632">
        <ele>212</ele>
        <time>2025-05-01T13:34:42.865+00:00</time>
      </trkpt>
      <trkpt lat="45.63822" lon="5.63191">
        <ele>212</ele>
        <time>2025-05-01T13:34:47.133+00:00</time>
      </trkpt>
      <trkpt lat="45.63825" lon="5.63183">
        <ele>212</ele>
        <time>2025-05-01T13:34:51.222+00:00</time>
      </trkpt>
      <trkpt lat="45.63828" lon="5.63175">
        <ele>229</ele>
        <time>2025-05-01T13:34:55.926+00:00</time>
      </trkpt>
      <trkpt lat="45.63832" lon="5.63167">
        <ele>229</ele>
        <time>2025-05-01T13:35:00.215+00:00</time>
      </trkpt>
      <trkpt lat="45.63836" lon="5.63158">
        <ele>229</ele>
        <time>2025-05-01T13:35:04.746+00:00</time>
      </trkpt>
      <trkpt lat="45.63839" lon="5.63149">
        <ele>234</ele>
        <time>2025-05-01T13:35:09.211+00:00</time>
      </trkpt>
      <trkpt lat="45.63843" lon="5.63143">
        <ele>234</ele>
        <time>2025-05-01T13:35:13.443+00:00</time>
      </trkpt>
      <trkpt lat="45.63847" lon="5.63137">
        <ele>234</ele>
        <time>2025-05-01T13:35:18.122+00:00</time>
      </trkpt>
      <trkpt lat="45.6385" lon="5.6313">
        <ele>224</ele>
        <time>2025-05-01T13:35:22.226+00:00</time>
      </trkpt>
      <trkpt lat="45.63852" lon="5.63124">
        <ele>229</ele>
        <time>2025-05-01T13:35:26.323+00:00</time>
      </trkpt>
      <trkpt lat="45.63855" lon="5.63118">
        <ele>229</ele>
        <time>2025-05-01T13:35:30.484+00:00</time>
      </trkpt>
      <trkpt lat="45.63858" lon="5.63111">
        <ele>229</ele>
        <time>2025-05-01T13:35:35.064+00:00</time>
      </trkpt>
      <trkpt lat="45.63861" lon="5.63104">
        <ele>229</ele>
        <time>2025-05-01T13:35:39.083+00:00</time>
      </trkpt>
      <trkpt lat="45.63865" lon="5.63097">
        <ele>229</ele>
        <time>2025-05-01T13:35:43.182+00:00</time>
      </trkpt>
      <trkpt lat="45.63869" lon="5.6309">
        <ele>231</ele>
        <time>2025-05-01T13:35:47.205+00:00</time>
      </trkpt>
      <trkpt lat="45.63872" lon="5.63082">
        <ele>231</ele>
        <time>2025-05-01T13:35:51.482+00:00</time>
      </trkpt>
      <trkpt lat="45.63873" lon="5.63074">
        <ele>231</ele>
        <time>2025-05-01T13:35:55.626+00:00</time>
      </trkpt>
      <trkpt lat="45.63875" lon="5.63067">
        <ele>234</ele>
        <time>2025-05-01T13:35:59.663+00:00</time>
      </trkpt>
      <trkpt lat="45.63876" lon="5.63061">
        <ele>226</ele>
        <time>2025-05-01T13:36:03.743+00:00</time>
      </trkpt>
      <trkpt lat="45.63879" lon="5.63052">
        <ele>226</ele>
        <time>2025-05-01T13:36:08.224+00:00</time>
      </trkpt>
      <trkpt lat="45.63883" lon="5.63044">
        <ele>226</ele>
        <time>2025-05-01T13:36:12.480+00:00</time>
      </trkpt>
      <trkpt lat="45.63888" lon="5.63037">
        <ele>227</ele>
        <time>2025-05-01T13:36:17.080+00:00</time>
      </trkpt>
      <trkpt lat="45.6389" lon="5.63032">
        <ele>227</ele>
        <time>2025-05-01T13:36:21.761+00:00</time>
      </trkpt>
      <trkpt lat="45.63894" lon="5.63024">
        <ele>227</ele>
        <time>2025-05-01T13:36:26.214+00:00</time>
      </trkpt>
      <trkpt lat="45.63899" lon="5.63016">
        <ele>227</ele>
        <time>2025-05-01T13:36:30.399+00:00</time>
      </trkpt>
      <trkpt lat="45.63903" lon="5.63004">
        <ele>224</ele>
        <time>2025-05-01T13:36:35.156+00:00</time>
      </trkpt>
      <trkpt lat="45.63904" lon="5.62992">
        <ele>224</ele>
        <time>2025-05-01T13:36:40.203+00:00</time>
      </trkpt>
      <trkpt lat="45.63904" lon="5.62984">
        <ele>224</ele>
        <time>2025-05-01T13:36:44.517+00:00</time>
      </trkpt>
      <trkpt lat="45.63904" lon="5.62977">
        <ele>224</ele>
        <time>2025-05-01T13:36:48.760+00:00</time>
      </trkpt>
      <trkpt lat="45.63905" lon="5.62968">
        <ele>224</ele>
        <time>2025-05-01T13:36:52.938+00:00</time>
      </trkpt>
      <trkpt lat="45.63906" lon="5.62961">
        <ele>224</ele>
        <time>2025-05-01T13:36:57.137+00:00</time>
      </trkpt>
      <trkpt lat="45.63905" lon="5.62955">
        <ele>226</ele>
        <time>2025-05-01T13:37:01.376+00:00</time>
      </trkpt>
      <trkpt lat="45.63905" lon="5.62947">
        <ele>226</ele>
        <time>2025-05-01T13:37:05.779+00:00</time>
      </trkpt>
      <trkpt lat="45.63905" lon="5.62938">
        <ele>226</ele>
        <time>2025-05-01T13:37:10.216+00:00</time>
      </trkpt>
      <trkpt lat="45.63904" lon="5.62927">
        <ele>232</ele>
        <time>2025-05-01T13:37:15.219+00:00</time>
      </trkpt>
      <trkpt lat="45.63903" lon="5.62919">
        <ele>232</ele>
        <time>2025-05-01T13:37:19.627+00:00</time>
      </trkpt>
      <trkpt lat="45.63903" lon="5.62915">
        <ele>232</ele>
        <time>2025-05-01T13:37:23.906+00:00</time>
      </trkpt>
      <trkpt lat="45.63904" lon="5.62906">
        <ele>232</ele>
        <time>2025-05-01T13:37:28.166+00:00</time>
      </trkpt>
      <trkpt lat="45.63907" lon="5.62897">
        <ele>238</ele>
        <time>2025-05-01T13:37:32.222+00:00</time>
      </trkpt>
      <trkpt lat="45.63908" lon="5.62892">
        <ele>238</ele>
        <time>2025-05-01T13:37:37.219+00:00</time>
      </trkpt>
      <trkpt lat="45.63908" lon="5.62891">
        <ele>238</ele>
        <time>2025-05-01T13:37:42.216+00:00</time>
      </trkpt>
      <trkpt lat="45.63908" lon="5.6289">
        <ele>238</ele>
        <time>2025-05-01T13:37:47.217+00:00</time>
      </trkpt>
      <trkpt lat="45.6391" lon="5.62884">
        <ele>238</ele>
        <time>2025-05-01T13:37:51.222+00:00</time>
      </trkpt>
      <trkpt lat="45.63911" lon="5.62876">
        <ele>238</ele>
        <time>2025-05-01T13:37:55.229+00:00</time>
      </trkpt>
      <trkpt lat="45.63912" lon="5.62867">
        <ele>240</ele>
        <time>2025-05-01T13:37:59.221+00:00</time>
      </trkpt>
      <trkpt lat="45.63912" lon="5.62856">
        <ele>240</ele>
        <time>2025-05-01T13:38:04.227+00:00</time>
      </trkpt>
      <trkpt lat="45.63911" lon="5.62848">
        <ele>240</ele>
        <time>2025-05-01T13:38:08.227+00:00</time>
      </trkpt>
      <trkpt lat="45.63911" lon="5.62839">
        <ele>240</ele>
        <time>2025-05-01T13:38:13.216+00:00</time>
      </trkpt>
      <trkpt lat="45.63913" lon="5.62831">
        <ele>240</ele>
        <time>2025-05-01T13:38:18.225+00:00</time>
      </trkpt>
      <trkpt lat="45.63913" lon="5.62824">
        <ele>240</ele>
        <time>2025-05-01T13:38:22.224+00:00</time>
      </trkpt>
      <trkpt lat="45.63913" lon="5.62815">
        <ele>238</ele>
        <time>2025-05-01T13:38:27.226+00:00</time>
      </trkpt>
      <trkpt lat="45.6391" lon="5.6281">
        <ele>238</ele>
        <time>2025-05-01T13:38:32.226+00:00</time>
      </trkpt>
      <trkpt lat="45.63905" lon="5.62806">
        <ele>238</ele>
        <time>2025-05-01T13:38:37.212+00:00</time>
      </trkpt>
      <trkpt lat="45.639" lon="5.62803">
        <ele>246</ele>
        <time>2025-05-01T13:38:42.218+00:00</time>
      </trkpt>
      <trkpt lat="45.63894" lon="5.62801">
        <ele>246</ele>
        <time>2025-05-01T13:38:47.212+00:00</time>
      </trkpt>
      <trkpt lat="45.6389" lon="5.62798">
        <ele>246</ele>
        <time>2025-05-01T13:38:51.211+00:00</time>
      </trkpt>
      <trkpt lat="45.63887" lon="5.62793">
        <ele>246</ele>
        <time>2025-05-01T13:38:55.218+00:00</time>
      </trkpt>
      <trkpt lat="45.63883" lon="5.62789">
        <ele>245</ele>
        <time>2025-05-01T13:38:59.210+00:00</time>
      </trkpt>
      <trkpt lat="45.6388" lon="5.62779">
        <ele>245</ele>
        <time>2025-05-01T13:39:04.219+00:00</time>
      </trkpt>
      <trkpt lat="45.63878" lon="5.62769">
        <ele>245</ele>
        <time>2025-05-01T13:39:09.209+00:00</time>
      </trkpt>
      <trkpt lat="45.63876" lon="5.62764">
        <ele>243</ele>
        <time>2025-05-01T13:39:13.216+00:00</time>
      </trkpt>
      <trkpt lat="45.63875" lon="5.62755">
        <ele>257</ele>
        <time>2025-05-01T13:39:18.221+00:00</time>
      </trkpt>
      <trkpt lat="45.63874" lon="5.62749">
        <ele>257</ele>
        <time>2025-05-01T13:39:23.221+00:00</time>
      </trkpt>
      <trkpt lat="45.63873" lon="5.62744">
        <ele>257</ele>
        <time>2025-05-01T13:39:28.220+00:00</time>
      </trkpt>
      <trkpt lat="45.63872" lon="5.62736">
        <ele>257</ele>
        <time>2025-05-01T13:39:32.643+00:00</time>
      </trkpt>
      <trkpt lat="45.6387" lon="5.62729">
        <ele>254</ele>
        <time>2025-05-01T13:39:37.225+00:00</time>
      </trkpt>
      <trkpt lat="45.63867" lon="5.6272">
        <ele>254</ele>
        <time>2025-05-01T13:39:41.440+00:00</time>
      </trkpt>
      <trkpt lat="45.63865" lon="5.6271">
        <ele>254</ele>
        <time>2025-05-01T13:39:45.779+00:00</time>
      </trkpt>
      <trkpt lat="45.63863" lon="5.62693">
        <ele>251</ele>
        <time>2025-05-01T13:39:50.226+00:00</time>
      </trkpt>
      <trkpt lat="45.63861" lon="5.62685">
        <ele>251</ele>
        <time>2025-05-01T13:39:55.224+00:00</time>
      </trkpt>
      <trkpt lat="45.63859" lon="5.62673">
        <ele>246</ele>
        <time>2025-05-01T13:40:00.210+00:00</time>
      </trkpt>
      <trkpt lat="45.63858" lon="5.62664">
        <ele>246</ele>
        <time>2025-05-01T13:40:05.210+00:00</time>
      </trkpt>
      <trkpt lat="45.63856" lon="5.62659">
        <ele>246</ele>
        <time>2025-05-01T13:40:09.868+00:00</time>
      </trkpt>
      <trkpt lat="45.63855" lon="5.62654">
        <ele>246</ele>
        <time>2025-05-01T13:40:14.078+00:00</time>
      </trkpt>
      <trkpt lat="45.63853" lon="5.62649">
        <ele>242</ele>
        <time>2025-05-01T13:40:18.220+00:00</time>
      </trkpt>
      <trkpt lat="45.6385" lon="5.62642">
        <ele>242</ele>
        <time>2025-05-01T13:40:22.506+00:00</time>
      </trkpt>
      <trkpt lat="45.63849" lon="5.62639">
        <ele>242</ele>
        <time>2025-05-01T13:40:27.047+00:00</time>
      </trkpt>
      <trkpt lat="45.63848" lon="5.62638">
        <ele>242</ele>
        <time>2025-05-01T13:40:31.086+00:00</time>
      </trkpt>
      <trkpt lat="45.63844" lon="5.62632">
        <ele>251</ele>
        <time>2025-05-01T13:40:35.105+00:00</time>
      </trkpt>
      <trkpt lat="45.63839" lon="5.62619">
        <ele>247</ele>
        <time>2025-05-01T13:40:39.665+00:00</time>
      </trkpt>
      <trkpt lat="45.63837" lon="5.62606">
        <ele>247</ele>
        <time>2025-05-01T13:40:44.224+00:00</time>
      </trkpt>
      <trkpt lat="45.63835" lon="5.62594">
        <ele>243</ele>
        <time>2025-05-01T13:40:49.026+00:00</time>
      </trkpt>
      <trkpt lat="45.63832" lon="5.62582">
        <ele>243</ele>
        <time>2025-05-01T13:40:54.025+00:00</time>
      </trkpt>
      <trkpt lat="45.6383" lon="5.62575">
        <ele>243</ele>
        <time>2025-05-01T13:40:58.145+00:00</time>
      </trkpt>
      <trkpt lat="45.63829" lon="5.62568">
        <ele>238</ele>
        <time>2025-05-01T13:41:02.264+00:00</time>
      </trkpt>
      <trkpt lat="45.63829" lon="5.62561">
        <ele>238</ele>
        <time>2025-05-01T13:41:06.706+00:00</time>
      </trkpt>
      <trkpt lat="45.63826" lon="5.62554">
        <ele>238</ele>
        <time>2025-05-01T13:41:10.965+00:00</time>
      </trkpt>
      <trkpt lat="45.63824" lon="5.62545">
        <ele>238</ele>
        <time>2025-05-01T13:41:15.064+00:00</time>
      </trkpt>
      <trkpt lat="45.63821" lon="5.62536">
        <ele>235</ele>
        <time>2025-05-01T13:41:19.563+00:00</time>
      </trkpt>
      <trkpt lat="45.63818" lon="5.6253">
        <ele>243</ele>
        <time>2025-05-01T13:41:24.249+00:00</time>
      </trkpt>
      <trkpt lat="45.63819" lon="5.6253">
        <ele>243</ele>
        <time>2025-05-01T13:41:29.123+00:00</time>
      </trkpt>
      <trkpt lat="45.63819" lon="5.62527">
        <ele>243</ele>
        <time>2025-05-01T13:41:33.803+00:00</time>
      </trkpt>
      <trkpt lat="45.63819" lon="5.62519">
        <ele>243</ele>
        <time>2025-05-01T13:41:38.226+00:00</time>
      </trkpt>
      <trkpt lat="45.63818" lon="5.62511">
        <ele>240</ele>
        <time>2025-05-01T13:41:42.224+00:00</time>
      </trkpt>
      <trkpt lat="45.63817" lon="5.62507">
        <ele>240</ele>
        <time>2025-05-01T13:42:01.218+00:00</time>
      </trkpt>
      <trkpt lat="45.63817" lon="5.62506">
        <ele>240</ele>
        <time>2025-05-01T13:42:06.220+00:00</time>
      </trkpt>
      <trkpt lat="45.63816" lon="5.62505">
        <ele>240</ele>
        <time>2025-05-01T13:42:12.215+00:00</time>
      </trkpt>
      <trkpt lat="45.63814" lon="5.62498">
        <ele>240</ele>
        <time>2025-05-01T13:42:17.222+00:00</time>
      </trkpt>
      <trkpt lat="45.6381" lon="5.62487">
        <ele>240</ele>
        <time>2025-05-01T13:42:21.214+00:00</time>
      </trkpt>
      <trkpt lat="45.63807" lon="5.62477">
        <ele>237</ele>
        <time>2025-05-01T13:42:26.220+00:00</time>
      </trkpt>
      <trkpt lat="45.63806" lon="5.62472">
        <ele>237</ele>
        <time>2025-05-01T13:42:30.502+00:00</time>
      </trkpt>
      <trkpt lat="45.63804" lon="5.62466">
        <ele>237</ele>
        <time>2025-05-01T13:42:34.722+00:00</time>
      </trkpt>
      <trkpt lat="45.63803" lon="5.6246">
        <ele>237</ele>
        <time>2025-05-01T13:42:38.883+00:00</time>
      </trkpt>
      <trkpt lat="45.63801" lon="5.6245">
        <ele>232</ele>
        <time>2025-05-01T13:42:43.213+00:00</time>
      </trkpt>
      <trkpt lat="45.63799" lon="5.62442">
        <ele>232</ele>
        <time>2025-05-01T13:42:48.018+00:00</time>
      </trkpt>
      <trkpt lat="45.63794" lon="5.62433">
        <ele>232</ele>
        <time>2025-05-01T13:42:53.079+00:00</time>
      </trkpt>
      <trkpt lat="45.63791" lon="5.62422">
        <ele>242</ele>
        <time>2025-05-01T13:42:57.478+00:00</time>
      </trkpt>
      <trkpt lat="45.63789" lon="5.62415">
        <ele>242</ele>
        <time>2025-05-01T13:43:02.217+00:00</time>
      </trkpt>
      <trkpt lat="45.63789" lon="5.62405">
        <ele>242</ele>
        <time>2025-05-01T13:43:07.224+00:00</time>
      </trkpt>
      <trkpt lat="45.63787" lon="5.62395">
        <ele>234</ele>
        <time>2025-05-01T13:43:12.209+00:00</time>
      </trkpt>
      <trkpt lat="45.63784" lon="5.62386">
        <ele>234</ele>
        <time>2025-05-01T13:43:16.543+00:00</time>
      </trkpt>
      <trkpt lat="45.63781" lon="5.62377">
        <ele>234</ele>
        <time>2025-05-01T13:43:21.216+00:00</time>
      </trkpt>
      <trkpt lat="45.63779" lon="5.62368">
        <ele>227</ele>
        <time>2025-05-01T13:43:25.943+00:00</time>
      </trkpt>
      <trkpt lat="45.63778" lon="5.62358">
        <ele>227</ele>
        <time>2025-05-01T13:43:30.228+00:00</time>
      </trkpt>
      <trkpt lat="45.63777" lon="5.62347">
        <ele>224</ele>
        <time>2025-05-01T13:43:35.215+00:00</time>
      </trkpt>
      <trkpt lat="45.63777" lon="5.62339">
        <ele>224</ele>
        <time>2025-05-01T13:43:39.821+00:00</time>
      </trkpt>
      <trkpt lat="45.63776" lon="5.62332">
        <ele>224</ele>
        <time>2025-05-01T13:43:43.861+00:00</time>
      </trkpt>
      <trkpt lat="45.63773" lon="5.62324">
        <ele>224</ele>
        <time>2025-05-01T13:43:48.001+00:00</time>
      </trkpt>
      <trkpt lat="45.6377" lon="5.62318">
        <ele>224</ele>
        <time>2025-05-01T13:43:52.060+00:00</time>
      </trkpt>
      <trkpt lat="45.63768" lon="5.6231">
        <ele>224</ele>
        <time>2025-05-01T13:43:56.213+00:00</time>
      </trkpt>
      <trkpt lat="45.63766" lon="5.62301">
        <ele>224</ele>
        <time>2025-05-01T13:44:00.699+00:00</time>
      </trkpt>
      <trkpt lat="45.63767" lon="5.62295">
        <ele>224</ele>
        <time>2025-05-01T13:44:05.214+00:00</time>
      </trkpt>
      <trkpt lat="45.63768" lon="5.62291">
        <ele>222</ele>
        <time>2025-05-01T13:44:09.218+00:00</time>
      </trkpt>
      <trkpt lat="45.6377" lon="5.62284">
        <ele>222</ele>
        <time>2025-05-01T13:44:14.222+00:00</time>
      </trkpt>
      <trkpt lat="45.63775" lon="5.6228">
        <ele>222</ele>
        <time>2025-05-01T13:44:18.440+00:00</time>
      </trkpt>
      <trkpt lat="45.63781" lon="5.62282">
        <ele>222</ele>
        <time>2025-05-01T13:44:22.640+00:00</time>
      </trkpt>
      <trkpt lat="45.63789" lon="5.62285">
        <ele>222</ele>
        <time>2025-05-01T13:44:27.222+00:00</time>
      </trkpt>
      <trkpt lat="45.63797" lon="5.62287">
        <ele>219</ele>
        <time>2025-05-01T13:44:31.626+00:00</time>
      </trkpt>
      <trkpt lat="45.63804" lon="5.62287">
        <ele>219</ele>
        <time>2025-05-01T13:44:35.785+00:00</time>
      </trkpt>
      <trkpt lat="45.63812" lon="5.62289">
        <ele>219</ele>
        <time>2025-05-01T13:44:40.224+00:00</time>
      </trkpt>
      <trkpt lat="45.63819" lon="5.62293">
        <ele>220</ele>
        <time>2025-05-01T13:44:45.213+00:00</time>
      </trkpt>
      <trkpt lat="45.63826" lon="5.62295">
        <ele>219</ele>
        <time>2025-05-01T13:44:50.204+00:00</time>
      </trkpt>
      <trkpt lat="45.63833" lon="5.62296">
        <ele>219</ele>
        <time>2025-05-01T13:44:54.725+00:00</time>
      </trkpt>
      <trkpt lat="45.63839" lon="5.62297">
        <ele>219</ele>
        <time>2025-05-01T13:44:58.805+00:00</time>
      </trkpt>
      <trkpt lat="45.63844" lon="5.62299">
        <ele>219</ele>
        <time>2025-05-01T13:45:02.964+00:00</time>
      </trkpt>
      <trkpt lat="45.63848" lon="5.62298">
        <ele>211</ele>
        <time>2025-05-01T13:45:07.004+00:00</time>
      </trkpt>
      <trkpt lat="45.63855" lon="5.62301">
        <ele>211</ele>
        <time>2025-05-01T13:45:12.211+00:00</time>
      </trkpt>
      <trkpt lat="45.63862" lon="5.62305">
        <ele>211</ele>
        <time>2025-05-01T13:45:17.225+00:00</time>
      </trkpt>
      <trkpt lat="45.6387" lon="5.62307">
        <ele>211</ele>
        <time>2025-05-01T13:45:22.212+00:00</time>
      </trkpt>
      <trkpt lat="45.63875" lon="5.62309">
        <ele>211</ele>
        <time>2025-05-01T13:45:26.205+00:00</time>
      </trkpt>
      <trkpt lat="45.63882" lon="5.62311">
        <ele>211</ele>
        <time>2025-05-01T13:45:30.212+00:00</time>
      </trkpt>
      <trkpt lat="45.63889" lon="5.62313">
        <ele>211</ele>
        <time>2025-05-01T13:45:35.219+00:00</time>
      </trkpt>
      <trkpt lat="45.63897" lon="5.62315">
        <ele>211</ele>
        <time>2025-05-01T13:45:40.219+00:00</time>
      </trkpt>
      <trkpt lat="45.63903" lon="5.62316">
        <ele>222</ele>
        <time>2025-05-01T13:45:45.228+00:00</time>
      </trkpt>
      <trkpt lat="45.6391" lon="5.62318">
        <ele>222</ele>
        <time>2025-05-01T13:45:50.229+00:00</time>
      </trkpt>
      <trkpt lat="45.63918" lon="5.6232">
        <ele>221</ele>
        <time>2025-05-01T13:45:55.210+00:00</time>
      </trkpt>
      <trkpt lat="45.63924" lon="5.62321">
        <ele>221</ele>
        <time>2025-05-01T13:45:59.212+00:00</time>
      </trkpt>
      <trkpt lat="45.63932" lon="5.62325">
        <ele>224</ele>
        <time>2025-05-01T13:46:04.217+00:00</time>
      </trkpt>
      <trkpt lat="45.63939" lon="5.62325">
        <ele>224</ele>
        <time>2025-05-01T13:46:09.221+00:00</time>
      </trkpt>
      <trkpt lat="45.63944" lon="5.62329">
        <ele>224</ele>
        <time>2025-05-01T13:46:13.463+00:00</time>
      </trkpt>
      <trkpt lat="45.63951" lon="5.62332">
        <ele>224</ele>
        <time>2025-05-01T13:46:18.065+00:00</time>
      </trkpt>
      <trkpt lat="45.63957" lon="5.62335">
        <ele>224</ele>
        <time>2025-05-01T13:46:22.124+00:00</time>
      </trkpt>
      <trkpt lat="45.63963" lon="5.62337">
        <ele>227</ele>
        <time>2025-05-01T13:46:26.219+00:00</time>
      </trkpt>
      <trkpt lat="45.63969" lon="5.62338">
        <ele>227</ele>
        <time>2025-05-01T13:46:30.666+00:00</time>
      </trkpt>
      <trkpt lat="45.63974" lon="5.62339">
        <ele>227</ele>
        <time>2025-05-01T13:46:35.211+00:00</time>
      </trkpt>
      <trkpt lat="45.6398" lon="5.62339">
        <ele>227</ele>
        <time>2025-05-01T13:46:39.462+00:00</time>
      </trkpt>
      <trkpt lat="45.63986" lon="5.62343">
        <ele>227</ele>
        <time>2025-05-01T13:46:43.863+00:00</time>
      </trkpt>
      <trkpt lat="45.6399" lon="5.62341">
        <ele>227</ele>
        <time>2025-05-01T13:46:48.022+00:00</time>
      </trkpt>
      <trkpt lat="45.63992" lon="5.62335">
        <ele>227</ele>
        <time>2025-05-01T13:46:52.105+00:00</time>
      </trkpt>
      <trkpt lat="45.6399" lon="5.62325">
        <ele>227</ele>
        <time>2025-05-01T13:46:56.122+00:00</time>
      </trkpt>
      <trkpt lat="45.63988" lon="5.62317">
        <ele>226</ele>
        <time>2025-05-01T13:47:00.161+00:00</time>
      </trkpt>
      <trkpt lat="45.63987" lon="5.62307">
        <ele>226</ele>
        <time>2025-05-01T13:47:05.001+00:00</time>
      </trkpt>
      <trkpt lat="45.63987" lon="5.62298">
        <ele>226</ele>
        <time>2025-05-01T13:47:09.421+00:00</time>
      </trkpt>
      <trkpt lat="45.63986" lon="5.62289">
        <ele>226</ele>
        <time>2025-05-01T13:47:14.102+00:00</time>
      </trkpt>
      <trkpt lat="45.63985" lon="5.62281">
        <ele>226</ele>
        <time>2025-05-01T13:47:18.219+00:00</time>
      </trkpt>
      <trkpt lat="45.63984" lon="5.62271">
        <ele>226</ele>
        <time>2025-05-01T13:47:22.938+00:00</time>
      </trkpt>
      <trkpt lat="45.63983" lon="5.62263">
        <ele>227</ele>
        <time>2025-05-01T13:47:27.126+00:00</time>
      </trkpt>
      <trkpt lat="45.63981" lon="5.62255">
        <ele>227</ele>
        <time>2025-05-01T13:47:31.199+00:00</time>
      </trkpt>
      <trkpt lat="45.6398" lon="5.62247">
        <ele>227</ele>
        <time>2025-05-01T13:47:35.214+00:00</time>
      </trkpt>
      <trkpt lat="45.6398" lon="5.62238">
        <ele>227</ele>
        <time>2025-05-01T13:47:39.858+00:00</time>
      </trkpt>
      <trkpt lat="45.6398" lon="5.62233">
        <ele>228</ele>
        <time>2025-05-01T13:47:43.877+00:00</time>
      </trkpt>
      <trkpt lat="45.6398" lon="5.62226">
        <ele>228</ele>
        <time>2025-05-01T13:47:48.235+00:00</time>
      </trkpt>
      <trkpt lat="45.63979" lon="5.62218">
        <ele>228</ele>
        <time>2025-05-01T13:47:52.566+00:00</time>
      </trkpt>
      <trkpt lat="45.63978" lon="5.62209">
        <ele>228</ele>
        <time>2025-05-01T13:47:56.785+00:00</time>
      </trkpt>
      <trkpt lat="45.63977" lon="5.622">
        <ele>229</ele>
        <time>2025-05-01T13:48:01.121+00:00</time>
      </trkpt>
      <trkpt lat="45.63975" lon="5.62191">
        <ele>229</ele>
        <time>2025-05-01T13:48:05.202+00:00</time>
      </trkpt>
      <trkpt lat="45.63973" lon="5.62184">
        <ele>229</ele>
        <time>2025-05-01T13:48:09.221+00:00</time>
      </trkpt>
      <trkpt lat="45.63973" lon="5.62176">
        <ele>229</ele>
        <time>2025-05-01T13:48:13.660+00:00</time>
      </trkpt>
      <trkpt lat="45.63972" lon="5.62167">
        <ele>229</ele>
        <time>2025-05-01T13:48:18.003+00:00</time>
      </trkpt>
      <trkpt lat="45.63972" lon="5.62158">
        <ele>229</ele>
        <time>2025-05-01T13:48:22.211+00:00</time>
      </trkpt>
      <trkpt lat="45.6397" lon="5.62149">
        <ele>229</ele>
        <time>2025-05-01T13:48:26.681+00:00</time>
      </trkpt>
      <trkpt lat="45.63969" lon="5.62141">
        <ele>229</ele>
        <time>2025-05-01T13:48:30.740+00:00</time>
      </trkpt>
      <trkpt lat="45.63969" lon="5.62133">
        <ele>229</ele>
        <time>2025-05-01T13:48:35.212+00:00</time>
      </trkpt>
      <trkpt lat="45.63969" lon="5.62125">
        <ele>229</ele>
        <time>2025-05-01T13:48:39.232+00:00</time>
      </trkpt>
      <trkpt lat="45.6397" lon="5.62116">
        <ele>229</ele>
        <time>2025-05-01T13:48:43.781+00:00</time>
      </trkpt>
      <trkpt lat="45.63968" lon="5.62108">
        <ele>229</ele>
        <time>2025-05-01T13:48:48.215+00:00</time>
      </trkpt>
      <trkpt lat="45.63968" lon="5.62099">
        <ele>229</ele>
        <time>2025-05-01T13:48:52.737+00:00</time>
      </trkpt>
      <trkpt lat="45.63967" lon="5.6209">
        <ele>228</ele>
        <time>2025-05-01T13:48:57.233+00:00</time>
      </trkpt>
      <trkpt lat="45.63966" lon="5.62081">
        <ele>228</ele>
        <time>2025-05-01T13:49:01.799+00:00</time>
      </trkpt>
      <trkpt lat="45.63964" lon="5.62073">
        <ele>228</ele>
        <time>2025-05-01T13:49:06.078+00:00</time>
      </trkpt>
      <trkpt lat="45.63962" lon="5.62064">
        <ele>228</ele>
        <time>2025-05-01T13:49:10.212+00:00</time>
      </trkpt>
      <trkpt lat="45.63962" lon="5.62056">
        <ele>228</ele>
        <time>2025-05-01T13:49:14.547+00:00</time>
      </trkpt>
      <trkpt lat="45.63961" lon="5.62048">
        <ele>228</ele>
        <time>2025-05-01T13:49:18.874+00:00</time>
      </trkpt>
      <trkpt lat="45.6396" lon="5.6204">
        <ele>228</ele>
        <time>2025-05-01T13:49:23.170+00:00</time>
      </trkpt>
      <trkpt lat="45.63959" lon="5.6203">
        <ele>228</ele>
        <time>2025-05-01T13:49:28.028+00:00</time>
      </trkpt>
      <trkpt lat="45.63958" lon="5.62023">
        <ele>227</ele>
        <time>2025-05-01T13:49:32.217+00:00</time>
      </trkpt>
      <trkpt lat="45.63956" lon="5.62015">
        <ele>227</ele>
        <time>2025-05-01T13:49:36.505+00:00</time>
      </trkpt>
      <trkpt lat="45.63957" lon="5.62004">
        <ele>227</ele>
        <time>2025-05-01T13:49:41.226+00:00</time>
      </trkpt>
      <trkpt lat="45.63956" lon="5.61995">
        <ele>227</ele>
        <time>2025-05-01T13:49:45.885+00:00</time>
      </trkpt>
      <trkpt lat="45.63958" lon="5.61987">
        <ele>227</ele>
        <time>2025-05-01T13:50:07.023+00:00</time>
      </trkpt>
      <trkpt lat="45.63958" lon="5.61987">
        <ele>227</ele>
        <time>2025-05-01T13:50:11.442+00:00</time>
      </trkpt>
      <trkpt lat="45.63958" lon="5.61988">
        <ele>227</ele>
        <time>2025-05-01T13:50:15.843+00:00</time>
      </trkpt>
      <trkpt lat="45.6396" lon="5.61991">
        <ele>227</ele>
        <time>2025-05-01T13:50:20.200+00:00</time>
      </trkpt>
      <trkpt lat="45.63967" lon="5.61995">
        <ele>227</ele>
        <time>2025-05-01T13:50:24.224+00:00</time>
      </trkpt>
      <trkpt lat="45.63976" lon="5.61997">
        <ele>227</ele>
        <time>2025-05-01T13:50:29.230+00:00</time>
      </trkpt>
      <trkpt lat="45.63983" lon="5.61999">
        <ele>227</ele>
        <time>2025-05-01T13:50:34.222+00:00</time>
      </trkpt>
      <trkpt lat="45.6399" lon="5.62003">
        <ele>226</ele>
        <time>2025-05-01T13:50:39.219+00:00</time>
      </trkpt>
      <trkpt lat="45.63997" lon="5.62006">
        <ele>226</ele>
        <time>2025-05-01T13:50:44.214+00:00</time>
      </trkpt>
      <trkpt lat="45.64002" lon="5.62006">
        <ele>226</ele>
        <time>2025-05-01T13:50:48.222+00:00</time>
      </trkpt>
      <trkpt lat="45.64007" lon="5.62006">
        <ele>226</ele>
        <time>2025-05-01T13:50:52.225+00:00</time>
      </trkpt>
      <trkpt lat="45.64011" lon="5.62006">
        <ele>226</ele>
        <time>2025-05-01T13:50:57.263+00:00</time>
      </trkpt>
      <trkpt lat="45.64017" lon="5.62009">
        <ele>225</ele>
        <time>2025-05-01T13:51:02.221+00:00</time>
      </trkpt>
      <trkpt lat="45.64023" lon="5.62011">
        <ele>225</ele>
        <time>2025-05-01T13:51:06.220+00:00</time>
      </trkpt>
      <trkpt lat="45.6403" lon="5.62012">
        <ele>225</ele>
        <time>2025-05-01T13:51:11.213+00:00</time>
      </trkpt>
      <trkpt lat="45.64038" lon="5.62012">
        <ele>225</ele>
        <time>2025-05-01T13:51:16.223+00:00</time>
      </trkpt>
      <trkpt lat="45.64046" lon="5.62014">
        <ele>226</ele>
        <time>2025-05-01T13:51:21.205+00:00</time>
      </trkpt>
      <trkpt lat="45.64051" lon="5.62016">
        <ele>226</ele>
        <time>2025-05-01T13:51:25.220+00:00</time>
      </trkpt>
      <trkpt lat="45.64057" lon="5.62017">
        <ele>226</ele>
        <time>2025-05-01T13:51:29.517+00:00</time>
      </trkpt>
      <trkpt lat="45.64063" lon="5.62019">
        <ele>226</ele>
        <time>2025-05-01T13:51:33.741+00:00</time>
      </trkpt>
      <trkpt lat="45.64069" lon="5.62021">
        <ele>226</ele>
        <time>2025-05-01T13:51:37.917+00:00</time>
      </trkpt>
      <trkpt lat="45.64073" lon="5.62021">
        <ele>226</ele>
        <time>2025-05-01T13:51:42.222+00:00</time>
      </trkpt>
      <trkpt lat="45.64073" lon="5.62021">
        <ele>226</ele>
        <time>2025-05-01T13:51:46.798+00:00</time>
      </trkpt>
      <trkpt lat="45.64078" lon="5.62024">
        <ele>226</ele>
        <time>2025-05-01T13:51:50.817+00:00</time>
      </trkpt>
      <trkpt lat="45.64085" lon="5.62026">
        <ele>226</ele>
        <time>2025-05-01T13:51:55.225+00:00</time>
      </trkpt>
      <trkpt lat="45.6409" lon="5.62029">
        <ele>226</ele>
        <time>2025-05-01T13:52:00.218+00:00</time>
      </trkpt>
      <trkpt lat="45.64091" lon="5.62033">
        <ele>226</ele>
        <time>2025-05-01T13:52:04.223+00:00</time>
      </trkpt>
      <trkpt lat="45.64091" lon="5.62033">
        <ele>226</ele>
        <time>2025-05-01T13:52:10.215+00:00</time>
      </trkpt>
      <trkpt lat="45.64095" lon="5.62033">
        <ele>226</ele>
        <time>2025-05-01T13:52:15.230+00:00</time>
      </trkpt>
      <trkpt lat="45.64104" lon="5.62033">
        <ele>225</ele>
        <time>2025-05-01T13:52:20.232+00:00</time>
      </trkpt>
      <trkpt lat="45.6411" lon="5.62033">
        <ele>225</ele>
        <time>2025-05-01T13:52:24.621+00:00</time>
      </trkpt>
      <trkpt lat="45.64117" lon="5.62032">
        <ele>225</ele>
        <time>2025-05-01T13:52:28.900+00:00</time>
      </trkpt>
      <trkpt lat="45.64124" lon="5.62034">
        <ele>225</ele>
        <time>2025-05-01T13:52:33.229+00:00</time>
      </trkpt>
      <trkpt lat="45.64131" lon="5.62036">
        <ele>223</ele>
        <time>2025-05-01T13:52:37.656+00:00</time>
      </trkpt>
      <trkpt lat="45.64137" lon="5.62038">
        <ele>223</ele>
        <time>2025-05-01T13:52:41.800+00:00</time>
      </trkpt>
      <trkpt lat="45.64143" lon="5.62039">
        <ele>223</ele>
        <time>2025-05-01T13:52:45.938+00:00</time>
      </trkpt>
      <trkpt lat="45.64149" lon="5.62041">
        <ele>223</ele>
        <time>2025-05-01T13:52:50.057+00:00</time>
      </trkpt>
      <trkpt lat="45.64155" lon="5.62042">
        <ele>224</ele>
        <time>2025-05-01T13:52:54.196+00:00</time>
      </trkpt>
      <trkpt lat="45.64161" lon="5.62044">
        <ele>224</ele>
        <time>2025-05-01T13:52:58.498+00:00</time>
      </trkpt>
      <trkpt lat="45.64166" lon="5.62044">
        <ele>224</ele>
        <time>2025-05-01T13:53:02.578+00:00</time>
      </trkpt>
      <trkpt lat="45.64172" lon="5.62044">
        <ele>224</ele>
        <time>2025-05-01T13:53:07.016+00:00</time>
      </trkpt>
      <trkpt lat="45.64178" lon="5.62044">
        <ele>224</ele>
        <time>2025-05-01T13:53:11.157+00:00</time>
      </trkpt>
      <trkpt lat="45.64185" lon="5.62044">
        <ele>225</ele>
        <time>2025-05-01T13:53:15.212+00:00</time>
      </trkpt>
      <trkpt lat="45.64192" lon="5.62043">
        <ele>225</ele>
        <time>2025-05-01T13:53:19.222+00:00</time>
      </trkpt>
      <trkpt lat="45.64199" lon="5.62044">
        <ele>225</ele>
        <time>2025-05-01T13:53:23.917+00:00</time>
      </trkpt>
      <trkpt lat="45.64205" lon="5.6204">
        <ele>224</ele>
        <time>2025-05-01T13:53:28.527+00:00</time>
      </trkpt>
      <trkpt lat="45.6421" lon="5.62039">
        <ele>224</ele>
        <time>2025-05-01T13:53:33.212+00:00</time>
      </trkpt>
      <trkpt lat="45.64212" lon="5.62037">
        <ele>224</ele>
        <time>2025-05-01T13:53:37.465+00:00</time>
      </trkpt>
      <trkpt lat="45.64218" lon="5.62034">
        <ele>224</ele>
        <time>2025-05-01T13:53:41.545+00:00</time>
      </trkpt>
      <trkpt lat="45.64225" lon="5.62032">
        <ele>224</ele>
        <time>2025-05-01T13:53:45.625+00:00</time>
      </trkpt>
      <trkpt lat="45.64231" lon="5.62031">
        <ele>224</ele>
        <time>2025-05-01T13:53:49.844+00:00</time>
      </trkpt>
      <trkpt lat="45.64236" lon="5.62029">
        <ele>224</ele>
        <time>2025-05-01T13:53:53.945+00:00</time>
      </trkpt>
      <trkpt lat="45.64242" lon="5.62024">
        <ele>224</ele>
        <time>2025-05-01T13:53:58.525+00:00</time>
      </trkpt>
      <trkpt lat="45.64248" lon="5.6202">
        <ele>224</ele>
        <time>2025-05-01T13:54:02.647+00:00</time>
      </trkpt>
      <trkpt lat="45.64254" lon="5.62016">
        <ele>224</ele>
        <time>2025-05-01T13:54:06.724+00:00</time>
      </trkpt>
      <trkpt lat="45.64258" lon="5.62013">
        <ele>224</ele>
        <time>2025-05-01T13:54:10.946+00:00</time>
      </trkpt>
      <trkpt lat="45.64263" lon="5.62013">
        <ele>224</ele>
        <time>2025-05-01T13:54:15.227+00:00</time>
      </trkpt>
      <trkpt lat="45.64269" lon="5.6201">
        <ele>223</ele>
        <time>2025-05-01T13:54:19.666+00:00</time>
      </trkpt>
      <trkpt lat="45.64275" lon="5.62007">
        <ele>223</ele>
        <time>2025-05-01T13:54:23.706+00:00</time>
      </trkpt>
      <trkpt lat="45.64281" lon="5.62005">
        <ele>223</ele>
        <time>2025-05-01T13:54:27.987+00:00</time>
      </trkpt>
      <trkpt lat="45.64287" lon="5.62003">
        <ele>223</ele>
        <time>2025-05-01T13:54:32.282+00:00</time>
      </trkpt>
      <trkpt lat="45.6429" lon="5.61998">
        <ele>223</ele>
        <time>2025-05-01T13:54:36.743+00:00</time>
      </trkpt>
      <trkpt lat="45.64291" lon="5.61992">
        <ele>223</ele>
        <time>2025-05-01T13:54:40.822+00:00</time>
      </trkpt>
      <trkpt lat="45.6429" lon="5.61984">
        <ele>223</ele>
        <time>2025-05-01T13:54:44.840+00:00</time>
      </trkpt>
      <trkpt lat="45.64287" lon="5.61973">
        <ele>223</ele>
        <time>2025-05-01T13:54:49.208+00:00</time>
      </trkpt>
      <trkpt lat="45.64287" lon="5.61954">
        <ele>223</ele>
        <time>2025-05-01T13:54:53.481+00:00</time>
      </trkpt>
      <trkpt lat="45.64285" lon="5.61934">
        <ele>223</ele>
        <time>2025-05-01T13:54:57.719+00:00</time>
      </trkpt>
      <trkpt lat="45.6428" lon="5.6188">
        <ele>223</ele>
        <time>2025-05-01T13:55:02.215+00:00</time>
      </trkpt>
      <trkpt lat="45.64276" lon="5.61836">
        <ele>223</ele>
        <time>2025-05-01T13:55:07.211+00:00</time>
      </trkpt>
      <trkpt lat="45.64272" lon="5.61805">
        <ele>223</ele>
        <time>2025-05-01T13:55:11.231+00:00</time>
      </trkpt>
      <trkpt lat="45.64269" lon="5.6177">
        <ele>223</ele>
        <time>2025-05-01T13:55:16.213+00:00</time>
      </trkpt>
      <trkpt lat="45.64265" lon="5.61747">
        <ele>223</ele>
        <time>2025-05-01T13:55:20.210+00:00</time>
      </trkpt>
      <trkpt lat="45.64264" lon="5.6174">
        <ele>223</ele>
        <time>2025-05-01T13:55:24.718+00:00</time>
      </trkpt>
      <trkpt lat="45.64262" lon="5.61731">
        <ele>224</ele>
        <time>2025-05-01T13:55:29.226+00:00</time>
      </trkpt>
      <trkpt lat="45.64262" lon="5.61728">
        <ele>224</ele>
        <time>2025-05-01T13:55:34.222+00:00</time>
      </trkpt>
      <trkpt lat="45.64262" lon="5.61729">
        <ele>224</ele>
        <time>2025-05-01T13:55:38.265+00:00</time>
      </trkpt>
      <trkpt lat="45.64262" lon="5.61723">
        <ele>224</ele>
        <time>2025-05-01T13:55:42.926+00:00</time>
      </trkpt>
      <trkpt lat="45.64258" lon="5.61715">
        <ele>224</ele>
        <time>2025-05-01T13:55:47.227+00:00</time>
      </trkpt>
      <trkpt lat="45.64257" lon="5.61712">
        <ele>224</ele>
        <time>2025-05-01T13:55:52.237+00:00</time>
      </trkpt>
      <trkpt lat="45.64257" lon="5.61712">
        <ele>224</ele>
        <time>2025-05-01T13:55:57.008+00:00</time>
      </trkpt>
      <trkpt lat="45.64255" lon="5.6171">
        <ele>224</ele>
        <time>2025-05-01T13:56:01.211+00:00</time>
      </trkpt>
      <trkpt lat="45.64248" lon="5.61705">
        <ele>225</ele>
        <time>2025-05-01T13:56:05.806+00:00</time>
      </trkpt>
      <trkpt lat="45.64243" lon="5.6169">
        <ele>225</ele>
        <time>2025-05-01T13:56:10.183+00:00</time>
      </trkpt>
      <trkpt lat="45.64239" lon="5.61662">
        <ele>226</ele>
        <time>2025-05-01T13:56:14.407+00:00</time>
      </trkpt>
      <trkpt lat="45.64239" lon="5.61632">
        <ele>227</ele>
        <time>2025-05-01T13:56:18.685+00:00</time>
      </trkpt>
      <trkpt lat="45.64237" lon="5.6159">
        <ele>228</ele>
        <time>2025-05-01T13:56:23.203+00:00</time>
      </trkpt>
      <trkpt lat="45.64236" lon="5.61579">
        <ele>227</ele>
        <time>2025-05-01T13:56:27.220+00:00</time>
      </trkpt>
      <trkpt lat="45.64234" lon="5.61575">
        <ele>227</ele>
        <time>2025-05-01T13:56:32.206+00:00</time>
      </trkpt>
      <trkpt lat="45.64231" lon="5.61572">
        <ele>227</ele>
        <time>2025-05-01T13:56:36.792+00:00</time>
      </trkpt>
      <trkpt lat="45.64231" lon="5.61561">
        <ele>226</ele>
        <time>2025-05-01T13:56:40.932+00:00</time>
      </trkpt>
      <trkpt lat="45.64231" lon="5.61551">
        <ele>226</ele>
        <time>2025-05-01T13:56:45.230+00:00</time>
      </trkpt>
      <trkpt lat="45.64238" lon="5.61543">
        <ele>227</ele>
        <time>2025-05-01T13:56:50.218+00:00</time>
      </trkpt>
      <trkpt lat="45.64243" lon="5.6154">
        <ele>224</ele>
        <time>2025-05-01T13:56:54.370+00:00</time>
      </trkpt>
      <trkpt lat="45.64246" lon="5.6154">
        <ele>224</ele>
        <time>2025-05-01T13:56:58.933+00:00</time>
      </trkpt>
      <trkpt lat="45.64252" lon="5.61541">
        <ele>224</ele>
        <time>2025-05-01T13:57:03.218+00:00</time>
      </trkpt>
      <trkpt lat="45.6426" lon="5.61545">
        <ele>227</ele>
        <time>2025-05-01T13:57:07.579+00:00</time>
      </trkpt>
      <trkpt lat="45.64272" lon="5.61552">
        <ele>225</ele>
        <time>2025-05-01T13:57:11.982+00:00</time>
      </trkpt>
      <trkpt lat="45.64287" lon="5.61557">
        <ele>225</ele>
        <time>2025-05-01T13:57:16.211+00:00</time>
      </trkpt>
      <trkpt lat="45.643" lon="5.61561">
        <ele>223</ele>
        <time>2025-05-01T13:57:20.599+00:00</time>
      </trkpt>
      <trkpt lat="45.64317" lon="5.61556">
        <ele>223</ele>
        <time>2025-05-01T13:57:25.216+00:00</time>
      </trkpt>
      <trkpt lat="45.64329" lon="5.61552">
        <ele>223</ele>
        <time>2025-05-01T13:57:30.174+00:00</time>
      </trkpt>
      <trkpt lat="45.64337" lon="5.61551">
        <ele>223</ele>
        <time>2025-05-01T13:57:35.204+00:00</time>
      </trkpt>
      <trkpt lat="45.64339" lon="5.61542">
        <ele>223</ele>
        <time>2025-05-01T13:57:39.617+00:00</time>
      </trkpt>
      <trkpt lat="45.64343" lon="5.61536">
        <ele>223</ele>
        <time>2025-05-01T13:57:43.997+00:00</time>
      </trkpt>
      <trkpt lat="45.64352" lon="5.61533">
        <ele>223</ele>
        <time>2025-05-01T13:57:48.174+00:00</time>
      </trkpt>
      <trkpt lat="45.64354" lon="5.61531">
        <ele>223</ele>
        <time>2025-05-01T13:57:52.154+00:00</time>
      </trkpt>
      <trkpt lat="45.64361" lon="5.61528">
        <ele>223</ele>
        <time>2025-05-01T13:57:56.759+00:00</time>
      </trkpt>
      <trkpt lat="45.64391" lon="5.61532">
        <ele>222</ele>
        <time>2025-05-01T13:58:01.223+00:00</time>
      </trkpt>
      <trkpt lat="45.64409" lon="5.61533">
        <ele>219</ele>
        <time>2025-05-01T13:58:06.207+00:00</time>
      </trkpt>
      <trkpt lat="45.64411" lon="5.61532">
        <ele>219</ele>
        <time>2025-05-01T13:58:11.137+00:00</time>
      </trkpt>
      <trkpt lat="45.64419" lon="5.61534">
        <ele>219</ele>
        <time>2025-05-01T13:58:15.471+00:00</time>
      </trkpt>
      <trkpt lat="45.64427" lon="5.61533">
        <ele>219</ele>
        <time>2025-05-01T13:58:19.918+00:00</time>
      </trkpt>
      <trkpt lat="45.64434" lon="5.61532">
        <ele>219</ele>
        <time>2025-05-01T13:58:24.219+00:00</time>
      </trkpt>
      <trkpt lat="45.64437" lon="5.61531">
        <ele>219</ele>
        <time>2025-05-01T13:58:28.758+00:00</time>
      </trkpt>
      <trkpt lat="45.64442" lon="5.61529">
        <ele>219</ele>
        <time>2025-05-01T13:58:33.218+00:00</time>
      </trkpt>
      <trkpt lat="45.64446" lon="5.61525">
        <ele>219</ele>
        <time>2025-05-01T13:58:37.557+00:00</time>
      </trkpt>
      <trkpt lat="45.64451" lon="5.61521">
        <ele>219</ele>
        <time>2025-05-01T13:58:42.158+00:00</time>
      </trkpt>
      <trkpt lat="45.64456" lon="5.61518">
        <ele>219</ele>
        <time>2025-05-01T13:58:47.058+00:00</time>
      </trkpt>
      <trkpt lat="45.64464" lon="5.61513">
        <ele>216</ele>
        <time>2025-05-01T13:58:51.158+00:00</time>
      </trkpt>
      <trkpt lat="45.64472" lon="5.61509">
        <ele>216</ele>
        <time>2025-05-01T13:58:55.220+00:00</time>
      </trkpt>
      <trkpt lat="45.64481" lon="5.61505">
        <ele>216</ele>
        <time>2025-05-01T13:58:59.378+00:00</time>
      </trkpt>
      <trkpt lat="45.64488" lon="5.61498">
        <ele>219</ele>
        <time>2025-05-01T13:59:03.537+00:00</time>
      </trkpt>
      <trkpt lat="45.64495" lon="5.61494">
        <ele>219</ele>
        <time>2025-05-01T13:59:07.677+00:00</time>
      </trkpt>
      <trkpt lat="45.64501" lon="5.61492">
        <ele>219</ele>
        <time>2025-05-01T13:59:12.221+00:00</time>
      </trkpt>
      <trkpt lat="45.64501" lon="5.61493">
        <ele>219</ele>
        <time>2025-05-01T13:59:16.778+00:00</time>
      </trkpt>
      <trkpt lat="45.64503" lon="5.61491">
        <ele>219</ele>
        <time>2025-05-01T13:59:21.227+00:00</time>
      </trkpt>
      <trkpt lat="45.64508" lon="5.61487">
        <ele>219</ele>
        <time>2025-05-01T13:59:26.216+00:00</time>
      </trkpt>
      <trkpt lat="45.64518" lon="5.61482">
        <ele>219</ele>
        <time>2025-05-01T13:59:30.617+00:00</time>
      </trkpt>
      <trkpt lat="45.64526" lon="5.61479">
        <ele>219</ele>
        <time>2025-05-01T13:59:34.637+00:00</time>
      </trkpt>
      <trkpt lat="45.64533" lon="5.61471">
        <ele>219</ele>
        <time>2025-05-01T13:59:39.226+00:00</time>
      </trkpt>
      <trkpt lat="45.64536" lon="5.61464">
        <ele>219</ele>
        <time>2025-05-01T13:59:44.214+00:00</time>
      </trkpt>
      <trkpt lat="45.64536" lon="5.61464">
        <ele>219</ele>
        <time>2025-05-01T13:59:49.220+00:00</time>
      </trkpt>
      <trkpt lat="45.64536" lon="5.61462">
        <ele>219</ele>
        <time>2025-05-01T13:59:53.758+00:00</time>
      </trkpt>
      <trkpt lat="45.64539" lon="5.61455">
        <ele>217</ele>
        <time>2025-05-01T13:59:57.999+00:00</time>
      </trkpt>
      <trkpt lat="45.64542" lon="5.61451">
        <ele>218</ele>
        <time>2025-05-01T14:00:02.219+00:00</time>
      </trkpt>
      <trkpt lat="45.64549" lon="5.61445">
        <ele>218</ele>
        <time>2025-05-01T14:00:06.878+00:00</time>
      </trkpt>
      <trkpt lat="45.64554" lon="5.61441">
        <ele>218</ele>
        <time>2025-05-01T14:00:11.202+00:00</time>
      </trkpt>
      <trkpt lat="45.64556" lon="5.61439">
        <ele>218</ele>
        <time>2025-05-01T14:00:15.355+00:00</time>
      </trkpt>
      <trkpt lat="45.6456" lon="5.61436">
        <ele>218</ele>
        <time>2025-05-01T14:00:19.497+00:00</time>
      </trkpt>
      <trkpt lat="45.64564" lon="5.61434">
        <ele>218</ele>
        <time>2025-05-01T14:00:23.677+00:00</time>
      </trkpt>
      <trkpt lat="45.6457" lon="5.61432">
        <ele>220</ele>
        <time>2025-05-01T14:00:27.996+00:00</time>
      </trkpt>
      <trkpt lat="45.64576" lon="5.6143">
        <ele>219</ele>
        <time>2025-05-01T14:00:32.210+00:00</time>
      </trkpt>
      <trkpt lat="45.64579" lon="5.61429">
        <ele>219</ele>
        <time>2025-05-01T14:00:37.248+00:00</time>
      </trkpt>
      <trkpt lat="45.64582" lon="5.61428">
        <ele>219</ele>
        <time>2025-05-01T14:00:42.221+00:00</time>
      </trkpt>
      <trkpt lat="45.64584" lon="5.61427">
        <ele>219</ele>
        <time>2025-05-01T14:00:48.217+00:00</time>
      </trkpt>
      <trkpt lat="45.64587" lon="5.61425">
        <ele>219</ele>
        <time>2025-05-01T14:00:53.208+00:00</time>
      </trkpt>
      <trkpt lat="45.64589" lon="5.61424">
        <ele>219</ele>
        <time>2025-05-01T14:00:57.203+00:00</time>
      </trkpt>
      <trkpt lat="45.64592" lon="5.61425">
        <ele>219</ele>
        <time>2025-05-01T14:01:56.218+00:00</time>
      </trkpt>
      <trkpt lat="45.64591" lon="5.61425">
        <ele>219</ele>
        <time>2025-05-01T14:02:00.676+00:00</time>
      </trkpt>
      <trkpt lat="45.64597" lon="5.61425">
        <ele>219</ele>
        <time>2025-05-01T14:02:04.815+00:00</time>
      </trkpt>
      <trkpt lat="45.64603" lon="5.61421">
        <ele>222</ele>
        <time>2025-05-01T14:02:08.936+00:00</time>
      </trkpt>
      <trkpt lat="45.64608" lon="5.61415">
        <ele>222</ele>
        <time>2025-05-01T14:02:13.216+00:00</time>
      </trkpt>
      <trkpt lat="45.64611" lon="5.61413">
        <ele>222</ele>
        <time>2025-05-01T14:02:17.494+00:00</time>
      </trkpt>
      <trkpt lat="45.64615" lon="5.61412">
        <ele>222</ele>
        <time>2025-05-01T14:02:21.795+00:00</time>
      </trkpt>
      <trkpt lat="45.64618" lon="5.61409">
        <ele>222</ele>
        <time>2025-05-01T14:02:25.835+00:00</time>
      </trkpt>
      <trkpt lat="45.64618" lon="5.61405">
        <ele>222</ele>
        <time>2025-05-01T14:02:30.577+00:00</time>
      </trkpt>
      <trkpt lat="45.64618" lon="5.61402">
        <ele>220</ele>
        <time>2025-05-01T14:02:35.017+00:00</time>
      </trkpt>
      <trkpt lat="45.6462" lon="5.61395">
        <ele>220</ele>
        <time>2025-05-01T14:02:39.594+00:00</time>
      </trkpt>
      <trkpt lat="45.64623" lon="5.61389">
        <ele>220</ele>
        <time>2025-05-01T14:02:44.114+00:00</time>
      </trkpt>
      <trkpt lat="45.64627" lon="5.61407">
        <ele>223</ele>
        <time>2025-05-01T14:02:48.219+00:00</time>
      </trkpt>
      <trkpt lat="45.6463" lon="5.61405">
        <ele>223</ele>
        <time>2025-05-01T14:02:53.213+00:00</time>
      </trkpt>
      <trkpt lat="45.64643" lon="5.61389">
        <ele>220</ele>
        <time>2025-05-01T14:02:58.197+00:00</time>
      </trkpt>
      <trkpt lat="45.64651" lon="5.61378">
        <ele>220</ele>
        <time>2025-05-01T14:03:02.211+00:00</time>
      </trkpt>
      <trkpt lat="45.64658" lon="5.61363">
        <ele>214</ele>
        <time>2025-05-01T14:03:07.208+00:00</time>
      </trkpt>
      <trkpt lat="45.64659" lon="5.6136">
        <ele>214</ele>
        <time>2025-05-01T14:03:11.227+00:00</time>
      </trkpt>
      <trkpt lat="45.6466" lon="5.61359">
        <ele>214</ele>
        <time>2025-05-01T14:03:15.554+00:00</time>
      </trkpt>
      <trkpt lat="45.64664" lon="5.61352">
        <ele>214</ele>
        <time>2025-05-01T14:03:20.054+00:00</time>
      </trkpt>
      <trkpt lat="45.64669" lon="5.61347">
        <ele>212</ele>
        <time>2025-05-01T14:03:24.153+00:00</time>
      </trkpt>
      <trkpt lat="45.64673" lon="5.61342">
        <ele>212</ele>
        <time>2025-05-01T14:03:28.211+00:00</time>
      </trkpt>
      <trkpt lat="45.64679" lon="5.61338">
        <ele>212</ele>
        <time>2025-05-01T14:03:32.514+00:00</time>
      </trkpt>
      <trkpt lat="45.64685" lon="5.61334">
        <ele>209</ele>
        <time>2025-05-01T14:03:36.685+00:00</time>
      </trkpt>
      <trkpt lat="45.64691" lon="5.6133">
        <ele>209</ele>
        <time>2025-05-01T14:03:40.894+00:00</time>
      </trkpt>
      <trkpt lat="45.64695" lon="5.61325">
        <ele>209</ele>
        <time>2025-05-01T14:03:44.933+00:00</time>
      </trkpt>
      <trkpt lat="45.64699" lon="5.61319">
        <ele>209</ele>
        <time>2025-05-01T14:03:48.972+00:00</time>
      </trkpt>
      <trkpt lat="45.64704" lon="5.61313">
        <ele>209</ele>
        <time>2025-05-01T14:03:53.151+00:00</time>
      </trkpt>
      <trkpt lat="45.6471" lon="5.61309">
        <ele>207</ele>
        <time>2025-05-01T14:03:57.217+00:00</time>
      </trkpt>
      <trkpt lat="45.64716" lon="5.61306">
        <ele>207</ele>
        <time>2025-05-01T14:04:01.339+00:00</time>
      </trkpt>
      <trkpt lat="45.64721" lon="5.61302">
        <ele>207</ele>
        <time>2025-05-01T14:04:05.423+00:00</time>
      </trkpt>
      <trkpt lat="45.64726" lon="5.61297">
        <ele>207</ele>
        <time>2025-05-01T14:04:09.620+00:00</time>
      </trkpt>
      <trkpt lat="45.64732" lon="5.61291">
        <ele>207</ele>
        <time>2025-05-01T14:04:13.739+00:00</time>
      </trkpt>
      <trkpt lat="45.64736" lon="5.61284">
        <ele>207</ele>
        <time>2025-05-01T14:04:17.821+00:00</time>
      </trkpt>
      <trkpt lat="45.64737" lon="5.61275">
        <ele>207</ele>
        <time>2025-05-01T14:04:22.217+00:00</time>
      </trkpt>
      <trkpt lat="45.64737" lon="5.61275">
        <ele>207</ele>
        <time>2025-05-01T14:04:27.218+00:00</time>
      </trkpt>
      <trkpt lat="45.64737" lon="5.61275">
        <ele>207</ele>
        <time>2025-05-01T14:04:32.225+00:00</time>
      </trkpt>
      <trkpt lat="45.64737" lon="5.61273">
        <ele>207</ele>
        <time>2025-05-01T14:04:36.600+00:00</time>
      </trkpt>
      <trkpt lat="45.6474" lon="5.6126">
        <ele>207</ele>
        <time>2025-05-01T14:04:41.199+00:00</time>
      </trkpt>
      <trkpt lat="45.6474" lon="5.61251">
        <ele>207</ele>
        <time>2025-05-01T14:04:45.198+00:00</time>
      </trkpt>
      <trkpt lat="45.64739" lon="5.61239">
        <ele>207</ele>
        <time>2025-05-01T14:04:49.719+00:00</time>
      </trkpt>
      <trkpt lat="45.64741" lon="5.61229">
        <ele>207</ele>
        <time>2025-05-01T14:04:54.158+00:00</time>
      </trkpt>
      <trkpt lat="45.64742" lon="5.61224">
        <ele>207</ele>
        <time>2025-05-01T14:04:59.217+00:00</time>
      </trkpt>
      <trkpt lat="45.64743" lon="5.61216">
        <ele>207</ele>
        <time>2025-05-01T14:05:03.817+00:00</time>
      </trkpt>
      <trkpt lat="45.64744" lon="5.61204">
        <ele>208</ele>
        <time>2025-05-01T14:05:08.220+00:00</time>
      </trkpt>
      <trkpt lat="45.64745" lon="5.61194">
        <ele>208</ele>
        <time>2025-05-01T14:05:12.816+00:00</time>
      </trkpt>
      <trkpt lat="45.64745" lon="5.61186">
        <ele>208</ele>
        <time>2025-05-01T14:05:17.236+00:00</time>
      </trkpt>
      <trkpt lat="45.64745" lon="5.61176">
        <ele>208</ele>
        <time>2025-05-01T14:05:21.815+00:00</time>
      </trkpt>
      <trkpt lat="45.64745" lon="5.61167">
        <ele>208</ele>
        <time>2025-05-01T14:05:26.200+00:00</time>
      </trkpt>
      <trkpt lat="45.64745" lon="5.6116">
        <ele>208</ele>
        <time>2025-05-01T14:05:30.214+00:00</time>
      </trkpt>
      <trkpt lat="45.64744" lon="5.61149">
        <ele>208</ele>
        <time>2025-05-01T14:05:35.215+00:00</time>
      </trkpt>
      <trkpt lat="45.64746" lon="5.61143">
        <ele>208</ele>
        <time>2025-05-01T14:05:40.211+00:00</time>
      </trkpt>
      <trkpt lat="45.64748" lon="5.61139">
        <ele>208</ele>
        <time>2025-05-01T14:05:44.940+00:00</time>
      </trkpt>
      <trkpt lat="45.64752" lon="5.61131">
        <ele>208</ele>
        <time>2025-05-01T14:05:48.939+00:00</time>
      </trkpt>
      <trkpt lat="45.64756" lon="5.61127">
        <ele>208</ele>
        <time>2025-05-01T14:05:53.040+00:00</time>
      </trkpt>
      <trkpt lat="45.64762" lon="5.61125">
        <ele>208</ele>
        <time>2025-05-01T14:05:57.139+00:00</time>
      </trkpt>
      <trkpt lat="45.64768" lon="5.61124">
        <ele>209</ele>
        <time>2025-05-01T14:06:01.211+00:00</time>
      </trkpt>
      <trkpt lat="45.64775" lon="5.61122">
        <ele>209</ele>
        <time>2025-05-01T14:06:05.738+00:00</time>
      </trkpt>
      <trkpt lat="45.64783" lon="5.61122">
        <ele>209</ele>
        <time>2025-05-01T14:06:10.078+00:00</time>
      </trkpt>
      <trkpt lat="45.64788" lon="5.61123">
        <ele>209</ele>
        <time>2025-05-01T14:06:14.212+00:00</time>
      </trkpt>
      <trkpt lat="45.64789" lon="5.61122">
        <ele>209</ele>
        <time>2025-05-01T14:06:18.220+00:00</time>
      </trkpt>
      <trkpt lat="45.64794" lon="5.61122">
        <ele>210</ele>
        <time>2025-05-01T14:06:22.457+00:00</time>
      </trkpt>
      <trkpt lat="45.64801" lon="5.61121">
        <ele>210</ele>
        <time>2025-05-01T14:06:26.558+00:00</time>
      </trkpt>
      <trkpt lat="45.64808" lon="5.61119">
        <ele>210</ele>
        <time>2025-05-01T14:06:31.202+00:00</time>
      </trkpt>
      <trkpt lat="45.64815" lon="5.61118">
        <ele>210</ele>
        <time>2025-05-01T14:06:35.655+00:00</time>
      </trkpt>
      <trkpt lat="45.6482" lon="5.61118">
        <ele>210</ele>
        <time>2025-05-01T14:06:40.056+00:00</time>
      </trkpt>
      <trkpt lat="45.64826" lon="5.61119">
        <ele>210</ele>
        <time>2025-05-01T14:06:44.513+00:00</time>
      </trkpt>
      <trkpt lat="45.64831" lon="5.6112">
        <ele>210</ele>
        <time>2025-05-01T14:06:48.895+00:00</time>
      </trkpt>
      <trkpt lat="45.64838" lon="5.61119">
        <ele>210</ele>
        <time>2025-05-01T14:06:53.133+00:00</time>
      </trkpt>
      <trkpt lat="45.64844" lon="5.61118">
        <ele>210</ele>
        <time>2025-05-01T14:06:57.211+00:00</time>
      </trkpt>
      <trkpt lat="45.6485" lon="5.61118">
        <ele>211</ele>
        <time>2025-05-01T14:07:01.351+00:00</time>
      </trkpt>
      <trkpt lat="45.64856" lon="5.61116">
        <ele>211</ele>
        <time>2025-05-01T14:07:05.572+00:00</time>
      </trkpt>
      <trkpt lat="45.64863" lon="5.61113">
        <ele>211</ele>
        <time>2025-05-01T14:07:09.873+00:00</time>
      </trkpt>
      <trkpt lat="45.64868" lon="5.6111">
        <ele>211</ele>
        <time>2025-05-01T14:07:14.073+00:00</time>
      </trkpt>
      <trkpt lat="45.64874" lon="5.61109">
        <ele>211</ele>
        <time>2025-05-01T14:07:18.421+00:00</time>
      </trkpt>
      <trkpt lat="45.6488" lon="5.6111">
        <ele>213</ele>
        <time>2025-05-01T14:07:23.063+00:00</time>
      </trkpt>
      <trkpt lat="45.64885" lon="5.61111">
        <ele>213</ele>
        <time>2025-05-01T14:07:27.202+00:00</time>
      </trkpt>
      <trkpt lat="45.6489" lon="5.61112">
        <ele>213</ele>
        <time>2025-05-01T14:07:31.539+00:00</time>
      </trkpt>
      <trkpt lat="45.64895" lon="5.61111">
        <ele>213</ele>
        <time>2025-05-01T14:07:36.202+00:00</time>
      </trkpt>
      <trkpt lat="45.649" lon="5.61112">
        <ele>213</ele>
        <time>2025-05-01T14:07:40.878+00:00</time>
      </trkpt>
      <trkpt lat="45.64904" lon="5.61112">
        <ele>213</ele>
        <time>2025-05-01T14:07:45.187+00:00</time>
      </trkpt>
      <trkpt lat="45.64907" lon="5.61112">
        <ele>213</ele>
        <time>2025-05-01T14:07:49.210+00:00</time>
      </trkpt>
      <trkpt lat="45.64909" lon="5.61113">
        <ele>213</ele>
        <time>2025-05-01T14:07:53.221+00:00</time>
      </trkpt>
      <trkpt lat="45.64913" lon="5.61113">
        <ele>213</ele>
        <time>2025-05-01T14:07:57.249+00:00</time>
      </trkpt>
      <trkpt lat="45.64917" lon="5.61111">
        <ele>213</ele>
        <time>2025-05-01T14:08:01.799+00:00</time>
      </trkpt>
      <trkpt lat="45.64921" lon="5.61113">
        <ele>213</ele>
        <time>2025-05-01T14:08:06.115+00:00</time>
      </trkpt>
      <trkpt lat="45.64929" lon="5.61112">
        <ele>213</ele>
        <time>2025-05-01T14:08:10.333+00:00</time>
      </trkpt>
      <trkpt lat="45.64937" lon="5.61116">
        <ele>213</ele>
        <time>2025-05-01T14:08:15.236+00:00</time>
      </trkpt>
      <trkpt lat="45.64942" lon="5.61114">
        <ele>213</ele>
        <time>2025-05-01T14:08:20.217+00:00</time>
      </trkpt>
      <trkpt lat="45.6495" lon="5.61113">
        <ele>213</ele>
        <time>2025-05-01T14:08:24.230+00:00</time>
      </trkpt>
      <trkpt lat="45.64957" lon="5.61114">
        <ele>213</ele>
        <time>2025-05-01T14:08:28.694+00:00</time>
      </trkpt>
      <trkpt lat="45.64964" lon="5.61113">
        <ele>213</ele>
        <time>2025-05-01T14:08:33.190+00:00</time>
      </trkpt>
      <trkpt lat="45.64972" lon="5.61114">
        <ele>213</ele>
        <time>2025-05-01T14:08:37.179+00:00</time>
      </trkpt>
      <trkpt lat="45.6498" lon="5.61116">
        <ele>213</ele>
        <time>2025-05-01T14:08:41.650+00:00</time>
      </trkpt>
      <trkpt lat="45.64988" lon="5.61115">
        <ele>210</ele>
        <time>2025-05-01T14:08:46.059+00:00</time>
      </trkpt>
      <trkpt lat="45.64991" lon="5.61114">
        <ele>210</ele>
        <time>2025-05-01T14:08:50.209+00:00</time>
      </trkpt>
      <trkpt lat="45.64992" lon="5.61114">
        <ele>210</ele>
        <time>2025-05-01T14:08:54.214+00:00</time>
      </trkpt>
      <trkpt lat="45.64996" lon="5.61115">
        <ele>210</ele>
        <time>2025-05-01T14:08:58.209+00:00</time>
      </trkpt>
      <trkpt lat="45.65004" lon="5.61111">
        <ele>210</ele>
        <time>2025-05-01T14:09:02.921+00:00</time>
      </trkpt>
      <trkpt lat="45.65015" lon="5.61107">
        <ele>209</ele>
        <time>2025-05-01T14:09:16.212+00:00</time>
      </trkpt>
      <trkpt lat="45.65017" lon="5.61109">
        <ele>209</ele>
        <time>2025-05-01T14:09:21.395+00:00</time>
      </trkpt>
      <trkpt lat="45.65018" lon="5.61108">
        <ele>209</ele>
        <time>2025-05-01T14:09:26.229+00:00</time>
      </trkpt>
      <trkpt lat="45.65019" lon="5.61107">
        <ele>209</ele>
        <time>2025-05-01T14:09:30.268+00:00</time>
      </trkpt>
      <trkpt lat="45.65021" lon="5.61107">
        <ele>209</ele>
        <time>2025-05-01T14:09:34.795+00:00</time>
      </trkpt>
      <trkpt lat="45.65021" lon="5.61108">
        <ele>209</ele>
        <time>2025-05-01T14:09:39.206+00:00</time>
      </trkpt>
      <trkpt lat="45.65021" lon="5.61108">
        <ele>209</ele>
        <time>2025-05-01T14:09:46.211+00:00</time>
      </trkpt>
      <trkpt lat="45.65023" lon="5.61107">
        <ele>209</ele>
        <time>2025-05-01T14:09:51.207+00:00</time>
      </trkpt>
      <trkpt lat="45.6503" lon="5.61104">
        <ele>209</ele>
        <time>2025-05-01T14:09:56.221+00:00</time>
      </trkpt>
      <trkpt lat="45.65037" lon="5.611">
        <ele>209</ele>
        <time>2025-05-01T14:10:01.035+00:00</time>
      </trkpt>
      <trkpt lat="45.65041" lon="5.61095">
        <ele>211</ele>
        <time>2025-05-01T14:10:05.713+00:00</time>
      </trkpt>
      <trkpt lat="45.65045" lon="5.6109">
        <ele>211</ele>
        <time>2025-05-01T14:10:09.753+00:00</time>
      </trkpt>
      <trkpt lat="45.65049" lon="5.61088">
        <ele>211</ele>
        <time>2025-05-01T14:10:13.954+00:00</time>
      </trkpt>
      <trkpt lat="45.65053" lon="5.61082">
        <ele>211</ele>
        <time>2025-05-01T14:10:18.209+00:00</time>
      </trkpt>
      <trkpt lat="45.65058" lon="5.61076">
        <ele>211</ele>
        <time>2025-05-01T14:10:22.531+00:00</time>
      </trkpt>
      <trkpt lat="45.65063" lon="5.61072">
        <ele>211</ele>
        <time>2025-05-01T14:10:26.683+00:00</time>
      </trkpt>
      <trkpt lat="45.65068" lon="5.61069">
        <ele>213</ele>
        <time>2025-05-01T14:10:30.720+00:00</time>
      </trkpt>
      <trkpt lat="45.65073" lon="5.61067">
        <ele>211</ele>
        <time>2025-05-01T14:10:34.924+00:00</time>
      </trkpt>
      <trkpt lat="45.65078" lon="5.61063">
        <ele>211</ele>
        <time>2025-05-01T14:10:39.082+00:00</time>
      </trkpt>
      <trkpt lat="45.65084" lon="5.6106">
        <ele>211</ele>
        <time>2025-05-01T14:10:43.207+00:00</time>
      </trkpt>
      <trkpt lat="45.65089" lon="5.61058">
        <ele>211</ele>
        <time>2025-05-01T14:10:48.207+00:00</time>
      </trkpt>
      <trkpt lat="45.65094" lon="5.61054">
        <ele>211</ele>
        <time>2025-05-01T14:10:52.381+00:00</time>
      </trkpt>
      <trkpt lat="45.65101" lon="5.61047">
        <ele>210</ele>
        <time>2025-05-01T14:11:24.193+00:00</time>
      </trkpt>
      <trkpt lat="45.65101" lon="5.61046">
        <ele>210</ele>
        <time>2025-05-01T14:11:28.695+00:00</time>
      </trkpt>
      <trkpt lat="45.65107" lon="5.61041">
        <ele>212</ele>
        <time>2025-05-01T14:11:33.195+00:00</time>
      </trkpt>
      <trkpt lat="45.65115" lon="5.61039">
        <ele>212</ele>
        <time>2025-05-01T14:11:37.653+00:00</time>
      </trkpt>
      <trkpt lat="45.65118" lon="5.61038">
        <ele>212</ele>
        <time>2025-05-01T14:11:42.214+00:00</time>
      </trkpt>
      <trkpt lat="45.65118" lon="5.61038">
        <ele>212</ele>
        <time>2025-05-01T14:11:46.796+00:00</time>
      </trkpt>
      <trkpt lat="45.6512" lon="5.61037">
        <ele>212</ele>
        <time>2025-05-01T14:11:51.037+00:00</time>
      </trkpt>
      <trkpt lat="45.65126" lon="5.61032">
        <ele>212</ele>
        <time>2025-05-01T14:11:56.174+00:00</time>
      </trkpt>
      <trkpt lat="45.65133" lon="5.61026">
        <ele>212</ele>
        <time>2025-05-01T14:12:00.554+00:00</time>
      </trkpt>
      <trkpt lat="45.6514" lon="5.61023">
        <ele>212</ele>
        <time>2025-05-01T14:12:04.972+00:00</time>
      </trkpt>
      <trkpt lat="45.65146" lon="5.61025">
        <ele>212</ele>
        <time>2025-05-01T14:12:09.151+00:00</time>
      </trkpt>
      <trkpt lat="45.65152" lon="5.61031">
        <ele>212</ele>
        <time>2025-05-01T14:12:13.215+00:00</time>
      </trkpt>
      <trkpt lat="45.65154" lon="5.61033">
        <ele>214</ele>
        <time>2025-05-01T14:12:17.458+00:00</time>
      </trkpt>
      <trkpt lat="45.65158" lon="5.61038">
        <ele>214</ele>
        <time>2025-05-01T14:12:21.799+00:00</time>
      </trkpt>
      <trkpt lat="45.65159" lon="5.61046">
        <ele>214</ele>
        <time>2025-05-01T14:12:25.940+00:00</time>
      </trkpt>
      <trkpt lat="45.6516" lon="5.61054">
        <ele>214</ele>
        <time>2025-05-01T14:12:30.080+00:00</time>
      </trkpt>
      <trkpt lat="45.65161" lon="5.61063">
        <ele>214</ele>
        <time>2025-05-01T14:12:34.203+00:00</time>
      </trkpt>
      <trkpt lat="45.65164" lon="5.61073">
        <ele>212</ele>
        <time>2025-05-01T14:12:38.578+00:00</time>
      </trkpt>
      <trkpt lat="45.65167" lon="5.61083">
        <ele>212</ele>
        <time>2025-05-01T14:12:42.760+00:00</time>
      </trkpt>
      <trkpt lat="45.65169" lon="5.61091">
        <ele>212</ele>
        <time>2025-05-01T14:12:46.878+00:00</time>
      </trkpt>
      <trkpt lat="45.65171" lon="5.61099">
        <ele>211</ele>
        <time>2025-05-01T14:12:51.219+00:00</time>
      </trkpt>
      <trkpt lat="45.65174" lon="5.61105">
        <ele>211</ele>
        <time>2025-05-01T14:12:55.538+00:00</time>
      </trkpt>
      <trkpt lat="45.65177" lon="5.61109">
        <ele>211</ele>
        <time>2025-05-01T14:13:00.214+00:00</time>
      </trkpt>
      <trkpt lat="45.65179" lon="5.61115">
        <ele>211</ele>
        <time>2025-05-01T14:13:04.977+00:00</time>
      </trkpt>
      <trkpt lat="45.65182" lon="5.61124">
        <ele>214</ele>
        <time>2025-05-01T14:13:09.196+00:00</time>
      </trkpt>
      <trkpt lat="45.65186" lon="5.61131">
        <ele>212</ele>
        <time>2025-05-01T14:13:13.212+00:00</time>
      </trkpt>
      <trkpt lat="45.6519" lon="5.61137">
        <ele>212</ele>
        <time>2025-05-01T14:13:17.219+00:00</time>
      </trkpt>
      <trkpt lat="45.65193" lon="5.61145">
        <ele>212</ele>
        <time>2025-05-01T14:13:22.036+00:00</time>
      </trkpt>
      <trkpt lat="45.65196" lon="5.61151">
        <ele>212</ele>
        <time>2025-05-01T14:13:26.210+00:00</time>
      </trkpt>
      <trkpt lat="45.65199" lon="5.61157">
        <ele>210</ele>
        <time>2025-05-01T14:13:31.015+00:00</time>
      </trkpt>
      <trkpt lat="45.65203" lon="5.61164">
        <ele>210</ele>
        <time>2025-05-01T14:13:35.055+00:00</time>
      </trkpt>
      <trkpt lat="45.65204" lon="5.61175">
        <ele>210</ele>
        <time>2025-05-01T14:13:39.732+00:00</time>
      </trkpt>
      <trkpt lat="45.65205" lon="5.61178">
        <ele>210</ele>
        <time>2025-05-01T14:13:44.205+00:00</time>
      </trkpt>
      <trkpt lat="45.65205" lon="5.61178">
        <ele>210</ele>
        <time>2025-05-01T14:13:53.215+00:00</time>
      </trkpt>
      <trkpt lat="45.65206" lon="5.61178">
        <ele>210</ele>
        <time>2025-05-01T14:13:58.207+00:00</time>
      </trkpt>
      <trkpt lat="45.65206" lon="5.6118">
        <ele>210</ele>
        <time>2025-05-01T14:14:02.225+00:00</time>
      </trkpt>
      <trkpt lat="45.6521" lon="5.61188">
        <ele>210</ele>
        <time>2025-05-01T14:14:06.479+00:00</time>
      </trkpt>
      <trkpt lat="45.65215" lon="5.61194">
        <ele>210</ele>
        <time>2025-05-01T14:14:10.740+00:00</time>
      </trkpt>
      <trkpt lat="45.6522" lon="5.61198">
        <ele>210</ele>
        <time>2025-05-01T14:14:15+00:00</time>
      </trkpt>
      <trkpt lat="45.65223" lon="5.61205">
        <ele>210</ele>
        <time>2025-05-01T14:14:19.138+00:00</time>
      </trkpt>
      <trkpt lat="45.65228" lon="5.61211">
        <ele>210</ele>
        <time>2025-05-01T14:14:23.338+00:00</time>
      </trkpt>
      <trkpt lat="45.65232" lon="5.61218">
        <ele>210</ele>
        <time>2025-05-01T14:14:27.758+00:00</time>
      </trkpt>
      <trkpt lat="45.65236" lon="5.61222">
        <ele>210</ele>
        <time>2025-05-01T14:14:32.079+00:00</time>
      </trkpt>
      <trkpt lat="45.6524" lon="5.61226">
        <ele>211</ele>
        <time>2025-05-01T14:14:36.397+00:00</time>
      </trkpt>
      <trkpt lat="45.65244" lon="5.61232">
        <ele>211</ele>
        <time>2025-05-01T14:14:40.527+00:00</time>
      </trkpt>
      <trkpt lat="45.65248" lon="5.61236">
        <ele>211</ele>
        <time>2025-05-01T14:14:44.756+00:00</time>
      </trkpt>
      <trkpt lat="45.6525" lon="5.6124">
        <ele>212</ele>
        <time>2025-05-01T14:14:48.937+00:00</time>
      </trkpt>
      <trkpt lat="45.65252" lon="5.61245">
        <ele>212</ele>
        <time>2025-05-01T14:14:53.116+00:00</time>
      </trkpt>
      <trkpt lat="45.65253" lon="5.61248">
        <ele>212</ele>
        <time>2025-05-01T14:14:57.474+00:00</time>
      </trkpt>
      <trkpt lat="45.65253" lon="5.61252">
        <ele>212</ele>
        <time>2025-05-01T14:15:02.134+00:00</time>
      </trkpt>
      <trkpt lat="45.65255" lon="5.61258">
        <ele>212</ele>
        <time>2025-05-01T14:15:06.091+00:00</time>
      </trkpt>
      <trkpt lat="45.65259" lon="5.61265">
        <ele>212</ele>
        <time>2025-05-01T14:15:11.077+00:00</time>
      </trkpt>
      <trkpt lat="45.65267" lon="5.61275">
        <ele>211</ele>
        <time>2025-05-01T14:15:15.195+00:00</time>
      </trkpt>
      <trkpt lat="45.65277" lon="5.61281">
        <ele>211</ele>
        <time>2025-05-01T14:15:19.475+00:00</time>
      </trkpt>
      <trkpt lat="45.65285" lon="5.61291">
        <ele>211</ele>
        <time>2025-05-01T14:15:24.202+00:00</time>
      </trkpt>
      <trkpt lat="45.65291" lon="5.61298">
        <ele>212</ele>
        <time>2025-05-01T14:15:29.136+00:00</time>
      </trkpt>
      <trkpt lat="45.65295" lon="5.613">
        <ele>212</ele>
        <time>2025-05-01T14:15:33.220+00:00</time>
      </trkpt>
      <trkpt lat="45.653" lon="5.61303">
        <ele>212</ele>
        <time>2025-05-01T14:15:37.573+00:00</time>
      </trkpt>
      <trkpt lat="45.65306" lon="5.61307">
        <ele>212</ele>
        <time>2025-05-01T14:15:42.210+00:00</time>
      </trkpt>
      <trkpt lat="45.6531" lon="5.61309">
        <ele>212</ele>
        <time>2025-05-01T14:15:47.213+00:00</time>
      </trkpt>
      <trkpt lat="45.65315" lon="5.61313">
        <ele>212</ele>
        <time>2025-05-01T14:15:51.375+00:00</time>
      </trkpt>
      <trkpt lat="45.6532" lon="5.61316">
        <ele>212</ele>
        <time>2025-05-01T14:15:55.513+00:00</time>
      </trkpt>
      <trkpt lat="45.65326" lon="5.61319">
        <ele>212</ele>
        <time>2025-05-01T14:15:59.553+00:00</time>
      </trkpt>
      <trkpt lat="45.65332" lon="5.61322">
        <ele>211</ele>
        <time>2025-05-01T14:16:03.671+00:00</time>
      </trkpt>
      <trkpt lat="45.65337" lon="5.61325">
        <ele>211</ele>
        <time>2025-05-01T14:16:07.811+00:00</time>
      </trkpt>
      <trkpt lat="45.65342" lon="5.61329">
        <ele>211</ele>
        <time>2025-05-01T14:16:11.873+00:00</time>
      </trkpt>
      <trkpt lat="45.65344" lon="5.61331">
        <ele>211</ele>
        <time>2025-05-01T14:16:16.093+00:00</time>
      </trkpt>
      <trkpt lat="45.65346" lon="5.61333">
        <ele>211</ele>
        <time>2025-05-01T14:16:20.211+00:00</time>
      </trkpt>
      <trkpt lat="45.65349" lon="5.61335">
        <ele>211</ele>
        <time>2025-05-01T14:16:24.491+00:00</time>
      </trkpt>
      <trkpt lat="45.65352" lon="5.61336">
        <ele>211</ele>
        <time>2025-05-01T14:16:28.632+00:00</time>
      </trkpt>
      <trkpt lat="45.65357" lon="5.6134">
        <ele>211</ele>
        <time>2025-05-01T14:16:32.791+00:00</time>
      </trkpt>
      <trkpt lat="45.65365" lon="5.61346">
        <ele>211</ele>
        <time>2025-05-01T14:16:36.830+00:00</time>
      </trkpt>
      <trkpt lat="45.65377" lon="5.61352">
        <ele>211</ele>
        <time>2025-05-01T14:16:41.214+00:00</time>
      </trkpt>
      <trkpt lat="45.65384" lon="5.61356">
        <ele>211</ele>
        <time>2025-05-01T14:16:46.207+00:00</time>
      </trkpt>
      <trkpt lat="45.65386" lon="5.61359">
        <ele>211</ele>
        <time>2025-05-01T14:16:50.211+00:00</time>
      </trkpt>
      <trkpt lat="45.65389" lon="5.61362">
        <ele>211</ele>
        <time>2025-05-01T14:16:54.439+00:00</time>
      </trkpt>
      <trkpt lat="45.65394" lon="5.61365">
        <ele>211</ele>
        <time>2025-05-01T14:16:58.519+00:00</time>
      </trkpt>
      <trkpt lat="45.65396" lon="5.61367">
        <ele>211</ele>
        <time>2025-05-01T14:17:02.579+00:00</time>
      </trkpt>
      <trkpt lat="45.65399" lon="5.61369">
        <ele>211</ele>
        <time>2025-05-01T14:17:06.799+00:00</time>
      </trkpt>
      <trkpt lat="45.65402" lon="5.61372">
        <ele>211</ele>
        <time>2025-05-01T14:17:11.060+00:00</time>
      </trkpt>
      <trkpt lat="45.65404" lon="5.61375">
        <ele>212</ele>
        <time>2025-05-01T14:17:16.227+00:00</time>
      </trkpt>
      <trkpt lat="45.65409" lon="5.61379">
        <ele>211</ele>
        <time>2025-05-01T14:17:21.121+00:00</time>
      </trkpt>
      <trkpt lat="45.65414" lon="5.61382">
        <ele>211</ele>
        <time>2025-05-01T14:17:25.159+00:00</time>
      </trkpt>
      <trkpt lat="45.6542" lon="5.61385">
        <ele>211</ele>
        <time>2025-05-01T14:17:29.224+00:00</time>
      </trkpt>
      <trkpt lat="45.65428" lon="5.6139">
        <ele>211</ele>
        <time>2025-05-01T14:17:33.900+00:00</time>
      </trkpt>
      <trkpt lat="45.65435" lon="5.61394">
        <ele>210</ele>
        <time>2025-05-01T14:17:38.060+00:00</time>
      </trkpt>
      <trkpt lat="45.6544" lon="5.61397">
        <ele>210</ele>
        <time>2025-05-01T14:17:42.239+00:00</time>
      </trkpt>
      <trkpt lat="45.65447" lon="5.61399">
        <ele>210</ele>
        <time>2025-05-01T14:17:51.558+00:00</time>
      </trkpt>
      <trkpt lat="45.6545" lon="5.61399">
        <ele>210</ele>
        <time>2025-05-01T14:17:55.558+00:00</time>
      </trkpt>
      <trkpt lat="45.65451" lon="5.61399">
        <ele>210</ele>
        <time>2025-05-01T14:17:59.937+00:00</time>
      </trkpt>
      <trkpt lat="45.65452" lon="5.61399">
        <ele>210</ele>
        <time>2025-05-01T14:18:05.215+00:00</time>
      </trkpt>
      <trkpt lat="45.65461" lon="5.614">
        <ele>210</ele>
        <time>2025-05-01T14:18:09.211+00:00</time>
      </trkpt>
      <trkpt lat="45.65468" lon="5.61392">
        <ele>210</ele>
        <time>2025-05-01T14:18:13.398+00:00</time>
      </trkpt>
      <trkpt lat="45.65478" lon="5.61395">
        <ele>210</ele>
        <time>2025-05-01T14:18:17.576+00:00</time>
      </trkpt>
      <trkpt lat="45.65487" lon="5.61397">
        <ele>210</ele>
        <time>2025-05-01T14:18:22.156+00:00</time>
      </trkpt>
      <trkpt lat="45.65495" lon="5.61397">
        <ele>210</ele>
        <time>2025-05-01T14:18:26.317+00:00</time>
      </trkpt>
      <trkpt lat="45.65499" lon="5.61397">
        <ele>210</ele>
        <time>2025-05-01T14:18:30.456+00:00</time>
      </trkpt>
      <trkpt lat="45.65507" lon="5.61398">
        <ele>210</ele>
        <time>2025-05-01T14:18:34.556+00:00</time>
      </trkpt>
      <trkpt lat="45.65517" lon="5.61398">
        <ele>209</ele>
        <time>2025-05-01T14:18:38.715+00:00</time>
      </trkpt>
      <trkpt lat="45.65525" lon="5.61405">
        <ele>210</ele>
        <time>2025-05-01T14:18:42.755+00:00</time>
      </trkpt>
      <trkpt lat="45.6553" lon="5.61409">
        <ele>210</ele>
        <time>2025-05-01T14:18:46.777+00:00</time>
      </trkpt>
      <trkpt lat="45.65533" lon="5.61414">
        <ele>210</ele>
        <time>2025-05-01T14:18:50.837+00:00</time>
      </trkpt>
      <trkpt lat="45.65535" lon="5.61418">
        <ele>210</ele>
        <time>2025-05-01T14:18:55.212+00:00</time>
      </trkpt>
      <trkpt lat="45.65538" lon="5.61422">
        <ele>210</ele>
        <time>2025-05-01T14:18:59.895+00:00</time>
      </trkpt>
      <trkpt lat="45.65542" lon="5.61425">
        <ele>209</ele>
        <time>2025-05-01T14:19:04.212+00:00</time>
      </trkpt>
      <trkpt lat="45.65545" lon="5.61428">
        <ele>209</ele>
        <time>2025-05-01T14:19:08.956+00:00</time>
      </trkpt>
      <trkpt lat="45.65547" lon="5.61429">
        <ele>209</ele>
        <time>2025-05-01T14:19:13.012+00:00</time>
      </trkpt>
      <trkpt lat="45.65552" lon="5.6143">
        <ele>209</ele>
        <time>2025-05-01T14:19:17.205+00:00</time>
      </trkpt>
      <trkpt lat="45.65561" lon="5.61428">
        <ele>209</ele>
        <time>2025-05-01T14:19:21.247+00:00</time>
      </trkpt>
      <trkpt lat="45.65573" lon="5.61429">
        <ele>209</ele>
        <time>2025-05-01T14:19:26.155+00:00</time>
      </trkpt>
      <trkpt lat="45.65585" lon="5.61427">
        <ele>209</ele>
        <time>2025-05-01T14:19:31.032+00:00</time>
      </trkpt>
      <trkpt lat="45.65593" lon="5.61423">
        <ele>209</ele>
        <time>2025-05-01T14:19:35.214+00:00</time>
      </trkpt>
      <trkpt lat="45.656" lon="5.61418">
        <ele>209</ele>
        <time>2025-05-01T14:19:39.491+00:00</time>
      </trkpt>
      <trkpt lat="45.65606" lon="5.61413">
        <ele>209</ele>
        <time>2025-05-01T14:19:43.711+00:00</time>
      </trkpt>
      <trkpt lat="45.65609" lon="5.61411">
        <ele>209</ele>
        <time>2025-05-01T14:19:47.921+00:00</time>
      </trkpt>
      <trkpt lat="45.65614" lon="5.61407">
        <ele>209</ele>
        <time>2025-05-01T14:19:52.213+00:00</time>
      </trkpt>
      <trkpt lat="45.65619" lon="5.61403">
        <ele>209</ele>
        <time>2025-05-01T14:19:57.211+00:00</time>
      </trkpt>
      <trkpt lat="45.65625" lon="5.61401">
        <ele>209</ele>
        <time>2025-05-01T14:20:01.419+00:00</time>
      </trkpt>
      <trkpt lat="45.65631" lon="5.61398">
        <ele>209</ele>
        <time>2025-05-01T14:20:05.537+00:00</time>
      </trkpt>
      <trkpt lat="45.65635" lon="5.61397">
        <ele>209</ele>
        <time>2025-05-01T14:20:09.680+00:00</time>
      </trkpt>
      <trkpt lat="45.65639" lon="5.61396">
        <ele>209</ele>
        <time>2025-05-01T14:20:13.959+00:00</time>
      </trkpt>
      <trkpt lat="45.65642" lon="5.61396">
        <ele>209</ele>
        <time>2025-05-01T14:20:18.177+00:00</time>
      </trkpt>
      <trkpt lat="45.65643" lon="5.61395">
        <ele>209</ele>
        <time>2025-05-01T14:20:22.658+00:00</time>
      </trkpt>
      <trkpt lat="45.65645" lon="5.61394">
        <ele>209</ele>
        <time>2025-05-01T14:20:26.916+00:00</time>
      </trkpt>
      <trkpt lat="45.65649" lon="5.61392">
        <ele>209</ele>
        <time>2025-05-01T14:20:31.219+00:00</time>
      </trkpt>
      <trkpt lat="45.65653" lon="5.61392">
        <ele>209</ele>
        <time>2025-05-01T14:20:35.778+00:00</time>
      </trkpt>
      <trkpt lat="45.65656" lon="5.61394">
        <ele>209</ele>
        <time>2025-05-01T14:20:39.936+00:00</time>
      </trkpt>
      <trkpt lat="45.6566" lon="5.61394">
        <ele>209</ele>
        <time>2025-05-01T14:20:44.177+00:00</time>
      </trkpt>
      <trkpt lat="45.65666" lon="5.61395">
        <ele>209</ele>
        <time>2025-05-01T14:20:48.210+00:00</time>
      </trkpt>
      <trkpt lat="45.65676" lon="5.61395">
        <ele>209</ele>
        <time>2025-05-01T14:20:52.454+00:00</time>
      </trkpt>
      <trkpt lat="45.65685" lon="5.61392">
        <ele>210</ele>
        <time>2025-05-01T14:20:56.471+00:00</time>
      </trkpt>
      <trkpt lat="45.6569" lon="5.61389">
        <ele>210</ele>
        <time>2025-05-01T14:21:00.781+00:00</time>
      </trkpt>
      <trkpt lat="45.65695" lon="5.61385">
        <ele>210</ele>
        <time>2025-05-01T14:21:05.220+00:00</time>
      </trkpt>
      <trkpt lat="45.65702" lon="5.61379">
        <ele>210</ele>
        <time>2025-05-01T14:21:09.800+00:00</time>
      </trkpt>
      <trkpt lat="45.65709" lon="5.61371">
        <ele>211</ele>
        <time>2025-05-01T14:21:14.212+00:00</time>
      </trkpt>
      <trkpt lat="45.65713" lon="5.61366">
        <ele>211</ele>
        <time>2025-05-01T14:21:18.661+00:00</time>
      </trkpt>
      <trkpt lat="45.65718" lon="5.61363">
        <ele>211</ele>
        <time>2025-05-01T14:21:22.857+00:00</time>
      </trkpt>
      <trkpt lat="45.65723" lon="5.61357">
        <ele>211</ele>
        <time>2025-05-01T14:21:26.881+00:00</time>
      </trkpt>
      <trkpt lat="45.65725" lon="5.61345">
        <ele>209</ele>
        <time>2025-05-01T14:21:30.959+00:00</time>
      </trkpt>
      <trkpt lat="45.65723" lon="5.61334">
        <ele>209</ele>
        <time>2025-05-01T14:21:35.017+00:00</time>
      </trkpt>
      <trkpt lat="45.65721" lon="5.61324">
        <ele>209</ele>
        <time>2025-05-01T14:21:39.058+00:00</time>
      </trkpt>
      <trkpt lat="45.6572" lon="5.61311">
        <ele>209</ele>
        <time>2025-05-01T14:21:43.099+00:00</time>
      </trkpt>
      <trkpt lat="45.65719" lon="5.61301">
        <ele>209</ele>
        <time>2025-05-01T14:21:47.178+00:00</time>
      </trkpt>
      <trkpt lat="45.65715" lon="5.61293">
        <ele>209</ele>
        <time>2025-05-01T14:21:51.536+00:00</time>
      </trkpt>
      <trkpt lat="45.65712" lon="5.61285">
        <ele>210</ele>
        <time>2025-05-01T14:21:55.615+00:00</time>
      </trkpt>
      <trkpt lat="45.6571" lon="5.61277">
        <ele>210</ele>
        <time>2025-05-01T14:21:59.877+00:00</time>
      </trkpt>
      <trkpt lat="45.65708" lon="5.61269">
        <ele>209</ele>
        <time>2025-05-01T14:22:04.134+00:00</time>
      </trkpt>
      <trkpt lat="45.65709" lon="5.61259">
        <ele>211</ele>
        <time>2025-05-01T14:22:08.634+00:00</time>
      </trkpt>
      <trkpt lat="45.65713" lon="5.6125">
        <ele>211</ele>
        <time>2025-05-01T14:22:13.116+00:00</time>
      </trkpt>
      <trkpt lat="45.65721" lon="5.6123">
        <ele>211</ele>
        <time>2025-05-01T14:22:55.210+00:00</time>
      </trkpt>
      <trkpt lat="45.6572" lon="5.61225">
        <ele>211</ele>
        <time>2025-05-01T14:22:59.661+00:00</time>
      </trkpt>
      <trkpt lat="45.65715" lon="5.61217">
        <ele>211</ele>
        <time>2025-05-01T14:23:03.746+00:00</time>
      </trkpt>
      <trkpt lat="45.65709" lon="5.6121">
        <ele>211</ele>
        <time>2025-05-01T14:23:08.207+00:00</time>
      </trkpt>
      <trkpt lat="45.65704" lon="5.61203">
        <ele>210</ele>
        <time>2025-05-01T14:23:12.360+00:00</time>
      </trkpt>
      <trkpt lat="45.65699" lon="5.61195">
        <ele>210</ele>
        <time>2025-05-01T14:23:17.159+00:00</time>
      </trkpt>
      <trkpt lat="45.65696" lon="5.6119">
        <ele>210</ele>
        <time>2025-05-01T14:23:21.232+00:00</time>
      </trkpt>
      <trkpt lat="45.65695" lon="5.61183">
        <ele>210</ele>
        <time>2025-05-01T14:23:25.558+00:00</time>
      </trkpt>
      <trkpt lat="45.65699" lon="5.61173">
        <ele>209</ele>
        <time>2025-05-01T14:23:29.921+00:00</time>
      </trkpt>
      <trkpt lat="45.65704" lon="5.61165">
        <ele>209</ele>
        <time>2025-05-01T14:23:34.221+00:00</time>
      </trkpt>
      <trkpt lat="45.6571" lon="5.61162">
        <ele>210</ele>
        <time>2025-05-01T14:23:38.778+00:00</time>
      </trkpt>
      <trkpt lat="45.65716" lon="5.61157">
        <ele>210</ele>
        <time>2025-05-01T14:23:42.919+00:00</time>
      </trkpt>
      <trkpt lat="45.65722" lon="5.61153">
        <ele>210</ele>
        <time>2025-05-01T14:23:46.957+00:00</time>
      </trkpt>
      <trkpt lat="45.65728" lon="5.61147">
        <ele>210</ele>
        <time>2025-05-01T14:23:51.038+00:00</time>
      </trkpt>
      <trkpt lat="45.65734" lon="5.6114">
        <ele>210</ele>
        <time>2025-05-01T14:23:55.202+00:00</time>
      </trkpt>
      <trkpt lat="45.65741" lon="5.61133">
        <ele>213</ele>
        <time>2025-05-01T14:23:59.757+00:00</time>
      </trkpt>
      <trkpt lat="45.65746" lon="5.61129">
        <ele>213</ele>
        <time>2025-05-01T14:24:03.839+00:00</time>
      </trkpt>
      <trkpt lat="45.65751" lon="5.61124">
        <ele>211</ele>
        <time>2025-05-01T14:24:08.018+00:00</time>
      </trkpt>
      <trkpt lat="45.65757" lon="5.61119">
        <ele>211</ele>
        <time>2025-05-01T14:24:12.439+00:00</time>
      </trkpt>
      <trkpt lat="45.65762" lon="5.61114">
        <ele>211</ele>
        <time>2025-05-01T14:24:16.797+00:00</time>
      </trkpt>
      <trkpt lat="45.65766" lon="5.6111">
        <ele>212</ele>
        <time>2025-05-01T14:24:20.918+00:00</time>
      </trkpt>
      <trkpt lat="45.65772" lon="5.61106">
        <ele>212</ele>
        <time>2025-05-01T14:24:25.155+00:00</time>
      </trkpt>
      <trkpt lat="45.65778" lon="5.61101">
        <ele>212</ele>
        <time>2025-05-01T14:24:29.620+00:00</time>
      </trkpt>
      <trkpt lat="45.65785" lon="5.61096">
        <ele>211</ele>
        <time>2025-05-01T14:24:33.698+00:00</time>
      </trkpt>
      <trkpt lat="45.6579" lon="5.61091">
        <ele>211</ele>
        <time>2025-05-01T14:24:37.836+00:00</time>
      </trkpt>
      <trkpt lat="45.65795" lon="5.61087">
        <ele>211</ele>
        <time>2025-05-01T14:24:42.056+00:00</time>
      </trkpt>
      <trkpt lat="45.658" lon="5.61084">
        <ele>211</ele>
        <time>2025-05-01T14:24:46.213+00:00</time>
      </trkpt>
      <trkpt lat="45.65803" lon="5.61079">
        <ele>211</ele>
        <time>2025-05-01T14:24:51.215+00:00</time>
      </trkpt>
      <trkpt lat="45.65807" lon="5.61076">
        <ele>211</ele>
        <time>2025-05-01T14:24:56.153+00:00</time>
      </trkpt>
      <trkpt lat="45.6581" lon="5.61072">
        <ele>211</ele>
        <time>2025-05-01T14:25:00.214+00:00</time>
      </trkpt>
      <trkpt lat="45.65812" lon="5.61065">
        <ele>210</ele>
        <time>2025-05-01T14:25:04.172+00:00</time>
      </trkpt>
      <trkpt lat="45.65815" lon="5.61058">
        <ele>210</ele>
        <time>2025-05-01T14:25:08.763+00:00</time>
      </trkpt>
      <trkpt lat="45.6582" lon="5.61055">
        <ele>210</ele>
        <time>2025-05-01T14:25:12.780+00:00</time>
      </trkpt>
      <trkpt lat="45.65826" lon="5.61052">
        <ele>210</ele>
        <time>2025-05-01T14:25:17.216+00:00</time>
      </trkpt>
      <trkpt lat="45.65833" lon="5.61049">
        <ele>210</ele>
        <time>2025-05-01T14:25:21.497+00:00</time>
      </trkpt>
      <trkpt lat="45.65837" lon="5.61046">
        <ele>210</ele>
        <time>2025-05-01T14:25:25.979+00:00</time>
      </trkpt>
      <trkpt lat="45.6584" lon="5.61045">
        <ele>210</ele>
        <time>2025-05-01T14:25:30.230+00:00</time>
      </trkpt>
      <trkpt lat="45.65846" lon="5.61043">
        <ele>210</ele>
        <time>2025-05-01T14:25:34.466+00:00</time>
      </trkpt>
      <trkpt lat="45.65853" lon="5.61036">
        <ele>208</ele>
        <time>2025-05-01T14:25:38.937+00:00</time>
      </trkpt>
      <trkpt lat="45.65861" lon="5.61027">
        <ele>208</ele>
        <time>2025-05-01T14:25:43.226+00:00</time>
      </trkpt>
      <trkpt lat="45.65868" lon="5.61019">
        <ele>208</ele>
        <time>2025-05-01T14:25:47.655+00:00</time>
      </trkpt>
      <trkpt lat="45.65873" lon="5.61015">
        <ele>208</ele>
        <time>2025-05-01T14:25:51.896+00:00</time>
      </trkpt>
      <trkpt lat="45.65878" lon="5.6101">
        <ele>207</ele>
        <time>2025-05-01T14:25:56.035+00:00</time>
      </trkpt>
      <trkpt lat="45.65882" lon="5.61004">
        <ele>207</ele>
        <time>2025-05-01T14:26:00.131+00:00</time>
      </trkpt>
      <trkpt lat="45.65887" lon="5.61">
        <ele>207</ele>
        <time>2025-05-01T14:26:04.222+00:00</time>
      </trkpt>
      <trkpt lat="45.65892" lon="5.60996">
        <ele>207</ele>
        <time>2025-05-01T14:26:08.552+00:00</time>
      </trkpt>
      <trkpt lat="45.65897" lon="5.6099">
        <ele>207</ele>
        <time>2025-05-01T14:26:12.756+00:00</time>
      </trkpt>
      <trkpt lat="45.65903" lon="5.60982">
        <ele>207</ele>
        <time>2025-05-01T14:26:16.853+00:00</time>
      </trkpt>
      <trkpt lat="45.65907" lon="5.60976">
        <ele>207</ele>
        <time>2025-05-01T14:26:21.231+00:00</time>
      </trkpt>
      <trkpt lat="45.65911" lon="5.60971">
        <ele>207</ele>
        <time>2025-05-01T14:26:25.421+00:00</time>
      </trkpt>
      <trkpt lat="45.65916" lon="5.60967">
        <ele>207</ele>
        <time>2025-05-01T14:26:29.701+00:00</time>
      </trkpt>
      <trkpt lat="45.6592" lon="5.60963">
        <ele>207</ele>
        <time>2025-05-01T14:26:34.238+00:00</time>
      </trkpt>
      <trkpt lat="45.65925" lon="5.60961">
        <ele>207</ele>
        <time>2025-05-01T14:26:38.721+00:00</time>
      </trkpt>
      <trkpt lat="45.65929" lon="5.60958">
        <ele>208</ele>
        <time>2025-05-01T14:26:43.021+00:00</time>
      </trkpt>
      <trkpt lat="45.65933" lon="5.60955">
        <ele>209</ele>
        <time>2025-05-01T14:26:47.227+00:00</time>
      </trkpt>
      <trkpt lat="45.65938" lon="5.6095">
        <ele>209</ele>
        <time>2025-05-01T14:26:52.040+00:00</time>
      </trkpt>
      <trkpt lat="45.65941" lon="5.60944">
        <ele>209</ele>
        <time>2025-05-01T14:26:56.500+00:00</time>
      </trkpt>
      <trkpt lat="45.65944" lon="5.60936">
        <ele>209</ele>
        <time>2025-05-01T14:27:01.125+00:00</time>
      </trkpt>
      <trkpt lat="45.6595" lon="5.60929">
        <ele>209</ele>
        <time>2025-05-01T14:27:05.233+00:00</time>
      </trkpt>
      <trkpt lat="45.65956" lon="5.6092">
        <ele>209</ele>
        <time>2025-05-01T14:27:09.792+00:00</time>
      </trkpt>
      <trkpt lat="45.6596" lon="5.60915">
        <ele>210</ele>
        <time>2025-05-01T14:27:13.951+00:00</time>
      </trkpt>
      <trkpt lat="45.65964" lon="5.6091">
        <ele>210</ele>
        <time>2025-05-01T14:27:18.197+00:00</time>
      </trkpt>
      <trkpt lat="45.65969" lon="5.60906">
        <ele>210</ele>
        <time>2025-05-01T14:27:22.500+00:00</time>
      </trkpt>
      <trkpt lat="45.65975" lon="5.609">
        <ele>209</ele>
        <time>2025-05-01T14:27:26.700+00:00</time>
      </trkpt>
      <trkpt lat="45.65981" lon="5.60893">
        <ele>209</ele>
        <time>2025-05-01T14:27:30.900+00:00</time>
      </trkpt>
      <trkpt lat="45.65986" lon="5.6089">
        <ele>209</ele>
        <time>2025-05-01T14:27:35.140+00:00</time>
      </trkpt>
      <trkpt lat="45.65991" lon="5.60887">
        <ele>209</ele>
        <time>2025-05-01T14:27:39.242+00:00</time>
      </trkpt>
      <trkpt lat="45.65995" lon="5.60881">
        <ele>209</ele>
        <time>2025-05-01T14:27:44.178+00:00</time>
      </trkpt>
      <trkpt lat="45.65998" lon="5.60874">
        <ele>208</ele>
        <time>2025-05-01T14:27:48.542+00:00</time>
      </trkpt>
      <trkpt lat="45.66007" lon="5.60865">
        <ele>208</ele>
        <time>2025-05-01T14:28:01.232+00:00</time>
      </trkpt>
      <trkpt lat="45.66008" lon="5.60865">
        <ele>208</ele>
        <time>2025-05-01T14:28:06.255+00:00</time>
      </trkpt>
      <trkpt lat="45.66009" lon="5.60865">
        <ele>208</ele>
        <time>2025-05-01T14:28:12.233+00:00</time>
      </trkpt>
      <trkpt lat="45.6601" lon="5.60863">
        <ele>208</ele>
        <time>2025-05-01T14:28:16.737+00:00</time>
      </trkpt>
      <trkpt lat="45.66012" lon="5.60858">
        <ele>208</ele>
        <time>2025-05-01T14:28:20.857+00:00</time>
      </trkpt>
      <trkpt lat="45.66014" lon="5.60855">
        <ele>209</ele>
        <time>2025-05-01T14:28:25.115+00:00</time>
      </trkpt>
      <trkpt lat="45.6602" lon="5.60847">
        <ele>209</ele>
        <time>2025-05-01T14:28:29.188+00:00</time>
      </trkpt>
      <trkpt lat="45.66025" lon="5.6084">
        <ele>208</ele>
        <time>2025-05-01T14:28:33.195+00:00</time>
      </trkpt>
      <trkpt lat="45.66031" lon="5.60832">
        <ele>208</ele>
        <time>2025-05-01T14:28:37.572+00:00</time>
      </trkpt>
      <trkpt lat="45.66034" lon="5.60827">
        <ele>208</ele>
        <time>2025-05-01T14:28:41.672+00:00</time>
      </trkpt>
      <trkpt lat="45.6604" lon="5.60824">
        <ele>208</ele>
        <time>2025-05-01T14:28:45.812+00:00</time>
      </trkpt>
      <trkpt lat="45.6604" lon="5.60823">
        <ele>208</ele>
        <time>2025-05-01T14:28:50.732+00:00</time>
      </trkpt>
      <trkpt lat="45.6604" lon="5.60821">
        <ele>208</ele>
        <time>2025-05-01T14:28:54.783+00:00</time>
      </trkpt>
      <trkpt lat="45.66039" lon="5.60813">
        <ele>209</ele>
        <time>2025-05-01T14:28:59.179+00:00</time>
      </trkpt>
      <trkpt lat="45.66039" lon="5.60806">
        <ele>209</ele>
        <time>2025-05-01T14:29:03.500+00:00</time>
      </trkpt>
      <trkpt lat="45.66041" lon="5.60799">
        <ele>209</ele>
        <time>2025-05-01T14:29:07.740+00:00</time>
      </trkpt>
      <trkpt lat="45.66045" lon="5.60794">
        <ele>211</ele>
        <time>2025-05-01T14:29:12.136+00:00</time>
      </trkpt>
      <trkpt lat="45.66049" lon="5.60789">
        <ele>211</ele>
        <time>2025-05-01T14:29:16.459+00:00</time>
      </trkpt>
      <trkpt lat="45.66053" lon="5.60779">
        <ele>211</ele>
        <time>2025-05-01T14:29:20.499+00:00</time>
      </trkpt>
      <trkpt lat="45.66056" lon="5.60767">
        <ele>211</ele>
        <time>2025-05-01T14:29:25.224+00:00</time>
      </trkpt>
      <trkpt lat="45.6606" lon="5.60757">
        <ele>211</ele>
        <time>2025-05-01T14:29:30.220+00:00</time>
      </trkpt>
      <trkpt lat="45.66063" lon="5.60752">
        <ele>211</ele>
        <time>2025-05-01T14:29:34.400+00:00</time>
      </trkpt>
      <trkpt lat="45.66064" lon="5.60747">
        <ele>211</ele>
        <time>2025-05-01T14:29:38.559+00:00</time>
      </trkpt>
      <trkpt lat="45.66066" lon="5.60742">
        <ele>211</ele>
        <time>2025-05-01T14:29:42.758+00:00</time>
      </trkpt>
      <trkpt lat="45.6607" lon="5.60736">
        <ele>211</ele>
        <time>2025-05-01T14:29:47.244+00:00</time>
      </trkpt>
      <trkpt lat="45.66074" lon="5.60727">
        <ele>211</ele>
        <time>2025-05-01T14:29:52.222+00:00</time>
      </trkpt>
      <trkpt lat="45.66075" lon="5.60717">
        <ele>211</ele>
        <time>2025-05-01T14:29:56.398+00:00</time>
      </trkpt>
      <trkpt lat="45.66077" lon="5.60704">
        <ele>211</ele>
        <time>2025-05-01T14:30:01.101+00:00</time>
      </trkpt>
      <trkpt lat="45.66078" lon="5.60694">
        <ele>211</ele>
        <time>2025-05-01T14:30:05.579+00:00</time>
      </trkpt>
      <trkpt lat="45.6608" lon="5.60687">
        <ele>211</ele>
        <time>2025-05-01T14:30:10.234+00:00</time>
      </trkpt>
      <trkpt lat="45.66083" lon="5.60679">
        <ele>211</ele>
        <time>2025-05-01T14:30:14.252+00:00</time>
      </trkpt>
      <trkpt lat="45.66085" lon="5.6067">
        <ele>211</ele>
        <time>2025-05-01T14:30:18.417+00:00</time>
      </trkpt>
      <trkpt lat="45.66087" lon="5.60663">
        <ele>211</ele>
        <time>2025-05-01T14:30:23.197+00:00</time>
      </trkpt>
      <trkpt lat="45.6609" lon="5.60655">
        <ele>211</ele>
        <time>2025-05-01T14:30:27.229+00:00</time>
      </trkpt>
      <trkpt lat="45.66089" lon="5.60645">
        <ele>212</ele>
        <time>2025-05-01T14:30:31.835+00:00</time>
      </trkpt>
      <trkpt lat="45.66091" lon="5.60634">
        <ele>212</ele>
        <time>2025-05-01T14:30:35.957+00:00</time>
      </trkpt>
      <trkpt lat="45.66092" lon="5.60625">
        <ele>211</ele>
        <time>2025-05-01T14:30:40.232+00:00</time>
      </trkpt>
      <trkpt lat="45.66094" lon="5.60617">
        <ele>211</ele>
        <time>2025-05-01T14:30:44.514+00:00</time>
      </trkpt>
      <trkpt lat="45.66097" lon="5.6061">
        <ele>211</ele>
        <time>2025-05-01T14:30:48.796+00:00</time>
      </trkpt>
      <trkpt lat="45.661" lon="5.60602">
        <ele>211</ele>
        <time>2025-05-01T14:30:53.095+00:00</time>
      </trkpt>
      <trkpt lat="45.66101" lon="5.60594">
        <ele>209</ele>
        <time>2025-05-01T14:30:57.246+00:00</time>
      </trkpt>
      <trkpt lat="45.66103" lon="5.60585">
        <ele>209</ele>
        <time>2025-05-01T14:31:01.893+00:00</time>
      </trkpt>
      <trkpt lat="45.66105" lon="5.60578">
        <ele>209</ele>
        <time>2025-05-01T14:31:06.258+00:00</time>
      </trkpt>
      <trkpt lat="45.66109" lon="5.6057">
        <ele>209</ele>
        <time>2025-05-01T14:31:10.896+00:00</time>
      </trkpt>
      <trkpt lat="45.66111" lon="5.60561">
        <ele>208</ele>
        <time>2025-05-01T14:31:15.216+00:00</time>
      </trkpt>
      <trkpt lat="45.66112" lon="5.60555">
        <ele>208</ele>
        <time>2025-05-01T14:31:19.239+00:00</time>
      </trkpt>
      <trkpt lat="45.66111" lon="5.60553">
        <ele>208</ele>
        <time>2025-05-01T14:31:24.225+00:00</time>
      </trkpt>
      <trkpt lat="45.66111" lon="5.60553">
        <ele>208</ele>
        <time>2025-05-01T14:31:28.635+00:00</time>
      </trkpt>
      <trkpt lat="45.66113" lon="5.60546">
        <ele>208</ele>
        <time>2025-05-01T14:31:33.055+00:00</time>
      </trkpt>
      <trkpt lat="45.66114" lon="5.60537">
        <ele>208</ele>
        <time>2025-05-01T14:31:37.376+00:00</time>
      </trkpt>
      <trkpt lat="45.66112" lon="5.60524">
        <ele>208</ele>
        <time>2025-05-01T14:31:42.212+00:00</time>
      </trkpt>
      <trkpt lat="45.66112" lon="5.60514">
        <ele>208</ele>
        <time>2025-05-01T14:31:46.213+00:00</time>
      </trkpt>
      <trkpt lat="45.66118" lon="5.60506">
        <ele>208</ele>
        <time>2025-05-01T14:31:50.636+00:00</time>
      </trkpt>
      <trkpt lat="45.66122" lon="5.60499">
        <ele>208</ele>
        <time>2025-05-01T14:31:54.937+00:00</time>
      </trkpt>
      <trkpt lat="45.66126" lon="5.60492">
        <ele>210</ele>
        <time>2025-05-01T14:31:59.214+00:00</time>
      </trkpt>
      <trkpt lat="45.6613" lon="5.60484">
        <ele>209</ele>
        <time>2025-05-01T14:32:03.633+00:00</time>
      </trkpt>
      <trkpt lat="45.66133" lon="5.60476">
        <ele>209</ele>
        <time>2025-05-01T14:32:07.754+00:00</time>
      </trkpt>
      <trkpt lat="45.66135" lon="5.60468">
        <ele>209</ele>
        <time>2025-05-01T14:32:11.974+00:00</time>
      </trkpt>
      <trkpt lat="45.66136" lon="5.60461">
        <ele>209</ele>
        <time>2025-05-01T14:32:16.175+00:00</time>
      </trkpt>
      <trkpt lat="45.66136" lon="5.60455">
        <ele>207</ele>
        <time>2025-05-01T14:32:20.474+00:00</time>
      </trkpt>
      <trkpt lat="45.66133" lon="5.60446">
        <ele>207</ele>
        <time>2025-05-01T14:32:24.715+00:00</time>
      </trkpt>
      <trkpt lat="45.66132" lon="5.6044">
        <ele>207</ele>
        <time>2025-05-01T14:32:28.956+00:00</time>
      </trkpt>
      <trkpt lat="45.6613" lon="5.60432">
        <ele>207</ele>
        <time>2025-05-01T14:32:34.230+00:00</time>
      </trkpt>
      <trkpt lat="45.6613" lon="5.6043">
        <ele>207</ele>
        <time>2025-05-01T14:32:39.238+00:00</time>
      </trkpt>
      <trkpt lat="45.6613" lon="5.60429">
        <ele>207</ele>
        <time>2025-05-01T14:32:44.228+00:00</time>
      </trkpt>
      <trkpt lat="45.6613" lon="5.60429">
        <ele>207</ele>
        <time>2025-05-01T14:32:48.554+00:00</time>
      </trkpt>
      <trkpt lat="45.66126" lon="5.60419">
        <ele>207</ele>
        <time>2025-05-01T14:32:52.883+00:00</time>
      </trkpt>
      <trkpt lat="45.66123" lon="5.60411">
        <ele>206</ele>
        <time>2025-05-01T14:32:57.103+00:00</time>
      </trkpt>
      <trkpt lat="45.66121" lon="5.60406">
        <ele>206</ele>
        <time>2025-05-01T14:33:01.231+00:00</time>
      </trkpt>
      <trkpt lat="45.66118" lon="5.604">
        <ele>207</ele>
        <time>2025-05-01T14:33:05.249+00:00</time>
      </trkpt>
      <trkpt lat="45.66117" lon="5.60389">
        <ele>207</ele>
        <time>2025-05-01T14:33:10.041+00:00</time>
      </trkpt>
      <trkpt lat="45.66116" lon="5.60381">
        <ele>207</ele>
        <time>2025-05-01T14:33:14.422+00:00</time>
      </trkpt>
      <trkpt lat="45.66116" lon="5.60371">
        <ele>207</ele>
        <time>2025-05-01T14:33:19.181+00:00</time>
      </trkpt>
      <trkpt lat="45.66117" lon="5.60361">
        <ele>207</ele>
        <time>2025-05-01T14:33:23.483+00:00</time>
      </trkpt>
      <trkpt lat="45.66117" lon="5.60353">
        <ele>207</ele>
        <time>2025-05-01T14:33:28.040+00:00</time>
      </trkpt>
      <trkpt lat="45.66117" lon="5.60344">
        <ele>207</ele>
        <time>2025-05-01T14:33:32.244+00:00</time>
      </trkpt>
      <trkpt lat="45.66116" lon="5.60336">
        <ele>207</ele>
        <time>2025-05-01T14:33:36.419+00:00</time>
      </trkpt>
      <trkpt lat="45.66115" lon="5.60328">
        <ele>207</ele>
        <time>2025-05-01T14:33:40.616+00:00</time>
      </trkpt>
      <trkpt lat="45.66115" lon="5.6032">
        <ele>207</ele>
        <time>2025-05-01T14:33:44.735+00:00</time>
      </trkpt>
      <trkpt lat="45.66114" lon="5.60312">
        <ele>206</ele>
        <time>2025-05-01T14:33:48.851+00:00</time>
      </trkpt>
      <trkpt lat="45.66115" lon="5.60304">
        <ele>206</ele>
        <time>2025-05-01T14:33:53.200+00:00</time>
      </trkpt>
      <trkpt lat="45.66117" lon="5.60295">
        <ele>206</ele>
        <time>2025-05-01T14:33:57.559+00:00</time>
      </trkpt>
      <trkpt lat="45.66119" lon="5.60287">
        <ele>207</ele>
        <time>2025-05-01T14:34:01.800+00:00</time>
      </trkpt>
      <trkpt lat="45.6612" lon="5.60279">
        <ele>207</ele>
        <time>2025-05-01T14:34:06.235+00:00</time>
      </trkpt>
      <trkpt lat="45.66121" lon="5.6027">
        <ele>207</ele>
        <time>2025-05-01T14:34:10.720+00:00</time>
      </trkpt>
      <trkpt lat="45.66122" lon="5.60261">
        <ele>207</ele>
        <time>2025-05-01T14:34:15.218+00:00</time>
      </trkpt>
      <trkpt lat="45.66123" lon="5.60254">
        <ele>207</ele>
        <time>2025-05-01T14:34:19.677+00:00</time>
      </trkpt>
      <trkpt lat="45.66126" lon="5.60248">
        <ele>208</ele>
        <time>2025-05-01T14:34:23.779+00:00</time>
      </trkpt>
      <trkpt lat="45.66125" lon="5.60242">
        <ele>208</ele>
        <time>2025-05-01T14:34:28.117+00:00</time>
      </trkpt>
      <trkpt lat="45.66124" lon="5.60235">
        <ele>208</ele>
        <time>2025-05-01T14:34:32.242+00:00</time>
      </trkpt>
      <trkpt lat="45.66123" lon="5.60226">
        <ele>208</ele>
        <time>2025-05-01T14:34:36.493+00:00</time>
      </trkpt>
      <trkpt lat="45.66124" lon="5.60217">
        <ele>208</ele>
        <time>2025-05-01T14:34:40.555+00:00</time>
      </trkpt>
      <trkpt lat="45.66127" lon="5.60209">
        <ele>210</ele>
        <time>2025-05-01T14:34:44.655+00:00</time>
      </trkpt>
      <trkpt lat="45.66129" lon="5.60201">
        <ele>209</ele>
        <time>2025-05-01T14:34:48.716+00:00</time>
      </trkpt>
      <trkpt lat="45.66131" lon="5.60192">
        <ele>209</ele>
        <time>2025-05-01T14:34:53.238+00:00</time>
      </trkpt>
      <trkpt lat="45.66132" lon="5.60184">
        <ele>209</ele>
        <time>2025-05-01T14:34:57.486+00:00</time>
      </trkpt>
      <trkpt lat="45.66133" lon="5.60177">
        <ele>208</ele>
        <time>2025-05-01T14:35:01.571+00:00</time>
      </trkpt>
      <trkpt lat="45.66134" lon="5.60167">
        <ele>208</ele>
        <time>2025-05-01T14:35:06.228+00:00</time>
      </trkpt>
      <trkpt lat="45.66134" lon="5.60159">
        <ele>208</ele>
        <time>2025-05-01T14:35:10.483+00:00</time>
      </trkpt>
      <trkpt lat="45.66134" lon="5.60149">
        <ele>207</ele>
        <time>2025-05-01T14:35:15.220+00:00</time>
      </trkpt>
      <trkpt lat="45.66134" lon="5.60141">
        <ele>207</ele>
        <time>2025-05-01T14:35:19.384+00:00</time>
      </trkpt>
      <trkpt lat="45.66136" lon="5.60136">
        <ele>207</ele>
        <time>2025-05-01T14:35:23.920+00:00</time>
      </trkpt>
      <trkpt lat="45.66139" lon="5.60133">
        <ele>207</ele>
        <time>2025-05-01T14:35:28.225+00:00</time>
      </trkpt>
      <trkpt lat="45.66137" lon="5.60127">
        <ele>207</ele>
        <time>2025-05-01T14:40:44.185+00:00</time>
      </trkpt>
      <trkpt lat="45.66137" lon="5.60126">
        <ele>207</ele>
        <time>2025-05-01T14:40:49.193+00:00</time>
      </trkpt>
      <trkpt lat="45.66136" lon="5.60125">
        <ele>207</ele>
        <time>2025-05-01T14:40:54.177+00:00</time>
      </trkpt>
      <trkpt lat="45.66136" lon="5.60124">
        <ele>206</ele>
        <time>2025-05-01T14:40:58.182+00:00</time>
      </trkpt>
      <trkpt lat="45.66137" lon="5.60114">
        <ele>206</ele>
        <time>2025-05-01T14:41:02.230+00:00</time>
      </trkpt>
      <trkpt lat="45.66138" lon="5.60098">
        <ele>206</ele>
        <time>2025-05-01T14:41:07.234+00:00</time>
      </trkpt>
      <trkpt lat="45.66139" lon="5.60088">
        <ele>207</ele>
        <time>2025-05-01T14:41:11.252+00:00</time>
      </trkpt>
      <trkpt lat="45.66142" lon="5.60081">
        <ele>207</ele>
        <time>2025-05-01T14:41:16.221+00:00</time>
      </trkpt>
      <trkpt lat="45.66143" lon="5.60074">
        <ele>207</ele>
        <time>2025-05-01T14:41:20.231+00:00</time>
      </trkpt>
      <trkpt lat="45.66145" lon="5.60068">
        <ele>207</ele>
        <time>2025-05-01T14:41:24.246+00:00</time>
      </trkpt>
      <trkpt lat="45.66149" lon="5.60066">
        <ele>207</ele>
        <time>2025-05-01T14:41:29.234+00:00</time>
      </trkpt>
      <trkpt lat="45.66149" lon="5.60065">
        <ele>207</ele>
        <time>2025-05-01T14:41:33.271+00:00</time>
      </trkpt>
      <trkpt lat="45.66146" lon="5.60053">
        <ele>207</ele>
        <time>2025-05-01T14:41:38.212+00:00</time>
      </trkpt>
      <trkpt lat="45.66143" lon="5.60044">
        <ele>207</ele>
        <time>2025-05-01T14:41:42.514+00:00</time>
      </trkpt>
      <trkpt lat="45.66143" lon="5.60035">
        <ele>206</ele>
        <time>2025-05-01T14:41:47.232+00:00</time>
      </trkpt>
      <trkpt lat="45.66143" lon="5.60034">
        <ele>206</ele>
        <time>2025-05-01T14:41:51.757+00:00</time>
      </trkpt>
      <trkpt lat="45.66141" lon="5.60031">
        <ele>206</ele>
        <time>2025-05-01T14:41:56.052+00:00</time>
      </trkpt>
      <trkpt lat="45.66137" lon="5.60031">
        <ele>206</ele>
        <time>2025-05-01T14:42:00.318+00:00</time>
      </trkpt>
      <trkpt lat="45.66132" lon="5.6003">
        <ele>206</ele>
        <time>2025-05-01T14:42:04.691+00:00</time>
      </trkpt>
      <trkpt lat="45.66127" lon="5.60027">
        <ele>206</ele>
        <time>2025-05-01T14:42:08.711+00:00</time>
      </trkpt>
      <trkpt lat="45.66124" lon="5.60024">
        <ele>206</ele>
        <time>2025-05-01T14:42:12.811+00:00</time>
      </trkpt>
      <trkpt lat="45.66121" lon="5.6002">
        <ele>206</ele>
        <time>2025-05-01T14:42:17.239+00:00</time>
      </trkpt>
      <trkpt lat="45.66121" lon="5.60019">
        <ele>206</ele>
        <time>2025-05-01T14:42:21.364+00:00</time>
      </trkpt>
      <trkpt lat="45.66117" lon="5.60019">
        <ele>206</ele>
        <time>2025-05-01T14:42:25.882+00:00</time>
      </trkpt>
      <trkpt lat="45.6611" lon="5.60018">
        <ele>206</ele>
        <time>2025-05-01T14:42:30.320+00:00</time>
      </trkpt>
      <trkpt lat="45.66104" lon="5.60017">
        <ele>206</ele>
        <time>2025-05-01T14:42:34.861+00:00</time>
      </trkpt>
      <trkpt lat="45.66102" lon="5.60015">
        <ele>206</ele>
        <time>2025-05-01T14:42:39.420+00:00</time>
      </trkpt>
      <trkpt lat="45.66098" lon="5.60015">
        <ele>206</ele>
        <time>2025-05-01T14:42:43.441+00:00</time>
      </trkpt>
      <trkpt lat="45.66092" lon="5.60015">
        <ele>206</ele>
        <time>2025-05-01T14:42:47.697+00:00</time>
      </trkpt>
      <trkpt lat="45.66085" lon="5.60013">
        <ele>206</ele>
        <time>2025-05-01T14:42:51.860+00:00</time>
      </trkpt>
      <trkpt lat="45.6608" lon="5.60009">
        <ele>206</ele>
        <time>2025-05-01T14:42:55.996+00:00</time>
      </trkpt>
      <trkpt lat="45.66074" lon="5.60008">
        <ele>206</ele>
        <time>2025-05-01T14:43:00.122+00:00</time>
      </trkpt>
      <trkpt lat="45.66068" lon="5.60004">
        <ele>207</ele>
        <time>2025-05-01T14:43:04.176+00:00</time>
      </trkpt>
      <trkpt lat="45.66063" lon="5.6">
        <ele>207</ele>
        <time>2025-05-01T14:43:08.227+00:00</time>
      </trkpt>
      <trkpt lat="45.66058" lon="5.59998">
        <ele>207</ele>
        <time>2025-05-01T14:43:12.517+00:00</time>
      </trkpt>
      <trkpt lat="45.66052" lon="5.59996">
        <ele>207</ele>
        <time>2025-05-01T14:43:17.052+00:00</time>
      </trkpt>
      <trkpt lat="45.66046" lon="5.59993">
        <ele>207</ele>
        <time>2025-05-01T14:43:21.093+00:00</time>
      </trkpt>
      <trkpt lat="45.66039" lon="5.59983">
        <ele>207</ele>
        <time>2025-05-01T14:43:34.780+00:00</time>
      </trkpt>
      <trkpt lat="45.66033" lon="5.59982">
        <ele>207</ele>
        <time>2025-05-01T14:43:39.216+00:00</time>
      </trkpt>
      <trkpt lat="45.66026" lon="5.59982">
        <ele>207</ele>
        <time>2025-05-01T14:43:43.239+00:00</time>
      </trkpt>
      <trkpt lat="45.66018" lon="5.59979">
        <ele>207</ele>
        <time>2025-05-01T14:43:48.222+00:00</time>
      </trkpt>
      <trkpt lat="45.66011" lon="5.59975">
        <ele>207</ele>
        <time>2025-05-01T14:43:52.877+00:00</time>
      </trkpt>
      <trkpt lat="45.66006" lon="5.59972">
        <ele>207</ele>
        <time>2025-05-01T14:43:57.095+00:00</time>
      </trkpt>
      <trkpt lat="45.66001" lon="5.5997">
        <ele>207</ele>
        <time>2025-05-01T14:44:01.216+00:00</time>
      </trkpt>
      <trkpt lat="45.65995" lon="5.59968">
        <ele>207</ele>
        <time>2025-05-01T14:44:05.234+00:00</time>
      </trkpt>
      <trkpt lat="45.65989" lon="5.59971">
        <ele>207</ele>
        <time>2025-05-01T14:44:10.242+00:00</time>
      </trkpt>
      <trkpt lat="45.65985" lon="5.59977">
        <ele>207</ele>
        <time>2025-05-01T14:44:14.377+00:00</time>
      </trkpt>
      <trkpt lat="45.65983" lon="5.59986">
        <ele>207</ele>
        <time>2025-05-01T14:44:19.224+00:00</time>
      </trkpt>
      <trkpt lat="45.65985" lon="5.59995">
        <ele>208</ele>
        <time>2025-05-01T14:44:23.290+00:00</time>
      </trkpt>
      <trkpt lat="45.65985" lon="5.60003">
        <ele>208</ele>
        <time>2025-05-01T14:44:27.693+00:00</time>
      </trkpt>
      <trkpt lat="45.65986" lon="5.6001">
        <ele>208</ele>
        <time>2025-05-01T14:44:31.813+00:00</time>
      </trkpt>
      <trkpt lat="45.65988" lon="5.60017">
        <ele>208</ele>
        <time>2025-05-01T14:44:36.113+00:00</time>
      </trkpt>
      <trkpt lat="45.65989" lon="5.60024">
        <ele>208</ele>
        <time>2025-05-01T14:44:40.353+00:00</time>
      </trkpt>
      <trkpt lat="45.65989" lon="5.60027">
        <ele>208</ele>
        <time>2025-05-01T14:44:42.432+00:00</time>
      </trkpt>
    </trkseg>
  </trk>
</gpx>